<?xml version="1.0" encoding="utf-8" standalone="yes"?>
<gpx version="1.1" creator="Locus Map, Android"
 xmlns="http://www.topografix.com/GPX/1/1"
 xmlns:xsi="http://www.w3.org/2001/XMLSchema-instance"
 xsi:schemaLocation="http://www.topografix.com/GPX/1/1 http://www.topografix.com/GPX/1/1/gpx.xsd"
 xmlns:gpxx="http://www.garmin.com/xmlschemas/GpxExtensions/v3"
 xmlns:gpxtrkx="http://www.garmin.com/xmlschemas/TrackStatsExtension/v1"
 xmlns:gpxtpx="http://www.garmin.com/xmlschemas/TrackPointExtension/v2"
 xmlns:locus="http://www.locusmap.eu">
	<metadata>
		<desc>File with points/tracks from Locus Map Classic/3.65.2</desc>
		<time>2023-03-09T20:28:30.290Z</time>
	</metadata>
<trk>
<name>Anello Delle Orobie Laghi Gemelli - Fratelli Calvi</name>
	<extensions>
		<line xmlns="http://www.topografix.com/GPX/gpx_style/0/2">
			<color>0000FF</color>
			<opacity>0.59</opacity>
			<width>6.0</width>
			<extensions>
				<locus:lsColorBase>#960000FF</locus:lsColorBase>
				<locus:lsWidth>6.0</locus:lsWidth>
				<locus:lsUnits>PIXELS</locus:lsUnits>
			</extensions>
		</line>
		<locus:rteComputeType>100</locus:rteComputeType>
	</extensions>
<trkseg>
<trkpt lat="45.993035" lon="9.806785">
	<ele>1936.20</ele>
	<time>2022-06-28T05:37:51.000Z</time>
</trkpt>
<trkpt lat="45.992973" lon="9.806851">
	<ele>1936.00</ele>
	<time>2022-06-28T05:37:54.000Z</time>
</trkpt>
<trkpt lat="45.992950" lon="9.806948">
	<ele>1936.20</ele>
	<time>2022-06-28T05:38:01.000Z</time>
</trkpt>
<trkpt lat="45.992948" lon="9.806954">
	<ele>1936.40</ele>
	<time>2022-06-28T05:38:02.000Z</time>
</trkpt>
<trkpt lat="45.992968" lon="9.806991">
	<ele>1936.40</ele>
	<time>2022-06-28T05:38:08.000Z</time>
</trkpt>
<trkpt lat="45.993023" lon="9.807056">
	<ele>1936.40</ele>
	<time>2022-06-28T05:38:15.000Z</time>
</trkpt>
<trkpt lat="45.993104" lon="9.807005">
	<ele>1936.40</ele>
	<time>2022-06-28T05:38:22.000Z</time>
</trkpt>
<trkpt lat="45.993208" lon="9.806928">
	<ele>1934.60</ele>
	<time>2022-06-28T05:38:29.000Z</time>
</trkpt>
<trkpt lat="45.993230" lon="9.806922">
	<ele>1933.00</ele>
	<time>2022-06-28T05:38:31.000Z</time>
</trkpt>
<trkpt lat="45.993276" lon="9.806902">
	<ele>1931.80</ele>
	<time>2022-06-28T05:38:34.000Z</time>
</trkpt>
<trkpt lat="45.993347" lon="9.806869">
	<ele>1930.60</ele>
	<time>2022-06-28T05:38:40.000Z</time>
</trkpt>
<trkpt lat="45.993445" lon="9.806813">
	<ele>1929.60</ele>
	<time>2022-06-28T05:38:49.000Z</time>
</trkpt>
<trkpt lat="45.993452" lon="9.806802">
	<ele>1929.60</ele>
	<time>2022-06-28T05:38:50.000Z</time>
</trkpt>
<trkpt lat="45.993468" lon="9.806786">
	<ele>1929.60</ele>
	<time>2022-06-28T05:38:52.000Z</time>
</trkpt>
<trkpt lat="45.993502" lon="9.806624">
	<ele>1929.00</ele>
	<time>2022-06-28T05:39:02.000Z</time>
</trkpt>
<trkpt lat="45.993482" lon="9.806544">
	<ele>1928.80</ele>
	<time>2022-06-28T05:39:04.000Z</time>
</trkpt>
<trkpt lat="45.993486" lon="9.806455">
	<ele>1928.60</ele>
	<time>2022-06-28T05:39:07.000Z</time>
</trkpt>
<trkpt lat="45.993536" lon="9.806364">
	<ele>1928.00</ele>
	<time>2022-06-28T05:39:14.000Z</time>
</trkpt>
<trkpt lat="45.993623" lon="9.806124">
	<ele>1927.60</ele>
	<time>2022-06-28T05:39:23.000Z</time>
</trkpt>
<trkpt lat="45.993715" lon="9.806027">
	<ele>1927.40</ele>
	<time>2022-06-28T05:39:32.000Z</time>
</trkpt>
<trkpt lat="45.993726" lon="9.806012">
	<ele>1927.20</ele>
	<time>2022-06-28T05:39:33.000Z</time>
</trkpt>
<trkpt lat="45.993746" lon="9.805980">
	<ele>1927.00</ele>
	<time>2022-06-28T05:39:35.000Z</time>
</trkpt>
<trkpt lat="45.993783" lon="9.805534">
	<ele>1926.80</ele>
	<time>2022-06-28T05:39:38.000Z</time>
</trkpt>
<trkpt lat="45.993851" lon="9.805244">
	<ele>1926.60</ele>
	<time>2022-06-28T05:39:41.000Z</time>
</trkpt>
<trkpt lat="45.993864" lon="9.805196">
	<ele>1926.40</ele>
	<time>2022-06-28T05:39:43.000Z</time>
</trkpt>
<trkpt lat="45.993912" lon="9.805088">
	<ele>1925.80</ele>
	<time>2022-06-28T05:39:50.000Z</time>
</trkpt>
<trkpt lat="45.993924" lon="9.805065">
	<ele>1925.40</ele>
	<time>2022-06-28T05:39:52.000Z</time>
</trkpt>
<trkpt lat="45.994001" lon="9.804860">
	<ele>1924.40</ele>
	<time>2022-06-28T05:39:57.000Z</time>
</trkpt>
<trkpt lat="45.994026" lon="9.804800">
	<ele>1923.80</ele>
	<time>2022-06-28T05:39:59.000Z</time>
</trkpt>
<trkpt lat="45.994034" lon="9.804745">
	<ele>1923.20</ele>
	<time>2022-06-28T05:40:02.000Z</time>
</trkpt>
<trkpt lat="45.994092" lon="9.804644">
	<ele>1922.20</ele>
	<time>2022-06-28T05:40:08.000Z</time>
</trkpt>
<trkpt lat="45.994099" lon="9.804625">
	<ele>1922.00</ele>
	<time>2022-06-28T05:40:09.000Z</time>
</trkpt>
<trkpt lat="45.994142" lon="9.804473">
	<ele>1921.60</ele>
	<time>2022-06-28T05:40:15.000Z</time>
</trkpt>
<trkpt lat="45.994182" lon="9.804420">
	<ele>1921.20</ele>
	<time>2022-06-28T05:40:19.000Z</time>
</trkpt>
<trkpt lat="45.994194" lon="9.804403">
	<ele>1921.00</ele>
	<time>2022-06-28T05:40:20.000Z</time>
</trkpt>
<trkpt lat="45.994276" lon="9.804331">
	<ele>1920.00</ele>
	<time>2022-06-28T05:40:26.000Z</time>
</trkpt>
<trkpt lat="45.994290" lon="9.804307">
	<ele>1919.40</ele>
	<time>2022-06-28T05:40:29.000Z</time>
</trkpt>
<trkpt lat="45.994292" lon="9.804289">
	<ele>1918.80</ele>
	<time>2022-06-28T05:40:31.000Z</time>
</trkpt>
<trkpt lat="45.994329" lon="9.804241">
	<ele>1917.60</ele>
	<time>2022-06-28T05:40:37.000Z</time>
</trkpt>
<trkpt lat="45.994331" lon="9.804235">
	<ele>1917.40</ele>
	<time>2022-06-28T05:40:38.000Z</time>
</trkpt>
<trkpt lat="45.994333" lon="9.804229">
	<ele>1917.20</ele>
	<time>2022-06-28T05:40:39.000Z</time>
</trkpt>
<trkpt lat="45.994353" lon="9.804193">
	<ele>1916.60</ele>
	<time>2022-06-28T05:40:43.000Z</time>
</trkpt>
<trkpt lat="45.994369" lon="9.804176">
	<ele>1916.00</ele>
	<time>2022-06-28T05:40:45.000Z</time>
</trkpt>
<trkpt lat="45.994377" lon="9.804167">
	<ele>1915.60</ele>
	<time>2022-06-28T05:40:47.000Z</time>
</trkpt>
<trkpt lat="45.994379" lon="9.804164">
	<ele>1915.40</ele>
	<time>2022-06-28T05:40:48.000Z</time>
</trkpt>
<trkpt lat="45.994387" lon="9.804172">
	<ele>1915.00</ele>
	<time>2022-06-28T05:40:50.000Z</time>
</trkpt>
<trkpt lat="45.994403" lon="9.804183">
	<ele>1914.40</ele>
	<time>2022-06-28T05:40:53.000Z</time>
</trkpt>
<trkpt lat="45.994415" lon="9.804183">
	<ele>1914.00</ele>
	<time>2022-06-28T05:40:55.000Z</time>
</trkpt>
<trkpt lat="45.994426" lon="9.804174">
	<ele>1913.60</ele>
	<time>2022-06-28T05:40:57.000Z</time>
</trkpt>
<trkpt lat="45.994436" lon="9.804158">
	<ele>1913.20</ele>
	<time>2022-06-28T05:40:59.000Z</time>
</trkpt>
<trkpt lat="45.994452" lon="9.804118">
	<ele>1912.60</ele>
	<time>2022-06-28T05:41:02.000Z</time>
</trkpt>
<trkpt lat="45.994456" lon="9.804099">
	<ele>1912.40</ele>
	<time>2022-06-28T05:41:04.000Z</time>
</trkpt>
<trkpt lat="45.994463" lon="9.804068">
	<ele>1912.20</ele>
	<time>2022-06-28T05:41:07.000Z</time>
</trkpt>
<trkpt lat="45.994459" lon="9.804059">
	<ele>1912.00</ele>
	<time>2022-06-28T05:41:08.000Z</time>
</trkpt>
<trkpt lat="45.994465" lon="9.804028">
	<ele>1911.60</ele>
	<time>2022-06-28T05:41:11.000Z</time>
</trkpt>
<trkpt lat="45.994480" lon="9.804017">
	<ele>1911.00</ele>
	<time>2022-06-28T05:41:13.000Z</time>
</trkpt>
<trkpt lat="45.994475" lon="9.804013">
	<ele>1910.80</ele>
	<time>2022-06-28T05:41:14.000Z</time>
</trkpt>
<trkpt lat="45.994485" lon="9.803995">
	<ele>1910.00</ele>
	<time>2022-06-28T05:41:17.000Z</time>
</trkpt>
<trkpt lat="45.994488" lon="9.803982">
	<ele>1909.80</ele>
	<time>2022-06-28T05:41:18.000Z</time>
</trkpt>
<trkpt lat="45.994490" lon="9.803971">
	<ele>1909.80</ele>
	<time>2022-06-28T05:41:19.000Z</time>
</trkpt>
<trkpt lat="45.994488" lon="9.803871">
	<ele>1908.80</ele>
	<time>2022-06-28T05:41:26.000Z</time>
</trkpt>
<trkpt lat="45.994515" lon="9.803827">
	<ele>1908.20</ele>
	<time>2022-06-28T05:41:29.000Z</time>
</trkpt>
<trkpt lat="45.994527" lon="9.803814">
	<ele>1908.20</ele>
	<time>2022-06-28T05:41:30.000Z</time>
</trkpt>
<trkpt lat="45.994526" lon="9.803792">
	<ele>1907.80</ele>
	<time>2022-06-28T05:41:32.000Z</time>
</trkpt>
<trkpt lat="45.994528" lon="9.803757">
	<ele>1907.00</ele>
	<time>2022-06-28T05:41:35.000Z</time>
</trkpt>
<trkpt lat="45.994547" lon="9.803717">
	<ele>1906.80</ele>
	<time>2022-06-28T05:41:38.000Z</time>
</trkpt>
<trkpt lat="45.994571" lon="9.803601">
	<ele>1905.80</ele>
	<time>2022-06-28T05:41:47.000Z</time>
</trkpt>
<trkpt lat="45.994627" lon="9.803503">
	<ele>1904.80</ele>
	<time>2022-06-28T05:41:55.000Z</time>
</trkpt>
<trkpt lat="45.994612" lon="9.803481">
	<ele>1904.20</ele>
	<time>2022-06-28T05:41:58.000Z</time>
</trkpt>
<trkpt lat="45.994611" lon="9.803459">
	<ele>1904.00</ele>
	<time>2022-06-28T05:42:00.000Z</time>
</trkpt>
<trkpt lat="45.994608" lon="9.803435">
	<ele>1903.60</ele>
	<time>2022-06-28T05:42:02.000Z</time>
</trkpt>
<trkpt lat="45.994613" lon="9.803408">
	<ele>1903.40</ele>
	<time>2022-06-28T05:42:04.000Z</time>
</trkpt>
<trkpt lat="45.994634" lon="9.803364">
	<ele>1902.60</ele>
	<time>2022-06-28T05:42:08.000Z</time>
</trkpt>
<trkpt lat="45.994647" lon="9.803316">
	<ele>1902.00</ele>
	<time>2022-06-28T05:42:12.000Z</time>
</trkpt>
<trkpt lat="45.994672" lon="9.803297">
	<ele>1901.40</ele>
	<time>2022-06-28T05:42:15.000Z</time>
</trkpt>
<trkpt lat="45.994684" lon="9.803292">
	<ele>1901.20</ele>
	<time>2022-06-28T05:42:16.000Z</time>
</trkpt>
<trkpt lat="45.994703" lon="9.803278">
	<ele>1900.80</ele>
	<time>2022-06-28T05:42:18.000Z</time>
</trkpt>
<trkpt lat="45.994713" lon="9.803255">
	<ele>1900.60</ele>
	<time>2022-06-28T05:42:20.000Z</time>
</trkpt>
<trkpt lat="45.994741" lon="9.803230">
	<ele>1900.40</ele>
	<time>2022-06-28T05:42:22.000Z</time>
</trkpt>
<trkpt lat="45.994771" lon="9.803189">
	<ele>1899.80</ele>
	<time>2022-06-28T05:42:25.000Z</time>
</trkpt>
<trkpt lat="45.994780" lon="9.803179">
	<ele>1899.60</ele>
	<time>2022-06-28T05:42:26.000Z</time>
</trkpt>
<trkpt lat="45.994794" lon="9.803133">
	<ele>1899.40</ele>
	<time>2022-06-28T05:42:29.000Z</time>
</trkpt>
<trkpt lat="45.994819" lon="9.803059">
	<ele>1898.60</ele>
	<time>2022-06-28T05:42:34.000Z</time>
</trkpt>
<trkpt lat="45.994844" lon="9.802999">
	<ele>1898.20</ele>
	<time>2022-06-28T05:42:38.000Z</time>
</trkpt>
<trkpt lat="45.994889" lon="9.802916">
	<ele>1898.00</ele>
	<time>2022-06-28T05:42:44.000Z</time>
</trkpt>
<trkpt lat="45.994918" lon="9.802810">
	<ele>1897.40</ele>
	<time>2022-06-28T05:42:52.000Z</time>
</trkpt>
<trkpt lat="45.994940" lon="9.802774">
	<ele>1897.20</ele>
	<time>2022-06-28T05:42:55.000Z</time>
</trkpt>
<trkpt lat="45.994980" lon="9.802701">
	<ele>1896.60</ele>
	<time>2022-06-28T05:43:00.000Z</time>
</trkpt>
<trkpt lat="45.994988" lon="9.802668">
	<ele>1896.20</ele>
	<time>2022-06-28T05:43:03.000Z</time>
</trkpt>
<trkpt lat="45.995039" lon="9.802609">
	<ele>1895.20</ele>
	<time>2022-06-28T05:43:10.000Z</time>
</trkpt>
<trkpt lat="45.995046" lon="9.802598">
	<ele>1895.00</ele>
	<time>2022-06-28T05:43:11.000Z</time>
</trkpt>
<trkpt lat="45.995060" lon="9.802582">
	<ele>1894.80</ele>
	<time>2022-06-28T05:43:15.000Z</time>
</trkpt>
<trkpt lat="45.995058" lon="9.802576">
	<ele>1894.60</ele>
	<time>2022-06-28T05:43:16.000Z</time>
</trkpt>
<trkpt lat="45.995050" lon="9.802572">
	<ele>1894.60</ele>
	<time>2022-06-28T05:43:17.000Z</time>
</trkpt>
<trkpt lat="45.995034" lon="9.802550">
	<ele>1894.00</ele>
	<time>2022-06-28T05:43:20.000Z</time>
</trkpt>
<trkpt lat="45.995033" lon="9.802532">
	<ele>1893.60</ele>
	<time>2022-06-28T05:43:22.000Z</time>
</trkpt>
<trkpt lat="45.995028" lon="9.802521">
	<ele>1893.40</ele>
	<time>2022-06-28T05:43:23.000Z</time>
</trkpt>
<trkpt lat="45.995025" lon="9.802511">
	<ele>1893.20</ele>
	<time>2022-06-28T05:43:24.000Z</time>
</trkpt>
<trkpt lat="45.995024" lon="9.802500">
	<ele>1893.00</ele>
	<time>2022-06-28T05:43:25.000Z</time>
</trkpt>
<trkpt lat="45.995023" lon="9.802488">
	<ele>1892.60</ele>
	<time>2022-06-28T05:43:26.000Z</time>
</trkpt>
<trkpt lat="45.995021" lon="9.802466">
	<ele>1892.00</ele>
	<time>2022-06-28T05:43:29.000Z</time>
</trkpt>
<trkpt lat="45.995022" lon="9.802456">
	<ele>1891.80</ele>
	<time>2022-06-28T05:43:30.000Z</time>
</trkpt>
<trkpt lat="45.995033" lon="9.802440">
	<ele>1891.40</ele>
	<time>2022-06-28T05:43:32.000Z</time>
</trkpt>
<trkpt lat="45.995049" lon="9.802423">
	<ele>1890.80</ele>
	<time>2022-06-28T05:43:35.000Z</time>
</trkpt>
<trkpt lat="45.995078" lon="9.802389">
	<ele>1890.20</ele>
	<time>2022-06-28T05:43:38.000Z</time>
</trkpt>
<trkpt lat="45.995089" lon="9.802368">
	<ele>1889.80</ele>
	<time>2022-06-28T05:43:40.000Z</time>
</trkpt>
<trkpt lat="45.995131" lon="9.802287">
	<ele>1889.00</ele>
	<time>2022-06-28T05:43:46.000Z</time>
</trkpt>
<trkpt lat="45.995139" lon="9.802263">
	<ele>1888.80</ele>
	<time>2022-06-28T05:43:48.000Z</time>
</trkpt>
<trkpt lat="45.995162" lon="9.802230">
	<ele>1888.00</ele>
	<time>2022-06-28T05:43:53.000Z</time>
</trkpt>
<trkpt lat="45.995177" lon="9.802199">
	<ele>1887.80</ele>
	<time>2022-06-28T05:43:56.000Z</time>
</trkpt>
<trkpt lat="45.995176" lon="9.802186">
	<ele>1887.60</ele>
	<time>2022-06-28T05:43:58.000Z</time>
</trkpt>
<trkpt lat="45.995184" lon="9.802141">
	<ele>1886.60</ele>
	<time>2022-06-28T05:44:03.000Z</time>
</trkpt>
<trkpt lat="45.995187" lon="9.802110">
	<ele>1886.40</ele>
	<time>2022-06-28T05:44:05.000Z</time>
</trkpt>
<trkpt lat="45.995206" lon="9.802055">
	<ele>1885.40</ele>
	<time>2022-06-28T05:44:10.000Z</time>
</trkpt>
<trkpt lat="45.995207" lon="9.802049">
	<ele>1885.20</ele>
	<time>2022-06-28T05:44:11.000Z</time>
</trkpt>
<trkpt lat="45.995213" lon="9.802042">
	<ele>1885.20</ele>
	<time>2022-06-28T05:44:12.000Z</time>
</trkpt>
<trkpt lat="45.995271" lon="9.801953">
	<ele>1884.40</ele>
	<time>2022-06-28T05:44:19.000Z</time>
</trkpt>
<trkpt lat="45.995296" lon="9.801915">
	<ele>1884.20</ele>
	<time>2022-06-28T05:44:22.000Z</time>
</trkpt>
<trkpt lat="45.995374" lon="9.801845">
	<ele>1883.40</ele>
	<time>2022-06-28T05:44:28.000Z</time>
</trkpt>
<trkpt lat="45.995388" lon="9.801819">
	<ele>1883.40</ele>
	<time>2022-06-28T05:44:30.000Z</time>
</trkpt>
<trkpt lat="45.995392" lon="9.801808">
	<ele>1883.20</ele>
	<time>2022-06-28T05:44:31.000Z</time>
</trkpt>
<trkpt lat="45.995396" lon="9.801797">
	<ele>1883.20</ele>
	<time>2022-06-28T05:44:32.000Z</time>
</trkpt>
<trkpt lat="45.995397" lon="9.801786">
	<ele>1883.00</ele>
	<time>2022-06-28T05:44:33.000Z</time>
</trkpt>
<trkpt lat="45.995410" lon="9.801762">
	<ele>1883.00</ele>
	<time>2022-06-28T05:44:35.000Z</time>
</trkpt>
<trkpt lat="45.995418" lon="9.801751">
	<ele>1882.80</ele>
	<time>2022-06-28T05:44:36.000Z</time>
</trkpt>
<trkpt lat="45.995437" lon="9.801727">
	<ele>1882.60</ele>
	<time>2022-06-28T05:44:38.000Z</time>
</trkpt>
<trkpt lat="45.995457" lon="9.801699">
	<ele>1882.40</ele>
	<time>2022-06-28T05:44:41.000Z</time>
</trkpt>
<trkpt lat="45.995462" lon="9.801685">
	<ele>1882.20</ele>
	<time>2022-06-28T05:44:42.000Z</time>
</trkpt>
<trkpt lat="45.995472" lon="9.801641">
	<ele>1881.80</ele>
	<time>2022-06-28T05:44:46.000Z</time>
</trkpt>
<trkpt lat="45.995497" lon="9.801607">
	<ele>1881.00</ele>
	<time>2022-06-28T05:44:50.000Z</time>
</trkpt>
<trkpt lat="45.995496" lon="9.801573">
	<ele>1880.60</ele>
	<time>2022-06-28T05:44:53.000Z</time>
</trkpt>
<trkpt lat="45.995519" lon="9.801528">
	<ele>1880.00</ele>
	<time>2022-06-28T05:44:58.000Z</time>
</trkpt>
<trkpt lat="45.995529" lon="9.801488">
	<ele>1879.40</ele>
	<time>2022-06-28T05:45:02.000Z</time>
</trkpt>
<trkpt lat="45.995560" lon="9.801441">
	<ele>1878.80</ele>
	<time>2022-06-28T05:45:07.000Z</time>
</trkpt>
<trkpt lat="45.995572" lon="9.801417">
	<ele>1878.80</ele>
	<time>2022-06-28T05:45:10.000Z</time>
</trkpt>
<trkpt lat="45.995577" lon="9.801390">
	<ele>1878.40</ele>
	<time>2022-06-28T05:45:13.000Z</time>
</trkpt>
<trkpt lat="45.995576" lon="9.801373">
	<ele>1878.00</ele>
	<time>2022-06-28T05:45:15.000Z</time>
</trkpt>
<trkpt lat="45.995577" lon="9.801358">
	<ele>1877.60</ele>
	<time>2022-06-28T05:45:17.000Z</time>
</trkpt>
<trkpt lat="45.995579" lon="9.801345">
	<ele>1877.40</ele>
	<time>2022-06-28T05:45:19.000Z</time>
</trkpt>
<trkpt lat="45.995595" lon="9.801315">
	<ele>1876.60</ele>
	<time>2022-06-28T05:45:23.000Z</time>
</trkpt>
<trkpt lat="45.995603" lon="9.801289">
	<ele>1875.80</ele>
	<time>2022-06-28T05:45:26.000Z</time>
</trkpt>
<trkpt lat="45.995606" lon="9.801280">
	<ele>1875.60</ele>
	<time>2022-06-28T05:45:28.000Z</time>
</trkpt>
<trkpt lat="45.995627" lon="9.801259">
	<ele>1875.00</ele>
	<time>2022-06-28T05:45:32.000Z</time>
</trkpt>
<trkpt lat="45.995635" lon="9.801251">
	<ele>1874.60</ele>
	<time>2022-06-28T05:45:34.000Z</time>
</trkpt>
<trkpt lat="45.995657" lon="9.801239">
	<ele>1873.40</ele>
	<time>2022-06-28T05:45:39.000Z</time>
</trkpt>
<trkpt lat="45.995656" lon="9.801197">
	<ele>1872.40</ele>
	<time>2022-06-28T05:45:44.000Z</time>
</trkpt>
<trkpt lat="45.995665" lon="9.801191">
	<ele>1872.00</ele>
	<time>2022-06-28T05:45:46.000Z</time>
</trkpt>
<trkpt lat="45.995668" lon="9.801181">
	<ele>1871.40</ele>
	<time>2022-06-28T05:45:50.000Z</time>
</trkpt>
<trkpt lat="45.995680" lon="9.801176">
	<ele>1871.20</ele>
	<time>2022-06-28T05:45:51.000Z</time>
</trkpt>
<trkpt lat="45.995704" lon="9.801156">
	<ele>1870.60</ele>
	<time>2022-06-28T05:45:54.000Z</time>
</trkpt>
<trkpt lat="45.995712" lon="9.801153">
	<ele>1870.40</ele>
	<time>2022-06-28T05:45:55.000Z</time>
</trkpt>
<trkpt lat="45.995767" lon="9.801136">
	<ele>1869.60</ele>
	<time>2022-06-28T05:46:01.000Z</time>
</trkpt>
<trkpt lat="45.995771" lon="9.801134">
	<ele>1869.20</ele>
	<time>2022-06-28T05:46:03.000Z</time>
</trkpt>
<trkpt lat="45.995789" lon="9.801114">
	<ele>1868.60</ele>
	<time>2022-06-28T05:46:06.000Z</time>
</trkpt>
<trkpt lat="45.995793" lon="9.801109">
	<ele>1868.40</ele>
	<time>2022-06-28T05:46:07.000Z</time>
</trkpt>
<trkpt lat="45.995790" lon="9.801110">
	<ele>1868.20</ele>
	<time>2022-06-28T05:46:09.000Z</time>
</trkpt>
<trkpt lat="45.995803" lon="9.801111">
	<ele>1867.80</ele>
	<time>2022-06-28T05:46:11.000Z</time>
</trkpt>
<trkpt lat="45.995823" lon="9.801088">
	<ele>1867.00</ele>
	<time>2022-06-28T05:46:15.000Z</time>
</trkpt>
<trkpt lat="45.995835" lon="9.801076">
	<ele>1866.20</ele>
	<time>2022-06-28T05:46:19.000Z</time>
</trkpt>
<trkpt lat="45.995840" lon="9.801071">
	<ele>1865.80</ele>
	<time>2022-06-28T05:46:22.000Z</time>
</trkpt>
<trkpt lat="45.995875" lon="9.801031">
	<ele>1865.00</ele>
	<time>2022-06-28T05:46:27.000Z</time>
</trkpt>
<trkpt lat="45.995881" lon="9.801020">
	<ele>1864.80</ele>
	<time>2022-06-28T05:46:28.000Z</time>
</trkpt>
<trkpt lat="45.995889" lon="9.800998">
	<ele>1864.20</ele>
	<time>2022-06-28T05:46:31.000Z</time>
</trkpt>
<trkpt lat="45.995887" lon="9.801000">
	<ele>1864.00</ele>
	<time>2022-06-28T05:46:33.000Z</time>
</trkpt>
<trkpt lat="45.995893" lon="9.801024">
	<ele>1863.60</ele>
	<time>2022-06-28T05:46:36.000Z</time>
</trkpt>
<trkpt lat="45.995898" lon="9.801025">
	<ele>1863.60</ele>
	<time>2022-06-28T05:46:37.000Z</time>
</trkpt>
<trkpt lat="45.995929" lon="9.800996">
	<ele>1862.60</ele>
	<time>2022-06-28T05:46:43.000Z</time>
</trkpt>
<trkpt lat="45.995936" lon="9.800990">
	<ele>1862.60</ele>
	<time>2022-06-28T05:46:44.000Z</time>
</trkpt>
<trkpt lat="45.995930" lon="9.800954">
	<ele>1861.60</ele>
	<time>2022-06-28T05:46:49.000Z</time>
</trkpt>
<trkpt lat="45.995930" lon="9.800946">
	<ele>1861.60</ele>
	<time>2022-06-28T05:46:50.000Z</time>
</trkpt>
<trkpt lat="45.995933" lon="9.800924">
	<ele>1861.20</ele>
	<time>2022-06-28T05:46:52.000Z</time>
</trkpt>
<trkpt lat="45.995947" lon="9.800894">
	<ele>1860.40</ele>
	<time>2022-06-28T05:46:57.000Z</time>
</trkpt>
<trkpt lat="45.995955" lon="9.800902">
	<ele>1860.00</ele>
	<time>2022-06-28T05:47:00.000Z</time>
</trkpt>
<trkpt lat="45.995967" lon="9.800883">
	<ele>1859.20</ele>
	<time>2022-06-28T05:47:04.000Z</time>
</trkpt>
<trkpt lat="45.995981" lon="9.800875">
	<ele>1859.00</ele>
	<time>2022-06-28T05:47:06.000Z</time>
</trkpt>
<trkpt lat="45.996016" lon="9.800847">
	<ele>1858.60</ele>
	<time>2022-06-28T05:47:10.000Z</time>
</trkpt>
<trkpt lat="45.996048" lon="9.800822">
	<ele>1858.20</ele>
	<time>2022-06-28T05:47:12.000Z</time>
</trkpt>
<trkpt lat="45.996056" lon="9.800808">
	<ele>1858.00</ele>
	<time>2022-06-28T05:47:13.000Z</time>
</trkpt>
<trkpt lat="45.996078" lon="9.800787">
	<ele>1857.80</ele>
	<time>2022-06-28T05:47:15.000Z</time>
</trkpt>
<trkpt lat="45.996089" lon="9.800759">
	<ele>1857.20</ele>
	<time>2022-06-28T05:47:18.000Z</time>
</trkpt>
<trkpt lat="45.996087" lon="9.800729">
	<ele>1857.00</ele>
	<time>2022-06-28T05:47:20.000Z</time>
</trkpt>
<trkpt lat="45.996087" lon="9.800713">
	<ele>1856.40</ele>
	<time>2022-06-28T05:47:22.000Z</time>
</trkpt>
<trkpt lat="45.996115" lon="9.800699">
	<ele>1855.80</ele>
	<time>2022-06-28T05:47:26.000Z</time>
</trkpt>
<trkpt lat="45.996136" lon="9.800698">
	<ele>1855.40</ele>
	<time>2022-06-28T05:47:28.000Z</time>
</trkpt>
<trkpt lat="45.996168" lon="9.800696">
	<ele>1854.80</ele>
	<time>2022-06-28T05:47:31.000Z</time>
</trkpt>
<trkpt lat="45.996184" lon="9.800677">
	<ele>1854.40</ele>
	<time>2022-06-28T05:47:34.000Z</time>
</trkpt>
<trkpt lat="45.996207" lon="9.800632">
	<ele>1853.60</ele>
	<time>2022-06-28T05:47:38.000Z</time>
</trkpt>
<trkpt lat="45.996228" lon="9.800622">
	<ele>1853.00</ele>
	<time>2022-06-28T05:47:41.000Z</time>
</trkpt>
<trkpt lat="45.996237" lon="9.800617">
	<ele>1852.80</ele>
	<time>2022-06-28T05:47:42.000Z</time>
</trkpt>
<trkpt lat="45.996242" lon="9.800609">
	<ele>1852.40</ele>
	<time>2022-06-28T05:47:44.000Z</time>
</trkpt>
<trkpt lat="45.996237" lon="9.800591">
	<ele>1851.60</ele>
	<time>2022-06-28T05:47:51.000Z</time>
</trkpt>
<trkpt lat="45.996242" lon="9.800584">
	<ele>1851.40</ele>
	<time>2022-06-28T05:47:52.000Z</time>
</trkpt>
<trkpt lat="45.996260" lon="9.800574">
	<ele>1850.20</ele>
	<time>2022-06-28T05:47:56.000Z</time>
</trkpt>
<trkpt lat="45.996279" lon="9.800541">
	<ele>1849.40</ele>
	<time>2022-06-28T05:48:00.000Z</time>
</trkpt>
<trkpt lat="45.996286" lon="9.800536">
	<ele>1849.20</ele>
	<time>2022-06-28T05:48:01.000Z</time>
</trkpt>
<trkpt lat="45.996307" lon="9.800504">
	<ele>1848.40</ele>
	<time>2022-06-28T05:48:06.000Z</time>
</trkpt>
<trkpt lat="45.996308" lon="9.800481">
	<ele>1848.20</ele>
	<time>2022-06-28T05:48:08.000Z</time>
</trkpt>
<trkpt lat="45.996317" lon="9.800458">
	<ele>1847.60</ele>
	<time>2022-06-28T05:48:10.000Z</time>
</trkpt>
<trkpt lat="45.996347" lon="9.800412">
	<ele>1847.20</ele>
	<time>2022-06-28T05:48:14.000Z</time>
</trkpt>
<trkpt lat="45.996364" lon="9.800386">
	<ele>1846.40</ele>
	<time>2022-06-28T05:48:17.000Z</time>
</trkpt>
<trkpt lat="45.996375" lon="9.800372">
	<ele>1846.00</ele>
	<time>2022-06-28T05:48:19.000Z</time>
</trkpt>
<trkpt lat="45.996387" lon="9.800336">
	<ele>1845.40</ele>
	<time>2022-06-28T05:48:24.000Z</time>
</trkpt>
<trkpt lat="45.996422" lon="9.800310">
	<ele>1844.80</ele>
	<time>2022-06-28T05:48:28.000Z</time>
</trkpt>
<trkpt lat="45.996452" lon="9.800279">
	<ele>1844.00</ele>
	<time>2022-06-28T05:48:32.000Z</time>
</trkpt>
<trkpt lat="45.996474" lon="9.800271">
	<ele>1843.60</ele>
	<time>2022-06-28T05:48:34.000Z</time>
</trkpt>
<trkpt lat="45.996498" lon="9.800250">
	<ele>1843.00</ele>
	<time>2022-06-28T05:48:36.000Z</time>
</trkpt>
<trkpt lat="45.996512" lon="9.800242">
	<ele>1842.60</ele>
	<time>2022-06-28T05:48:38.000Z</time>
</trkpt>
<trkpt lat="45.996519" lon="9.800237">
	<ele>1842.60</ele>
	<time>2022-06-28T05:48:39.000Z</time>
</trkpt>
<trkpt lat="45.996547" lon="9.800214">
	<ele>1842.00</ele>
	<time>2022-06-28T05:48:42.000Z</time>
</trkpt>
<trkpt lat="45.996574" lon="9.800210">
	<ele>1841.40</ele>
	<time>2022-06-28T05:48:45.000Z</time>
</trkpt>
<trkpt lat="45.996580" lon="9.800198">
	<ele>1840.80</ele>
	<time>2022-06-28T05:48:48.000Z</time>
</trkpt>
<trkpt lat="45.996594" lon="9.800181">
	<ele>1840.40</ele>
	<time>2022-06-28T05:48:50.000Z</time>
</trkpt>
<trkpt lat="45.996591" lon="9.800154">
	<ele>1839.40</ele>
	<time>2022-06-28T05:48:55.000Z</time>
</trkpt>
<trkpt lat="45.996748" lon="9.800011">
	<ele>1838.60</ele>
	<time>2022-06-28T05:48:58.000Z</time>
</trkpt>
<trkpt lat="45.996851" lon="9.799930">
	<ele>1838.20</ele>
	<time>2022-06-28T05:49:00.000Z</time>
</trkpt>
<trkpt lat="45.996884" lon="9.799907">
	<ele>1837.20</ele>
	<time>2022-06-28T05:49:04.000Z</time>
</trkpt>
<trkpt lat="45.996903" lon="9.799881">
	<ele>1836.80</ele>
	<time>2022-06-28T05:49:07.000Z</time>
</trkpt>
<trkpt lat="45.996903" lon="9.799858">
	<ele>1836.60</ele>
	<time>2022-06-28T05:49:09.000Z</time>
</trkpt>
<trkpt lat="45.996898" lon="9.799851">
	<ele>1836.20</ele>
	<time>2022-06-28T05:49:10.000Z</time>
</trkpt>
<trkpt lat="45.996892" lon="9.799845">
	<ele>1836.00</ele>
	<time>2022-06-28T05:49:11.000Z</time>
</trkpt>
<trkpt lat="45.996912" lon="9.799772">
	<ele>1835.40</ele>
	<time>2022-06-28T05:49:14.000Z</time>
</trkpt>
<trkpt lat="45.996944" lon="9.799702">
	<ele>1835.00</ele>
	<time>2022-06-28T05:49:16.000Z</time>
</trkpt>
<trkpt lat="45.996979" lon="9.799637">
	<ele>1834.60</ele>
	<time>2022-06-28T05:49:18.000Z</time>
</trkpt>
<trkpt lat="45.997038" lon="9.799540">
	<ele>1834.40</ele>
	<time>2022-06-28T05:49:20.000Z</time>
</trkpt>
<trkpt lat="45.997188" lon="9.799322">
	<ele>1834.00</ele>
	<time>2022-06-28T05:49:24.000Z</time>
</trkpt>
<trkpt lat="45.997308" lon="9.799111">
	<ele>1833.00</ele>
	<time>2022-06-28T05:49:29.000Z</time>
</trkpt>
<trkpt lat="45.997328" lon="9.799071">
	<ele>1832.80</ele>
	<time>2022-06-28T05:49:30.000Z</time>
</trkpt>
<trkpt lat="45.997355" lon="9.799004">
	<ele>1832.60</ele>
	<time>2022-06-28T05:49:32.000Z</time>
</trkpt>
<trkpt lat="45.997373" lon="9.798971">
	<ele>1832.60</ele>
	<time>2022-06-28T05:49:33.000Z</time>
</trkpt>
<trkpt lat="45.997456" lon="9.798796">
	<ele>1832.40</ele>
	<time>2022-06-28T05:49:38.000Z</time>
</trkpt>
<trkpt lat="45.997489" lon="9.798732">
	<ele>1832.00</ele>
	<time>2022-06-28T05:49:40.000Z</time>
</trkpt>
<trkpt lat="45.997510" lon="9.798691">
	<ele>1832.00</ele>
	<time>2022-06-28T05:49:41.000Z</time>
</trkpt>
<trkpt lat="45.997533" lon="9.798648">
	<ele>1831.80</ele>
	<time>2022-06-28T05:49:42.000Z</time>
</trkpt>
<trkpt lat="45.997627" lon="9.798471">
	<ele>1831.20</ele>
	<time>2022-06-28T05:49:47.000Z</time>
</trkpt>
<trkpt lat="45.997692" lon="9.798352">
	<ele>1830.80</ele>
	<time>2022-06-28T05:49:51.000Z</time>
</trkpt>
<trkpt lat="45.997770" lon="9.798181">
	<ele>1829.80</ele>
	<time>2022-06-28T05:49:59.000Z</time>
</trkpt>
<trkpt lat="45.997778" lon="9.798155">
	<ele>1829.80</ele>
	<time>2022-06-28T05:50:00.000Z</time>
</trkpt>
<trkpt lat="45.997796" lon="9.798078">
	<ele>1829.40</ele>
	<time>2022-06-28T05:50:03.000Z</time>
</trkpt>
<trkpt lat="45.997797" lon="9.798059">
	<ele>1829.40</ele>
	<time>2022-06-28T05:50:04.000Z</time>
</trkpt>
<trkpt lat="45.997837" lon="9.797989">
	<ele>1828.80</ele>
	<time>2022-06-28T05:50:08.000Z</time>
</trkpt>
<trkpt lat="45.997858" lon="9.797951">
	<ele>1828.60</ele>
	<time>2022-06-28T05:50:10.000Z</time>
</trkpt>
<trkpt lat="45.997889" lon="9.797862">
	<ele>1827.40</ele>
	<time>2022-06-28T05:50:15.000Z</time>
</trkpt>
<trkpt lat="45.997892" lon="9.797827">
	<ele>1827.20</ele>
	<time>2022-06-28T05:50:17.000Z</time>
</trkpt>
<trkpt lat="45.997897" lon="9.797759">
	<ele>1826.40</ele>
	<time>2022-06-28T05:50:22.000Z</time>
</trkpt>
<trkpt lat="45.997903" lon="9.797701">
	<ele>1826.00</ele>
	<time>2022-06-28T05:50:25.000Z</time>
</trkpt>
<trkpt lat="45.997924" lon="9.797612">
	<ele>1825.40</ele>
	<time>2022-06-28T05:50:31.000Z</time>
</trkpt>
<trkpt lat="45.997928" lon="9.797599">
	<ele>1825.20</ele>
	<time>2022-06-28T05:50:32.000Z</time>
</trkpt>
<trkpt lat="45.997972" lon="9.797511">
	<ele>1824.20</ele>
	<time>2022-06-28T05:50:40.000Z</time>
</trkpt>
<trkpt lat="45.997969" lon="9.797425">
	<ele>1823.60</ele>
	<time>2022-06-28T05:50:46.000Z</time>
</trkpt>
<trkpt lat="45.997972" lon="9.797405">
	<ele>1823.40</ele>
	<time>2022-06-28T05:50:47.000Z</time>
</trkpt>
<trkpt lat="45.997970" lon="9.797350">
	<ele>1823.00</ele>
	<time>2022-06-28T05:50:50.000Z</time>
</trkpt>
<trkpt lat="45.997957" lon="9.797198">
	<ele>1822.20</ele>
	<time>2022-06-28T05:50:59.000Z</time>
</trkpt>
<trkpt lat="45.997965" lon="9.797142">
	<ele>1822.00</ele>
	<time>2022-06-28T05:51:03.000Z</time>
</trkpt>
<trkpt lat="45.997970" lon="9.797118">
	<ele>1821.80</ele>
	<time>2022-06-28T05:51:06.000Z</time>
</trkpt>
<trkpt lat="45.997960" lon="9.797127">
	<ele>1821.80</ele>
	<time>2022-06-28T05:51:07.000Z</time>
</trkpt>
<trkpt lat="45.997947" lon="9.797136">
	<ele>1821.80</ele>
	<time>2022-06-28T05:51:08.000Z</time>
</trkpt>
<trkpt lat="45.997933" lon="9.797144">
	<ele>1821.80</ele>
	<time>2022-06-28T05:51:11.000Z</time>
</trkpt>
<trkpt lat="45.997932" lon="9.797142">
	<ele>1821.80</ele>
	<time>2022-06-28T05:51:12.000Z</time>
</trkpt>
<trkpt lat="45.997930" lon="9.797138">
	<ele>1821.80</ele>
	<time>2022-06-28T05:51:13.000Z</time>
</trkpt>
<trkpt lat="45.997932" lon="9.797138">
	<ele>1821.80</ele>
	<time>2022-06-28T05:51:18.000Z</time>
</trkpt>
<trkpt lat="45.997932" lon="9.797138">
	<ele>1821.80</ele>
	<time>2022-06-28T05:51:27.000Z</time>
</trkpt>
<trkpt lat="45.997953" lon="9.797098">
	<ele>1820.80</ele>
	<time>2022-06-28T05:51:39.000Z</time>
</trkpt>
<trkpt lat="45.997952" lon="9.797073">
	<ele>1820.20</ele>
	<time>2022-06-28T05:51:44.000Z</time>
</trkpt>
<trkpt lat="45.997952" lon="9.797063">
	<ele>1819.80</ele>
	<time>2022-06-28T05:51:47.000Z</time>
</trkpt>
<trkpt lat="45.997946" lon="9.797046">
	<ele>1819.60</ele>
	<time>2022-06-28T05:51:49.000Z</time>
</trkpt>
<trkpt lat="45.997930" lon="9.797019">
	<ele>1818.60</ele>
	<time>2022-06-28T05:51:54.000Z</time>
</trkpt>
<trkpt lat="45.997935" lon="9.797002">
	<ele>1818.00</ele>
	<time>2022-06-28T05:51:56.000Z</time>
</trkpt>
<trkpt lat="45.997939" lon="9.796985">
	<ele>1817.80</ele>
	<time>2022-06-28T05:51:58.000Z</time>
</trkpt>
<trkpt lat="45.997939" lon="9.796975">
	<ele>1817.40</ele>
	<time>2022-06-28T05:51:59.000Z</time>
</trkpt>
<trkpt lat="45.997940" lon="9.796965">
	<ele>1816.60</ele>
	<time>2022-06-28T05:52:03.000Z</time>
</trkpt>
<trkpt lat="45.997944" lon="9.796976">
	<ele>1816.00</ele>
	<time>2022-06-28T05:52:05.000Z</time>
</trkpt>
<trkpt lat="45.997954" lon="9.796975">
	<ele>1815.60</ele>
	<time>2022-06-28T05:52:10.000Z</time>
</trkpt>
<trkpt lat="45.997929" lon="9.796961">
	<ele>1815.00</ele>
	<time>2022-06-28T05:52:12.000Z</time>
</trkpt>
<trkpt lat="45.997924" lon="9.796928">
	<ele>1814.00</ele>
	<time>2022-06-28T05:52:17.000Z</time>
</trkpt>
<trkpt lat="45.997912" lon="9.796919">
	<ele>1813.80</ele>
	<time>2022-06-28T05:52:18.000Z</time>
</trkpt>
<trkpt lat="45.997898" lon="9.796896">
	<ele>1812.80</ele>
	<time>2022-06-28T05:52:23.000Z</time>
</trkpt>
<trkpt lat="45.997879" lon="9.796886">
	<ele>1812.40</ele>
	<time>2022-06-28T05:52:25.000Z</time>
</trkpt>
<trkpt lat="45.997892" lon="9.796877">
	<ele>1811.80</ele>
	<time>2022-06-28T05:52:28.000Z</time>
</trkpt>
<trkpt lat="45.997912" lon="9.796860">
	<ele>1811.00</ele>
	<time>2022-06-28T05:52:32.000Z</time>
</trkpt>
<trkpt lat="45.997918" lon="9.796860">
	<ele>1811.00</ele>
	<time>2022-06-28T05:52:33.000Z</time>
</trkpt>
<trkpt lat="45.997926" lon="9.796854">
	<ele>1810.80</ele>
	<time>2022-06-28T05:52:34.000Z</time>
</trkpt>
<trkpt lat="45.997951" lon="9.796853">
	<ele>1809.60</ele>
	<time>2022-06-28T05:52:39.000Z</time>
</trkpt>
<trkpt lat="45.997954" lon="9.796858">
	<ele>1809.60</ele>
	<time>2022-06-28T05:52:40.000Z</time>
</trkpt>
<trkpt lat="45.997961" lon="9.796888">
	<ele>1808.80</ele>
	<time>2022-06-28T05:52:44.000Z</time>
</trkpt>
<trkpt lat="45.997969" lon="9.796877">
	<ele>1808.60</ele>
	<time>2022-06-28T05:52:45.000Z</time>
</trkpt>
<trkpt lat="45.997974" lon="9.796851">
	<ele>1808.20</ele>
	<time>2022-06-28T05:52:48.000Z</time>
</trkpt>
<trkpt lat="45.997979" lon="9.796849">
	<ele>1807.80</ele>
	<time>2022-06-28T05:52:49.000Z</time>
</trkpt>
<trkpt lat="45.997986" lon="9.796847">
	<ele>1807.60</ele>
	<time>2022-06-28T05:52:50.000Z</time>
</trkpt>
<trkpt lat="45.997993" lon="9.796852">
	<ele>1807.40</ele>
	<time>2022-06-28T05:52:52.000Z</time>
</trkpt>
<trkpt lat="45.998005" lon="9.796829">
	<ele>1806.80</ele>
	<time>2022-06-28T05:52:56.000Z</time>
</trkpt>
<trkpt lat="45.998010" lon="9.796831">
	<ele>1806.40</ele>
	<time>2022-06-28T05:52:57.000Z</time>
</trkpt>
<trkpt lat="45.998016" lon="9.796840">
	<ele>1806.00</ele>
	<time>2022-06-28T05:52:59.000Z</time>
</trkpt>
<trkpt lat="45.997997" lon="9.796836">
	<ele>1805.80</ele>
	<time>2022-06-28T05:53:01.000Z</time>
</trkpt>
<trkpt lat="45.997989" lon="9.796836">
	<ele>1805.60</ele>
	<time>2022-06-28T05:53:04.000Z</time>
</trkpt>
<trkpt lat="45.997989" lon="9.796836">
	<ele>1805.40</ele>
	<time>2022-06-28T05:53:08.000Z</time>
</trkpt>
<trkpt lat="45.997989" lon="9.796836">
	<ele>1804.60</ele>
	<time>2022-06-28T05:53:11.000Z</time>
</trkpt>
<trkpt lat="45.997997" lon="9.796845">
	<ele>1804.20</ele>
	<time>2022-06-28T05:53:14.000Z</time>
</trkpt>
<trkpt lat="45.998005" lon="9.796850">
	<ele>1803.80</ele>
	<time>2022-06-28T05:53:15.000Z</time>
</trkpt>
<trkpt lat="45.998005" lon="9.796867">
	<ele>1803.20</ele>
	<time>2022-06-28T05:53:18.000Z</time>
</trkpt>
<trkpt lat="45.997999" lon="9.796901">
	<ele>1802.40</ele>
	<time>2022-06-28T05:53:22.000Z</time>
</trkpt>
<trkpt lat="45.997988" lon="9.796909">
	<ele>1802.40</ele>
	<time>2022-06-28T05:53:23.000Z</time>
</trkpt>
<trkpt lat="45.997975" lon="9.796915">
	<ele>1802.00</ele>
	<time>2022-06-28T05:53:27.000Z</time>
</trkpt>
<trkpt lat="45.997970" lon="9.796933">
	<ele>1801.00</ele>
	<time>2022-06-28T05:53:32.000Z</time>
</trkpt>
<trkpt lat="45.997959" lon="9.796932">
	<ele>1801.00</ele>
	<time>2022-06-28T05:53:33.000Z</time>
</trkpt>
<trkpt lat="45.997932" lon="9.796921">
	<ele>1799.80</ele>
	<time>2022-06-28T05:53:37.000Z</time>
</trkpt>
<trkpt lat="45.997926" lon="9.796923">
	<ele>1799.40</ele>
	<time>2022-06-28T05:53:39.000Z</time>
</trkpt>
<trkpt lat="45.997896" lon="9.796980">
	<ele>1798.80</ele>
	<time>2022-06-28T05:53:44.000Z</time>
</trkpt>
<trkpt lat="45.997893" lon="9.796981">
	<ele>1798.40</ele>
	<time>2022-06-28T05:53:46.000Z</time>
</trkpt>
<trkpt lat="45.997891" lon="9.796943">
	<ele>1797.80</ele>
	<time>2022-06-28T05:53:50.000Z</time>
</trkpt>
<trkpt lat="45.997896" lon="9.796922">
	<ele>1797.20</ele>
	<time>2022-06-28T05:53:52.000Z</time>
</trkpt>
<trkpt lat="45.997903" lon="9.796867">
	<ele>1796.60</ele>
	<time>2022-06-28T05:53:56.000Z</time>
</trkpt>
<trkpt lat="45.997925" lon="9.796785">
	<ele>1795.80</ele>
	<time>2022-06-28T05:54:02.000Z</time>
</trkpt>
<trkpt lat="45.997931" lon="9.796762">
	<ele>1795.40</ele>
	<time>2022-06-28T05:54:04.000Z</time>
</trkpt>
<trkpt lat="45.997962" lon="9.796657">
	<ele>1794.80</ele>
	<time>2022-06-28T05:54:11.000Z</time>
</trkpt>
<trkpt lat="45.998004" lon="9.796625">
	<ele>1794.40</ele>
	<time>2022-06-28T05:54:15.000Z</time>
</trkpt>
<trkpt lat="45.998034" lon="9.796596">
	<ele>1794.20</ele>
	<time>2022-06-28T05:54:20.000Z</time>
</trkpt>
<trkpt lat="45.998061" lon="9.796537">
	<ele>1794.60</ele>
	<time>2022-06-28T05:54:25.000Z</time>
</trkpt>
<trkpt lat="45.998052" lon="9.796515">
	<ele>1794.60</ele>
	<time>2022-06-28T05:54:27.000Z</time>
</trkpt>
<trkpt lat="45.998039" lon="9.796491">
	<ele>1795.00</ele>
	<time>2022-06-28T05:54:30.000Z</time>
</trkpt>
<trkpt lat="45.998029" lon="9.796458">
	<ele>1795.40</ele>
	<time>2022-06-28T05:54:33.000Z</time>
</trkpt>
<trkpt lat="45.998038" lon="9.796437">
	<ele>1795.80</ele>
	<time>2022-06-28T05:54:35.000Z</time>
</trkpt>
<trkpt lat="45.998040" lon="9.796404">
	<ele>1796.00</ele>
	<time>2022-06-28T05:54:38.000Z</time>
</trkpt>
<trkpt lat="45.998034" lon="9.796379">
	<ele>1796.60</ele>
	<time>2022-06-28T05:54:40.000Z</time>
</trkpt>
<trkpt lat="45.998034" lon="9.796341">
	<ele>1797.00</ele>
	<time>2022-06-28T05:54:43.000Z</time>
</trkpt>
<trkpt lat="45.998039" lon="9.796292">
	<ele>1797.40</ele>
	<time>2022-06-28T05:54:47.000Z</time>
</trkpt>
<trkpt lat="45.998039" lon="9.796284">
	<ele>1797.60</ele>
	<time>2022-06-28T05:54:48.000Z</time>
</trkpt>
<trkpt lat="45.998044" lon="9.796265">
	<ele>1798.00</ele>
	<time>2022-06-28T05:54:50.000Z</time>
</trkpt>
<trkpt lat="45.998047" lon="9.796239">
	<ele>1798.20</ele>
	<time>2022-06-28T05:54:52.000Z</time>
</trkpt>
<trkpt lat="45.998051" lon="9.796231">
	<ele>1798.40</ele>
	<time>2022-06-28T05:54:53.000Z</time>
</trkpt>
<trkpt lat="45.998049" lon="9.796202">
	<ele>1798.80</ele>
	<time>2022-06-28T05:54:56.000Z</time>
</trkpt>
<trkpt lat="45.998066" lon="9.796166">
	<ele>1799.20</ele>
	<time>2022-06-28T05:55:00.000Z</time>
</trkpt>
<trkpt lat="45.998087" lon="9.796131">
	<ele>1800.00</ele>
	<time>2022-06-28T05:55:04.000Z</time>
</trkpt>
<trkpt lat="45.998076" lon="9.796092">
	<ele>1800.40</ele>
	<time>2022-06-28T05:55:08.000Z</time>
</trkpt>
<trkpt lat="45.998079" lon="9.796057">
	<ele>1800.80</ele>
	<time>2022-06-28T05:55:12.000Z</time>
</trkpt>
<trkpt lat="45.998078" lon="9.796051">
	<ele>1801.00</ele>
	<time>2022-06-28T05:55:13.000Z</time>
</trkpt>
<trkpt lat="45.998080" lon="9.796030">
	<ele>1801.00</ele>
	<time>2022-06-28T05:55:15.000Z</time>
</trkpt>
<trkpt lat="45.998086" lon="9.796006">
	<ele>1801.40</ele>
	<time>2022-06-28T05:55:18.000Z</time>
</trkpt>
<trkpt lat="45.998089" lon="9.795971">
	<ele>1801.80</ele>
	<time>2022-06-28T05:55:22.000Z</time>
</trkpt>
<trkpt lat="45.998092" lon="9.795964">
	<ele>1801.80</ele>
	<time>2022-06-28T05:55:23.000Z</time>
</trkpt>
<trkpt lat="45.998096" lon="9.795956">
	<ele>1802.00</ele>
	<time>2022-06-28T05:55:24.000Z</time>
</trkpt>
<trkpt lat="45.998098" lon="9.795939">
	<ele>1802.20</ele>
	<time>2022-06-28T05:55:25.000Z</time>
</trkpt>
<trkpt lat="45.998136" lon="9.795901">
	<ele>1802.80</ele>
	<time>2022-06-28T05:55:30.000Z</time>
</trkpt>
<trkpt lat="45.998136" lon="9.795888">
	<ele>1803.00</ele>
	<time>2022-06-28T05:55:31.000Z</time>
</trkpt>
<trkpt lat="45.998135" lon="9.795875">
	<ele>1803.00</ele>
	<time>2022-06-28T05:55:32.000Z</time>
</trkpt>
<trkpt lat="45.998132" lon="9.795860">
	<ele>1803.20</ele>
	<time>2022-06-28T05:55:33.000Z</time>
</trkpt>
<trkpt lat="45.998141" lon="9.795826">
	<ele>1803.80</ele>
	<time>2022-06-28T05:55:37.000Z</time>
</trkpt>
<trkpt lat="45.998157" lon="9.795804">
	<ele>1804.20</ele>
	<time>2022-06-28T05:55:40.000Z</time>
</trkpt>
<trkpt lat="45.998160" lon="9.795794">
	<ele>1804.20</ele>
	<time>2022-06-28T05:55:41.000Z</time>
</trkpt>
<trkpt lat="45.998186" lon="9.795753">
	<ele>1805.20</ele>
	<time>2022-06-28T05:55:47.000Z</time>
</trkpt>
<trkpt lat="45.998190" lon="9.795724">
	<ele>1805.40</ele>
	<time>2022-06-28T05:55:49.000Z</time>
</trkpt>
<trkpt lat="45.998191" lon="9.795718">
	<ele>1805.40</ele>
	<time>2022-06-28T05:55:50.000Z</time>
</trkpt>
<trkpt lat="45.998197" lon="9.795667">
	<ele>1806.00</ele>
	<time>2022-06-28T05:55:54.000Z</time>
</trkpt>
<trkpt lat="45.998199" lon="9.795643">
	<ele>1806.20</ele>
	<time>2022-06-28T05:55:56.000Z</time>
</trkpt>
<trkpt lat="45.998212" lon="9.795609">
	<ele>1806.40</ele>
	<time>2022-06-28T05:56:00.000Z</time>
</trkpt>
<trkpt lat="45.998221" lon="9.795499">
	<ele>1806.80</ele>
	<time>2022-06-28T05:56:08.000Z</time>
</trkpt>
<trkpt lat="45.998235" lon="9.795421">
	<ele>1807.00</ele>
	<time>2022-06-28T05:56:16.000Z</time>
</trkpt>
<trkpt lat="45.998242" lon="9.795430">
	<ele>1807.00</ele>
	<time>2022-06-28T05:56:22.000Z</time>
</trkpt>
<trkpt lat="45.998258" lon="9.795448">
	<ele>1807.00</ele>
	<time>2022-06-28T05:56:28.000Z</time>
</trkpt>
<trkpt lat="45.998280" lon="9.795377">
	<ele>1807.20</ele>
	<time>2022-06-28T05:56:35.000Z</time>
</trkpt>
<trkpt lat="45.998322" lon="9.795227">
	<ele>1807.20</ele>
	<time>2022-06-28T05:56:43.000Z</time>
</trkpt>
<trkpt lat="45.998335" lon="9.795180">
	<ele>1807.20</ele>
	<time>2022-06-28T05:56:46.000Z</time>
</trkpt>
<trkpt lat="45.998353" lon="9.795124">
	<ele>1807.40</ele>
	<time>2022-06-28T05:56:50.000Z</time>
</trkpt>
<trkpt lat="45.998358" lon="9.795107">
	<ele>1807.60</ele>
	<time>2022-06-28T05:56:51.000Z</time>
</trkpt>
<trkpt lat="45.998370" lon="9.794991">
	<ele>1808.20</ele>
	<time>2022-06-28T05:56:58.000Z</time>
</trkpt>
<trkpt lat="45.998370" lon="9.794977">
	<ele>1808.20</ele>
	<time>2022-06-28T05:56:59.000Z</time>
</trkpt>
<trkpt lat="45.998372" lon="9.794961">
	<ele>1808.20</ele>
	<time>2022-06-28T05:57:00.000Z</time>
</trkpt>
<trkpt lat="45.998380" lon="9.794923">
	<ele>1808.40</ele>
	<time>2022-06-28T05:57:02.000Z</time>
</trkpt>
<trkpt lat="45.998405" lon="9.794817">
	<ele>1808.40</ele>
	<time>2022-06-28T05:57:09.000Z</time>
</trkpt>
<trkpt lat="45.998448" lon="9.794665">
	<ele>1809.00</ele>
	<time>2022-06-28T05:57:18.000Z</time>
</trkpt>
<trkpt lat="45.998478" lon="9.794537">
	<ele>1809.20</ele>
	<time>2022-06-28T05:57:27.000Z</time>
</trkpt>
<trkpt lat="45.998480" lon="9.794522">
	<ele>1809.20</ele>
	<time>2022-06-28T05:57:28.000Z</time>
</trkpt>
<trkpt lat="45.998503" lon="9.794444">
	<ele>1809.80</ele>
	<time>2022-06-28T05:57:34.000Z</time>
</trkpt>
<trkpt lat="45.998551" lon="9.794293">
	<ele>1810.00</ele>
	<time>2022-06-28T05:57:44.000Z</time>
</trkpt>
<trkpt lat="45.998597" lon="9.794187">
	<ele>1810.20</ele>
	<time>2022-06-28T05:57:51.000Z</time>
</trkpt>
<trkpt lat="45.998598" lon="9.794171">
	<ele>1810.40</ele>
	<time>2022-06-28T05:57:52.000Z</time>
</trkpt>
<trkpt lat="45.998611" lon="9.794140">
	<ele>1810.60</ele>
	<time>2022-06-28T05:57:54.000Z</time>
</trkpt>
<trkpt lat="45.998644" lon="9.794056">
	<ele>1810.80</ele>
	<time>2022-06-28T05:58:00.000Z</time>
</trkpt>
<trkpt lat="45.998657" lon="9.794022">
	<ele>1810.80</ele>
	<time>2022-06-28T05:58:02.000Z</time>
</trkpt>
<trkpt lat="45.998705" lon="9.793883">
	<ele>1811.40</ele>
	<time>2022-06-28T05:58:11.000Z</time>
</trkpt>
<trkpt lat="45.998712" lon="9.793867">
	<ele>1811.40</ele>
	<time>2022-06-28T05:58:12.000Z</time>
</trkpt>
<trkpt lat="45.998739" lon="9.793802">
	<ele>1811.60</ele>
	<time>2022-06-28T05:58:17.000Z</time>
</trkpt>
<trkpt lat="45.998742" lon="9.793788">
	<ele>1811.60</ele>
	<time>2022-06-28T05:58:18.000Z</time>
</trkpt>
<trkpt lat="45.998776" lon="9.793668">
	<ele>1811.80</ele>
	<time>2022-06-28T05:58:26.000Z</time>
</trkpt>
<trkpt lat="45.998830" lon="9.793579">
	<ele>1812.00</ele>
	<time>2022-06-28T05:58:33.000Z</time>
</trkpt>
<trkpt lat="45.998837" lon="9.793550">
	<ele>1812.00</ele>
	<time>2022-06-28T05:58:35.000Z</time>
</trkpt>
<trkpt lat="45.998843" lon="9.793505">
	<ele>1812.40</ele>
	<time>2022-06-28T05:58:38.000Z</time>
</trkpt>
<trkpt lat="45.998849" lon="9.793479">
	<ele>1812.60</ele>
	<time>2022-06-28T05:58:40.000Z</time>
</trkpt>
<trkpt lat="45.998865" lon="9.793457">
	<ele>1813.00</ele>
	<time>2022-06-28T05:58:42.000Z</time>
</trkpt>
<trkpt lat="45.998869" lon="9.793446">
	<ele>1813.00</ele>
	<time>2022-06-28T05:58:43.000Z</time>
</trkpt>
<trkpt lat="45.998878" lon="9.793390">
	<ele>1813.20</ele>
	<time>2022-06-28T05:58:47.000Z</time>
</trkpt>
<trkpt lat="45.998936" lon="9.793280">
	<ele>1813.40</ele>
	<time>2022-06-28T05:58:56.000Z</time>
</trkpt>
<trkpt lat="45.998943" lon="9.793262">
	<ele>1813.60</ele>
	<time>2022-06-28T05:58:58.000Z</time>
</trkpt>
<trkpt lat="45.998943" lon="9.793224">
	<ele>1813.80</ele>
	<time>2022-06-28T05:59:00.000Z</time>
</trkpt>
<trkpt lat="45.998946" lon="9.793206">
	<ele>1814.20</ele>
	<time>2022-06-28T05:59:02.000Z</time>
</trkpt>
<trkpt lat="45.998955" lon="9.793196">
	<ele>1814.40</ele>
	<time>2022-06-28T05:59:03.000Z</time>
</trkpt>
<trkpt lat="45.998965" lon="9.793189">
	<ele>1814.80</ele>
	<time>2022-06-28T05:59:04.000Z</time>
</trkpt>
<trkpt lat="45.999010" lon="9.793151">
	<ele>1814.80</ele>
	<time>2022-06-28T05:59:08.000Z</time>
</trkpt>
<trkpt lat="45.999019" lon="9.793137">
	<ele>1814.60</ele>
	<time>2022-06-28T05:59:10.000Z</time>
</trkpt>
<trkpt lat="45.999071" lon="9.793077">
	<ele>1814.20</ele>
	<time>2022-06-28T05:59:16.000Z</time>
</trkpt>
<trkpt lat="45.999099" lon="9.793041">
	<ele>1814.20</ele>
	<time>2022-06-28T05:59:19.000Z</time>
</trkpt>
<trkpt lat="45.999169" lon="9.792979">
	<ele>1813.80</ele>
	<time>2022-06-28T05:59:27.000Z</time>
</trkpt>
<trkpt lat="45.999179" lon="9.792978">
	<ele>1814.00</ele>
	<time>2022-06-28T05:59:28.000Z</time>
</trkpt>
<trkpt lat="45.999203" lon="9.792939">
	<ele>1814.20</ele>
	<time>2022-06-28T05:59:33.000Z</time>
</trkpt>
<trkpt lat="45.999201" lon="9.792926">
	<ele>1814.20</ele>
	<time>2022-06-28T05:59:34.000Z</time>
</trkpt>
<trkpt lat="45.999203" lon="9.792842">
	<ele>1814.20</ele>
	<time>2022-06-28T05:59:39.000Z</time>
</trkpt>
<trkpt lat="45.999198" lon="9.792808">
	<ele>1814.40</ele>
	<time>2022-06-28T05:59:42.000Z</time>
</trkpt>
<trkpt lat="45.999195" lon="9.792745">
	<ele>1814.40</ele>
	<time>2022-06-28T05:59:47.000Z</time>
</trkpt>
<trkpt lat="45.999197" lon="9.792705">
	<ele>1814.40</ele>
	<time>2022-06-28T05:59:50.000Z</time>
</trkpt>
<trkpt lat="45.999195" lon="9.792675">
	<ele>1814.60</ele>
	<time>2022-06-28T05:59:52.000Z</time>
</trkpt>
<trkpt lat="45.999213" lon="9.792605">
	<ele>1814.80</ele>
	<time>2022-06-28T05:59:56.000Z</time>
</trkpt>
<trkpt lat="45.999206" lon="9.792592">
	<ele>1814.80</ele>
	<time>2022-06-28T05:59:57.000Z</time>
</trkpt>
<trkpt lat="45.999196" lon="9.792559">
	<ele>1814.80</ele>
	<time>2022-06-28T05:59:59.000Z</time>
</trkpt>
<trkpt lat="45.999182" lon="9.792524">
	<ele>1814.80</ele>
	<time>2022-06-28T06:00:02.000Z</time>
</trkpt>
<trkpt lat="45.999188" lon="9.792401">
	<ele>1815.20</ele>
	<time>2022-06-28T06:00:10.000Z</time>
</trkpt>
<trkpt lat="45.999177" lon="9.792328">
	<ele>1815.80</ele>
	<time>2022-06-28T06:00:16.000Z</time>
</trkpt>
<trkpt lat="45.999180" lon="9.792318">
	<ele>1816.00</ele>
	<time>2022-06-28T06:00:17.000Z</time>
</trkpt>
<trkpt lat="45.999197" lon="9.792315">
	<ele>1816.40</ele>
	<time>2022-06-28T06:00:19.000Z</time>
</trkpt>
<trkpt lat="45.999255" lon="9.792321">
	<ele>1816.60</ele>
	<time>2022-06-28T06:00:26.000Z</time>
</trkpt>
<trkpt lat="45.999284" lon="9.792316">
	<ele>1816.60</ele>
	<time>2022-06-28T06:00:29.000Z</time>
</trkpt>
<trkpt lat="45.999326" lon="9.792315">
	<ele>1816.80</ele>
	<time>2022-06-28T06:00:33.000Z</time>
</trkpt>
<trkpt lat="45.999349" lon="9.792307">
	<ele>1817.00</ele>
	<time>2022-06-28T06:00:37.000Z</time>
</trkpt>
<trkpt lat="45.999356" lon="9.792314">
	<ele>1817.20</ele>
	<time>2022-06-28T06:00:39.000Z</time>
</trkpt>
<trkpt lat="45.999385" lon="9.792306">
	<ele>1817.40</ele>
	<time>2022-06-28T06:00:42.000Z</time>
</trkpt>
<trkpt lat="45.999396" lon="9.792285">
	<ele>1817.20</ele>
	<time>2022-06-28T06:00:46.000Z</time>
</trkpt>
<trkpt lat="45.999406" lon="9.792280">
	<ele>1817.20</ele>
	<time>2022-06-28T06:00:47.000Z</time>
</trkpt>
<trkpt lat="45.999488" lon="9.792245">
	<ele>1817.20</ele>
	<time>2022-06-28T06:00:54.000Z</time>
</trkpt>
<trkpt lat="45.999583" lon="9.792211">
	<ele>1817.40</ele>
	<time>2022-06-28T06:01:03.000Z</time>
</trkpt>
<trkpt lat="45.999631" lon="9.792142">
	<ele>1817.60</ele>
	<time>2022-06-28T06:01:09.000Z</time>
</trkpt>
<trkpt lat="45.999653" lon="9.792127">
	<ele>1817.60</ele>
	<time>2022-06-28T06:01:11.000Z</time>
</trkpt>
<trkpt lat="45.999713" lon="9.792038">
	<ele>1817.80</ele>
	<time>2022-06-28T06:01:18.000Z</time>
</trkpt>
<trkpt lat="45.999729" lon="9.792002">
	<ele>1818.40</ele>
	<time>2022-06-28T06:01:21.000Z</time>
</trkpt>
<trkpt lat="45.999783" lon="9.791951">
	<ele>1818.60</ele>
	<time>2022-06-28T06:01:27.000Z</time>
</trkpt>
<trkpt lat="45.999795" lon="9.791947">
	<ele>1818.60</ele>
	<time>2022-06-28T06:01:28.000Z</time>
</trkpt>
<trkpt lat="45.999916" lon="9.791927">
	<ele>1819.00</ele>
	<time>2022-06-28T06:01:38.000Z</time>
</trkpt>
<trkpt lat="46.000029" lon="9.791921">
	<ele>1820.00</ele>
	<time>2022-06-28T06:01:46.000Z</time>
</trkpt>
<trkpt lat="46.000044" lon="9.791925">
	<ele>1820.20</ele>
	<time>2022-06-28T06:01:47.000Z</time>
</trkpt>
<trkpt lat="46.000100" lon="9.791953">
	<ele>1820.20</ele>
	<time>2022-06-28T06:01:52.000Z</time>
</trkpt>
<trkpt lat="46.000111" lon="9.791964">
	<ele>1820.20</ele>
	<time>2022-06-28T06:01:53.000Z</time>
</trkpt>
<trkpt lat="46.000188" lon="9.791972">
	<ele>1820.20</ele>
	<time>2022-06-28T06:01:58.000Z</time>
</trkpt>
<trkpt lat="46.000208" lon="9.791960">
	<ele>1820.20</ele>
	<time>2022-06-28T06:02:00.000Z</time>
</trkpt>
<trkpt lat="46.000274" lon="9.791862">
	<ele>1820.20</ele>
	<time>2022-06-28T06:02:08.000Z</time>
</trkpt>
<trkpt lat="46.000336" lon="9.791734">
	<ele>1820.20</ele>
	<time>2022-06-28T06:02:18.000Z</time>
</trkpt>
<trkpt lat="46.000392" lon="9.791676">
	<ele>1820.00</ele>
	<time>2022-06-28T06:02:24.000Z</time>
</trkpt>
<trkpt lat="46.000414" lon="9.791669">
	<ele>1819.80</ele>
	<time>2022-06-28T06:02:26.000Z</time>
</trkpt>
<trkpt lat="46.000507" lon="9.791683">
	<ele>1819.80</ele>
	<time>2022-06-28T06:02:34.000Z</time>
</trkpt>
<trkpt lat="46.000543" lon="9.791694">
	<ele>1819.80</ele>
	<time>2022-06-28T06:02:37.000Z</time>
</trkpt>
<trkpt lat="46.000586" lon="9.791689">
	<ele>1820.00</ele>
	<time>2022-06-28T06:02:40.000Z</time>
</trkpt>
<trkpt lat="46.000633" lon="9.791677">
	<ele>1820.00</ele>
	<time>2022-06-28T06:02:44.000Z</time>
</trkpt>
<trkpt lat="46.000763" lon="9.791677">
	<ele>1819.80</ele>
	<time>2022-06-28T06:02:54.000Z</time>
</trkpt>
<trkpt lat="46.000773" lon="9.791681">
	<ele>1819.80</ele>
	<time>2022-06-28T06:02:55.000Z</time>
</trkpt>
<trkpt lat="46.000837" lon="9.791696">
	<ele>1819.60</ele>
	<time>2022-06-28T06:03:00.000Z</time>
</trkpt>
<trkpt lat="46.000863" lon="9.791711">
	<ele>1819.80</ele>
	<time>2022-06-28T06:03:02.000Z</time>
</trkpt>
<trkpt lat="46.000930" lon="9.791683">
	<ele>1820.00</ele>
	<time>2022-06-28T06:03:08.000Z</time>
</trkpt>
<trkpt lat="46.000943" lon="9.791680">
	<ele>1820.00</ele>
	<time>2022-06-28T06:03:09.000Z</time>
</trkpt>
<trkpt lat="46.001014" lon="9.791665">
	<ele>1820.00</ele>
	<time>2022-06-28T06:03:16.000Z</time>
</trkpt>
<trkpt lat="46.001055" lon="9.791677">
	<ele>1820.00</ele>
	<time>2022-06-28T06:03:21.000Z</time>
</trkpt>
<trkpt lat="46.001073" lon="9.791677">
	<ele>1819.80</ele>
	<time>2022-06-28T06:03:23.000Z</time>
</trkpt>
<trkpt lat="46.001088" lon="9.791675">
	<ele>1819.80</ele>
	<time>2022-06-28T06:03:25.000Z</time>
</trkpt>
<trkpt lat="46.001153" lon="9.791618">
	<ele>1819.80</ele>
	<time>2022-06-28T06:03:32.000Z</time>
</trkpt>
<trkpt lat="46.001204" lon="9.791523">
	<ele>1820.00</ele>
	<time>2022-06-28T06:03:40.000Z</time>
</trkpt>
<trkpt lat="46.001225" lon="9.791394">
	<ele>1819.40</ele>
	<time>2022-06-28T06:03:48.000Z</time>
</trkpt>
<trkpt lat="46.001229" lon="9.791307">
	<ele>1819.40</ele>
	<time>2022-06-28T06:03:54.000Z</time>
</trkpt>
<trkpt lat="46.001234" lon="9.791257">
	<ele>1819.20</ele>
	<time>2022-06-28T06:03:57.000Z</time>
</trkpt>
<trkpt lat="46.001266" lon="9.791183">
	<ele>1819.40</ele>
	<time>2022-06-28T06:04:03.000Z</time>
</trkpt>
<trkpt lat="46.001277" lon="9.791160">
	<ele>1819.40</ele>
	<time>2022-06-28T06:04:05.000Z</time>
</trkpt>
<trkpt lat="46.001303" lon="9.791023">
	<ele>1819.60</ele>
	<time>2022-06-28T06:04:14.000Z</time>
</trkpt>
<trkpt lat="46.001316" lon="9.791012">
	<ele>1819.80</ele>
	<time>2022-06-28T06:04:15.000Z</time>
</trkpt>
<trkpt lat="46.001405" lon="9.790850">
	<ele>1819.60</ele>
	<time>2022-06-28T06:04:28.000Z</time>
</trkpt>
<trkpt lat="46.001413" lon="9.790819">
	<ele>1819.40</ele>
	<time>2022-06-28T06:04:30.000Z</time>
</trkpt>
<trkpt lat="46.001460" lon="9.790697">
	<ele>1819.20</ele>
	<time>2022-06-28T06:04:39.000Z</time>
</trkpt>
<trkpt lat="46.001485" lon="9.790662">
	<ele>1819.00</ele>
	<time>2022-06-28T06:04:42.000Z</time>
</trkpt>
<trkpt lat="46.001534" lon="9.790614">
	<ele>1819.00</ele>
	<time>2022-06-28T06:04:47.000Z</time>
</trkpt>
<trkpt lat="46.001587" lon="9.790555">
	<ele>1819.00</ele>
	<time>2022-06-28T06:04:52.000Z</time>
</trkpt>
<trkpt lat="46.001597" lon="9.790525">
	<ele>1819.00</ele>
	<time>2022-06-28T06:04:54.000Z</time>
</trkpt>
<trkpt lat="46.001639" lon="9.790394">
	<ele>1818.80</ele>
	<time>2022-06-28T06:05:04.000Z</time>
</trkpt>
<trkpt lat="46.001721" lon="9.790283">
	<ele>1818.40</ele>
	<time>2022-06-28T06:05:13.000Z</time>
</trkpt>
<trkpt lat="46.001731" lon="9.790273">
	<ele>1818.40</ele>
	<time>2022-06-28T06:05:14.000Z</time>
</trkpt>
<trkpt lat="46.001833" lon="9.790150">
	<ele>1818.60</ele>
	<time>2022-06-28T06:05:25.000Z</time>
</trkpt>
<trkpt lat="46.001885" lon="9.790069">
	<ele>1818.40</ele>
	<time>2022-06-28T06:05:32.000Z</time>
</trkpt>
<trkpt lat="46.001900" lon="9.790051">
	<ele>1818.40</ele>
	<time>2022-06-28T06:05:34.000Z</time>
</trkpt>
<trkpt lat="46.001932" lon="9.789908">
	<ele>1818.60</ele>
	<time>2022-06-28T06:05:42.000Z</time>
</trkpt>
<trkpt lat="46.001947" lon="9.789794">
	<ele>1818.40</ele>
	<time>2022-06-28T06:05:48.000Z</time>
</trkpt>
<trkpt lat="46.001933" lon="9.789734">
	<ele>1818.40</ele>
	<time>2022-06-28T06:05:53.000Z</time>
</trkpt>
<trkpt lat="46.001931" lon="9.789718">
	<ele>1818.40</ele>
	<time>2022-06-28T06:05:54.000Z</time>
</trkpt>
<trkpt lat="46.001929" lon="9.789598">
	<ele>1818.20</ele>
	<time>2022-06-28T06:06:02.000Z</time>
</trkpt>
<trkpt lat="46.002012" lon="9.789507">
	<ele>1818.20</ele>
	<time>2022-06-28T06:06:12.000Z</time>
</trkpt>
<trkpt lat="46.002064" lon="9.789496">
	<ele>1818.00</ele>
	<time>2022-06-28T06:06:18.000Z</time>
</trkpt>
<trkpt lat="46.002090" lon="9.789496">
	<ele>1818.00</ele>
	<time>2022-06-28T06:06:20.000Z</time>
</trkpt>
<trkpt lat="46.002135" lon="9.789485">
	<ele>1817.80</ele>
	<time>2022-06-28T06:06:24.000Z</time>
</trkpt>
<trkpt lat="46.002180" lon="9.789489">
	<ele>1817.60</ele>
	<time>2022-06-28T06:06:28.000Z</time>
</trkpt>
<trkpt lat="46.002197" lon="9.789481">
	<ele>1817.60</ele>
	<time>2022-06-28T06:06:29.000Z</time>
</trkpt>
<trkpt lat="46.002240" lon="9.789481">
	<ele>1817.60</ele>
	<time>2022-06-28T06:06:33.000Z</time>
</trkpt>
<trkpt lat="46.002321" lon="9.789426">
	<ele>1817.80</ele>
	<time>2022-06-28T06:06:40.000Z</time>
</trkpt>
<trkpt lat="46.002360" lon="9.789316">
	<ele>1817.80</ele>
	<time>2022-06-28T06:06:47.000Z</time>
</trkpt>
<trkpt lat="46.002399" lon="9.789171">
	<ele>1818.00</ele>
	<time>2022-06-28T06:06:57.000Z</time>
</trkpt>
<trkpt lat="46.002402" lon="9.789159">
	<ele>1818.00</ele>
	<time>2022-06-28T06:06:58.000Z</time>
</trkpt>
<trkpt lat="46.002419" lon="9.789132">
	<ele>1818.00</ele>
	<time>2022-06-28T06:07:00.000Z</time>
</trkpt>
<trkpt lat="46.002447" lon="9.789058">
	<ele>1818.20</ele>
	<time>2022-06-28T06:07:05.000Z</time>
</trkpt>
<trkpt lat="46.002490" lon="9.788932">
	<ele>1818.20</ele>
	<time>2022-06-28T06:07:13.000Z</time>
</trkpt>
<trkpt lat="46.002533" lon="9.788815">
	<ele>1818.40</ele>
	<time>2022-06-28T06:07:21.000Z</time>
</trkpt>
<trkpt lat="46.002617" lon="9.788817">
	<ele>1818.40</ele>
	<time>2022-06-28T06:07:28.000Z</time>
</trkpt>
<trkpt lat="46.002626" lon="9.788823">
	<ele>1818.20</ele>
	<time>2022-06-28T06:07:29.000Z</time>
</trkpt>
<trkpt lat="46.002684" lon="9.788858">
	<ele>1818.00</ele>
	<time>2022-06-28T06:07:34.000Z</time>
</trkpt>
<trkpt lat="46.002751" lon="9.788874">
	<ele>1817.80</ele>
	<time>2022-06-28T06:07:39.000Z</time>
</trkpt>
<trkpt lat="46.002815" lon="9.788888">
	<ele>1817.80</ele>
	<time>2022-06-28T06:07:45.000Z</time>
</trkpt>
<trkpt lat="46.002905" lon="9.788949">
	<ele>1817.40</ele>
	<time>2022-06-28T06:07:53.000Z</time>
</trkpt>
<trkpt lat="46.002918" lon="9.788961">
	<ele>1817.40</ele>
	<time>2022-06-28T06:07:54.000Z</time>
</trkpt>
<trkpt lat="46.002952" lon="9.789004">
	<ele>1817.40</ele>
	<time>2022-06-28T06:07:58.000Z</time>
</trkpt>
<trkpt lat="46.002993" lon="9.789058">
	<ele>1817.40</ele>
	<time>2022-06-28T06:08:03.000Z</time>
</trkpt>
<trkpt lat="46.002992" lon="9.789056">
	<ele>1817.40</ele>
	<time>2022-06-28T06:08:05.000Z</time>
</trkpt>
<trkpt lat="46.002993" lon="9.789045">
	<ele>1817.20</ele>
	<time>2022-06-28T06:08:07.000Z</time>
</trkpt>
<trkpt lat="46.002995" lon="9.789047">
	<ele>1817.00</ele>
	<time>2022-06-28T06:08:08.000Z</time>
</trkpt>
<trkpt lat="46.002981" lon="9.789037">
	<ele>1817.40</ele>
	<time>2022-06-28T06:08:16.000Z</time>
</trkpt>
<trkpt lat="46.003024" lon="9.789059">
	<ele>1817.40</ele>
	<time>2022-06-28T06:08:25.000Z</time>
</trkpt>
<trkpt lat="46.003114" lon="9.789084">
	<ele>1817.40</ele>
	<time>2022-06-28T06:08:32.000Z</time>
</trkpt>
<trkpt lat="46.003187" lon="9.789103">
	<ele>1817.00</ele>
	<time>2022-06-28T06:08:38.000Z</time>
</trkpt>
<trkpt lat="46.003215" lon="9.789125">
	<ele>1816.80</ele>
	<time>2022-06-28T06:08:41.000Z</time>
</trkpt>
<trkpt lat="46.003219" lon="9.789138">
	<ele>1816.80</ele>
	<time>2022-06-28T06:08:42.000Z</time>
</trkpt>
<trkpt lat="46.003254" lon="9.789267">
	<ele>1817.60</ele>
	<time>2022-06-28T06:08:50.000Z</time>
</trkpt>
<trkpt lat="46.003275" lon="9.789402">
	<ele>1817.60</ele>
	<time>2022-06-28T06:08:59.000Z</time>
</trkpt>
<trkpt lat="46.003328" lon="9.789487">
	<ele>1818.00</ele>
	<time>2022-06-28T06:09:05.000Z</time>
</trkpt>
<trkpt lat="46.003341" lon="9.789510">
	<ele>1817.80</ele>
	<time>2022-06-28T06:09:07.000Z</time>
</trkpt>
<trkpt lat="46.003380" lon="9.789606">
	<ele>1818.00</ele>
	<time>2022-06-28T06:09:13.000Z</time>
</trkpt>
<trkpt lat="46.003385" lon="9.789631">
	<ele>1818.20</ele>
	<time>2022-06-28T06:09:15.000Z</time>
</trkpt>
<trkpt lat="46.003394" lon="9.789707">
	<ele>1818.00</ele>
	<time>2022-06-28T06:09:19.000Z</time>
</trkpt>
<trkpt lat="46.003414" lon="9.789895">
	<ele>1817.80</ele>
	<time>2022-06-28T06:09:29.000Z</time>
</trkpt>
<trkpt lat="46.003412" lon="9.790070">
	<ele>1818.20</ele>
	<time>2022-06-28T06:09:39.000Z</time>
</trkpt>
<trkpt lat="46.003383" lon="9.790241">
	<ele>1818.20</ele>
	<time>2022-06-28T06:09:49.000Z</time>
</trkpt>
<trkpt lat="46.003370" lon="9.790281">
	<ele>1818.40</ele>
	<time>2022-06-28T06:09:52.000Z</time>
</trkpt>
<trkpt lat="46.003402" lon="9.790337">
	<ele>1818.20</ele>
	<time>2022-06-28T06:09:56.000Z</time>
</trkpt>
<trkpt lat="46.003407" lon="9.790340">
	<ele>1818.20</ele>
	<time>2022-06-28T06:09:58.000Z</time>
</trkpt>
<trkpt lat="46.003409" lon="9.790340">
	<ele>1818.20</ele>
	<time>2022-06-28T06:10:01.000Z</time>
</trkpt>
<trkpt lat="46.003476" lon="9.790368">
	<ele>1818.20</ele>
	<time>2022-06-28T06:10:08.000Z</time>
</trkpt>
<trkpt lat="46.003561" lon="9.790349">
	<ele>1818.20</ele>
	<time>2022-06-28T06:10:14.000Z</time>
</trkpt>
<trkpt lat="46.003638" lon="9.790296">
	<ele>1818.40</ele>
	<time>2022-06-28T06:10:22.000Z</time>
</trkpt>
<trkpt lat="46.003675" lon="9.790279">
	<ele>1818.20</ele>
	<time>2022-06-28T06:10:26.000Z</time>
</trkpt>
<trkpt lat="46.003713" lon="9.790291">
	<ele>1818.20</ele>
	<time>2022-06-28T06:10:29.000Z</time>
</trkpt>
<trkpt lat="46.003739" lon="9.790290">
	<ele>1818.20</ele>
	<time>2022-06-28T06:10:31.000Z</time>
</trkpt>
<trkpt lat="46.003763" lon="9.790297">
	<ele>1818.40</ele>
	<time>2022-06-28T06:10:33.000Z</time>
</trkpt>
<trkpt lat="46.003806" lon="9.790317">
	<ele>1818.40</ele>
	<time>2022-06-28T06:10:36.000Z</time>
</trkpt>
<trkpt lat="46.003867" lon="9.790357">
	<ele>1818.60</ele>
	<time>2022-06-28T06:10:41.000Z</time>
</trkpt>
<trkpt lat="46.003883" lon="9.790365">
	<ele>1818.60</ele>
	<time>2022-06-28T06:10:43.000Z</time>
</trkpt>
<trkpt lat="46.003900" lon="9.790360">
	<ele>1818.20</ele>
	<time>2022-06-28T06:10:45.000Z</time>
</trkpt>
<trkpt lat="46.003971" lon="9.790373">
	<ele>1817.40</ele>
	<time>2022-06-28T06:10:51.000Z</time>
</trkpt>
<trkpt lat="46.003984" lon="9.790373">
	<ele>1817.00</ele>
	<time>2022-06-28T06:10:52.000Z</time>
</trkpt>
<trkpt lat="46.004080" lon="9.790357">
	<ele>1816.20</ele>
	<time>2022-06-28T06:11:00.000Z</time>
</trkpt>
<trkpt lat="46.004105" lon="9.790342">
	<ele>1816.00</ele>
	<time>2022-06-28T06:11:02.000Z</time>
</trkpt>
<trkpt lat="46.004203" lon="9.790313">
	<ele>1815.80</ele>
	<time>2022-06-28T06:11:10.000Z</time>
</trkpt>
<trkpt lat="46.004269" lon="9.790293">
	<ele>1816.40</ele>
	<time>2022-06-28T06:11:17.000Z</time>
</trkpt>
<trkpt lat="46.004271" lon="9.790300">
	<ele>1816.40</ele>
	<time>2022-06-28T06:11:18.000Z</time>
</trkpt>
<trkpt lat="46.004287" lon="9.790323">
	<ele>1817.00</ele>
	<time>2022-06-28T06:11:21.000Z</time>
</trkpt>
<trkpt lat="46.004293" lon="9.790332">
	<ele>1817.20</ele>
	<time>2022-06-28T06:11:22.000Z</time>
</trkpt>
<trkpt lat="46.004293" lon="9.790350">
	<ele>1817.60</ele>
	<time>2022-06-28T06:11:25.000Z</time>
</trkpt>
<trkpt lat="46.004291" lon="9.790358">
	<ele>1817.80</ele>
	<time>2022-06-28T06:11:26.000Z</time>
</trkpt>
<trkpt lat="46.004291" lon="9.790379">
	<ele>1818.00</ele>
	<time>2022-06-28T06:11:28.000Z</time>
</trkpt>
<trkpt lat="46.004293" lon="9.790393">
	<ele>1818.20</ele>
	<time>2022-06-28T06:11:29.000Z</time>
</trkpt>
<trkpt lat="46.004292" lon="9.790408">
	<ele>1818.40</ele>
	<time>2022-06-28T06:11:31.000Z</time>
</trkpt>
<trkpt lat="46.004282" lon="9.790436">
	<ele>1818.80</ele>
	<time>2022-06-28T06:11:34.000Z</time>
</trkpt>
<trkpt lat="46.004261" lon="9.790458">
	<ele>1819.20</ele>
	<time>2022-06-28T06:11:37.000Z</time>
</trkpt>
<trkpt lat="46.004253" lon="9.790460">
	<ele>1819.20</ele>
	<time>2022-06-28T06:11:38.000Z</time>
</trkpt>
<trkpt lat="46.004245" lon="9.790469">
	<ele>1819.40</ele>
	<time>2022-06-28T06:11:40.000Z</time>
</trkpt>
<trkpt lat="46.004243" lon="9.790468">
	<ele>1819.40</ele>
	<time>2022-06-28T06:11:44.000Z</time>
</trkpt>
<trkpt lat="46.004270" lon="9.790523">
	<ele>1819.60</ele>
	<time>2022-06-28T06:11:51.000Z</time>
</trkpt>
<trkpt lat="46.004377" lon="9.790601">
	<ele>1819.80</ele>
	<time>2022-06-28T06:12:02.000Z</time>
</trkpt>
<trkpt lat="46.004470" lon="9.790601">
	<ele>1819.80</ele>
	<time>2022-06-28T06:12:11.000Z</time>
</trkpt>
<trkpt lat="46.004525" lon="9.790634">
	<ele>1819.00</ele>
	<time>2022-06-28T06:12:18.000Z</time>
</trkpt>
<trkpt lat="46.004534" lon="9.790638">
	<ele>1819.00</ele>
	<time>2022-06-28T06:12:19.000Z</time>
</trkpt>
<trkpt lat="46.004550" lon="9.790629">
	<ele>1819.00</ele>
	<time>2022-06-28T06:12:21.000Z</time>
</trkpt>
<trkpt lat="46.004568" lon="9.790605">
	<ele>1818.60</ele>
	<time>2022-06-28T06:12:24.000Z</time>
</trkpt>
<trkpt lat="46.004599" lon="9.790580">
	<ele>1818.00</ele>
	<time>2022-06-28T06:12:27.000Z</time>
</trkpt>
<trkpt lat="46.004613" lon="9.790556">
	<ele>1817.40</ele>
	<time>2022-06-28T06:12:31.000Z</time>
</trkpt>
<trkpt lat="46.004617" lon="9.790551">
	<ele>1817.20</ele>
	<time>2022-06-28T06:12:32.000Z</time>
</trkpt>
<trkpt lat="46.004630" lon="9.790542">
	<ele>1817.00</ele>
	<time>2022-06-28T06:12:34.000Z</time>
</trkpt>
<trkpt lat="46.004637" lon="9.790539">
	<ele>1817.00</ele>
	<time>2022-06-28T06:12:35.000Z</time>
</trkpt>
<trkpt lat="46.004649" lon="9.790540">
	<ele>1816.80</ele>
	<time>2022-06-28T06:12:37.000Z</time>
</trkpt>
<trkpt lat="46.004647" lon="9.790558">
	<ele>1816.60</ele>
	<time>2022-06-28T06:12:40.000Z</time>
</trkpt>
<trkpt lat="46.004639" lon="9.790588">
	<ele>1815.80</ele>
	<time>2022-06-28T06:12:43.000Z</time>
</trkpt>
<trkpt lat="46.004630" lon="9.790602">
	<ele>1815.60</ele>
	<time>2022-06-28T06:12:44.000Z</time>
</trkpt>
<trkpt lat="46.004623" lon="9.790659">
	<ele>1814.60</ele>
	<time>2022-06-28T06:12:50.000Z</time>
</trkpt>
<trkpt lat="46.004618" lon="9.790692">
	<ele>1814.00</ele>
	<time>2022-06-28T06:12:54.000Z</time>
</trkpt>
<trkpt lat="46.004611" lon="9.790724">
	<ele>1813.60</ele>
	<time>2022-06-28T06:12:57.000Z</time>
</trkpt>
<trkpt lat="46.004612" lon="9.790743">
	<ele>1813.40</ele>
	<time>2022-06-28T06:12:59.000Z</time>
</trkpt>
<trkpt lat="46.004614" lon="9.790774">
	<ele>1812.60</ele>
	<time>2022-06-28T06:13:03.000Z</time>
</trkpt>
<trkpt lat="46.004615" lon="9.790785">
	<ele>1812.40</ele>
	<time>2022-06-28T06:13:04.000Z</time>
</trkpt>
<trkpt lat="46.004643" lon="9.790819">
	<ele>1811.20</ele>
	<time>2022-06-28T06:13:10.000Z</time>
</trkpt>
<trkpt lat="46.004687" lon="9.790792">
	<ele>1810.60</ele>
	<time>2022-06-28T06:13:14.000Z</time>
</trkpt>
<trkpt lat="46.004691" lon="9.790787">
	<ele>1810.60</ele>
	<time>2022-06-28T06:13:15.000Z</time>
</trkpt>
<trkpt lat="46.004711" lon="9.790774">
	<ele>1810.60</ele>
	<time>2022-06-28T06:13:17.000Z</time>
</trkpt>
<trkpt lat="46.004748" lon="9.790751">
	<ele>1810.40</ele>
	<time>2022-06-28T06:13:22.000Z</time>
</trkpt>
<trkpt lat="46.004764" lon="9.790744">
	<ele>1810.20</ele>
	<time>2022-06-28T06:13:24.000Z</time>
</trkpt>
<trkpt lat="46.004767" lon="9.790738">
	<ele>1810.00</ele>
	<time>2022-06-28T06:13:25.000Z</time>
</trkpt>
<trkpt lat="46.004771" lon="9.790753">
	<ele>1809.20</ele>
	<time>2022-06-28T06:13:31.000Z</time>
</trkpt>
<trkpt lat="46.004766" lon="9.790764">
	<ele>1809.00</ele>
	<time>2022-06-28T06:13:33.000Z</time>
</trkpt>
<trkpt lat="46.004760" lon="9.790793">
	<ele>1808.40</ele>
	<time>2022-06-28T06:13:37.000Z</time>
</trkpt>
<trkpt lat="46.004772" lon="9.790813">
	<ele>1807.80</ele>
	<time>2022-06-28T06:13:40.000Z</time>
</trkpt>
<trkpt lat="46.004763" lon="9.790836">
	<ele>1807.60</ele>
	<time>2022-06-28T06:13:43.000Z</time>
</trkpt>
<trkpt lat="46.004757" lon="9.790871">
	<ele>1806.80</ele>
	<time>2022-06-28T06:13:47.000Z</time>
</trkpt>
<trkpt lat="46.004762" lon="9.790877">
	<ele>1806.40</ele>
	<time>2022-06-28T06:13:50.000Z</time>
</trkpt>
<trkpt lat="46.004733" lon="9.790848">
	<ele>1806.40</ele>
	<time>2022-06-28T06:13:56.000Z</time>
</trkpt>
<trkpt lat="46.004747" lon="9.790864">
	<ele>1806.20</ele>
	<time>2022-06-28T06:14:05.000Z</time>
</trkpt>
<trkpt lat="46.004747" lon="9.790864">
	<ele>1805.80</ele>
	<time>2022-06-28T06:14:13.000Z</time>
</trkpt>
<trkpt lat="46.004753" lon="9.790863">
	<ele>1805.20</ele>
	<time>2022-06-28T06:14:18.000Z</time>
</trkpt>
<trkpt lat="46.004765" lon="9.790855">
	<ele>1804.80</ele>
	<time>2022-06-28T06:14:22.000Z</time>
</trkpt>
<trkpt lat="46.004757" lon="9.790866">
	<ele>1804.20</ele>
	<time>2022-06-28T06:14:25.000Z</time>
</trkpt>
<trkpt lat="46.004757" lon="9.790867">
	<ele>1804.00</ele>
	<time>2022-06-28T06:14:26.000Z</time>
</trkpt>
<trkpt lat="46.004765" lon="9.790870">
	<ele>1804.00</ele>
	<time>2022-06-28T06:14:27.000Z</time>
</trkpt>
<trkpt lat="46.004771" lon="9.790878">
	<ele>1803.80</ele>
	<time>2022-06-28T06:14:28.000Z</time>
</trkpt>
<trkpt lat="46.004772" lon="9.790893">
	<ele>1803.40</ele>
	<time>2022-06-28T06:14:29.000Z</time>
</trkpt>
<trkpt lat="46.004773" lon="9.790908">
	<ele>1803.20</ele>
	<time>2022-06-28T06:14:30.000Z</time>
</trkpt>
<trkpt lat="46.004750" lon="9.790929">
	<ele>1802.60</ele>
	<time>2022-06-28T06:14:34.000Z</time>
</trkpt>
<trkpt lat="46.004739" lon="9.790943">
	<ele>1802.20</ele>
	<time>2022-06-28T06:14:36.000Z</time>
</trkpt>
<trkpt lat="46.004708" lon="9.790961">
	<ele>1801.80</ele>
	<time>2022-06-28T06:14:39.000Z</time>
</trkpt>
<trkpt lat="46.004645" lon="9.790994">
	<ele>1801.60</ele>
	<time>2022-06-28T06:14:44.000Z</time>
</trkpt>
<trkpt lat="46.004637" lon="9.791009">
	<ele>1801.60</ele>
	<time>2022-06-28T06:14:45.000Z</time>
</trkpt>
<trkpt lat="46.004590" lon="9.791091">
	<ele>1801.60</ele>
	<time>2022-06-28T06:14:52.000Z</time>
</trkpt>
<trkpt lat="46.004591" lon="9.791116">
	<ele>1801.60</ele>
	<time>2022-06-28T06:14:54.000Z</time>
</trkpt>
<trkpt lat="46.004609" lon="9.791144">
	<ele>1801.20</ele>
	<time>2022-06-28T06:14:58.000Z</time>
</trkpt>
<trkpt lat="46.004605" lon="9.791151">
	<ele>1801.20</ele>
	<time>2022-06-28T06:14:59.000Z</time>
</trkpt>
<trkpt lat="46.004618" lon="9.791168">
	<ele>1801.00</ele>
	<time>2022-06-28T06:15:00.000Z</time>
</trkpt>
<trkpt lat="46.004620" lon="9.791245">
	<ele>1800.00</ele>
	<time>2022-06-28T06:15:06.000Z</time>
</trkpt>
<trkpt lat="46.004633" lon="9.791269">
	<ele>1799.40</ele>
	<time>2022-06-28T06:15:09.000Z</time>
</trkpt>
<trkpt lat="46.004659" lon="9.791249">
	<ele>1799.00</ele>
	<time>2022-06-28T06:15:13.000Z</time>
</trkpt>
<trkpt lat="46.004695" lon="9.791237">
	<ele>1798.40</ele>
	<time>2022-06-28T06:15:17.000Z</time>
</trkpt>
<trkpt lat="46.004708" lon="9.791234">
	<ele>1798.20</ele>
	<time>2022-06-28T06:15:18.000Z</time>
</trkpt>
<trkpt lat="46.004736" lon="9.791225">
	<ele>1797.80</ele>
	<time>2022-06-28T06:15:22.000Z</time>
</trkpt>
<trkpt lat="46.004751" lon="9.791217">
	<ele>1797.40</ele>
	<time>2022-06-28T06:15:24.000Z</time>
</trkpt>
<trkpt lat="46.004808" lon="9.791192">
	<ele>1796.80</ele>
	<time>2022-06-28T06:15:28.000Z</time>
</trkpt>
<trkpt lat="46.004841" lon="9.791170">
	<ele>1796.20</ele>
	<time>2022-06-28T06:15:32.000Z</time>
</trkpt>
<trkpt lat="46.004876" lon="9.791129">
	<ele>1795.60</ele>
	<time>2022-06-28T06:15:36.000Z</time>
</trkpt>
<trkpt lat="46.004894" lon="9.791128">
	<ele>1795.40</ele>
	<time>2022-06-28T06:15:38.000Z</time>
</trkpt>
<trkpt lat="46.004903" lon="9.791130">
	<ele>1795.40</ele>
	<time>2022-06-28T06:15:39.000Z</time>
</trkpt>
<trkpt lat="46.004962" lon="9.791139">
	<ele>1794.80</ele>
	<time>2022-06-28T06:15:45.000Z</time>
</trkpt>
<trkpt lat="46.004980" lon="9.791159">
	<ele>1794.60</ele>
	<time>2022-06-28T06:15:47.000Z</time>
</trkpt>
<trkpt lat="46.004992" lon="9.791160">
	<ele>1794.60</ele>
	<time>2022-06-28T06:15:48.000Z</time>
</trkpt>
<trkpt lat="46.005012" lon="9.791153">
	<ele>1794.40</ele>
	<time>2022-06-28T06:15:51.000Z</time>
</trkpt>
<trkpt lat="46.005021" lon="9.791153">
	<ele>1794.40</ele>
	<time>2022-06-28T06:15:52.000Z</time>
</trkpt>
<trkpt lat="46.005037" lon="9.791166">
	<ele>1794.20</ele>
	<time>2022-06-28T06:15:54.000Z</time>
</trkpt>
<trkpt lat="46.005055" lon="9.791167">
	<ele>1793.40</ele>
	<time>2022-06-28T06:15:57.000Z</time>
</trkpt>
<trkpt lat="46.005073" lon="9.791177">
	<ele>1793.00</ele>
	<time>2022-06-28T06:16:00.000Z</time>
</trkpt>
<trkpt lat="46.005080" lon="9.791187">
	<ele>1792.80</ele>
	<time>2022-06-28T06:16:01.000Z</time>
</trkpt>
<trkpt lat="46.005109" lon="9.791203">
	<ele>1792.40</ele>
	<time>2022-06-28T06:16:04.000Z</time>
</trkpt>
<trkpt lat="46.005119" lon="9.791212">
	<ele>1792.20</ele>
	<time>2022-06-28T06:16:05.000Z</time>
</trkpt>
<trkpt lat="46.005125" lon="9.791222">
	<ele>1792.00</ele>
	<time>2022-06-28T06:16:06.000Z</time>
</trkpt>
<trkpt lat="46.005134" lon="9.791230">
	<ele>1791.40</ele>
	<time>2022-06-28T06:16:08.000Z</time>
</trkpt>
<trkpt lat="46.005142" lon="9.791234">
	<ele>1791.20</ele>
	<time>2022-06-28T06:16:09.000Z</time>
</trkpt>
<trkpt lat="46.005145" lon="9.791239">
	<ele>1791.00</ele>
	<time>2022-06-28T06:16:10.000Z</time>
</trkpt>
<trkpt lat="46.005149" lon="9.791253">
	<ele>1790.80</ele>
	<time>2022-06-28T06:16:12.000Z</time>
</trkpt>
<trkpt lat="46.005180" lon="9.791305">
	<ele>1790.40</ele>
	<time>2022-06-28T06:16:16.000Z</time>
</trkpt>
<trkpt lat="46.005194" lon="9.791326">
	<ele>1790.20</ele>
	<time>2022-06-28T06:16:18.000Z</time>
</trkpt>
<trkpt lat="46.005249" lon="9.791363">
	<ele>1789.40</ele>
	<time>2022-06-28T06:16:24.000Z</time>
</trkpt>
<trkpt lat="46.005274" lon="9.791376">
	<ele>1789.00</ele>
	<time>2022-06-28T06:16:26.000Z</time>
</trkpt>
<trkpt lat="46.005332" lon="9.791383">
	<ele>1788.80</ele>
	<time>2022-06-28T06:16:30.000Z</time>
</trkpt>
<trkpt lat="46.005341" lon="9.791390">
	<ele>1788.60</ele>
	<time>2022-06-28T06:16:31.000Z</time>
</trkpt>
<trkpt lat="46.005365" lon="9.791398">
	<ele>1788.40</ele>
	<time>2022-06-28T06:16:34.000Z</time>
</trkpt>
<trkpt lat="46.005386" lon="9.791411">
	<ele>1788.20</ele>
	<time>2022-06-28T06:16:37.000Z</time>
</trkpt>
<trkpt lat="46.005399" lon="9.791413">
	<ele>1788.20</ele>
	<time>2022-06-28T06:16:38.000Z</time>
</trkpt>
<trkpt lat="46.005427" lon="9.791398">
	<ele>1788.20</ele>
	<time>2022-06-28T06:16:40.000Z</time>
</trkpt>
<trkpt lat="46.005461" lon="9.791371">
	<ele>1788.20</ele>
	<time>2022-06-28T06:16:43.000Z</time>
</trkpt>
<trkpt lat="46.005478" lon="9.791357">
	<ele>1788.00</ele>
	<time>2022-06-28T06:16:45.000Z</time>
</trkpt>
<trkpt lat="46.005492" lon="9.791312">
	<ele>1787.60</ele>
	<time>2022-06-28T06:16:51.000Z</time>
</trkpt>
<trkpt lat="46.005518" lon="9.791278">
	<ele>1787.00</ele>
	<time>2022-06-28T06:16:57.000Z</time>
</trkpt>
<trkpt lat="46.005525" lon="9.791275">
	<ele>1787.00</ele>
	<time>2022-06-28T06:16:58.000Z</time>
</trkpt>
<trkpt lat="46.005528" lon="9.791250">
	<ele>1786.80</ele>
	<time>2022-06-28T06:17:01.000Z</time>
</trkpt>
<trkpt lat="46.005543" lon="9.791234">
	<ele>1786.60</ele>
	<time>2022-06-28T06:17:03.000Z</time>
</trkpt>
<trkpt lat="46.005565" lon="9.791203">
	<ele>1786.40</ele>
	<time>2022-06-28T06:17:07.000Z</time>
</trkpt>
<trkpt lat="46.005575" lon="9.791203">
	<ele>1786.20</ele>
	<time>2022-06-28T06:17:10.000Z</time>
</trkpt>
<trkpt lat="46.005586" lon="9.791200">
	<ele>1785.80</ele>
	<time>2022-06-28T06:17:12.000Z</time>
</trkpt>
<trkpt lat="46.005610" lon="9.791161">
	<ele>1785.40</ele>
	<time>2022-06-28T06:17:16.000Z</time>
</trkpt>
<trkpt lat="46.005632" lon="9.791127">
	<ele>1784.80</ele>
	<time>2022-06-28T06:17:21.000Z</time>
</trkpt>
<trkpt lat="46.005637" lon="9.791123">
	<ele>1784.60</ele>
	<time>2022-06-28T06:17:22.000Z</time>
</trkpt>
<trkpt lat="46.005650" lon="9.791077">
	<ele>1783.60</ele>
	<time>2022-06-28T06:17:28.000Z</time>
</trkpt>
<trkpt lat="46.005656" lon="9.791072">
	<ele>1783.20</ele>
	<time>2022-06-28T06:17:29.000Z</time>
</trkpt>
<trkpt lat="46.005677" lon="9.791085">
	<ele>1782.60</ele>
	<time>2022-06-28T06:17:33.000Z</time>
</trkpt>
<trkpt lat="46.005703" lon="9.791062">
	<ele>1781.80</ele>
	<time>2022-06-28T06:17:38.000Z</time>
</trkpt>
<trkpt lat="46.005711" lon="9.791056">
	<ele>1781.40</ele>
	<time>2022-06-28T06:17:40.000Z</time>
</trkpt>
<trkpt lat="46.005734" lon="9.791043">
	<ele>1780.80</ele>
	<time>2022-06-28T06:17:43.000Z</time>
</trkpt>
<trkpt lat="46.005744" lon="9.791032">
	<ele>1780.80</ele>
	<time>2022-06-28T06:17:44.000Z</time>
</trkpt>
<trkpt lat="46.005742" lon="9.791018">
	<ele>1780.20</ele>
	<time>2022-06-28T06:17:46.000Z</time>
</trkpt>
<trkpt lat="46.005754" lon="9.791004">
	<ele>1780.00</ele>
	<time>2022-06-28T06:17:48.000Z</time>
</trkpt>
<trkpt lat="46.005780" lon="9.791004">
	<ele>1779.80</ele>
	<time>2022-06-28T06:17:50.000Z</time>
</trkpt>
<trkpt lat="46.005790" lon="9.791003">
	<ele>1779.60</ele>
	<time>2022-06-28T06:17:51.000Z</time>
</trkpt>
<trkpt lat="46.005807" lon="9.791000">
	<ele>1779.20</ele>
	<time>2022-06-28T06:17:53.000Z</time>
</trkpt>
<trkpt lat="46.005852" lon="9.791003">
	<ele>1778.80</ele>
	<time>2022-06-28T06:17:57.000Z</time>
</trkpt>
<trkpt lat="46.005877" lon="9.790980">
	<ele>1778.00</ele>
	<time>2022-06-28T06:18:00.000Z</time>
</trkpt>
<trkpt lat="46.005904" lon="9.790976">
	<ele>1777.60</ele>
	<time>2022-06-28T06:18:03.000Z</time>
</trkpt>
<trkpt lat="46.005924" lon="9.790949">
	<ele>1777.00</ele>
	<time>2022-06-28T06:18:08.000Z</time>
</trkpt>
<trkpt lat="46.005937" lon="9.790947">
	<ele>1776.60</ele>
	<time>2022-06-28T06:18:11.000Z</time>
</trkpt>
<trkpt lat="46.005960" lon="9.790945">
	<ele>1775.80</ele>
	<time>2022-06-28T06:18:15.000Z</time>
</trkpt>
<trkpt lat="46.005980" lon="9.790946">
	<ele>1775.40</ele>
	<time>2022-06-28T06:18:19.000Z</time>
</trkpt>
<trkpt lat="46.006011" lon="9.790913">
	<ele>1774.80</ele>
	<time>2022-06-28T06:18:24.000Z</time>
</trkpt>
<trkpt lat="46.006032" lon="9.790899">
	<ele>1774.20</ele>
	<time>2022-06-28T06:18:27.000Z</time>
</trkpt>
<trkpt lat="46.006051" lon="9.790874">
	<ele>1773.60</ele>
	<time>2022-06-28T06:18:30.000Z</time>
</trkpt>
<trkpt lat="46.006073" lon="9.790871">
	<ele>1773.20</ele>
	<time>2022-06-28T06:18:34.000Z</time>
</trkpt>
<trkpt lat="46.006096" lon="9.790847">
	<ele>1772.60</ele>
	<time>2022-06-28T06:18:37.000Z</time>
</trkpt>
<trkpt lat="46.006119" lon="9.790781">
	<ele>1772.00</ele>
	<time>2022-06-28T06:18:42.000Z</time>
</trkpt>
<trkpt lat="46.006161" lon="9.790760">
	<ele>1771.60</ele>
	<time>2022-06-28T06:18:48.000Z</time>
</trkpt>
<trkpt lat="46.006172" lon="9.790762">
	<ele>1771.40</ele>
	<time>2022-06-28T06:18:49.000Z</time>
</trkpt>
<trkpt lat="46.006191" lon="9.790767">
	<ele>1771.40</ele>
	<time>2022-06-28T06:18:51.000Z</time>
</trkpt>
<trkpt lat="46.006214" lon="9.790773">
	<ele>1771.00</ele>
	<time>2022-06-28T06:18:55.000Z</time>
</trkpt>
<trkpt lat="46.006221" lon="9.790772">
	<ele>1770.80</ele>
	<time>2022-06-28T06:18:57.000Z</time>
</trkpt>
<trkpt lat="46.006228" lon="9.790759">
	<ele>1770.20</ele>
	<time>2022-06-28T06:18:59.000Z</time>
</trkpt>
<trkpt lat="46.006242" lon="9.790720">
	<ele>1769.20</ele>
	<time>2022-06-28T06:19:03.000Z</time>
</trkpt>
<trkpt lat="46.006245" lon="9.790714">
	<ele>1769.00</ele>
	<time>2022-06-28T06:19:04.000Z</time>
</trkpt>
<trkpt lat="46.006249" lon="9.790673">
	<ele>1768.60</ele>
	<time>2022-06-28T06:19:07.000Z</time>
</trkpt>
<trkpt lat="46.006245" lon="9.790591">
	<ele>1768.00</ele>
	<time>2022-06-28T06:19:12.000Z</time>
</trkpt>
<trkpt lat="46.006244" lon="9.790593">
	<ele>1768.00</ele>
	<time>2022-06-28T06:19:13.000Z</time>
</trkpt>
<trkpt lat="46.006232" lon="9.790551">
	<ele>1767.80</ele>
	<time>2022-06-28T06:19:17.000Z</time>
</trkpt>
<trkpt lat="46.006239" lon="9.790550">
	<ele>1768.00</ele>
	<time>2022-06-28T06:19:18.000Z</time>
</trkpt>
<trkpt lat="46.006269" lon="9.790553">
	<ele>1768.00</ele>
	<time>2022-06-28T06:19:24.000Z</time>
</trkpt>
<trkpt lat="46.006270" lon="9.790563">
	<ele>1767.60</ele>
	<time>2022-06-28T06:19:29.000Z</time>
</trkpt>
<trkpt lat="46.006271" lon="9.790549">
	<ele>1767.60</ele>
	<time>2022-06-28T06:19:32.000Z</time>
</trkpt>
<trkpt lat="46.006297" lon="9.790545">
	<ele>1766.80</ele>
	<time>2022-06-28T06:19:37.000Z</time>
</trkpt>
<trkpt lat="46.006321" lon="9.790547">
	<ele>1766.20</ele>
	<time>2022-06-28T06:19:41.000Z</time>
</trkpt>
<trkpt lat="46.006321" lon="9.790554">
	<ele>1765.80</ele>
	<time>2022-06-28T06:19:43.000Z</time>
</trkpt>
<trkpt lat="46.006326" lon="9.790559">
	<ele>1765.60</ele>
	<time>2022-06-28T06:19:44.000Z</time>
</trkpt>
<trkpt lat="46.006353" lon="9.790576">
	<ele>1764.40</ele>
	<time>2022-06-28T06:19:50.000Z</time>
</trkpt>
<trkpt lat="46.006374" lon="9.790541">
	<ele>1763.60</ele>
	<time>2022-06-28T06:19:55.000Z</time>
</trkpt>
<trkpt lat="46.006382" lon="9.790534">
	<ele>1763.20</ele>
	<time>2022-06-28T06:19:56.000Z</time>
</trkpt>
<trkpt lat="46.006391" lon="9.790508">
	<ele>1762.60</ele>
	<time>2022-06-28T06:20:00.000Z</time>
</trkpt>
<trkpt lat="46.006394" lon="9.790502">
	<ele>1762.20</ele>
	<time>2022-06-28T06:20:02.000Z</time>
</trkpt>
<trkpt lat="46.006401" lon="9.790505">
	<ele>1761.80</ele>
	<time>2022-06-28T06:20:04.000Z</time>
</trkpt>
<trkpt lat="46.006395" lon="9.790482">
	<ele>1761.00</ele>
	<time>2022-06-28T06:20:07.000Z</time>
</trkpt>
<trkpt lat="46.006373" lon="9.790456">
	<ele>1760.40</ele>
	<time>2022-06-28T06:20:10.000Z</time>
</trkpt>
<trkpt lat="46.006364" lon="9.790431">
	<ele>1760.00</ele>
	<time>2022-06-28T06:20:13.000Z</time>
</trkpt>
<trkpt lat="46.006358" lon="9.790458">
	<ele>1759.80</ele>
	<time>2022-06-28T06:20:16.000Z</time>
</trkpt>
<trkpt lat="46.006388" lon="9.790514">
	<ele>1759.20</ele>
	<time>2022-06-28T06:20:23.000Z</time>
</trkpt>
<trkpt lat="46.006394" lon="9.790511">
	<ele>1759.00</ele>
	<time>2022-06-28T06:20:24.000Z</time>
</trkpt>
<trkpt lat="46.006408" lon="9.790509">
	<ele>1758.60</ele>
	<time>2022-06-28T06:20:27.000Z</time>
</trkpt>
<trkpt lat="46.006419" lon="9.790508">
	<ele>1758.40</ele>
	<time>2022-06-28T06:20:28.000Z</time>
</trkpt>
<trkpt lat="46.006426" lon="9.790473">
	<ele>1758.00</ele>
	<time>2022-06-28T06:20:31.000Z</time>
</trkpt>
<trkpt lat="46.006454" lon="9.790444">
	<ele>1757.40</ele>
	<time>2022-06-28T06:20:34.000Z</time>
</trkpt>
<trkpt lat="46.006474" lon="9.790447">
	<ele>1757.00</ele>
	<time>2022-06-28T06:20:37.000Z</time>
</trkpt>
<trkpt lat="46.006481" lon="9.790450">
	<ele>1757.00</ele>
	<time>2022-06-28T06:20:38.000Z</time>
</trkpt>
<trkpt lat="46.006505" lon="9.790466">
	<ele>1756.80</ele>
	<time>2022-06-28T06:20:40.000Z</time>
</trkpt>
<trkpt lat="46.006567" lon="9.790473">
	<ele>1756.80</ele>
	<time>2022-06-28T06:20:47.000Z</time>
</trkpt>
<trkpt lat="46.006627" lon="9.790473">
	<ele>1755.80</ele>
	<time>2022-06-28T06:20:53.000Z</time>
</trkpt>
<trkpt lat="46.006652" lon="9.790464">
	<ele>1755.60</ele>
	<time>2022-06-28T06:20:55.000Z</time>
</trkpt>
<trkpt lat="46.006663" lon="9.790468">
	<ele>1755.40</ele>
	<time>2022-06-28T06:20:56.000Z</time>
</trkpt>
<trkpt lat="46.006686" lon="9.790465">
	<ele>1755.20</ele>
	<time>2022-06-28T06:20:58.000Z</time>
</trkpt>
<trkpt lat="46.006692" lon="9.790452">
	<ele>1755.20</ele>
	<time>2022-06-28T06:20:59.000Z</time>
</trkpt>
<trkpt lat="46.006695" lon="9.790437">
	<ele>1755.20</ele>
	<time>2022-06-28T06:21:00.000Z</time>
</trkpt>
<trkpt lat="46.006701" lon="9.790423">
	<ele>1755.20</ele>
	<time>2022-06-28T06:21:01.000Z</time>
</trkpt>
<trkpt lat="46.006715" lon="9.790403">
	<ele>1755.20</ele>
	<time>2022-06-28T06:21:03.000Z</time>
</trkpt>
<trkpt lat="46.006775" lon="9.790389">
	<ele>1755.00</ele>
	<time>2022-06-28T06:21:08.000Z</time>
</trkpt>
<trkpt lat="46.006841" lon="9.790345">
	<ele>1755.00</ele>
	<time>2022-06-28T06:21:15.000Z</time>
</trkpt>
<trkpt lat="46.006856" lon="9.790336">
	<ele>1755.00</ele>
	<time>2022-06-28T06:21:18.000Z</time>
</trkpt>
<trkpt lat="46.006870" lon="9.790319">
	<ele>1755.20</ele>
	<time>2022-06-28T06:21:20.000Z</time>
</trkpt>
<trkpt lat="46.006910" lon="9.790253">
	<ele>1755.00</ele>
	<time>2022-06-28T06:21:26.000Z</time>
</trkpt>
<trkpt lat="46.006929" lon="9.790218">
	<ele>1755.00</ele>
	<time>2022-06-28T06:21:28.000Z</time>
</trkpt>
<trkpt lat="46.006947" lon="9.790153">
	<ele>1755.00</ele>
	<time>2022-06-28T06:21:31.000Z</time>
</trkpt>
<trkpt lat="46.006999" lon="9.790132">
	<ele>1755.00</ele>
	<time>2022-06-28T06:21:35.000Z</time>
</trkpt>
<trkpt lat="46.007021" lon="9.790097">
	<ele>1755.20</ele>
	<time>2022-06-28T06:21:37.000Z</time>
</trkpt>
<trkpt lat="46.007028" lon="9.790078">
	<ele>1755.40</ele>
	<time>2022-06-28T06:21:38.000Z</time>
</trkpt>
<trkpt lat="46.007051" lon="9.790086">
	<ele>1755.40</ele>
	<time>2022-06-28T06:21:40.000Z</time>
</trkpt>
<trkpt lat="46.007134" lon="9.790188">
	<ele>1755.60</ele>
	<time>2022-06-28T06:21:45.000Z</time>
</trkpt>
<trkpt lat="46.007166" lon="9.790234">
	<ele>1755.60</ele>
	<time>2022-06-28T06:21:48.000Z</time>
</trkpt>
<trkpt lat="46.007180" lon="9.790268">
	<ele>1755.60</ele>
	<time>2022-06-28T06:21:50.000Z</time>
</trkpt>
<trkpt lat="46.007167" lon="9.790303">
	<ele>1755.40</ele>
	<time>2022-06-28T06:21:52.000Z</time>
</trkpt>
<trkpt lat="46.007172" lon="9.790321">
	<ele>1755.40</ele>
	<time>2022-06-28T06:21:53.000Z</time>
</trkpt>
<trkpt lat="46.007180" lon="9.790372">
	<ele>1755.40</ele>
	<time>2022-06-28T06:21:56.000Z</time>
</trkpt>
<trkpt lat="46.007198" lon="9.790403">
	<ele>1755.40</ele>
	<time>2022-06-28T06:21:59.000Z</time>
</trkpt>
<trkpt lat="46.007214" lon="9.790406">
	<ele>1755.40</ele>
	<time>2022-06-28T06:22:01.000Z</time>
</trkpt>
<trkpt lat="46.007226" lon="9.790407">
	<ele>1755.40</ele>
	<time>2022-06-28T06:22:02.000Z</time>
</trkpt>
<trkpt lat="46.007257" lon="9.790419">
	<ele>1755.40</ele>
	<time>2022-06-28T06:22:04.000Z</time>
</trkpt>
<trkpt lat="46.007306" lon="9.790445">
	<ele>1755.00</ele>
	<time>2022-06-28T06:22:07.000Z</time>
</trkpt>
<trkpt lat="46.007350" lon="9.790498">
	<ele>1754.60</ele>
	<time>2022-06-28T06:22:10.000Z</time>
</trkpt>
<trkpt lat="46.007382" lon="9.790530">
	<ele>1754.20</ele>
	<time>2022-06-28T06:22:13.000Z</time>
</trkpt>
<trkpt lat="46.007408" lon="9.790551">
	<ele>1753.60</ele>
	<time>2022-06-28T06:22:17.000Z</time>
</trkpt>
<trkpt lat="46.007420" lon="9.790552">
	<ele>1753.60</ele>
	<time>2022-06-28T06:22:18.000Z</time>
</trkpt>
<trkpt lat="46.007443" lon="9.790552">
	<ele>1753.00</ele>
	<time>2022-06-28T06:22:22.000Z</time>
</trkpt>
<trkpt lat="46.007457" lon="9.790556">
	<ele>1752.60</ele>
	<time>2022-06-28T06:22:24.000Z</time>
</trkpt>
<trkpt lat="46.007469" lon="9.790522">
	<ele>1751.80</ele>
	<time>2022-06-28T06:22:27.000Z</time>
</trkpt>
<trkpt lat="46.007484" lon="9.790493">
	<ele>1751.60</ele>
	<time>2022-06-28T06:22:29.000Z</time>
</trkpt>
<trkpt lat="46.007481" lon="9.790492">
	<ele>1751.40</ele>
	<time>2022-06-28T06:22:30.000Z</time>
</trkpt>
<trkpt lat="46.007473" lon="9.790475">
	<ele>1751.00</ele>
	<time>2022-06-28T06:22:32.000Z</time>
</trkpt>
<trkpt lat="46.007482" lon="9.790479">
	<ele>1750.80</ele>
	<time>2022-06-28T06:22:34.000Z</time>
</trkpt>
<trkpt lat="46.007486" lon="9.790491">
	<ele>1750.40</ele>
	<time>2022-06-28T06:22:36.000Z</time>
</trkpt>
<trkpt lat="46.007514" lon="9.790517">
	<ele>1749.80</ele>
	<time>2022-06-28T06:22:40.000Z</time>
</trkpt>
<trkpt lat="46.007525" lon="9.790521">
	<ele>1749.40</ele>
	<time>2022-06-28T06:22:41.000Z</time>
</trkpt>
<trkpt lat="46.007536" lon="9.790528">
	<ele>1749.20</ele>
	<time>2022-06-28T06:22:42.000Z</time>
</trkpt>
<trkpt lat="46.007539" lon="9.790539">
	<ele>1749.20</ele>
	<time>2022-06-28T06:22:43.000Z</time>
</trkpt>
<trkpt lat="46.007541" lon="9.790560">
	<ele>1748.60</ele>
	<time>2022-06-28T06:22:45.000Z</time>
</trkpt>
<trkpt lat="46.007539" lon="9.790560">
	<ele>1748.20</ele>
	<time>2022-06-28T06:22:48.000Z</time>
</trkpt>
<trkpt lat="46.007541" lon="9.790562">
	<ele>1748.20</ele>
	<time>2022-06-28T06:22:50.000Z</time>
</trkpt>
<trkpt lat="46.007550" lon="9.790585">
	<ele>1748.20</ele>
	<time>2022-06-28T06:22:58.000Z</time>
</trkpt>
<trkpt lat="46.007591" lon="9.790602">
	<ele>1747.20</ele>
	<time>2022-06-28T06:23:05.000Z</time>
</trkpt>
<trkpt lat="46.007609" lon="9.790580">
	<ele>1746.40</ele>
	<time>2022-06-28T06:23:09.000Z</time>
</trkpt>
<trkpt lat="46.007636" lon="9.790582">
	<ele>1746.40</ele>
	<time>2022-06-28T06:23:14.000Z</time>
</trkpt>
<trkpt lat="46.007642" lon="9.790590">
	<ele>1746.40</ele>
	<time>2022-06-28T06:23:15.000Z</time>
</trkpt>
<trkpt lat="46.007650" lon="9.790590">
	<ele>1746.00</ele>
	<time>2022-06-28T06:23:18.000Z</time>
</trkpt>
<trkpt lat="46.007639" lon="9.790537">
	<ele>1745.00</ele>
	<time>2022-06-28T06:23:23.000Z</time>
</trkpt>
<trkpt lat="46.007643" lon="9.790529">
	<ele>1744.60</ele>
	<time>2022-06-28T06:23:24.000Z</time>
</trkpt>
<trkpt lat="46.007656" lon="9.790527">
	<ele>1744.20</ele>
	<time>2022-06-28T06:23:26.000Z</time>
</trkpt>
<trkpt lat="46.007659" lon="9.790522">
	<ele>1744.00</ele>
	<time>2022-06-28T06:23:27.000Z</time>
</trkpt>
<trkpt lat="46.007654" lon="9.790508">
	<ele>1743.80</ele>
	<time>2022-06-28T06:23:28.000Z</time>
</trkpt>
<trkpt lat="46.007656" lon="9.790496">
	<ele>1743.20</ele>
	<time>2022-06-28T06:23:29.000Z</time>
</trkpt>
<trkpt lat="46.007662" lon="9.790482">
	<ele>1742.60</ele>
	<time>2022-06-28T06:23:31.000Z</time>
</trkpt>
<trkpt lat="46.007678" lon="9.790467">
	<ele>1741.80</ele>
	<time>2022-06-28T06:23:34.000Z</time>
</trkpt>
<trkpt lat="46.007688" lon="9.790469">
	<ele>1741.60</ele>
	<time>2022-06-28T06:23:35.000Z</time>
</trkpt>
<trkpt lat="46.007698" lon="9.790468">
	<ele>1741.40</ele>
	<time>2022-06-28T06:23:36.000Z</time>
</trkpt>
<trkpt lat="46.007716" lon="9.790455">
	<ele>1740.60</ele>
	<time>2022-06-28T06:23:40.000Z</time>
</trkpt>
<trkpt lat="46.007714" lon="9.790433">
	<ele>1740.40</ele>
	<time>2022-06-28T06:23:41.000Z</time>
</trkpt>
<trkpt lat="46.007714" lon="9.790411">
	<ele>1740.00</ele>
	<time>2022-06-28T06:23:42.000Z</time>
</trkpt>
<trkpt lat="46.007746" lon="9.790381">
	<ele>1739.60</ele>
	<time>2022-06-28T06:23:45.000Z</time>
</trkpt>
<trkpt lat="46.007753" lon="9.790358">
	<ele>1739.60</ele>
	<time>2022-06-28T06:23:46.000Z</time>
</trkpt>
<trkpt lat="46.007765" lon="9.790307">
	<ele>1739.40</ele>
	<time>2022-06-28T06:23:48.000Z</time>
</trkpt>
<trkpt lat="46.007771" lon="9.790289">
	<ele>1739.40</ele>
	<time>2022-06-28T06:23:49.000Z</time>
</trkpt>
<trkpt lat="46.007806" lon="9.790296">
	<ele>1739.40</ele>
	<time>2022-06-28T06:23:52.000Z</time>
</trkpt>
<trkpt lat="46.007830" lon="9.790319">
	<ele>1739.60</ele>
	<time>2022-06-28T06:23:54.000Z</time>
</trkpt>
<trkpt lat="46.007882" lon="9.790360">
	<ele>1740.20</ele>
	<time>2022-06-28T06:23:59.000Z</time>
</trkpt>
<trkpt lat="46.007888" lon="9.790359">
	<ele>1740.40</ele>
	<time>2022-06-28T06:24:00.000Z</time>
</trkpt>
<trkpt lat="46.007898" lon="9.790363">
	<ele>1740.60</ele>
	<time>2022-06-28T06:24:01.000Z</time>
</trkpt>
<trkpt lat="46.007918" lon="9.790386">
	<ele>1740.80</ele>
	<time>2022-06-28T06:24:03.000Z</time>
</trkpt>
<trkpt lat="46.007917" lon="9.790353">
	<ele>1741.00</ele>
	<time>2022-06-28T06:24:05.000Z</time>
</trkpt>
<trkpt lat="46.007923" lon="9.790347">
	<ele>1741.00</ele>
	<time>2022-06-28T06:24:06.000Z</time>
</trkpt>
<trkpt lat="46.007943" lon="9.790306">
	<ele>1741.40</ele>
	<time>2022-06-28T06:24:09.000Z</time>
</trkpt>
<trkpt lat="46.007951" lon="9.790292">
	<ele>1741.40</ele>
	<time>2022-06-28T06:24:10.000Z</time>
</trkpt>
<trkpt lat="46.007970" lon="9.790271">
	<ele>1741.40</ele>
	<time>2022-06-28T06:24:12.000Z</time>
</trkpt>
<trkpt lat="46.007993" lon="9.790262">
	<ele>1741.40</ele>
	<time>2022-06-28T06:24:14.000Z</time>
</trkpt>
<trkpt lat="46.008004" lon="9.790257">
	<ele>1741.40</ele>
	<time>2022-06-28T06:24:15.000Z</time>
</trkpt>
<trkpt lat="46.008046" lon="9.790209">
	<ele>1741.60</ele>
	<time>2022-06-28T06:24:20.000Z</time>
</trkpt>
<trkpt lat="46.008053" lon="9.790200">
	<ele>1741.60</ele>
	<time>2022-06-28T06:24:21.000Z</time>
</trkpt>
<trkpt lat="46.008072" lon="9.790183">
	<ele>1741.60</ele>
	<time>2022-06-28T06:24:23.000Z</time>
</trkpt>
<trkpt lat="46.008115" lon="9.790153">
	<ele>1741.80</ele>
	<time>2022-06-28T06:24:28.000Z</time>
</trkpt>
<trkpt lat="46.008133" lon="9.790160">
	<ele>1741.80</ele>
	<time>2022-06-28T06:24:30.000Z</time>
</trkpt>
<trkpt lat="46.008143" lon="9.790159">
	<ele>1741.80</ele>
	<time>2022-06-28T06:24:32.000Z</time>
</trkpt>
<trkpt lat="46.008152" lon="9.790162">
	<ele>1741.80</ele>
	<time>2022-06-28T06:24:33.000Z</time>
</trkpt>
<trkpt lat="46.008168" lon="9.790171">
	<ele>1741.80</ele>
	<time>2022-06-28T06:24:35.000Z</time>
</trkpt>
<trkpt lat="46.008176" lon="9.790165">
	<ele>1741.80</ele>
	<time>2022-06-28T06:24:37.000Z</time>
</trkpt>
<trkpt lat="46.008198" lon="9.790196">
	<ele>1742.40</ele>
	<time>2022-06-28T06:24:41.000Z</time>
</trkpt>
<trkpt lat="46.008201" lon="9.790195">
	<ele>1742.40</ele>
	<time>2022-06-28T06:24:42.000Z</time>
</trkpt>
<trkpt lat="46.008206" lon="9.790180">
	<ele>1742.20</ele>
	<time>2022-06-28T06:24:44.000Z</time>
</trkpt>
<trkpt lat="46.008214" lon="9.790178">
	<ele>1742.20</ele>
	<time>2022-06-28T06:24:46.000Z</time>
</trkpt>
<trkpt lat="46.008219" lon="9.790178">
	<ele>1742.00</ele>
	<time>2022-06-28T06:24:47.000Z</time>
</trkpt>
<trkpt lat="46.008514" lon="9.790346">
	<ele>1738.20</ele>
	<time>2022-06-28T06:25:25.000Z</time>
</trkpt>
<trkpt lat="46.008517" lon="9.790318">
	<ele>1737.80</ele>
	<time>2022-06-28T06:25:28.000Z</time>
</trkpt>
<trkpt lat="46.008521" lon="9.790240">
	<ele>1737.60</ele>
	<time>2022-06-28T06:25:31.000Z</time>
</trkpt>
<trkpt lat="46.008530" lon="9.790227">
	<ele>1737.60</ele>
	<time>2022-06-28T06:25:32.000Z</time>
</trkpt>
<trkpt lat="46.008562" lon="9.790217">
	<ele>1737.40</ele>
	<time>2022-06-28T06:25:35.000Z</time>
</trkpt>
<trkpt lat="46.008583" lon="9.790223">
	<ele>1737.40</ele>
	<time>2022-06-28T06:25:37.000Z</time>
</trkpt>
<trkpt lat="46.008661" lon="9.790269">
	<ele>1737.20</ele>
	<time>2022-06-28T06:25:44.000Z</time>
</trkpt>
<trkpt lat="46.008681" lon="9.790294">
	<ele>1737.40</ele>
	<time>2022-06-28T06:25:47.000Z</time>
</trkpt>
<trkpt lat="46.008704" lon="9.790310">
	<ele>1737.40</ele>
	<time>2022-06-28T06:25:51.000Z</time>
</trkpt>
<trkpt lat="46.008735" lon="9.790325">
	<ele>1737.80</ele>
	<time>2022-06-28T06:25:54.000Z</time>
</trkpt>
<trkpt lat="46.008772" lon="9.790345">
	<ele>1738.20</ele>
	<time>2022-06-28T06:25:57.000Z</time>
</trkpt>
<trkpt lat="46.008785" lon="9.790351">
	<ele>1738.40</ele>
	<time>2022-06-28T06:25:58.000Z</time>
</trkpt>
<trkpt lat="46.008831" lon="9.790376">
	<ele>1738.80</ele>
	<time>2022-06-28T06:26:02.000Z</time>
</trkpt>
<trkpt lat="46.008852" lon="9.790398">
	<ele>1739.00</ele>
	<time>2022-06-28T06:26:04.000Z</time>
</trkpt>
<trkpt lat="46.008858" lon="9.790418">
	<ele>1739.20</ele>
	<time>2022-06-28T06:26:05.000Z</time>
</trkpt>
<trkpt lat="46.008869" lon="9.790441">
	<ele>1739.20</ele>
	<time>2022-06-28T06:26:07.000Z</time>
</trkpt>
<trkpt lat="46.008886" lon="9.790462">
	<ele>1739.40</ele>
	<time>2022-06-28T06:26:09.000Z</time>
</trkpt>
<trkpt lat="46.008901" lon="9.790474">
	<ele>1739.40</ele>
	<time>2022-06-28T06:26:11.000Z</time>
</trkpt>
<trkpt lat="46.008925" lon="9.790468">
	<ele>1739.60</ele>
	<time>2022-06-28T06:26:13.000Z</time>
</trkpt>
<trkpt lat="46.008938" lon="9.790458">
	<ele>1739.60</ele>
	<time>2022-06-28T06:26:14.000Z</time>
</trkpt>
<trkpt lat="46.008967" lon="9.790470">
	<ele>1739.80</ele>
	<time>2022-06-28T06:26:17.000Z</time>
</trkpt>
<trkpt lat="46.009000" lon="9.790478">
	<ele>1740.00</ele>
	<time>2022-06-28T06:26:20.000Z</time>
</trkpt>
<trkpt lat="46.009022" lon="9.790474">
	<ele>1740.00</ele>
	<time>2022-06-28T06:26:22.000Z</time>
</trkpt>
<trkpt lat="46.009056" lon="9.790502">
	<ele>1740.00</ele>
	<time>2022-06-28T06:26:25.000Z</time>
</trkpt>
<trkpt lat="46.009069" lon="9.790503">
	<ele>1740.00</ele>
	<time>2022-06-28T06:26:26.000Z</time>
</trkpt>
<trkpt lat="46.009104" lon="9.790483">
	<ele>1740.00</ele>
	<time>2022-06-28T06:26:29.000Z</time>
</trkpt>
<trkpt lat="46.009128" lon="9.790460">
	<ele>1740.20</ele>
	<time>2022-06-28T06:26:31.000Z</time>
</trkpt>
<trkpt lat="46.009158" lon="9.790427">
	<ele>1740.40</ele>
	<time>2022-06-28T06:26:34.000Z</time>
</trkpt>
<trkpt lat="46.009167" lon="9.790431">
	<ele>1740.40</ele>
	<time>2022-06-28T06:26:35.000Z</time>
</trkpt>
<trkpt lat="46.009177" lon="9.790439">
	<ele>1740.40</ele>
	<time>2022-06-28T06:26:36.000Z</time>
</trkpt>
<trkpt lat="46.009187" lon="9.790442">
	<ele>1740.40</ele>
	<time>2022-06-28T06:26:37.000Z</time>
</trkpt>
<trkpt lat="46.009203" lon="9.790435">
	<ele>1740.60</ele>
	<time>2022-06-28T06:26:39.000Z</time>
</trkpt>
<trkpt lat="46.009219" lon="9.790426">
	<ele>1740.60</ele>
	<time>2022-06-28T06:26:41.000Z</time>
</trkpt>
<trkpt lat="46.009239" lon="9.790422">
	<ele>1740.60</ele>
	<time>2022-06-28T06:26:43.000Z</time>
</trkpt>
<trkpt lat="46.009275" lon="9.790442">
	<ele>1740.60</ele>
	<time>2022-06-28T06:26:47.000Z</time>
</trkpt>
<trkpt lat="46.009299" lon="9.790453">
	<ele>1740.60</ele>
	<time>2022-06-28T06:26:49.000Z</time>
</trkpt>
<trkpt lat="46.009326" lon="9.790457">
	<ele>1741.00</ele>
	<time>2022-06-28T06:26:52.000Z</time>
</trkpt>
<trkpt lat="46.009349" lon="9.790445">
	<ele>1741.20</ele>
	<time>2022-06-28T06:26:54.000Z</time>
</trkpt>
<trkpt lat="46.009390" lon="9.790406">
	<ele>1741.40</ele>
	<time>2022-06-28T06:26:58.000Z</time>
</trkpt>
<trkpt lat="46.009407" lon="9.790409">
	<ele>1741.40</ele>
	<time>2022-06-28T06:26:59.000Z</time>
</trkpt>
<trkpt lat="46.009454" lon="9.790451">
	<ele>1742.00</ele>
	<time>2022-06-28T06:27:04.000Z</time>
</trkpt>
<trkpt lat="46.009509" lon="9.790400">
	<ele>1742.20</ele>
	<time>2022-06-28T06:27:11.000Z</time>
</trkpt>
<trkpt lat="46.009619" lon="9.790333">
	<ele>1742.00</ele>
	<time>2022-06-28T06:27:22.000Z</time>
</trkpt>
<trkpt lat="46.009656" lon="9.790307">
	<ele>1741.60</ele>
	<time>2022-06-28T06:27:26.000Z</time>
</trkpt>
<trkpt lat="46.009678" lon="9.790293">
	<ele>1741.40</ele>
	<time>2022-06-28T06:27:28.000Z</time>
</trkpt>
<trkpt lat="46.009688" lon="9.790288">
	<ele>1741.20</ele>
	<time>2022-06-28T06:27:29.000Z</time>
</trkpt>
<trkpt lat="46.009715" lon="9.790293">
	<ele>1741.00</ele>
	<time>2022-06-28T06:27:31.000Z</time>
</trkpt>
<trkpt lat="46.009743" lon="9.790323">
	<ele>1740.80</ele>
	<time>2022-06-28T06:27:34.000Z</time>
</trkpt>
<trkpt lat="46.009762" lon="9.790349">
	<ele>1740.80</ele>
	<time>2022-06-28T06:27:36.000Z</time>
</trkpt>
<trkpt lat="46.009781" lon="9.790361">
	<ele>1740.40</ele>
	<time>2022-06-28T06:27:38.000Z</time>
</trkpt>
<trkpt lat="46.009791" lon="9.790371">
	<ele>1740.40</ele>
	<time>2022-06-28T06:27:39.000Z</time>
</trkpt>
<trkpt lat="46.009813" lon="9.790405">
	<ele>1740.00</ele>
	<time>2022-06-28T06:27:41.000Z</time>
</trkpt>
<trkpt lat="46.009818" lon="9.790424">
	<ele>1739.80</ele>
	<time>2022-06-28T06:27:42.000Z</time>
</trkpt>
<trkpt lat="46.009826" lon="9.790469">
	<ele>1739.60</ele>
	<time>2022-06-28T06:27:45.000Z</time>
</trkpt>
<trkpt lat="46.009826" lon="9.790490">
	<ele>1739.20</ele>
	<time>2022-06-28T06:27:46.000Z</time>
</trkpt>
<trkpt lat="46.009833" lon="9.790510">
	<ele>1739.00</ele>
	<time>2022-06-28T06:27:47.000Z</time>
</trkpt>
<trkpt lat="46.009842" lon="9.790517">
	<ele>1739.00</ele>
	<time>2022-06-28T06:27:48.000Z</time>
</trkpt>
<trkpt lat="46.009853" lon="9.790523">
	<ele>1738.80</ele>
	<time>2022-06-28T06:27:50.000Z</time>
</trkpt>
<trkpt lat="46.009858" lon="9.790528">
	<ele>1738.60</ele>
	<time>2022-06-28T06:27:51.000Z</time>
</trkpt>
<trkpt lat="46.009863" lon="9.790530">
	<ele>1738.40</ele>
	<time>2022-06-28T06:27:52.000Z</time>
</trkpt>
<trkpt lat="46.009872" lon="9.790531">
	<ele>1738.20</ele>
	<time>2022-06-28T06:27:53.000Z</time>
</trkpt>
<trkpt lat="46.009877" lon="9.790537">
	<ele>1738.00</ele>
	<time>2022-06-28T06:27:54.000Z</time>
</trkpt>
<trkpt lat="46.009879" lon="9.790534">
	<ele>1737.80</ele>
	<time>2022-06-28T06:27:55.000Z</time>
</trkpt>
<trkpt lat="46.009883" lon="9.790550">
	<ele>1737.00</ele>
	<time>2022-06-28T06:27:58.000Z</time>
</trkpt>
<trkpt lat="46.009901" lon="9.790561">
	<ele>1736.60</ele>
	<time>2022-06-28T06:28:00.000Z</time>
</trkpt>
<trkpt lat="46.009905" lon="9.790564">
	<ele>1736.40</ele>
	<time>2022-06-28T06:28:01.000Z</time>
</trkpt>
<trkpt lat="46.009918" lon="9.790571">
	<ele>1735.80</ele>
	<time>2022-06-28T06:28:03.000Z</time>
</trkpt>
<trkpt lat="46.009939" lon="9.790572">
	<ele>1735.40</ele>
	<time>2022-06-28T06:28:04.000Z</time>
</trkpt>
<trkpt lat="46.009954" lon="9.790569">
	<ele>1735.20</ele>
	<time>2022-06-28T06:28:05.000Z</time>
</trkpt>
<trkpt lat="46.009962" lon="9.790578">
	<ele>1735.00</ele>
	<time>2022-06-28T06:28:06.000Z</time>
</trkpt>
<trkpt lat="46.009966" lon="9.790579">
	<ele>1734.80</ele>
	<time>2022-06-28T06:28:08.000Z</time>
</trkpt>
<trkpt lat="46.009973" lon="9.790576">
	<ele>1734.60</ele>
	<time>2022-06-28T06:28:09.000Z</time>
</trkpt>
<trkpt lat="46.009982" lon="9.790567">
	<ele>1734.60</ele>
	<time>2022-06-28T06:28:10.000Z</time>
</trkpt>
<trkpt lat="46.010004" lon="9.790555">
	<ele>1734.40</ele>
	<time>2022-06-28T06:28:12.000Z</time>
</trkpt>
<trkpt lat="46.010011" lon="9.790551">
	<ele>1734.40</ele>
	<time>2022-06-28T06:28:13.000Z</time>
</trkpt>
<trkpt lat="46.010016" lon="9.790536">
	<ele>1734.40</ele>
	<time>2022-06-28T06:28:14.000Z</time>
</trkpt>
<trkpt lat="46.010030" lon="9.790517">
	<ele>1734.20</ele>
	<time>2022-06-28T06:28:16.000Z</time>
</trkpt>
<trkpt lat="46.010041" lon="9.790523">
	<ele>1734.00</ele>
	<time>2022-06-28T06:28:17.000Z</time>
</trkpt>
<trkpt lat="46.010060" lon="9.790513">
	<ele>1733.60</ele>
	<time>2022-06-28T06:28:20.000Z</time>
</trkpt>
<trkpt lat="46.010067" lon="9.790508">
	<ele>1733.60</ele>
	<time>2022-06-28T06:28:21.000Z</time>
</trkpt>
<trkpt lat="46.010084" lon="9.790505">
	<ele>1732.80</ele>
	<time>2022-06-28T06:28:26.000Z</time>
</trkpt>
<trkpt lat="46.010085" lon="9.790501">
	<ele>1732.60</ele>
	<time>2022-06-28T06:28:27.000Z</time>
</trkpt>
<trkpt lat="46.010087" lon="9.790493">
	<ele>1732.20</ele>
	<time>2022-06-28T06:28:28.000Z</time>
</trkpt>
<trkpt lat="46.010087" lon="9.790456">
	<ele>1731.60</ele>
	<time>2022-06-28T06:28:31.000Z</time>
</trkpt>
<trkpt lat="46.010092" lon="9.790434">
	<ele>1731.20</ele>
	<time>2022-06-28T06:28:32.000Z</time>
</trkpt>
<trkpt lat="46.010104" lon="9.790431">
	<ele>1730.80</ele>
	<time>2022-06-28T06:28:33.000Z</time>
</trkpt>
<trkpt lat="46.010139" lon="9.790460">
	<ele>1730.60</ele>
	<time>2022-06-28T06:28:35.000Z</time>
</trkpt>
<trkpt lat="46.010189" lon="9.790518">
	<ele>1730.20</ele>
	<time>2022-06-28T06:28:39.000Z</time>
</trkpt>
<trkpt lat="46.010204" lon="9.790514">
	<ele>1730.20</ele>
	<time>2022-06-28T06:28:41.000Z</time>
</trkpt>
<trkpt lat="46.010228" lon="9.790492">
	<ele>1730.80</ele>
	<time>2022-06-28T06:28:46.000Z</time>
</trkpt>
<trkpt lat="46.010235" lon="9.790516">
	<ele>1731.20</ele>
	<time>2022-06-28T06:28:48.000Z</time>
</trkpt>
<trkpt lat="46.010244" lon="9.790493">
	<ele>1731.80</ele>
	<time>2022-06-28T06:28:51.000Z</time>
</trkpt>
<trkpt lat="46.010260" lon="9.790497">
	<ele>1732.00</ele>
	<time>2022-06-28T06:28:53.000Z</time>
</trkpt>
<trkpt lat="46.010274" lon="9.790501">
	<ele>1732.60</ele>
	<time>2022-06-28T06:28:55.000Z</time>
</trkpt>
<trkpt lat="46.010285" lon="9.790498">
	<ele>1732.80</ele>
	<time>2022-06-28T06:28:57.000Z</time>
</trkpt>
<trkpt lat="46.010288" lon="9.790492">
	<ele>1733.00</ele>
	<time>2022-06-28T06:28:58.000Z</time>
</trkpt>
<trkpt lat="46.010294" lon="9.790493">
	<ele>1733.20</ele>
	<time>2022-06-28T06:28:59.000Z</time>
</trkpt>
<trkpt lat="46.010309" lon="9.790482">
	<ele>1734.00</ele>
	<time>2022-06-28T06:29:04.000Z</time>
</trkpt>
<trkpt lat="46.010311" lon="9.790495">
	<ele>1734.00</ele>
	<time>2022-06-28T06:29:05.000Z</time>
</trkpt>
<trkpt lat="46.010342" lon="9.790538">
	<ele>1734.00</ele>
	<time>2022-06-28T06:29:09.000Z</time>
</trkpt>
<trkpt lat="46.010355" lon="9.790537">
	<ele>1733.80</ele>
	<time>2022-06-28T06:29:10.000Z</time>
</trkpt>
<trkpt lat="46.010365" lon="9.790540">
	<ele>1733.80</ele>
	<time>2022-06-28T06:29:11.000Z</time>
</trkpt>
<trkpt lat="46.010382" lon="9.790550">
	<ele>1733.40</ele>
	<time>2022-06-28T06:29:14.000Z</time>
</trkpt>
<trkpt lat="46.010388" lon="9.790555">
	<ele>1733.40</ele>
	<time>2022-06-28T06:29:15.000Z</time>
</trkpt>
<trkpt lat="46.010392" lon="9.790556">
	<ele>1733.40</ele>
	<time>2022-06-28T06:29:16.000Z</time>
</trkpt>
<trkpt lat="46.010403" lon="9.790558">
	<ele>1734.00</ele>
	<time>2022-06-28T06:29:19.000Z</time>
</trkpt>
<trkpt lat="46.010401" lon="9.790567">
	<ele>1734.20</ele>
	<time>2022-06-28T06:29:21.000Z</time>
</trkpt>
<trkpt lat="46.010449" lon="9.790617">
	<ele>1733.60</ele>
	<time>2022-06-28T06:29:26.000Z</time>
</trkpt>
<trkpt lat="46.010950" lon="9.791262">
	<ele>1734.40</ele>
	<time>2022-06-28T06:30:04.000Z</time>
</trkpt>
<trkpt lat="46.010946" lon="9.791228">
	<ele>1734.40</ele>
	<time>2022-06-28T06:30:06.000Z</time>
</trkpt>
<trkpt lat="46.010945" lon="9.791181">
	<ele>1734.20</ele>
	<time>2022-06-28T06:30:07.000Z</time>
</trkpt>
<trkpt lat="46.010913" lon="9.791143">
	<ele>1734.00</ele>
	<time>2022-06-28T06:30:10.000Z</time>
</trkpt>
<trkpt lat="46.010926" lon="9.791169">
	<ele>1734.00</ele>
	<time>2022-06-28T06:30:12.000Z</time>
</trkpt>
<trkpt lat="46.010926" lon="9.791154">
	<ele>1733.80</ele>
	<time>2022-06-28T06:30:15.000Z</time>
</trkpt>
<trkpt lat="46.010946" lon="9.791157">
	<ele>1733.80</ele>
	<time>2022-06-28T06:30:16.000Z</time>
</trkpt>
<trkpt lat="46.010981" lon="9.791174">
	<ele>1733.40</ele>
	<time>2022-06-28T06:30:18.000Z</time>
</trkpt>
<trkpt lat="46.011000" lon="9.791179">
	<ele>1733.20</ele>
	<time>2022-06-28T06:30:20.000Z</time>
</trkpt>
<trkpt lat="46.011005" lon="9.791180">
	<ele>1733.00</ele>
	<time>2022-06-28T06:30:21.000Z</time>
</trkpt>
<trkpt lat="46.011008" lon="9.791182">
	<ele>1732.80</ele>
	<time>2022-06-28T06:30:23.000Z</time>
</trkpt>
<trkpt lat="46.011033" lon="9.791196">
	<ele>1732.60</ele>
	<time>2022-06-28T06:30:25.000Z</time>
</trkpt>
<trkpt lat="46.011075" lon="9.791216">
	<ele>1732.60</ele>
	<time>2022-06-28T06:30:29.000Z</time>
</trkpt>
<trkpt lat="46.011086" lon="9.791215">
	<ele>1732.60</ele>
	<time>2022-06-28T06:30:30.000Z</time>
</trkpt>
<trkpt lat="46.011099" lon="9.791215">
	<ele>1732.80</ele>
	<time>2022-06-28T06:30:32.000Z</time>
</trkpt>
<trkpt lat="46.011103" lon="9.791210">
	<ele>1733.00</ele>
	<time>2022-06-28T06:30:34.000Z</time>
</trkpt>
<trkpt lat="46.011105" lon="9.791209">
	<ele>1733.00</ele>
	<time>2022-06-28T06:30:35.000Z</time>
</trkpt>
<trkpt lat="46.011174" lon="9.791224">
	<ele>1733.20</ele>
	<time>2022-06-28T06:30:42.000Z</time>
</trkpt>
<trkpt lat="46.011175" lon="9.791222">
	<ele>1733.20</ele>
	<time>2022-06-28T06:30:43.000Z</time>
</trkpt>
<trkpt lat="46.011211" lon="9.791227">
	<ele>1734.00</ele>
	<time>2022-06-28T06:30:50.000Z</time>
</trkpt>
<trkpt lat="46.011216" lon="9.791227">
	<ele>1734.20</ele>
	<time>2022-06-28T06:30:51.000Z</time>
</trkpt>
<trkpt lat="46.011223" lon="9.791223">
	<ele>1734.20</ele>
	<time>2022-06-28T06:30:52.000Z</time>
</trkpt>
<trkpt lat="46.011284" lon="9.791224">
	<ele>1734.20</ele>
	<time>2022-06-28T06:30:56.000Z</time>
</trkpt>
<trkpt lat="46.011307" lon="9.791222">
	<ele>1734.20</ele>
	<time>2022-06-28T06:30:59.000Z</time>
</trkpt>
<trkpt lat="46.011319" lon="9.791221">
	<ele>1734.20</ele>
	<time>2022-06-28T06:31:01.000Z</time>
</trkpt>
<trkpt lat="46.011330" lon="9.791217">
	<ele>1734.20</ele>
	<time>2022-06-28T06:31:02.000Z</time>
</trkpt>
<trkpt lat="46.011346" lon="9.791203">
	<ele>1734.40</ele>
	<time>2022-06-28T06:31:04.000Z</time>
</trkpt>
<trkpt lat="46.011373" lon="9.791201">
	<ele>1734.40</ele>
	<time>2022-06-28T06:31:07.000Z</time>
</trkpt>
<trkpt lat="46.011457" lon="9.791236">
	<ele>1735.00</ele>
	<time>2022-06-28T06:31:16.000Z</time>
</trkpt>
<trkpt lat="46.011463" lon="9.791243">
	<ele>1735.00</ele>
	<time>2022-06-28T06:31:17.000Z</time>
</trkpt>
<trkpt lat="46.011469" lon="9.791256">
	<ele>1735.40</ele>
	<time>2022-06-28T06:31:19.000Z</time>
</trkpt>
<trkpt lat="46.011470" lon="9.791269">
	<ele>1735.80</ele>
	<time>2022-06-28T06:31:21.000Z</time>
</trkpt>
<trkpt lat="46.011473" lon="9.791280">
	<ele>1736.00</ele>
	<time>2022-06-28T06:31:23.000Z</time>
</trkpt>
<trkpt lat="46.011496" lon="9.791285">
	<ele>1736.40</ele>
	<time>2022-06-28T06:31:25.000Z</time>
</trkpt>
<trkpt lat="46.011533" lon="9.791308">
	<ele>1736.60</ele>
	<time>2022-06-28T06:31:27.000Z</time>
</trkpt>
<trkpt lat="46.011552" lon="9.791302">
	<ele>1736.80</ele>
	<time>2022-06-28T06:31:29.000Z</time>
</trkpt>
<trkpt lat="46.011565" lon="9.791307">
	<ele>1736.80</ele>
	<time>2022-06-28T06:31:30.000Z</time>
</trkpt>
<trkpt lat="46.011593" lon="9.791325">
	<ele>1737.20</ele>
	<time>2022-06-28T06:31:33.000Z</time>
</trkpt>
<trkpt lat="46.011599" lon="9.791344">
	<ele>1737.40</ele>
	<time>2022-06-28T06:31:34.000Z</time>
</trkpt>
<trkpt lat="46.011604" lon="9.791355">
	<ele>1737.40</ele>
	<time>2022-06-28T06:31:35.000Z</time>
</trkpt>
<trkpt lat="46.011632" lon="9.791351">
	<ele>1737.40</ele>
	<time>2022-06-28T06:31:37.000Z</time>
</trkpt>
<trkpt lat="46.011667" lon="9.791284">
	<ele>1737.00</ele>
	<time>2022-06-28T06:31:41.000Z</time>
</trkpt>
<trkpt lat="46.011679" lon="9.791262">
	<ele>1736.80</ele>
	<time>2022-06-28T06:31:43.000Z</time>
</trkpt>
<trkpt lat="46.011679" lon="9.791252">
	<ele>1736.60</ele>
	<time>2022-06-28T06:31:47.000Z</time>
</trkpt>
<trkpt lat="46.011701" lon="9.791259">
	<ele>1736.40</ele>
	<time>2022-06-28T06:31:49.000Z</time>
</trkpt>
<trkpt lat="46.011715" lon="9.791263">
	<ele>1736.40</ele>
	<time>2022-06-28T06:31:50.000Z</time>
</trkpt>
<trkpt lat="46.011760" lon="9.791329">
	<ele>1736.80</ele>
	<time>2022-06-28T06:31:56.000Z</time>
</trkpt>
<trkpt lat="46.011827" lon="9.791412">
	<ele>1736.40</ele>
	<time>2022-06-28T06:32:03.000Z</time>
</trkpt>
<trkpt lat="46.011862" lon="9.791448">
	<ele>1736.40</ele>
	<time>2022-06-28T06:32:07.000Z</time>
</trkpt>
<trkpt lat="46.011885" lon="9.791483">
	<ele>1736.40</ele>
	<time>2022-06-28T06:32:10.000Z</time>
</trkpt>
<trkpt lat="46.011915" lon="9.791577">
	<ele>1736.40</ele>
	<time>2022-06-28T06:32:17.000Z</time>
</trkpt>
<trkpt lat="46.011965" lon="9.791678">
	<ele>1736.20</ele>
	<time>2022-06-28T06:32:23.000Z</time>
</trkpt>
<trkpt lat="46.011974" lon="9.791718">
	<ele>1736.00</ele>
	<time>2022-06-28T06:32:25.000Z</time>
</trkpt>
<trkpt lat="46.011992" lon="9.791759">
	<ele>1735.80</ele>
	<time>2022-06-28T06:32:28.000Z</time>
</trkpt>
<trkpt lat="46.012005" lon="9.791834">
	<ele>1735.80</ele>
	<time>2022-06-28T06:32:32.000Z</time>
</trkpt>
<trkpt lat="46.012004" lon="9.791917">
	<ele>1735.60</ele>
	<time>2022-06-28T06:32:37.000Z</time>
</trkpt>
<trkpt lat="46.012000" lon="9.791933">
	<ele>1735.60</ele>
	<time>2022-06-28T06:32:38.000Z</time>
</trkpt>
<trkpt lat="46.011986" lon="9.792026">
	<ele>1735.60</ele>
	<time>2022-06-28T06:32:44.000Z</time>
</trkpt>
<trkpt lat="46.011981" lon="9.792037">
	<ele>1735.60</ele>
	<time>2022-06-28T06:32:45.000Z</time>
</trkpt>
<trkpt lat="46.011983" lon="9.792082">
	<ele>1735.80</ele>
	<time>2022-06-28T06:32:48.000Z</time>
</trkpt>
<trkpt lat="46.012002" lon="9.792128">
	<ele>1735.80</ele>
	<time>2022-06-28T06:32:51.000Z</time>
</trkpt>
<trkpt lat="46.012012" lon="9.792160">
	<ele>1735.80</ele>
	<time>2022-06-28T06:32:54.000Z</time>
</trkpt>
<trkpt lat="46.012014" lon="9.792240">
	<ele>1736.20</ele>
	<time>2022-06-28T06:32:59.000Z</time>
</trkpt>
<trkpt lat="46.011991" lon="9.792304">
	<ele>1736.40</ele>
	<time>2022-06-28T06:33:03.000Z</time>
</trkpt>
<trkpt lat="46.011991" lon="9.792362">
	<ele>1736.20</ele>
	<time>2022-06-28T06:33:06.000Z</time>
</trkpt>
<trkpt lat="46.012022" lon="9.792426">
	<ele>1735.40</ele>
	<time>2022-06-28T06:33:12.000Z</time>
</trkpt>
<trkpt lat="46.012033" lon="9.792430">
	<ele>1735.40</ele>
	<time>2022-06-28T06:33:13.000Z</time>
</trkpt>
<trkpt lat="46.012043" lon="9.792435">
	<ele>1735.20</ele>
	<time>2022-06-28T06:33:14.000Z</time>
</trkpt>
<trkpt lat="46.012064" lon="9.792452">
	<ele>1735.00</ele>
	<time>2022-06-28T06:33:16.000Z</time>
</trkpt>
<trkpt lat="46.012094" lon="9.792451">
	<ele>1734.60</ele>
	<time>2022-06-28T06:33:19.000Z</time>
</trkpt>
<trkpt lat="46.012099" lon="9.792449">
	<ele>1734.60</ele>
	<time>2022-06-28T06:33:20.000Z</time>
</trkpt>
<trkpt lat="46.012107" lon="9.792449">
	<ele>1734.40</ele>
	<time>2022-06-28T06:33:21.000Z</time>
</trkpt>
<trkpt lat="46.012119" lon="9.792448">
	<ele>1734.40</ele>
	<time>2022-06-28T06:33:22.000Z</time>
</trkpt>
<trkpt lat="46.012143" lon="9.792448">
	<ele>1734.40</ele>
	<time>2022-06-28T06:33:24.000Z</time>
</trkpt>
<trkpt lat="46.012159" lon="9.792447">
	<ele>1734.20</ele>
	<time>2022-06-28T06:33:25.000Z</time>
</trkpt>
<trkpt lat="46.012191" lon="9.792431">
	<ele>1734.20</ele>
	<time>2022-06-28T06:33:28.000Z</time>
</trkpt>
<trkpt lat="46.012233" lon="9.792436">
	<ele>1734.40</ele>
	<time>2022-06-28T06:33:31.000Z</time>
</trkpt>
<trkpt lat="46.012307" lon="9.792398">
	<ele>1734.60</ele>
	<time>2022-06-28T06:33:36.000Z</time>
</trkpt>
<trkpt lat="46.012352" lon="9.792389">
	<ele>1734.60</ele>
	<time>2022-06-28T06:33:41.000Z</time>
</trkpt>
<trkpt lat="46.012373" lon="9.792388">
	<ele>1734.80</ele>
	<time>2022-06-28T06:33:43.000Z</time>
</trkpt>
<trkpt lat="46.012484" lon="9.792431">
	<ele>1734.80</ele>
	<time>2022-06-28T06:33:52.000Z</time>
</trkpt>
<trkpt lat="46.012536" lon="9.792423">
	<ele>1734.60</ele>
	<time>2022-06-28T06:33:57.000Z</time>
</trkpt>
<trkpt lat="46.012574" lon="9.792424">
	<ele>1734.60</ele>
	<time>2022-06-28T06:34:00.000Z</time>
</trkpt>
<trkpt lat="46.012581" lon="9.792431">
	<ele>1734.60</ele>
	<time>2022-06-28T06:34:01.000Z</time>
</trkpt>
<trkpt lat="46.012605" lon="9.792460">
	<ele>1734.60</ele>
	<time>2022-06-28T06:34:05.000Z</time>
</trkpt>
<trkpt lat="46.012615" lon="9.792466">
	<ele>1734.60</ele>
	<time>2022-06-28T06:34:06.000Z</time>
</trkpt>
<trkpt lat="46.012648" lon="9.792474">
	<ele>1734.60</ele>
	<time>2022-06-28T06:34:08.000Z</time>
</trkpt>
<trkpt lat="46.012720" lon="9.792471">
	<ele>1734.20</ele>
	<time>2022-06-28T06:34:14.000Z</time>
</trkpt>
<trkpt lat="46.012751" lon="9.792479">
	<ele>1734.00</ele>
	<time>2022-06-28T06:34:18.000Z</time>
</trkpt>
<trkpt lat="46.012781" lon="9.792491">
	<ele>1734.00</ele>
	<time>2022-06-28T06:34:21.000Z</time>
</trkpt>
<trkpt lat="46.012897" lon="9.792510">
	<ele>1734.00</ele>
	<time>2022-06-28T06:34:30.000Z</time>
</trkpt>
<trkpt lat="46.012905" lon="9.792508">
	<ele>1734.00</ele>
	<time>2022-06-28T06:34:31.000Z</time>
</trkpt>
<trkpt lat="46.012932" lon="9.792503">
	<ele>1734.20</ele>
	<time>2022-06-28T06:34:34.000Z</time>
</trkpt>
<trkpt lat="46.012971" lon="9.792509">
	<ele>1734.20</ele>
	<time>2022-06-28T06:34:37.000Z</time>
</trkpt>
<trkpt lat="46.013012" lon="9.792496">
	<ele>1734.40</ele>
	<time>2022-06-28T06:34:43.000Z</time>
</trkpt>
<trkpt lat="46.013017" lon="9.792504">
	<ele>1734.20</ele>
	<time>2022-06-28T06:34:45.000Z</time>
</trkpt>
<trkpt lat="46.013035" lon="9.792504">
	<ele>1734.20</ele>
	<time>2022-06-28T06:34:48.000Z</time>
</trkpt>
<trkpt lat="46.013066" lon="9.792503">
	<ele>1734.80</ele>
	<time>2022-06-28T06:34:51.000Z</time>
</trkpt>
<trkpt lat="46.013075" lon="9.792495">
	<ele>1735.00</ele>
	<time>2022-06-28T06:34:53.000Z</time>
</trkpt>
<trkpt lat="46.013095" lon="9.792496">
	<ele>1735.20</ele>
	<time>2022-06-28T06:34:55.000Z</time>
</trkpt>
<trkpt lat="46.013119" lon="9.792486">
	<ele>1735.60</ele>
	<time>2022-06-28T06:34:58.000Z</time>
</trkpt>
<trkpt lat="46.013135" lon="9.792485">
	<ele>1735.60</ele>
	<time>2022-06-28T06:34:59.000Z</time>
</trkpt>
<trkpt lat="46.013159" lon="9.792480">
	<ele>1736.40</ele>
	<time>2022-06-28T06:35:03.000Z</time>
</trkpt>
<trkpt lat="46.013166" lon="9.792478">
	<ele>1736.60</ele>
	<time>2022-06-28T06:35:05.000Z</time>
</trkpt>
<trkpt lat="46.013181" lon="9.792480">
	<ele>1736.80</ele>
	<time>2022-06-28T06:35:07.000Z</time>
</trkpt>
<trkpt lat="46.013200" lon="9.792485">
	<ele>1736.80</ele>
	<time>2022-06-28T06:35:09.000Z</time>
</trkpt>
<trkpt lat="46.013237" lon="9.792479">
	<ele>1737.00</ele>
	<time>2022-06-28T06:35:13.000Z</time>
</trkpt>
<trkpt lat="46.013262" lon="9.792448">
	<ele>1737.20</ele>
	<time>2022-06-28T06:35:15.000Z</time>
</trkpt>
<trkpt lat="46.013309" lon="9.792449">
	<ele>1737.20</ele>
	<time>2022-06-28T06:35:18.000Z</time>
</trkpt>
<trkpt lat="46.013321" lon="9.792461">
	<ele>1737.20</ele>
	<time>2022-06-28T06:35:19.000Z</time>
</trkpt>
<trkpt lat="46.013341" lon="9.792494">
	<ele>1737.40</ele>
	<time>2022-06-28T06:35:22.000Z</time>
</trkpt>
<trkpt lat="46.013341" lon="9.792507">
	<ele>1737.40</ele>
	<time>2022-06-28T06:35:23.000Z</time>
</trkpt>
<trkpt lat="46.013342" lon="9.792515">
	<ele>1737.40</ele>
	<time>2022-06-28T06:35:24.000Z</time>
</trkpt>
<trkpt lat="46.013343" lon="9.792520">
	<ele>1737.60</ele>
	<time>2022-06-28T06:35:25.000Z</time>
</trkpt>
<trkpt lat="46.013350" lon="9.792528">
	<ele>1737.60</ele>
	<time>2022-06-28T06:35:26.000Z</time>
</trkpt>
<trkpt lat="46.013374" lon="9.792549">
	<ele>1737.80</ele>
	<time>2022-06-28T06:35:28.000Z</time>
</trkpt>
<trkpt lat="46.013396" lon="9.792569">
	<ele>1737.80</ele>
	<time>2022-06-28T06:35:30.000Z</time>
</trkpt>
<trkpt lat="46.013474" lon="9.792636">
	<ele>1737.80</ele>
	<time>2022-06-28T06:35:36.000Z</time>
</trkpt>
<trkpt lat="46.013498" lon="9.792665">
	<ele>1737.80</ele>
	<time>2022-06-28T06:35:38.000Z</time>
</trkpt>
<trkpt lat="46.013523" lon="9.792688">
	<ele>1737.80</ele>
	<time>2022-06-28T06:35:40.000Z</time>
</trkpt>
<trkpt lat="46.013535" lon="9.792702">
	<ele>1737.80</ele>
	<time>2022-06-28T06:35:41.000Z</time>
</trkpt>
<trkpt lat="46.013575" lon="9.792765">
	<ele>1738.00</ele>
	<time>2022-06-28T06:35:47.000Z</time>
</trkpt>
<trkpt lat="46.013594" lon="9.792830">
	<ele>1738.40</ele>
	<time>2022-06-28T06:35:52.000Z</time>
</trkpt>
<trkpt lat="46.013591" lon="9.792864">
	<ele>1738.40</ele>
	<time>2022-06-28T06:35:54.000Z</time>
</trkpt>
<trkpt lat="46.013595" lon="9.792892">
	<ele>1738.20</ele>
	<time>2022-06-28T06:35:56.000Z</time>
</trkpt>
<trkpt lat="46.013586" lon="9.792942">
	<ele>1737.80</ele>
	<time>2022-06-28T06:36:00.000Z</time>
</trkpt>
<trkpt lat="46.013584" lon="9.792983">
	<ele>1737.40</ele>
	<time>2022-06-28T06:36:03.000Z</time>
</trkpt>
<trkpt lat="46.013582" lon="9.792994">
	<ele>1737.20</ele>
	<time>2022-06-28T06:36:04.000Z</time>
</trkpt>
<trkpt lat="46.013575" lon="9.793006">
	<ele>1737.20</ele>
	<time>2022-06-28T06:36:05.000Z</time>
</trkpt>
<trkpt lat="46.013564" lon="9.793066">
	<ele>1737.00</ele>
	<time>2022-06-28T06:36:09.000Z</time>
</trkpt>
<trkpt lat="46.013559" lon="9.793119">
	<ele>1736.80</ele>
	<time>2022-06-28T06:36:12.000Z</time>
</trkpt>
<trkpt lat="46.013551" lon="9.793152">
	<ele>1736.80</ele>
	<time>2022-06-28T06:36:14.000Z</time>
</trkpt>
<trkpt lat="46.013542" lon="9.793198">
	<ele>1736.80</ele>
	<time>2022-06-28T06:36:17.000Z</time>
</trkpt>
<trkpt lat="46.013544" lon="9.793214">
	<ele>1736.80</ele>
	<time>2022-06-28T06:36:18.000Z</time>
</trkpt>
<trkpt lat="46.013539" lon="9.793227">
	<ele>1737.00</ele>
	<time>2022-06-28T06:36:19.000Z</time>
</trkpt>
<trkpt lat="46.013537" lon="9.793279">
	<ele>1737.00</ele>
	<time>2022-06-28T06:36:22.000Z</time>
</trkpt>
<trkpt lat="46.013535" lon="9.793291">
	<ele>1737.20</ele>
	<time>2022-06-28T06:36:23.000Z</time>
</trkpt>
<trkpt lat="46.013526" lon="9.793323">
	<ele>1737.40</ele>
	<time>2022-06-28T06:36:25.000Z</time>
</trkpt>
<trkpt lat="46.013499" lon="9.793387">
	<ele>1737.60</ele>
	<time>2022-06-28T06:36:29.000Z</time>
</trkpt>
<trkpt lat="46.013471" lon="9.793450">
	<ele>1738.00</ele>
	<time>2022-06-28T06:36:35.000Z</time>
</trkpt>
<trkpt lat="46.013466" lon="9.793454">
	<ele>1738.00</ele>
	<time>2022-06-28T06:36:36.000Z</time>
</trkpt>
<trkpt lat="46.013455" lon="9.793468">
	<ele>1738.00</ele>
	<time>2022-06-28T06:36:38.000Z</time>
</trkpt>
<trkpt lat="46.013427" lon="9.793507">
	<ele>1737.40</ele>
	<time>2022-06-28T06:36:43.000Z</time>
</trkpt>
<trkpt lat="46.013419" lon="9.793514">
	<ele>1737.00</ele>
	<time>2022-06-28T06:36:44.000Z</time>
</trkpt>
<trkpt lat="46.013412" lon="9.793526">
	<ele>1736.60</ele>
	<time>2022-06-28T06:36:47.000Z</time>
</trkpt>
<trkpt lat="46.013407" lon="9.793527">
	<ele>1736.40</ele>
	<time>2022-06-28T06:36:48.000Z</time>
</trkpt>
<trkpt lat="46.013394" lon="9.793533">
	<ele>1736.20</ele>
	<time>2022-06-28T06:36:50.000Z</time>
</trkpt>
<trkpt lat="46.013386" lon="9.793537">
	<ele>1735.80</ele>
	<time>2022-06-28T06:36:51.000Z</time>
</trkpt>
<trkpt lat="46.013347" lon="9.793548">
	<ele>1735.00</ele>
	<time>2022-06-28T06:36:55.000Z</time>
</trkpt>
<trkpt lat="46.013343" lon="9.793553">
	<ele>1734.80</ele>
	<time>2022-06-28T06:36:56.000Z</time>
</trkpt>
<trkpt lat="46.013333" lon="9.793567">
	<ele>1734.20</ele>
	<time>2022-06-28T06:36:58.000Z</time>
</trkpt>
<trkpt lat="46.013328" lon="9.793568">
	<ele>1734.00</ele>
	<time>2022-06-28T06:36:59.000Z</time>
</trkpt>
<trkpt lat="46.013278" lon="9.793570">
	<ele>1733.60</ele>
	<time>2022-06-28T06:37:02.000Z</time>
</trkpt>
<trkpt lat="46.013267" lon="9.793576">
	<ele>1733.40</ele>
	<time>2022-06-28T06:37:03.000Z</time>
</trkpt>
<trkpt lat="46.013256" lon="9.793590">
	<ele>1733.00</ele>
	<time>2022-06-28T06:37:05.000Z</time>
</trkpt>
<trkpt lat="46.013254" lon="9.793603">
	<ele>1732.80</ele>
	<time>2022-06-28T06:37:06.000Z</time>
</trkpt>
<trkpt lat="46.013243" lon="9.793627">
	<ele>1732.60</ele>
	<time>2022-06-28T06:37:08.000Z</time>
</trkpt>
<trkpt lat="46.013236" lon="9.793641">
	<ele>1732.40</ele>
	<time>2022-06-28T06:37:09.000Z</time>
</trkpt>
<trkpt lat="46.013229" lon="9.793676">
	<ele>1731.80</ele>
	<time>2022-06-28T06:37:12.000Z</time>
</trkpt>
<trkpt lat="46.013222" lon="9.793697">
	<ele>1731.40</ele>
	<time>2022-06-28T06:37:14.000Z</time>
</trkpt>
<trkpt lat="46.013200" lon="9.793720">
	<ele>1730.80</ele>
	<time>2022-06-28T06:37:18.000Z</time>
</trkpt>
<trkpt lat="46.013195" lon="9.793734">
	<ele>1730.60</ele>
	<time>2022-06-28T06:37:19.000Z</time>
</trkpt>
<trkpt lat="46.013200" lon="9.793755">
	<ele>1730.20</ele>
	<time>2022-06-28T06:37:21.000Z</time>
</trkpt>
<trkpt lat="46.013213" lon="9.793769">
	<ele>1729.80</ele>
	<time>2022-06-28T06:37:23.000Z</time>
</trkpt>
<trkpt lat="46.013207" lon="9.793788">
	<ele>1729.40</ele>
	<time>2022-06-28T06:37:26.000Z</time>
</trkpt>
<trkpt lat="46.013189" lon="9.793836">
	<ele>1728.60</ele>
	<time>2022-06-28T06:37:29.000Z</time>
</trkpt>
<trkpt lat="46.013187" lon="9.793862">
	<ele>1728.20</ele>
	<time>2022-06-28T06:37:31.000Z</time>
</trkpt>
<trkpt lat="46.013178" lon="9.793872">
	<ele>1728.00</ele>
	<time>2022-06-28T06:37:32.000Z</time>
</trkpt>
<trkpt lat="46.013121" lon="9.793927">
	<ele>1727.20</ele>
	<time>2022-06-28T06:37:38.000Z</time>
</trkpt>
<trkpt lat="46.013118" lon="9.793940">
	<ele>1727.00</ele>
	<time>2022-06-28T06:37:39.000Z</time>
</trkpt>
<trkpt lat="46.013110" lon="9.793957">
	<ele>1726.80</ele>
	<time>2022-06-28T06:37:40.000Z</time>
</trkpt>
<trkpt lat="46.013111" lon="9.793997">
	<ele>1726.60</ele>
	<time>2022-06-28T06:37:42.000Z</time>
</trkpt>
<trkpt lat="46.013126" lon="9.794037">
	<ele>1726.40</ele>
	<time>2022-06-28T06:37:44.000Z</time>
</trkpt>
<trkpt lat="46.013146" lon="9.794080">
	<ele>1726.40</ele>
	<time>2022-06-28T06:37:46.000Z</time>
</trkpt>
<trkpt lat="46.013149" lon="9.794132">
	<ele>1726.40</ele>
	<time>2022-06-28T06:37:49.000Z</time>
</trkpt>
<trkpt lat="46.013159" lon="9.794203">
	<ele>1726.20</ele>
	<time>2022-06-28T06:37:53.000Z</time>
</trkpt>
<trkpt lat="46.013171" lon="9.794325">
	<ele>1726.60</ele>
	<time>2022-06-28T06:38:00.000Z</time>
</trkpt>
<trkpt lat="46.013167" lon="9.794339">
	<ele>1726.80</ele>
	<time>2022-06-28T06:38:01.000Z</time>
</trkpt>
<trkpt lat="46.013129" lon="9.794368">
	<ele>1727.80</ele>
	<time>2022-06-28T06:38:07.000Z</time>
</trkpt>
<trkpt lat="46.013111" lon="9.794381">
	<ele>1728.20</ele>
	<time>2022-06-28T06:38:10.000Z</time>
</trkpt>
<trkpt lat="46.013106" lon="9.794383">
	<ele>1728.40</ele>
	<time>2022-06-28T06:38:11.000Z</time>
</trkpt>
<trkpt lat="46.013087" lon="9.794387">
	<ele>1728.80</ele>
	<time>2022-06-28T06:38:14.000Z</time>
</trkpt>
<trkpt lat="46.013073" lon="9.794403">
	<ele>1729.20</ele>
	<time>2022-06-28T06:38:16.000Z</time>
</trkpt>
<trkpt lat="46.013068" lon="9.794412">
	<ele>1729.20</ele>
	<time>2022-06-28T06:38:17.000Z</time>
</trkpt>
<trkpt lat="46.013062" lon="9.794422">
	<ele>1729.40</ele>
	<time>2022-06-28T06:38:18.000Z</time>
</trkpt>
<trkpt lat="46.013058" lon="9.794433">
	<ele>1729.60</ele>
	<time>2022-06-28T06:38:19.000Z</time>
</trkpt>
<trkpt lat="46.013051" lon="9.794468">
	<ele>1729.80</ele>
	<time>2022-06-28T06:38:21.000Z</time>
</trkpt>
<trkpt lat="46.013038" lon="9.794492">
	<ele>1730.20</ele>
	<time>2022-06-28T06:38:25.000Z</time>
</trkpt>
<trkpt lat="46.013041" lon="9.794484">
	<ele>1730.20</ele>
	<time>2022-06-28T06:38:28.000Z</time>
</trkpt>
<trkpt lat="46.013022" lon="9.794502">
	<ele>1730.80</ele>
	<time>2022-06-28T06:38:36.000Z</time>
</trkpt>
<trkpt lat="46.012981" lon="9.794608">
	<ele>1729.80</ele>
	<time>2022-06-28T06:38:43.000Z</time>
</trkpt>
<trkpt lat="46.012958" lon="9.794693">
	<ele>1729.20</ele>
	<time>2022-06-28T06:38:49.000Z</time>
</trkpt>
<trkpt lat="46.012955" lon="9.794714">
	<ele>1729.20</ele>
	<time>2022-06-28T06:38:50.000Z</time>
</trkpt>
<trkpt lat="46.012951" lon="9.794732">
	<ele>1729.20</ele>
	<time>2022-06-28T06:38:51.000Z</time>
</trkpt>
<trkpt lat="46.012948" lon="9.794763">
	<ele>1729.00</ele>
	<time>2022-06-28T06:38:53.000Z</time>
</trkpt>
<trkpt lat="46.012945" lon="9.794774">
	<ele>1728.80</ele>
	<time>2022-06-28T06:38:55.000Z</time>
</trkpt>
<trkpt lat="46.012939" lon="9.794759">
	<ele>1728.80</ele>
	<time>2022-06-28T06:39:02.000Z</time>
</trkpt>
<trkpt lat="46.012934" lon="9.794780">
	<ele>1728.60</ele>
	<time>2022-06-28T06:39:05.000Z</time>
</trkpt>
<trkpt lat="46.012929" lon="9.794802">
	<ele>1728.60</ele>
	<time>2022-06-28T06:39:07.000Z</time>
</trkpt>
<trkpt lat="46.012923" lon="9.794810">
	<ele>1728.60</ele>
	<time>2022-06-28T06:39:08.000Z</time>
</trkpt>
<trkpt lat="46.012912" lon="9.794828">
	<ele>1728.20</ele>
	<time>2022-06-28T06:39:10.000Z</time>
</trkpt>
<trkpt lat="46.012878" lon="9.794886">
	<ele>1727.60</ele>
	<time>2022-06-28T06:39:15.000Z</time>
</trkpt>
<trkpt lat="46.012793" lon="9.794945">
	<ele>1727.20</ele>
	<time>2022-06-28T06:39:23.000Z</time>
</trkpt>
<trkpt lat="46.012784" lon="9.794960">
	<ele>1727.20</ele>
	<time>2022-06-28T06:39:24.000Z</time>
</trkpt>
<trkpt lat="46.012741" lon="9.795041">
	<ele>1726.80</ele>
	<time>2022-06-28T06:39:30.000Z</time>
</trkpt>
<trkpt lat="46.012707" lon="9.795082">
	<ele>1726.80</ele>
	<time>2022-06-28T06:39:34.000Z</time>
</trkpt>
<trkpt lat="46.012689" lon="9.795104">
	<ele>1727.00</ele>
	<time>2022-06-28T06:39:36.000Z</time>
</trkpt>
<trkpt lat="46.012679" lon="9.795107">
	<ele>1727.00</ele>
	<time>2022-06-28T06:39:37.000Z</time>
</trkpt>
<trkpt lat="46.012630" lon="9.795192">
	<ele>1726.60</ele>
	<time>2022-06-28T06:39:45.000Z</time>
</trkpt>
<trkpt lat="46.012621" lon="9.795205">
	<ele>1726.60</ele>
	<time>2022-06-28T06:39:46.000Z</time>
</trkpt>
<trkpt lat="46.012596" lon="9.795271">
	<ele>1726.60</ele>
	<time>2022-06-28T06:39:51.000Z</time>
</trkpt>
<trkpt lat="46.012594" lon="9.795311">
	<ele>1726.40</ele>
	<time>2022-06-28T06:39:53.000Z</time>
</trkpt>
<trkpt lat="46.012577" lon="9.795421">
	<ele>1726.40</ele>
	<time>2022-06-28T06:40:00.000Z</time>
</trkpt>
<trkpt lat="46.012574" lon="9.795435">
	<ele>1726.40</ele>
	<time>2022-06-28T06:40:01.000Z</time>
</trkpt>
<trkpt lat="46.012564" lon="9.795488">
	<ele>1726.20</ele>
	<time>2022-06-28T06:40:04.000Z</time>
</trkpt>
<trkpt lat="46.012555" lon="9.795512">
	<ele>1726.20</ele>
	<time>2022-06-28T06:40:07.000Z</time>
</trkpt>
<trkpt lat="46.012556" lon="9.795524">
	<ele>1726.20</ele>
	<time>2022-06-28T06:40:08.000Z</time>
</trkpt>
<trkpt lat="46.012546" lon="9.795566">
	<ele>1726.20</ele>
	<time>2022-06-28T06:40:11.000Z</time>
</trkpt>
<trkpt lat="46.012540" lon="9.795570">
	<ele>1726.20</ele>
	<time>2022-06-28T06:40:12.000Z</time>
</trkpt>
<trkpt lat="46.012528" lon="9.795591">
	<ele>1726.20</ele>
	<time>2022-06-28T06:40:14.000Z</time>
</trkpt>
<trkpt lat="46.012518" lon="9.795661">
	<ele>1726.40</ele>
	<time>2022-06-28T06:40:18.000Z</time>
</trkpt>
<trkpt lat="46.012508" lon="9.795747">
	<ele>1726.80</ele>
	<time>2022-06-28T06:40:23.000Z</time>
</trkpt>
<trkpt lat="46.012509" lon="9.795778">
	<ele>1726.80</ele>
	<time>2022-06-28T06:40:25.000Z</time>
</trkpt>
<trkpt lat="46.012490" lon="9.795833">
	<ele>1726.40</ele>
	<time>2022-06-28T06:40:29.000Z</time>
</trkpt>
<trkpt lat="46.012463" lon="9.795887">
	<ele>1726.40</ele>
	<time>2022-06-28T06:40:32.000Z</time>
</trkpt>
<trkpt lat="46.012434" lon="9.795922">
	<ele>1726.20</ele>
	<time>2022-06-28T06:40:35.000Z</time>
</trkpt>
<trkpt lat="46.012417" lon="9.795955">
	<ele>1726.00</ele>
	<time>2022-06-28T06:40:37.000Z</time>
</trkpt>
<trkpt lat="46.012408" lon="9.795997">
	<ele>1725.80</ele>
	<time>2022-06-28T06:40:39.000Z</time>
</trkpt>
<trkpt lat="46.012396" lon="9.796026">
	<ele>1725.60</ele>
	<time>2022-06-28T06:40:41.000Z</time>
</trkpt>
<trkpt lat="46.012363" lon="9.796089">
	<ele>1725.60</ele>
	<time>2022-06-28T06:40:46.000Z</time>
</trkpt>
<trkpt lat="46.012349" lon="9.796126">
	<ele>1725.80</ele>
	<time>2022-06-28T06:40:49.000Z</time>
</trkpt>
<trkpt lat="46.012336" lon="9.796147">
	<ele>1726.00</ele>
	<time>2022-06-28T06:40:51.000Z</time>
</trkpt>
<trkpt lat="46.012339" lon="9.796158">
	<ele>1726.00</ele>
	<time>2022-06-28T06:40:52.000Z</time>
</trkpt>
<trkpt lat="46.012354" lon="9.796181">
	<ele>1726.00</ele>
	<time>2022-06-28T06:40:55.000Z</time>
</trkpt>
<trkpt lat="46.012353" lon="9.796193">
	<ele>1726.20</ele>
	<time>2022-06-28T06:40:58.000Z</time>
</trkpt>
<trkpt lat="46.012360" lon="9.796196">
	<ele>1726.20</ele>
	<time>2022-06-28T06:40:59.000Z</time>
</trkpt>
<trkpt lat="46.012346" lon="9.796207">
	<ele>1726.80</ele>
	<time>2022-06-28T06:41:03.000Z</time>
</trkpt>
<trkpt lat="46.012346" lon="9.796207">
	<ele>1726.80</ele>
	<time>2022-06-28T06:41:04.000Z</time>
</trkpt>
<trkpt lat="46.012346" lon="9.796207">
	<ele>1726.80</ele>
	<time>2022-06-28T06:41:05.000Z</time>
</trkpt>
<trkpt lat="46.012353" lon="9.796216">
	<ele>1726.80</ele>
	<time>2022-06-28T06:41:08.000Z</time>
</trkpt>
<trkpt lat="46.012347" lon="9.796216">
	<ele>1727.20</ele>
	<time>2022-06-28T06:41:11.000Z</time>
</trkpt>
<trkpt lat="46.012348" lon="9.796217">
	<ele>1727.40</ele>
	<time>2022-06-28T06:41:12.000Z</time>
</trkpt>
<trkpt lat="46.012376" lon="9.796260">
	<ele>1728.00</ele>
	<time>2022-06-28T06:41:27.000Z</time>
</trkpt>
<trkpt lat="46.012394" lon="9.796299">
	<ele>1728.20</ele>
	<time>2022-06-28T06:41:29.000Z</time>
</trkpt>
<trkpt lat="46.012392" lon="9.796349">
	<ele>1728.20</ele>
	<time>2022-06-28T06:41:32.000Z</time>
</trkpt>
<trkpt lat="46.012408" lon="9.796426">
	<ele>1727.80</ele>
	<time>2022-06-28T06:41:37.000Z</time>
</trkpt>
<trkpt lat="46.012415" lon="9.796443">
	<ele>1727.80</ele>
	<time>2022-06-28T06:41:38.000Z</time>
</trkpt>
<trkpt lat="46.012437" lon="9.796495">
	<ele>1727.40</ele>
	<time>2022-06-28T06:41:41.000Z</time>
</trkpt>
<trkpt lat="46.012443" lon="9.796523">
	<ele>1727.20</ele>
	<time>2022-06-28T06:41:43.000Z</time>
</trkpt>
<trkpt lat="46.012444" lon="9.796537">
	<ele>1727.20</ele>
	<time>2022-06-28T06:41:44.000Z</time>
</trkpt>
<trkpt lat="46.012477" lon="9.796629">
	<ele>1727.40</ele>
	<time>2022-06-28T06:41:49.000Z</time>
</trkpt>
<trkpt lat="46.012491" lon="9.796642">
	<ele>1727.40</ele>
	<time>2022-06-28T06:41:50.000Z</time>
</trkpt>
<trkpt lat="46.012519" lon="9.796692">
	<ele>1727.00</ele>
	<time>2022-06-28T06:41:55.000Z</time>
</trkpt>
<trkpt lat="46.012526" lon="9.796704">
	<ele>1727.00</ele>
	<time>2022-06-28T06:41:56.000Z</time>
</trkpt>
<trkpt lat="46.012600" lon="9.796793">
	<ele>1726.60</ele>
	<time>2022-06-28T06:42:04.000Z</time>
</trkpt>
<trkpt lat="46.012635" lon="9.796862">
	<ele>1726.00</ele>
	<time>2022-06-28T06:42:10.000Z</time>
</trkpt>
<trkpt lat="46.012641" lon="9.796862">
	<ele>1726.00</ele>
	<time>2022-06-28T06:42:11.000Z</time>
</trkpt>
<trkpt lat="46.012647" lon="9.796862">
	<ele>1725.80</ele>
	<time>2022-06-28T06:42:12.000Z</time>
</trkpt>
<trkpt lat="46.012721" lon="9.796864">
	<ele>1725.20</ele>
	<time>2022-06-28T06:42:19.000Z</time>
</trkpt>
<trkpt lat="46.012810" lon="9.796919">
	<ele>1725.40</ele>
	<time>2022-06-28T06:42:26.000Z</time>
</trkpt>
<trkpt lat="46.012823" lon="9.796927">
	<ele>1725.40</ele>
	<time>2022-06-28T06:42:27.000Z</time>
</trkpt>
<trkpt lat="46.012864" lon="9.796937">
	<ele>1725.60</ele>
	<time>2022-06-28T06:42:31.000Z</time>
</trkpt>
<trkpt lat="46.012874" lon="9.796943">
	<ele>1725.60</ele>
	<time>2022-06-28T06:42:32.000Z</time>
</trkpt>
<trkpt lat="46.012905" lon="9.796977">
	<ele>1726.00</ele>
	<time>2022-06-28T06:42:34.000Z</time>
</trkpt>
<trkpt lat="46.012942" lon="9.796997">
	<ele>1726.60</ele>
	<time>2022-06-28T06:42:38.000Z</time>
</trkpt>
<trkpt lat="46.012956" lon="9.797000">
	<ele>1726.80</ele>
	<time>2022-06-28T06:42:40.000Z</time>
</trkpt>
<trkpt lat="46.012962" lon="9.797000">
	<ele>1727.00</ele>
	<time>2022-06-28T06:42:41.000Z</time>
</trkpt>
<trkpt lat="46.012968" lon="9.796999">
	<ele>1727.20</ele>
	<time>2022-06-28T06:42:42.000Z</time>
</trkpt>
<trkpt lat="46.013002" lon="9.797008">
	<ele>1727.40</ele>
	<time>2022-06-28T06:42:44.000Z</time>
</trkpt>
<trkpt lat="46.013036" lon="9.797001">
	<ele>1727.80</ele>
	<time>2022-06-28T06:42:48.000Z</time>
</trkpt>
<trkpt lat="46.013053" lon="9.797007">
	<ele>1728.20</ele>
	<time>2022-06-28T06:42:51.000Z</time>
</trkpt>
<trkpt lat="46.013066" lon="9.797009">
	<ele>1728.60</ele>
	<time>2022-06-28T06:42:53.000Z</time>
</trkpt>
<trkpt lat="46.013068" lon="9.797015">
	<ele>1728.80</ele>
	<time>2022-06-28T06:42:56.000Z</time>
</trkpt>
<trkpt lat="46.013079" lon="9.797034">
	<ele>1729.40</ele>
	<time>2022-06-28T06:43:00.000Z</time>
</trkpt>
<trkpt lat="46.013089" lon="9.797031">
	<ele>1729.60</ele>
	<time>2022-06-28T06:43:02.000Z</time>
</trkpt>
<trkpt lat="46.013111" lon="9.797044">
	<ele>1730.00</ele>
	<time>2022-06-28T06:43:05.000Z</time>
</trkpt>
<trkpt lat="46.013120" lon="9.797059">
	<ele>1730.40</ele>
	<time>2022-06-28T06:43:08.000Z</time>
</trkpt>
<trkpt lat="46.013122" lon="9.797060">
	<ele>1730.40</ele>
	<time>2022-06-28T06:43:09.000Z</time>
</trkpt>
<trkpt lat="46.013129" lon="9.797061">
	<ele>1730.60</ele>
	<time>2022-06-28T06:43:10.000Z</time>
</trkpt>
<trkpt lat="46.013155" lon="9.797077">
	<ele>1731.00</ele>
	<time>2022-06-28T06:43:13.000Z</time>
</trkpt>
<trkpt lat="46.013184" lon="9.797090">
	<ele>1731.20</ele>
	<time>2022-06-28T06:43:16.000Z</time>
</trkpt>
<trkpt lat="46.013246" lon="9.797087">
	<ele>1731.60</ele>
	<time>2022-06-28T06:43:22.000Z</time>
</trkpt>
<trkpt lat="46.013269" lon="9.797097">
	<ele>1731.80</ele>
	<time>2022-06-28T06:43:24.000Z</time>
</trkpt>
<trkpt lat="46.013344" lon="9.797125">
	<ele>1732.20</ele>
	<time>2022-06-28T06:43:32.000Z</time>
</trkpt>
<trkpt lat="46.013352" lon="9.797121">
	<ele>1732.20</ele>
	<time>2022-06-28T06:43:33.000Z</time>
</trkpt>
<trkpt lat="46.013366" lon="9.797122">
	<ele>1732.20</ele>
	<time>2022-06-28T06:43:35.000Z</time>
</trkpt>
<trkpt lat="46.013397" lon="9.797136">
	<ele>1732.20</ele>
	<time>2022-06-28T06:43:39.000Z</time>
</trkpt>
<trkpt lat="46.013406" lon="9.797140">
	<ele>1732.20</ele>
	<time>2022-06-28T06:43:40.000Z</time>
</trkpt>
<trkpt lat="46.013426" lon="9.797147">
	<ele>1732.60</ele>
	<time>2022-06-28T06:43:43.000Z</time>
</trkpt>
<trkpt lat="46.013436" lon="9.797153">
	<ele>1732.80</ele>
	<time>2022-06-28T06:43:45.000Z</time>
</trkpt>
<trkpt lat="46.013456" lon="9.797173">
	<ele>1732.80</ele>
	<time>2022-06-28T06:43:47.000Z</time>
</trkpt>
<trkpt lat="46.013484" lon="9.797190">
	<ele>1733.80</ele>
	<time>2022-06-28T06:43:51.000Z</time>
</trkpt>
<trkpt lat="46.013495" lon="9.797194">
	<ele>1733.80</ele>
	<time>2022-06-28T06:43:52.000Z</time>
</trkpt>
<trkpt lat="46.013537" lon="9.797200">
	<ele>1734.20</ele>
	<time>2022-06-28T06:43:57.000Z</time>
</trkpt>
<trkpt lat="46.013545" lon="9.797205">
	<ele>1734.20</ele>
	<time>2022-06-28T06:44:00.000Z</time>
</trkpt>
<trkpt lat="46.013550" lon="9.797202">
	<ele>1734.20</ele>
	<time>2022-06-28T06:44:01.000Z</time>
</trkpt>
<trkpt lat="46.013563" lon="9.797201">
	<ele>1734.20</ele>
	<time>2022-06-28T06:44:03.000Z</time>
</trkpt>
<trkpt lat="46.013570" lon="9.797199">
	<ele>1734.20</ele>
	<time>2022-06-28T06:44:05.000Z</time>
</trkpt>
<trkpt lat="46.013596" lon="9.797208">
	<ele>1734.20</ele>
	<time>2022-06-28T06:44:08.000Z</time>
</trkpt>
<trkpt lat="46.013614" lon="9.797226">
	<ele>1734.40</ele>
	<time>2022-06-28T06:44:10.000Z</time>
</trkpt>
<trkpt lat="46.013644" lon="9.797244">
	<ele>1734.60</ele>
	<time>2022-06-28T06:44:13.000Z</time>
</trkpt>
<trkpt lat="46.013657" lon="9.797247">
	<ele>1734.80</ele>
	<time>2022-06-28T06:44:15.000Z</time>
</trkpt>
<trkpt lat="46.013663" lon="9.797247">
	<ele>1734.80</ele>
	<time>2022-06-28T06:44:16.000Z</time>
</trkpt>
<trkpt lat="46.013694" lon="9.797252">
	<ele>1735.00</ele>
	<time>2022-06-28T06:44:21.000Z</time>
</trkpt>
<trkpt lat="46.013703" lon="9.797250">
	<ele>1735.00</ele>
	<time>2022-06-28T06:44:22.000Z</time>
</trkpt>
<trkpt lat="46.013732" lon="9.797250">
	<ele>1734.80</ele>
	<time>2022-06-28T06:44:25.000Z</time>
</trkpt>
<trkpt lat="46.013740" lon="9.797246">
	<ele>1734.80</ele>
	<time>2022-06-28T06:44:26.000Z</time>
</trkpt>
<trkpt lat="46.013778" lon="9.797243">
	<ele>1735.00</ele>
	<time>2022-06-28T06:44:31.000Z</time>
</trkpt>
<trkpt lat="46.013796" lon="9.797244">
	<ele>1735.40</ele>
	<time>2022-06-28T06:44:35.000Z</time>
</trkpt>
<trkpt lat="46.013827" lon="9.797240">
	<ele>1735.80</ele>
	<time>2022-06-28T06:44:38.000Z</time>
</trkpt>
<trkpt lat="46.013836" lon="9.797236">
	<ele>1735.80</ele>
	<time>2022-06-28T06:44:39.000Z</time>
</trkpt>
<trkpt lat="46.013857" lon="9.797232">
	<ele>1735.80</ele>
	<time>2022-06-28T06:44:41.000Z</time>
</trkpt>
<trkpt lat="46.013892" lon="9.797227">
	<ele>1735.60</ele>
	<time>2022-06-28T06:44:44.000Z</time>
</trkpt>
<trkpt lat="46.013903" lon="9.797228">
	<ele>1735.40</ele>
	<time>2022-06-28T06:44:45.000Z</time>
</trkpt>
<trkpt lat="46.013948" lon="9.797224">
	<ele>1735.40</ele>
	<time>2022-06-28T06:44:49.000Z</time>
</trkpt>
<trkpt lat="46.013972" lon="9.797228">
	<ele>1735.80</ele>
	<time>2022-06-28T06:44:52.000Z</time>
</trkpt>
<trkpt lat="46.013983" lon="9.797215">
	<ele>1736.20</ele>
	<time>2022-06-28T06:44:54.000Z</time>
</trkpt>
<trkpt lat="46.014002" lon="9.797216">
	<ele>1736.40</ele>
	<time>2022-06-28T06:44:57.000Z</time>
</trkpt>
<trkpt lat="46.014007" lon="9.797213">
	<ele>1736.60</ele>
	<time>2022-06-28T06:44:58.000Z</time>
</trkpt>
<trkpt lat="46.014035" lon="9.797221">
	<ele>1736.80</ele>
	<time>2022-06-28T06:45:02.000Z</time>
</trkpt>
<trkpt lat="46.014072" lon="9.797220">
	<ele>1737.20</ele>
	<time>2022-06-28T06:45:06.000Z</time>
</trkpt>
<trkpt lat="46.014117" lon="9.797185">
	<ele>1737.00</ele>
	<time>2022-06-28T06:45:12.000Z</time>
</trkpt>
<trkpt lat="46.014125" lon="9.797177">
	<ele>1737.00</ele>
	<time>2022-06-28T06:45:13.000Z</time>
</trkpt>
<trkpt lat="46.014129" lon="9.797163">
	<ele>1737.20</ele>
	<time>2022-06-28T06:45:14.000Z</time>
</trkpt>
<trkpt lat="46.014150" lon="9.797137">
	<ele>1737.40</ele>
	<time>2022-06-28T06:45:18.000Z</time>
</trkpt>
<trkpt lat="46.014167" lon="9.797127">
	<ele>1738.00</ele>
	<time>2022-06-28T06:45:21.000Z</time>
</trkpt>
<trkpt lat="46.014174" lon="9.797124">
	<ele>1738.20</ele>
	<time>2022-06-28T06:45:23.000Z</time>
</trkpt>
<trkpt lat="46.014220" lon="9.797145">
	<ele>1739.00</ele>
	<time>2022-06-28T06:45:28.000Z</time>
</trkpt>
<trkpt lat="46.014238" lon="9.797151">
	<ele>1739.40</ele>
	<time>2022-06-28T06:45:30.000Z</time>
</trkpt>
<trkpt lat="46.014251" lon="9.797164">
	<ele>1740.00</ele>
	<time>2022-06-28T06:45:33.000Z</time>
</trkpt>
<trkpt lat="46.014263" lon="9.797163">
	<ele>1740.40</ele>
	<time>2022-06-28T06:45:36.000Z</time>
</trkpt>
<trkpt lat="46.014269" lon="9.797163">
	<ele>1740.60</ele>
	<time>2022-06-28T06:45:37.000Z</time>
</trkpt>
<trkpt lat="46.014284" lon="9.797160">
	<ele>1741.00</ele>
	<time>2022-06-28T06:45:39.000Z</time>
</trkpt>
<trkpt lat="46.014301" lon="9.797192">
	<ele>1741.80</ele>
	<time>2022-06-28T06:45:44.000Z</time>
</trkpt>
<trkpt lat="46.014313" lon="9.797204">
	<ele>1742.20</ele>
	<time>2022-06-28T06:45:46.000Z</time>
</trkpt>
<trkpt lat="46.014340" lon="9.797201">
	<ele>1742.60</ele>
	<time>2022-06-28T06:45:49.000Z</time>
</trkpt>
<trkpt lat="46.014343" lon="9.797192">
	<ele>1742.80</ele>
	<time>2022-06-28T06:45:50.000Z</time>
</trkpt>
<trkpt lat="46.014348" lon="9.797186">
	<ele>1742.80</ele>
	<time>2022-06-28T06:45:51.000Z</time>
</trkpt>
<trkpt lat="46.014365" lon="9.797191">
	<ele>1743.20</ele>
	<time>2022-06-28T06:45:55.000Z</time>
</trkpt>
<trkpt lat="46.014369" lon="9.797198">
	<ele>1743.40</ele>
	<time>2022-06-28T06:45:57.000Z</time>
</trkpt>
<trkpt lat="46.014388" lon="9.797199">
	<ele>1744.20</ele>
	<time>2022-06-28T06:46:03.000Z</time>
</trkpt>
<trkpt lat="46.014388" lon="9.797194">
	<ele>1744.40</ele>
	<time>2022-06-28T06:46:04.000Z</time>
</trkpt>
<trkpt lat="46.014400" lon="9.797196">
	<ele>1744.80</ele>
	<time>2022-06-28T06:46:08.000Z</time>
</trkpt>
<trkpt lat="46.014405" lon="9.797181">
	<ele>1745.00</ele>
	<time>2022-06-28T06:46:10.000Z</time>
</trkpt>
<trkpt lat="46.014418" lon="9.797175">
	<ele>1745.40</ele>
	<time>2022-06-28T06:46:12.000Z</time>
</trkpt>
<trkpt lat="46.014424" lon="9.797164">
	<ele>1745.40</ele>
	<time>2022-06-28T06:46:13.000Z</time>
</trkpt>
<trkpt lat="46.014425" lon="9.797161">
	<ele>1746.00</ele>
	<time>2022-06-28T06:46:16.000Z</time>
</trkpt>
<trkpt lat="46.014444" lon="9.797170">
	<ele>1746.20</ele>
	<time>2022-06-28T06:46:19.000Z</time>
</trkpt>
<trkpt lat="46.014454" lon="9.797168">
	<ele>1746.40</ele>
	<time>2022-06-28T06:46:20.000Z</time>
</trkpt>
<trkpt lat="46.014462" lon="9.797159">
	<ele>1746.60</ele>
	<time>2022-06-28T06:46:21.000Z</time>
</trkpt>
<trkpt lat="46.014478" lon="9.797159">
	<ele>1746.80</ele>
	<time>2022-06-28T06:46:23.000Z</time>
</trkpt>
<trkpt lat="46.014515" lon="9.797186">
	<ele>1747.20</ele>
	<time>2022-06-28T06:46:28.000Z</time>
</trkpt>
<trkpt lat="46.014517" lon="9.797194">
	<ele>1747.20</ele>
	<time>2022-06-28T06:46:29.000Z</time>
</trkpt>
<trkpt lat="46.014526" lon="9.797213">
	<ele>1747.40</ele>
	<time>2022-06-28T06:46:31.000Z</time>
</trkpt>
<trkpt lat="46.014538" lon="9.797217">
	<ele>1747.40</ele>
	<time>2022-06-28T06:46:32.000Z</time>
</trkpt>
<trkpt lat="46.014564" lon="9.797217">
	<ele>1747.60</ele>
	<time>2022-06-28T06:46:34.000Z</time>
</trkpt>
<trkpt lat="46.014603" lon="9.797276">
	<ele>1748.40</ele>
	<time>2022-06-28T06:46:40.000Z</time>
</trkpt>
<trkpt lat="46.014658" lon="9.797287">
	<ele>1749.40</ele>
	<time>2022-06-28T06:46:46.000Z</time>
</trkpt>
<trkpt lat="46.014662" lon="9.797292">
	<ele>1749.60</ele>
	<time>2022-06-28T06:46:47.000Z</time>
</trkpt>
<trkpt lat="46.014696" lon="9.797312">
	<ele>1750.00</ele>
	<time>2022-06-28T06:46:51.000Z</time>
</trkpt>
<trkpt lat="46.014711" lon="9.797317">
	<ele>1750.20</ele>
	<time>2022-06-28T06:46:53.000Z</time>
</trkpt>
<trkpt lat="46.014721" lon="9.797317">
	<ele>1750.40</ele>
	<time>2022-06-28T06:46:55.000Z</time>
</trkpt>
<trkpt lat="46.014744" lon="9.797322">
	<ele>1750.60</ele>
	<time>2022-06-28T06:46:57.000Z</time>
</trkpt>
<trkpt lat="46.014754" lon="9.797341">
	<ele>1750.60</ele>
	<time>2022-06-28T06:46:58.000Z</time>
</trkpt>
<trkpt lat="46.014756" lon="9.797348">
	<ele>1750.60</ele>
	<time>2022-06-28T06:46:59.000Z</time>
</trkpt>
<trkpt lat="46.014789" lon="9.797335">
	<ele>1751.00</ele>
	<time>2022-06-28T06:47:03.000Z</time>
</trkpt>
<trkpt lat="46.014797" lon="9.797311">
	<ele>1751.20</ele>
	<time>2022-06-28T06:47:05.000Z</time>
</trkpt>
<trkpt lat="46.014810" lon="9.797318">
	<ele>1751.40</ele>
	<time>2022-06-28T06:47:08.000Z</time>
</trkpt>
<trkpt lat="46.014815" lon="9.797326">
	<ele>1751.60</ele>
	<time>2022-06-28T06:47:09.000Z</time>
</trkpt>
<trkpt lat="46.014825" lon="9.797350">
	<ele>1752.00</ele>
	<time>2022-06-28T06:47:12.000Z</time>
</trkpt>
<trkpt lat="46.014831" lon="9.797345">
	<ele>1752.60</ele>
	<time>2022-06-28T06:47:15.000Z</time>
</trkpt>
<trkpt lat="46.014829" lon="9.797348">
	<ele>1752.80</ele>
	<time>2022-06-28T06:47:16.000Z</time>
</trkpt>
<trkpt lat="46.014830" lon="9.797332">
	<ele>1753.00</ele>
	<time>2022-06-28T06:47:19.000Z</time>
</trkpt>
<trkpt lat="46.014833" lon="9.797340">
	<ele>1753.20</ele>
	<time>2022-06-28T06:47:20.000Z</time>
</trkpt>
<trkpt lat="46.014838" lon="9.797350">
	<ele>1753.60</ele>
	<time>2022-06-28T06:47:21.000Z</time>
</trkpt>
<trkpt lat="46.014841" lon="9.797356">
	<ele>1753.80</ele>
	<time>2022-06-28T06:47:22.000Z</time>
</trkpt>
<trkpt lat="46.014853" lon="9.797371">
	<ele>1754.00</ele>
	<time>2022-06-28T06:47:24.000Z</time>
</trkpt>
<trkpt lat="46.014859" lon="9.797364">
	<ele>1754.00</ele>
	<time>2022-06-28T06:47:25.000Z</time>
</trkpt>
<trkpt lat="46.014950" lon="9.797347">
	<ele>1754.80</ele>
	<time>2022-06-28T06:47:33.000Z</time>
</trkpt>
<trkpt lat="46.014973" lon="9.797349">
	<ele>1755.20</ele>
	<time>2022-06-28T06:47:36.000Z</time>
</trkpt>
<trkpt lat="46.014986" lon="9.797361">
	<ele>1755.20</ele>
	<time>2022-06-28T06:47:38.000Z</time>
</trkpt>
<trkpt lat="46.014991" lon="9.797369">
	<ele>1755.20</ele>
	<time>2022-06-28T06:47:39.000Z</time>
</trkpt>
<trkpt lat="46.015007" lon="9.797392">
	<ele>1755.00</ele>
	<time>2022-06-28T06:47:43.000Z</time>
</trkpt>
<trkpt lat="46.015016" lon="9.797397">
	<ele>1755.00</ele>
	<time>2022-06-28T06:47:44.000Z</time>
</trkpt>
<trkpt lat="46.015023" lon="9.797406">
	<ele>1755.00</ele>
	<time>2022-06-28T06:47:45.000Z</time>
</trkpt>
<trkpt lat="46.015062" lon="9.797465">
	<ele>1754.40</ele>
	<time>2022-06-28T06:47:51.000Z</time>
</trkpt>
<trkpt lat="46.015081" lon="9.797501">
	<ele>1754.40</ele>
	<time>2022-06-28T06:47:54.000Z</time>
</trkpt>
<trkpt lat="46.015098" lon="9.797515">
	<ele>1754.20</ele>
	<time>2022-06-28T06:47:57.000Z</time>
</trkpt>
<trkpt lat="46.015108" lon="9.797522">
	<ele>1754.00</ele>
	<time>2022-06-28T06:47:59.000Z</time>
</trkpt>
<trkpt lat="46.015124" lon="9.797531">
	<ele>1754.00</ele>
	<time>2022-06-28T06:48:01.000Z</time>
</trkpt>
<trkpt lat="46.015137" lon="9.797544">
	<ele>1754.00</ele>
	<time>2022-06-28T06:48:02.000Z</time>
</trkpt>
<trkpt lat="46.015147" lon="9.797564">
	<ele>1753.80</ele>
	<time>2022-06-28T06:48:04.000Z</time>
</trkpt>
<trkpt lat="46.015160" lon="9.797567">
	<ele>1753.80</ele>
	<time>2022-06-28T06:48:06.000Z</time>
</trkpt>
<trkpt lat="46.015187" lon="9.797558">
	<ele>1754.00</ele>
	<time>2022-06-28T06:48:08.000Z</time>
</trkpt>
<trkpt lat="46.015196" lon="9.797552">
	<ele>1754.00</ele>
	<time>2022-06-28T06:48:10.000Z</time>
</trkpt>
<trkpt lat="46.015237" lon="9.797539">
	<ele>1754.00</ele>
	<time>2022-06-28T06:48:14.000Z</time>
</trkpt>
<trkpt lat="46.015260" lon="9.797518">
	<ele>1754.00</ele>
	<time>2022-06-28T06:48:16.000Z</time>
</trkpt>
<trkpt lat="46.015290" lon="9.797491">
	<ele>1754.20</ele>
	<time>2022-06-28T06:48:19.000Z</time>
</trkpt>
<trkpt lat="46.015298" lon="9.797464">
	<ele>1754.40</ele>
	<time>2022-06-28T06:48:21.000Z</time>
</trkpt>
<trkpt lat="46.015323" lon="9.797438">
	<ele>1755.60</ele>
	<time>2022-06-28T06:48:28.000Z</time>
</trkpt>
<trkpt lat="46.015328" lon="9.797448">
	<ele>1755.60</ele>
	<time>2022-06-28T06:48:29.000Z</time>
</trkpt>
<trkpt lat="46.015338" lon="9.797452">
	<ele>1755.80</ele>
	<time>2022-06-28T06:48:31.000Z</time>
</trkpt>
<trkpt lat="46.015361" lon="9.797457">
	<ele>1756.40</ele>
	<time>2022-06-28T06:48:34.000Z</time>
</trkpt>
<trkpt lat="46.015366" lon="9.797454">
	<ele>1756.60</ele>
	<time>2022-06-28T06:48:35.000Z</time>
</trkpt>
<trkpt lat="46.015373" lon="9.797457">
	<ele>1757.00</ele>
	<time>2022-06-28T06:48:37.000Z</time>
</trkpt>
<trkpt lat="46.015393" lon="9.797488">
	<ele>1757.60</ele>
	<time>2022-06-28T06:48:42.000Z</time>
</trkpt>
<trkpt lat="46.015398" lon="9.797504">
	<ele>1758.00</ele>
	<time>2022-06-28T06:48:45.000Z</time>
</trkpt>
<trkpt lat="46.015396" lon="9.797519">
	<ele>1758.80</ele>
	<time>2022-06-28T06:48:50.000Z</time>
</trkpt>
<trkpt lat="46.015399" lon="9.797529">
	<ele>1759.20</ele>
	<time>2022-06-28T06:48:52.000Z</time>
</trkpt>
<trkpt lat="46.015380" lon="9.797591">
	<ele>1759.60</ele>
	<time>2022-06-28T06:48:58.000Z</time>
</trkpt>
<trkpt lat="46.015350" lon="9.797632">
	<ele>1760.20</ele>
	<time>2022-06-28T06:49:03.000Z</time>
</trkpt>
<trkpt lat="46.015341" lon="9.797659">
	<ele>1760.40</ele>
	<time>2022-06-28T06:49:06.000Z</time>
</trkpt>
<trkpt lat="46.015320" lon="9.797715">
	<ele>1760.80</ele>
	<time>2022-06-28T06:49:12.000Z</time>
</trkpt>
<trkpt lat="46.015317" lon="9.797722">
	<ele>1760.80</ele>
	<time>2022-06-28T06:49:13.000Z</time>
</trkpt>
<trkpt lat="46.015304" lon="9.797755">
	<ele>1761.20</ele>
	<time>2022-06-28T06:49:16.000Z</time>
</trkpt>
<trkpt lat="46.015289" lon="9.797760">
	<ele>1761.40</ele>
	<time>2022-06-28T06:49:18.000Z</time>
</trkpt>
<trkpt lat="46.015281" lon="9.797766">
	<ele>1761.60</ele>
	<time>2022-06-28T06:49:20.000Z</time>
</trkpt>
<trkpt lat="46.015276" lon="9.797792">
	<ele>1762.40</ele>
	<time>2022-06-28T06:49:23.000Z</time>
</trkpt>
<trkpt lat="46.015283" lon="9.797843">
	<ele>1763.20</ele>
	<time>2022-06-28T06:49:30.000Z</time>
</trkpt>
<trkpt lat="46.015282" lon="9.797861">
	<ele>1763.20</ele>
	<time>2022-06-28T06:49:36.000Z</time>
</trkpt>
<trkpt lat="46.015282" lon="9.797863">
	<ele>1763.40</ele>
	<time>2022-06-28T06:49:48.000Z</time>
</trkpt>
<trkpt lat="46.015282" lon="9.797863">
	<ele>1763.40</ele>
	<time>2022-06-28T06:49:50.000Z</time>
</trkpt>
<trkpt lat="46.015290" lon="9.797865">
	<ele>1763.40</ele>
	<time>2022-06-28T06:49:57.000Z</time>
</trkpt>
<trkpt lat="46.015298" lon="9.797880">
	<ele>1763.40</ele>
	<time>2022-06-28T06:50:00.000Z</time>
</trkpt>
<trkpt lat="46.015306" lon="9.797898">
	<ele>1764.40</ele>
	<time>2022-06-28T06:50:05.000Z</time>
</trkpt>
<trkpt lat="46.015306" lon="9.797904">
	<ele>1764.40</ele>
	<time>2022-06-28T06:50:06.000Z</time>
</trkpt>
<trkpt lat="46.015307" lon="9.797916">
	<ele>1765.20</ele>
	<time>2022-06-28T06:50:10.000Z</time>
</trkpt>
<trkpt lat="46.015307" lon="9.797923">
	<ele>1765.60</ele>
	<time>2022-06-28T06:50:13.000Z</time>
</trkpt>
<trkpt lat="46.015284" lon="9.798012">
	<ele>1766.20</ele>
	<time>2022-06-28T06:50:19.000Z</time>
</trkpt>
<trkpt lat="46.015214" lon="9.798123">
	<ele>1766.60</ele>
	<time>2022-06-28T06:50:25.000Z</time>
</trkpt>
<trkpt lat="46.015198" lon="9.798132">
	<ele>1766.80</ele>
	<time>2022-06-28T06:50:26.000Z</time>
</trkpt>
<trkpt lat="46.015169" lon="9.798179">
	<ele>1767.20</ele>
	<time>2022-06-28T06:50:30.000Z</time>
</trkpt>
<trkpt lat="46.015172" lon="9.798199">
	<ele>1767.80</ele>
	<time>2022-06-28T06:50:33.000Z</time>
</trkpt>
<trkpt lat="46.015157" lon="9.798204">
	<ele>1768.40</ele>
	<time>2022-06-28T06:50:35.000Z</time>
</trkpt>
<trkpt lat="46.015157" lon="9.798246">
	<ele>1769.00</ele>
	<time>2022-06-28T06:50:39.000Z</time>
</trkpt>
<trkpt lat="46.015149" lon="9.798272">
	<ele>1769.00</ele>
	<time>2022-06-28T06:50:41.000Z</time>
</trkpt>
<trkpt lat="46.015138" lon="9.798311">
	<ele>1769.20</ele>
	<time>2022-06-28T06:50:44.000Z</time>
</trkpt>
<trkpt lat="46.015134" lon="9.798458">
	<ele>1769.20</ele>
	<time>2022-06-28T06:50:53.000Z</time>
</trkpt>
<trkpt lat="46.015130" lon="9.798509">
	<ele>1769.20</ele>
	<time>2022-06-28T06:50:56.000Z</time>
</trkpt>
<trkpt lat="46.015126" lon="9.798534">
	<ele>1769.40</ele>
	<time>2022-06-28T06:50:58.000Z</time>
</trkpt>
<trkpt lat="46.015099" lon="9.798575">
	<ele>1769.60</ele>
	<time>2022-06-28T06:51:02.000Z</time>
</trkpt>
<trkpt lat="46.015091" lon="9.798635">
	<ele>1770.00</ele>
	<time>2022-06-28T06:51:06.000Z</time>
</trkpt>
<trkpt lat="46.015079" lon="9.798698">
	<ele>1770.20</ele>
	<time>2022-06-28T06:51:10.000Z</time>
</trkpt>
<trkpt lat="46.015091" lon="9.798794">
	<ele>1770.40</ele>
	<time>2022-06-28T06:51:16.000Z</time>
</trkpt>
<trkpt lat="46.015077" lon="9.798817">
	<ele>1770.40</ele>
	<time>2022-06-28T06:51:18.000Z</time>
</trkpt>
<trkpt lat="46.015028" lon="9.798921">
	<ele>1769.40</ele>
	<time>2022-06-28T06:51:26.000Z</time>
</trkpt>
<trkpt lat="46.015030" lon="9.798936">
	<ele>1769.20</ele>
	<time>2022-06-28T06:51:27.000Z</time>
</trkpt>
<trkpt lat="46.015025" lon="9.798955">
	<ele>1769.00</ele>
	<time>2022-06-28T06:51:29.000Z</time>
</trkpt>
<trkpt lat="46.015011" lon="9.798985">
	<ele>1768.40</ele>
	<time>2022-06-28T06:51:33.000Z</time>
</trkpt>
<trkpt lat="46.014995" lon="9.799007">
	<ele>1767.80</ele>
	<time>2022-06-28T06:51:37.000Z</time>
</trkpt>
<trkpt lat="46.014991" lon="9.799014">
	<ele>1767.80</ele>
	<time>2022-06-28T06:51:38.000Z</time>
</trkpt>
<trkpt lat="46.014982" lon="9.799022">
	<ele>1767.40</ele>
	<time>2022-06-28T06:51:39.000Z</time>
</trkpt>
<trkpt lat="46.014964" lon="9.799030">
	<ele>1766.80</ele>
	<time>2022-06-28T06:51:41.000Z</time>
</trkpt>
<trkpt lat="46.014956" lon="9.799037">
	<ele>1766.20</ele>
	<time>2022-06-28T06:51:43.000Z</time>
</trkpt>
<trkpt lat="46.014953" lon="9.799054">
	<ele>1765.80</ele>
	<time>2022-06-28T06:51:45.000Z</time>
</trkpt>
<trkpt lat="46.014956" lon="9.799068">
	<ele>1765.60</ele>
	<time>2022-06-28T06:51:46.000Z</time>
</trkpt>
<trkpt lat="46.014959" lon="9.799095">
	<ele>1765.00</ele>
	<time>2022-06-28T06:51:48.000Z</time>
</trkpt>
<trkpt lat="46.014947" lon="9.799130">
	<ele>1764.40</ele>
	<time>2022-06-28T06:51:52.000Z</time>
</trkpt>
<trkpt lat="46.014938" lon="9.799152">
	<ele>1764.00</ele>
	<time>2022-06-28T06:51:54.000Z</time>
</trkpt>
<trkpt lat="46.014921" lon="9.799189">
	<ele>1763.60</ele>
	<time>2022-06-28T06:51:57.000Z</time>
</trkpt>
<trkpt lat="46.014915" lon="9.799210">
	<ele>1763.20</ele>
	<time>2022-06-28T06:51:59.000Z</time>
</trkpt>
<trkpt lat="46.014912" lon="9.799218">
	<ele>1763.00</ele>
	<time>2022-06-28T06:52:00.000Z</time>
</trkpt>
<trkpt lat="46.014906" lon="9.799224">
	<ele>1763.00</ele>
	<time>2022-06-28T06:52:01.000Z</time>
</trkpt>
<trkpt lat="46.014899" lon="9.799260">
	<ele>1762.60</ele>
	<time>2022-06-28T06:52:04.000Z</time>
</trkpt>
<trkpt lat="46.014903" lon="9.799291">
	<ele>1762.20</ele>
	<time>2022-06-28T06:52:06.000Z</time>
</trkpt>
<trkpt lat="46.014890" lon="9.799315">
	<ele>1761.80</ele>
	<time>2022-06-28T06:52:08.000Z</time>
</trkpt>
<trkpt lat="46.014887" lon="9.799362">
	<ele>1761.00</ele>
	<time>2022-06-28T06:52:11.000Z</time>
</trkpt>
<trkpt lat="46.014863" lon="9.799403">
	<ele>1760.40</ele>
	<time>2022-06-28T06:52:14.000Z</time>
</trkpt>
<trkpt lat="46.014851" lon="9.799459">
	<ele>1760.00</ele>
	<time>2022-06-28T06:52:18.000Z</time>
</trkpt>
<trkpt lat="46.014834" lon="9.799551">
	<ele>1759.40</ele>
	<time>2022-06-28T06:52:25.000Z</time>
</trkpt>
<trkpt lat="46.014800" lon="9.799605">
	<ele>1758.80</ele>
	<time>2022-06-28T06:52:29.000Z</time>
</trkpt>
<trkpt lat="46.014776" lon="9.799647">
	<ele>1758.40</ele>
	<time>2022-06-28T06:52:32.000Z</time>
</trkpt>
<trkpt lat="46.014769" lon="9.799672">
	<ele>1758.40</ele>
	<time>2022-06-28T06:52:34.000Z</time>
</trkpt>
<trkpt lat="46.014766" lon="9.799733">
	<ele>1757.80</ele>
	<time>2022-06-28T06:52:38.000Z</time>
</trkpt>
<trkpt lat="46.014761" lon="9.799747">
	<ele>1757.60</ele>
	<time>2022-06-28T06:52:39.000Z</time>
</trkpt>
<trkpt lat="46.014756" lon="9.799818">
	<ele>1756.60</ele>
	<time>2022-06-28T06:52:44.000Z</time>
</trkpt>
<trkpt lat="46.014757" lon="9.799835">
	<ele>1756.40</ele>
	<time>2022-06-28T06:52:45.000Z</time>
</trkpt>
<trkpt lat="46.014755" lon="9.799941">
	<ele>1755.60</ele>
	<time>2022-06-28T06:52:52.000Z</time>
</trkpt>
<trkpt lat="46.014752" lon="9.799971">
	<ele>1755.40</ele>
	<time>2022-06-28T06:52:54.000Z</time>
</trkpt>
<trkpt lat="46.014724" lon="9.800049">
	<ele>1754.20</ele>
	<time>2022-06-28T06:53:01.000Z</time>
</trkpt>
<trkpt lat="46.014712" lon="9.800095">
	<ele>1753.60</ele>
	<time>2022-06-28T06:53:06.000Z</time>
</trkpt>
<trkpt lat="46.014706" lon="9.800101">
	<ele>1753.40</ele>
	<time>2022-06-28T06:53:07.000Z</time>
</trkpt>
<trkpt lat="46.014707" lon="9.800120">
	<ele>1753.00</ele>
	<time>2022-06-28T06:53:09.000Z</time>
</trkpt>
<trkpt lat="46.014707" lon="9.800130">
	<ele>1752.80</ele>
	<time>2022-06-28T06:53:10.000Z</time>
</trkpt>
<trkpt lat="46.014703" lon="9.800161">
	<ele>1752.60</ele>
	<time>2022-06-28T06:53:12.000Z</time>
</trkpt>
<trkpt lat="46.014702" lon="9.800194">
	<ele>1752.00</ele>
	<time>2022-06-28T06:53:14.000Z</time>
</trkpt>
<trkpt lat="46.014695" lon="9.800237">
	<ele>1751.40</ele>
	<time>2022-06-28T06:53:18.000Z</time>
</trkpt>
<trkpt lat="46.014693" lon="9.800242">
	<ele>1751.00</ele>
	<time>2022-06-28T06:53:19.000Z</time>
</trkpt>
<trkpt lat="46.014692" lon="9.800291">
	<ele>1750.20</ele>
	<time>2022-06-28T06:53:24.000Z</time>
</trkpt>
<trkpt lat="46.014688" lon="9.800296">
	<ele>1750.00</ele>
	<time>2022-06-28T06:53:25.000Z</time>
</trkpt>
<trkpt lat="46.014686" lon="9.800306">
	<ele>1749.80</ele>
	<time>2022-06-28T06:53:26.000Z</time>
</trkpt>
<trkpt lat="46.014704" lon="9.800367">
	<ele>1748.80</ele>
	<time>2022-06-28T06:53:31.000Z</time>
</trkpt>
<trkpt lat="46.014701" lon="9.800390">
	<ele>1748.40</ele>
	<time>2022-06-28T06:53:33.000Z</time>
</trkpt>
<trkpt lat="46.014694" lon="9.800437">
	<ele>1747.60</ele>
	<time>2022-06-28T06:53:37.000Z</time>
</trkpt>
<trkpt lat="46.014692" lon="9.800456">
	<ele>1747.20</ele>
	<time>2022-06-28T06:53:40.000Z</time>
</trkpt>
<trkpt lat="46.014692" lon="9.800470">
	<ele>1747.00</ele>
	<time>2022-06-28T06:53:41.000Z</time>
</trkpt>
<trkpt lat="46.014691" lon="9.800480">
	<ele>1747.00</ele>
	<time>2022-06-28T06:53:42.000Z</time>
</trkpt>
<trkpt lat="46.014694" lon="9.800500">
	<ele>1746.20</ele>
	<time>2022-06-28T06:53:44.000Z</time>
</trkpt>
<trkpt lat="46.014686" lon="9.800550">
	<ele>1745.20</ele>
	<time>2022-06-28T06:53:48.000Z</time>
</trkpt>
<trkpt lat="46.014685" lon="9.800559">
	<ele>1745.00</ele>
	<time>2022-06-28T06:53:49.000Z</time>
</trkpt>
<trkpt lat="46.014678" lon="9.800592">
	<ele>1744.40</ele>
	<time>2022-06-28T06:53:51.000Z</time>
</trkpt>
<trkpt lat="46.014672" lon="9.800617">
	<ele>1744.00</ele>
	<time>2022-06-28T06:53:53.000Z</time>
</trkpt>
<trkpt lat="46.014669" lon="9.800655">
	<ele>1743.20</ele>
	<time>2022-06-28T06:53:56.000Z</time>
</trkpt>
<trkpt lat="46.014665" lon="9.800668">
	<ele>1743.00</ele>
	<time>2022-06-28T06:53:57.000Z</time>
</trkpt>
<trkpt lat="46.014662" lon="9.800684">
	<ele>1742.60</ele>
	<time>2022-06-28T06:54:00.000Z</time>
</trkpt>
<trkpt lat="46.014664" lon="9.800683">
	<ele>1742.60</ele>
	<time>2022-06-28T06:54:01.000Z</time>
</trkpt>
<trkpt lat="46.014665" lon="9.800684">
	<ele>1742.60</ele>
	<time>2022-06-28T06:54:02.000Z</time>
</trkpt>
<trkpt lat="46.014657" lon="9.800695">
	<ele>1742.40</ele>
	<time>2022-06-28T06:54:07.000Z</time>
</trkpt>
<trkpt lat="46.014637" lon="9.800780">
	<ele>1742.40</ele>
	<time>2022-06-28T06:54:14.000Z</time>
</trkpt>
<trkpt lat="46.014636" lon="9.800835">
	<ele>1742.00</ele>
	<time>2022-06-28T06:54:17.000Z</time>
</trkpt>
<trkpt lat="46.014628" lon="9.800869">
	<ele>1742.00</ele>
	<time>2022-06-28T06:54:19.000Z</time>
</trkpt>
<trkpt lat="46.014635" lon="9.800892">
	<ele>1742.00</ele>
	<time>2022-06-28T06:54:21.000Z</time>
</trkpt>
<trkpt lat="46.014632" lon="9.800923">
	<ele>1741.60</ele>
	<time>2022-06-28T06:54:24.000Z</time>
</trkpt>
<trkpt lat="46.014634" lon="9.800950">
	<ele>1740.80</ele>
	<time>2022-06-28T06:54:27.000Z</time>
</trkpt>
<trkpt lat="46.014634" lon="9.800961">
	<ele>1740.00</ele>
	<time>2022-06-28T06:54:30.000Z</time>
</trkpt>
<trkpt lat="46.014628" lon="9.800962">
	<ele>1739.60</ele>
	<time>2022-06-28T06:54:31.000Z</time>
</trkpt>
<trkpt lat="46.014649" lon="9.800981">
	<ele>1739.00</ele>
	<time>2022-06-28T06:54:34.000Z</time>
</trkpt>
<trkpt lat="46.014665" lon="9.801001">
	<ele>1738.40</ele>
	<time>2022-06-28T06:54:36.000Z</time>
</trkpt>
<trkpt lat="46.014695" lon="9.801009">
	<ele>1737.20</ele>
	<time>2022-06-28T06:54:40.000Z</time>
</trkpt>
<trkpt lat="46.014698" lon="9.801021">
	<ele>1736.40</ele>
	<time>2022-06-28T06:54:42.000Z</time>
</trkpt>
<trkpt lat="46.014693" lon="9.801029">
	<ele>1736.00</ele>
	<time>2022-06-28T06:54:43.000Z</time>
</trkpt>
<trkpt lat="46.014702" lon="9.801062">
	<ele>1735.00</ele>
	<time>2022-06-28T06:54:48.000Z</time>
</trkpt>
<trkpt lat="46.014723" lon="9.801095">
	<ele>1734.00</ele>
	<time>2022-06-28T06:54:52.000Z</time>
</trkpt>
<trkpt lat="46.014748" lon="9.801122">
	<ele>1733.00</ele>
	<time>2022-06-28T06:54:56.000Z</time>
</trkpt>
<trkpt lat="46.014761" lon="9.801141">
	<ele>1732.80</ele>
	<time>2022-06-28T06:54:58.000Z</time>
</trkpt>
<trkpt lat="46.014767" lon="9.801175">
	<ele>1731.80</ele>
	<time>2022-06-28T06:55:01.000Z</time>
</trkpt>
<trkpt lat="46.014774" lon="9.801219">
	<ele>1730.80</ele>
	<time>2022-06-28T06:55:05.000Z</time>
</trkpt>
<trkpt lat="46.014777" lon="9.801225">
	<ele>1730.60</ele>
	<time>2022-06-28T06:55:06.000Z</time>
</trkpt>
<trkpt lat="46.014792" lon="9.801251">
	<ele>1729.60</ele>
	<time>2022-06-28T06:55:10.000Z</time>
</trkpt>
<trkpt lat="46.014804" lon="9.801295">
	<ele>1728.60</ele>
	<time>2022-06-28T06:55:14.000Z</time>
</trkpt>
<trkpt lat="46.014832" lon="9.801342">
	<ele>1727.40</ele>
	<time>2022-06-28T06:55:18.000Z</time>
</trkpt>
<trkpt lat="46.014842" lon="9.801381">
	<ele>1726.80</ele>
	<time>2022-06-28T06:55:21.000Z</time>
</trkpt>
<trkpt lat="46.014866" lon="9.801413">
	<ele>1726.40</ele>
	<time>2022-06-28T06:55:23.000Z</time>
</trkpt>
<trkpt lat="46.014894" lon="9.801462">
	<ele>1725.60</ele>
	<time>2022-06-28T06:55:27.000Z</time>
</trkpt>
<trkpt lat="46.014914" lon="9.801494">
	<ele>1725.20</ele>
	<time>2022-06-28T06:55:29.000Z</time>
</trkpt>
<trkpt lat="46.014938" lon="9.801570">
	<ele>1724.80</ele>
	<time>2022-06-28T06:55:35.000Z</time>
</trkpt>
<trkpt lat="46.014946" lon="9.801595">
	<ele>1724.80</ele>
	<time>2022-06-28T06:55:37.000Z</time>
</trkpt>
<trkpt lat="46.014948" lon="9.801656">
	<ele>1724.80</ele>
	<time>2022-06-28T06:55:41.000Z</time>
</trkpt>
<trkpt lat="46.014969" lon="9.801710">
	<ele>1724.80</ele>
	<time>2022-06-28T06:55:44.000Z</time>
</trkpt>
<trkpt lat="46.014987" lon="9.801825">
	<ele>1724.80</ele>
	<time>2022-06-28T06:55:51.000Z</time>
</trkpt>
<trkpt lat="46.014991" lon="9.801851">
	<ele>1724.80</ele>
	<time>2022-06-28T06:55:53.000Z</time>
</trkpt>
<trkpt lat="46.015007" lon="9.801863">
	<ele>1724.80</ele>
	<time>2022-06-28T06:55:55.000Z</time>
</trkpt>
<trkpt lat="46.015023" lon="9.801931">
	<ele>1724.60</ele>
	<time>2022-06-28T06:55:59.000Z</time>
</trkpt>
<trkpt lat="46.015048" lon="9.802018">
	<ele>1724.60</ele>
	<time>2022-06-28T06:56:03.000Z</time>
</trkpt>
<trkpt lat="46.015043" lon="9.802084">
	<ele>1724.40</ele>
	<time>2022-06-28T06:56:06.000Z</time>
</trkpt>
<trkpt lat="46.015015" lon="9.802170">
	<ele>1724.40</ele>
	<time>2022-06-28T06:56:12.000Z</time>
</trkpt>
<trkpt lat="46.014984" lon="9.802260">
	<ele>1724.20</ele>
	<time>2022-06-28T06:56:17.000Z</time>
</trkpt>
<trkpt lat="46.014964" lon="9.802321">
	<ele>1724.00</ele>
	<time>2022-06-28T06:56:21.000Z</time>
</trkpt>
<trkpt lat="46.014953" lon="9.802427">
	<ele>1724.00</ele>
	<time>2022-06-28T06:56:28.000Z</time>
</trkpt>
<trkpt lat="46.014955" lon="9.802439">
	<ele>1723.80</ele>
	<time>2022-06-28T06:56:29.000Z</time>
</trkpt>
<trkpt lat="46.014945" lon="9.802483">
	<ele>1723.80</ele>
	<time>2022-06-28T06:56:32.000Z</time>
</trkpt>
<trkpt lat="46.014941" lon="9.802552">
	<ele>1723.80</ele>
	<time>2022-06-28T06:56:36.000Z</time>
</trkpt>
<trkpt lat="46.014978" lon="9.802651">
	<ele>1723.60</ele>
	<time>2022-06-28T06:56:42.000Z</time>
</trkpt>
<trkpt lat="46.014989" lon="9.802672">
	<ele>1723.60</ele>
	<time>2022-06-28T06:56:44.000Z</time>
</trkpt>
<trkpt lat="46.014987" lon="9.802674">
	<ele>1723.60</ele>
	<time>2022-06-28T06:56:46.000Z</time>
</trkpt>
<trkpt lat="46.014987" lon="9.802664">
	<ele>1724.00</ele>
	<time>2022-06-28T06:56:49.000Z</time>
</trkpt>
<trkpt lat="46.014988" lon="9.802659">
	<ele>1724.20</ele>
	<time>2022-06-28T06:56:51.000Z</time>
</trkpt>
<trkpt lat="46.015042" lon="9.802717">
	<ele>1723.60</ele>
	<time>2022-06-28T06:56:57.000Z</time>
</trkpt>
<trkpt lat="46.015050" lon="9.802729">
	<ele>1723.60</ele>
	<time>2022-06-28T06:56:58.000Z</time>
</trkpt>
<trkpt lat="46.015064" lon="9.802790">
	<ele>1723.60</ele>
	<time>2022-06-28T06:57:02.000Z</time>
</trkpt>
<trkpt lat="46.015071" lon="9.802848">
	<ele>1723.60</ele>
	<time>2022-06-28T06:57:05.000Z</time>
</trkpt>
<trkpt lat="46.015076" lon="9.802872">
	<ele>1723.60</ele>
	<time>2022-06-28T06:57:07.000Z</time>
</trkpt>
<trkpt lat="46.015082" lon="9.802902">
	<ele>1723.60</ele>
	<time>2022-06-28T06:57:09.000Z</time>
</trkpt>
<trkpt lat="46.015139" lon="9.803029">
	<ele>1724.20</ele>
	<time>2022-06-28T06:57:17.000Z</time>
</trkpt>
<trkpt lat="46.015173" lon="9.803124">
	<ele>1723.80</ele>
	<time>2022-06-28T06:57:23.000Z</time>
</trkpt>
<trkpt lat="46.015166" lon="9.803162">
	<ele>1723.60</ele>
	<time>2022-06-28T06:57:25.000Z</time>
</trkpt>
<trkpt lat="46.015131" lon="9.803292">
	<ele>1723.60</ele>
	<time>2022-06-28T06:57:33.000Z</time>
</trkpt>
<trkpt lat="46.015139" lon="9.803424">
	<ele>1723.40</ele>
	<time>2022-06-28T06:57:41.000Z</time>
</trkpt>
<trkpt lat="46.015139" lon="9.803438">
	<ele>1723.40</ele>
	<time>2022-06-28T06:57:42.000Z</time>
</trkpt>
<trkpt lat="46.015160" lon="9.803553">
	<ele>1723.80</ele>
	<time>2022-06-28T06:57:51.000Z</time>
</trkpt>
<trkpt lat="46.015179" lon="9.803581">
	<ele>1724.20</ele>
	<time>2022-06-28T06:58:00.000Z</time>
</trkpt>
<trkpt lat="46.015175" lon="9.803600">
	<ele>1723.80</ele>
	<time>2022-06-28T06:58:08.000Z</time>
</trkpt>
<trkpt lat="46.015196" lon="9.803726">
	<ele>1723.60</ele>
	<time>2022-06-28T06:58:16.000Z</time>
</trkpt>
<trkpt lat="46.015198" lon="9.803787">
	<ele>1723.60</ele>
	<time>2022-06-28T06:58:19.000Z</time>
</trkpt>
<trkpt lat="46.015230" lon="9.803915">
	<ele>1723.40</ele>
	<time>2022-06-28T06:58:27.000Z</time>
</trkpt>
<trkpt lat="46.015318" lon="9.804067">
	<ele>1723.80</ele>
	<time>2022-06-28T06:58:38.000Z</time>
</trkpt>
<trkpt lat="46.015409" lon="9.804189">
	<ele>1724.00</ele>
	<time>2022-06-28T06:58:48.000Z</time>
</trkpt>
<trkpt lat="46.015495" lon="9.804267">
	<ele>1724.00</ele>
	<time>2022-06-28T06:58:57.000Z</time>
</trkpt>
<trkpt lat="46.015594" lon="9.804333">
	<ele>1723.60</ele>
	<time>2022-06-28T06:59:07.000Z</time>
</trkpt>
<trkpt lat="46.015660" lon="9.804362">
	<ele>1723.60</ele>
	<time>2022-06-28T06:59:13.000Z</time>
</trkpt>
<trkpt lat="46.015682" lon="9.804376">
	<ele>1723.60</ele>
	<time>2022-06-28T06:59:15.000Z</time>
</trkpt>
<trkpt lat="46.015779" lon="9.804413">
	<ele>1724.00</ele>
	<time>2022-06-28T06:59:22.000Z</time>
</trkpt>
<trkpt lat="46.015836" lon="9.804428">
	<ele>1723.80</ele>
	<time>2022-06-28T06:59:26.000Z</time>
</trkpt>
<trkpt lat="46.015991" lon="9.804448">
	<ele>1723.60</ele>
	<time>2022-06-28T06:59:38.000Z</time>
</trkpt>
<trkpt lat="46.016036" lon="9.804554">
	<ele>1723.60</ele>
	<time>2022-06-28T06:59:45.000Z</time>
</trkpt>
<trkpt lat="46.016044" lon="9.804658">
	<ele>1724.00</ele>
	<time>2022-06-28T06:59:52.000Z</time>
</trkpt>
<trkpt lat="46.016049" lon="9.804682">
	<ele>1724.60</ele>
	<time>2022-06-28T06:59:57.000Z</time>
</trkpt>
<trkpt lat="46.016054" lon="9.804666">
	<ele>1724.60</ele>
	<time>2022-06-28T06:59:59.000Z</time>
</trkpt>
<trkpt lat="46.016027" lon="9.804649">
	<ele>1724.80</ele>
	<time>2022-06-28T07:00:04.000Z</time>
</trkpt>
<trkpt lat="46.016026" lon="9.804675">
	<ele>1724.80</ele>
	<time>2022-06-28T07:00:06.000Z</time>
</trkpt>
<trkpt lat="46.016044" lon="9.804755">
	<ele>1724.80</ele>
	<time>2022-06-28T07:00:13.000Z</time>
</trkpt>
<trkpt lat="46.016059" lon="9.804808">
	<ele>1725.20</ele>
	<time>2022-06-28T07:00:16.000Z</time>
</trkpt>
<trkpt lat="46.016111" lon="9.804846">
	<ele>1726.00</ele>
	<time>2022-06-28T07:00:21.000Z</time>
</trkpt>
<trkpt lat="46.016130" lon="9.804806">
	<ele>1726.40</ele>
	<time>2022-06-28T07:00:24.000Z</time>
</trkpt>
<trkpt lat="46.016138" lon="9.804775">
	<ele>1726.60</ele>
	<time>2022-06-28T07:00:26.000Z</time>
</trkpt>
<trkpt lat="46.016177" lon="9.804655">
	<ele>1727.40</ele>
	<time>2022-06-28T07:00:35.000Z</time>
</trkpt>
<trkpt lat="46.016188" lon="9.804613">
	<ele>1728.00</ele>
	<time>2022-06-28T07:00:41.000Z</time>
</trkpt>
<trkpt lat="46.016191" lon="9.804616">
	<ele>1728.20</ele>
	<time>2022-06-28T07:00:43.000Z</time>
</trkpt>
<trkpt lat="46.016198" lon="9.804621">
	<ele>1728.40</ele>
	<time>2022-06-28T07:00:44.000Z</time>
</trkpt>
<trkpt lat="46.016218" lon="9.804656">
	<ele>1728.60</ele>
	<time>2022-06-28T07:00:47.000Z</time>
</trkpt>
<trkpt lat="46.016224" lon="9.804691">
	<ele>1728.60</ele>
	<time>2022-06-28T07:00:49.000Z</time>
</trkpt>
<trkpt lat="46.016258" lon="9.804769">
	<ele>1729.00</ele>
	<time>2022-06-28T07:00:57.000Z</time>
</trkpt>
<trkpt lat="46.016264" lon="9.804770">
	<ele>1729.20</ele>
	<time>2022-06-28T07:00:59.000Z</time>
</trkpt>
<trkpt lat="46.016269" lon="9.804772">
	<ele>1729.40</ele>
	<time>2022-06-28T07:01:00.000Z</time>
</trkpt>
<trkpt lat="46.016278" lon="9.804772">
	<ele>1729.60</ele>
	<time>2022-06-28T07:01:02.000Z</time>
</trkpt>
<trkpt lat="46.016283" lon="9.804781">
	<ele>1730.20</ele>
	<time>2022-06-28T07:01:04.000Z</time>
</trkpt>
<trkpt lat="46.016295" lon="9.804791">
	<ele>1730.40</ele>
	<time>2022-06-28T07:01:06.000Z</time>
</trkpt>
<trkpt lat="46.016305" lon="9.804777">
	<ele>1730.80</ele>
	<time>2022-06-28T07:01:08.000Z</time>
</trkpt>
<trkpt lat="46.016311" lon="9.804755">
	<ele>1731.40</ele>
	<time>2022-06-28T07:01:11.000Z</time>
</trkpt>
<trkpt lat="46.016310" lon="9.804728">
	<ele>1731.60</ele>
	<time>2022-06-28T07:01:13.000Z</time>
</trkpt>
<trkpt lat="46.016335" lon="9.804672">
	<ele>1732.00</ele>
	<time>2022-06-28T07:01:19.000Z</time>
</trkpt>
<trkpt lat="46.016339" lon="9.804666">
	<ele>1732.40</ele>
	<time>2022-06-28T07:01:21.000Z</time>
</trkpt>
<trkpt lat="46.016339" lon="9.804662">
	<ele>1732.60</ele>
	<time>2022-06-28T07:01:22.000Z</time>
</trkpt>
<trkpt lat="46.016349" lon="9.804652">
	<ele>1733.40</ele>
	<time>2022-06-28T07:01:27.000Z</time>
</trkpt>
<trkpt lat="46.016354" lon="9.804640">
	<ele>1733.60</ele>
	<time>2022-06-28T07:01:29.000Z</time>
</trkpt>
<trkpt lat="46.016408" lon="9.804660">
	<ele>1734.40</ele>
	<time>2022-06-28T07:01:36.000Z</time>
</trkpt>
<trkpt lat="46.016423" lon="9.804659">
	<ele>1734.60</ele>
	<time>2022-06-28T07:01:38.000Z</time>
</trkpt>
<trkpt lat="46.016459" lon="9.804669">
	<ele>1735.60</ele>
	<time>2022-06-28T07:01:46.000Z</time>
</trkpt>
<trkpt lat="46.016460" lon="9.804674">
	<ele>1735.80</ele>
	<time>2022-06-28T07:01:47.000Z</time>
</trkpt>
<trkpt lat="46.016470" lon="9.804722">
	<ele>1736.80</ele>
	<time>2022-06-28T07:01:54.000Z</time>
</trkpt>
<trkpt lat="46.016497" lon="9.804703">
	<ele>1738.00</ele>
	<time>2022-06-28T07:02:01.000Z</time>
</trkpt>
<trkpt lat="46.016527" lon="9.804676">
	<ele>1738.60</ele>
	<time>2022-06-28T07:02:08.000Z</time>
</trkpt>
<trkpt lat="46.016536" lon="9.804663">
	<ele>1739.00</ele>
	<time>2022-06-28T07:02:11.000Z</time>
</trkpt>
<trkpt lat="46.016544" lon="9.804640">
	<ele>1739.40</ele>
	<time>2022-06-28T07:02:15.000Z</time>
</trkpt>
<trkpt lat="46.016560" lon="9.804623">
	<ele>1740.20</ele>
	<time>2022-06-28T07:02:20.000Z</time>
</trkpt>
<trkpt lat="46.016574" lon="9.804604">
	<ele>1740.40</ele>
	<time>2022-06-28T07:02:22.000Z</time>
</trkpt>
<trkpt lat="46.016585" lon="9.804589">
	<ele>1740.60</ele>
	<time>2022-06-28T07:02:24.000Z</time>
</trkpt>
<trkpt lat="46.016603" lon="9.804569">
	<ele>1741.20</ele>
	<time>2022-06-28T07:02:28.000Z</time>
</trkpt>
<trkpt lat="46.016619" lon="9.804545">
	<ele>1741.60</ele>
	<time>2022-06-28T07:02:31.000Z</time>
</trkpt>
<trkpt lat="46.016630" lon="9.804536">
	<ele>1741.80</ele>
	<time>2022-06-28T07:02:34.000Z</time>
</trkpt>
<trkpt lat="46.016660" lon="9.804526">
	<ele>1742.40</ele>
	<time>2022-06-28T07:02:38.000Z</time>
</trkpt>
<trkpt lat="46.016722" lon="9.804481">
	<ele>1743.20</ele>
	<time>2022-06-28T07:02:46.000Z</time>
</trkpt>
<trkpt lat="46.016733" lon="9.804473">
	<ele>1743.40</ele>
	<time>2022-06-28T07:02:48.000Z</time>
</trkpt>
<trkpt lat="46.016779" lon="9.804423">
	<ele>1744.40</ele>
	<time>2022-06-28T07:02:55.000Z</time>
</trkpt>
<trkpt lat="46.016783" lon="9.804424">
	<ele>1744.40</ele>
	<time>2022-06-28T07:02:56.000Z</time>
</trkpt>
<trkpt lat="46.016786" lon="9.804380">
	<ele>1744.80</ele>
	<time>2022-06-28T07:03:01.000Z</time>
</trkpt>
<trkpt lat="46.016815" lon="9.804346">
	<ele>1745.60</ele>
	<time>2022-06-28T07:03:06.000Z</time>
</trkpt>
<trkpt lat="46.016816" lon="9.804347">
	<ele>1745.60</ele>
	<time>2022-06-28T07:03:07.000Z</time>
</trkpt>
<trkpt lat="46.016854" lon="9.804318">
	<ele>1746.60</ele>
	<time>2022-06-28T07:03:17.000Z</time>
</trkpt>
<trkpt lat="46.016891" lon="9.804310">
	<ele>1747.60</ele>
	<time>2022-06-28T07:03:25.000Z</time>
</trkpt>
<trkpt lat="46.016905" lon="9.804311">
	<ele>1748.00</ele>
	<time>2022-06-28T07:03:27.000Z</time>
</trkpt>
<trkpt lat="46.016945" lon="9.804277">
	<ele>1748.80</ele>
	<time>2022-06-28T07:03:34.000Z</time>
</trkpt>
<trkpt lat="46.016948" lon="9.804281">
	<ele>1748.80</ele>
	<time>2022-06-28T07:03:35.000Z</time>
</trkpt>
<trkpt lat="46.016985" lon="9.804264">
	<ele>1749.20</ele>
	<time>2022-06-28T07:03:39.000Z</time>
</trkpt>
<trkpt lat="46.017004" lon="9.804255">
	<ele>1749.60</ele>
	<time>2022-06-28T07:03:41.000Z</time>
</trkpt>
<trkpt lat="46.017011" lon="9.804244">
	<ele>1749.80</ele>
	<time>2022-06-28T07:03:43.000Z</time>
</trkpt>
<trkpt lat="46.017017" lon="9.804238">
	<ele>1749.80</ele>
	<time>2022-06-28T07:03:44.000Z</time>
</trkpt>
<trkpt lat="46.017023" lon="9.804233">
	<ele>1750.20</ele>
	<time>2022-06-28T07:03:45.000Z</time>
</trkpt>
<trkpt lat="46.017053" lon="9.804210">
	<ele>1750.60</ele>
	<time>2022-06-28T07:03:50.000Z</time>
</trkpt>
<trkpt lat="46.017058" lon="9.804213">
	<ele>1750.80</ele>
	<time>2022-06-28T07:03:51.000Z</time>
</trkpt>
<trkpt lat="46.017059" lon="9.804206">
	<ele>1751.00</ele>
	<time>2022-06-28T07:03:52.000Z</time>
</trkpt>
<trkpt lat="46.017084" lon="9.804167">
	<ele>1751.60</ele>
	<time>2022-06-28T07:03:59.000Z</time>
</trkpt>
<trkpt lat="46.017106" lon="9.804135">
	<ele>1752.00</ele>
	<time>2022-06-28T07:04:03.000Z</time>
</trkpt>
<trkpt lat="46.017113" lon="9.804110">
	<ele>1752.40</ele>
	<time>2022-06-28T07:04:05.000Z</time>
</trkpt>
<trkpt lat="46.017120" lon="9.804082">
	<ele>1752.60</ele>
	<time>2022-06-28T07:04:07.000Z</time>
</trkpt>
<trkpt lat="46.017119" lon="9.804071">
	<ele>1752.60</ele>
	<time>2022-06-28T07:04:08.000Z</time>
</trkpt>
<trkpt lat="46.017150" lon="9.804035">
	<ele>1752.80</ele>
	<time>2022-06-28T07:04:13.000Z</time>
</trkpt>
<trkpt lat="46.017158" lon="9.804019">
	<ele>1753.20</ele>
	<time>2022-06-28T07:04:15.000Z</time>
</trkpt>
<trkpt lat="46.017161" lon="9.804016">
	<ele>1753.40</ele>
	<time>2022-06-28T07:04:16.000Z</time>
</trkpt>
<trkpt lat="46.017164" lon="9.804016">
	<ele>1753.60</ele>
	<time>2022-06-28T07:04:17.000Z</time>
</trkpt>
<trkpt lat="46.017171" lon="9.804026">
	<ele>1754.00</ele>
	<time>2022-06-28T07:04:19.000Z</time>
</trkpt>
<trkpt lat="46.017181" lon="9.804038">
	<ele>1754.20</ele>
	<time>2022-06-28T07:04:21.000Z</time>
</trkpt>
<trkpt lat="46.017181" lon="9.804049">
	<ele>1754.40</ele>
	<time>2022-06-28T07:04:23.000Z</time>
</trkpt>
<trkpt lat="46.017172" lon="9.804068">
	<ele>1755.00</ele>
	<time>2022-06-28T07:04:28.000Z</time>
</trkpt>
<trkpt lat="46.017172" lon="9.804064">
	<ele>1755.00</ele>
	<time>2022-06-28T07:04:29.000Z</time>
</trkpt>
<trkpt lat="46.017173" lon="9.804076">
	<ele>1755.20</ele>
	<time>2022-06-28T07:04:30.000Z</time>
</trkpt>
<trkpt lat="46.017158" lon="9.804112">
	<ele>1755.60</ele>
	<time>2022-06-28T07:04:34.000Z</time>
</trkpt>
<trkpt lat="46.017156" lon="9.804151">
	<ele>1756.00</ele>
	<time>2022-06-28T07:04:38.000Z</time>
</trkpt>
<trkpt lat="46.017155" lon="9.804181">
	<ele>1756.20</ele>
	<time>2022-06-28T07:04:42.000Z</time>
</trkpt>
<trkpt lat="46.017154" lon="9.804235">
	<ele>1757.00</ele>
	<time>2022-06-28T07:04:48.000Z</time>
</trkpt>
<trkpt lat="46.017156" lon="9.804254">
	<ele>1757.20</ele>
	<time>2022-06-28T07:04:50.000Z</time>
</trkpt>
<trkpt lat="46.017165" lon="9.804315">
	<ele>1758.20</ele>
	<time>2022-06-28T07:04:58.000Z</time>
</trkpt>
<trkpt lat="46.017170" lon="9.804331">
	<ele>1758.20</ele>
	<time>2022-06-28T07:05:00.000Z</time>
</trkpt>
<trkpt lat="46.017169" lon="9.804340">
	<ele>1758.40</ele>
	<time>2022-06-28T07:05:01.000Z</time>
</trkpt>
<trkpt lat="46.017169" lon="9.804359">
	<ele>1758.60</ele>
	<time>2022-06-28T07:05:03.000Z</time>
</trkpt>
<trkpt lat="46.017179" lon="9.804401">
	<ele>1759.20</ele>
	<time>2022-06-28T07:05:07.000Z</time>
</trkpt>
<trkpt lat="46.017181" lon="9.804408">
	<ele>1759.20</ele>
	<time>2022-06-28T07:05:08.000Z</time>
</trkpt>
<trkpt lat="46.017186" lon="9.804420">
	<ele>1759.40</ele>
	<time>2022-06-28T07:05:09.000Z</time>
</trkpt>
<trkpt lat="46.017188" lon="9.804427">
	<ele>1759.40</ele>
	<time>2022-06-28T07:05:10.000Z</time>
</trkpt>
<trkpt lat="46.017196" lon="9.804452">
	<ele>1759.80</ele>
	<time>2022-06-28T07:05:14.000Z</time>
</trkpt>
<trkpt lat="46.017193" lon="9.804488">
	<ele>1760.40</ele>
	<time>2022-06-28T07:05:18.000Z</time>
</trkpt>
<trkpt lat="46.017190" lon="9.804493">
	<ele>1760.40</ele>
	<time>2022-06-28T07:05:19.000Z</time>
</trkpt>
<trkpt lat="46.017187" lon="9.804509">
	<ele>1760.80</ele>
	<time>2022-06-28T07:05:21.000Z</time>
</trkpt>
<trkpt lat="46.017175" lon="9.804567">
	<ele>1761.60</ele>
	<time>2022-06-28T07:05:28.000Z</time>
</trkpt>
<trkpt lat="46.017173" lon="9.804602">
	<ele>1762.40</ele>
	<time>2022-06-28T07:05:32.000Z</time>
</trkpt>
<trkpt lat="46.017162" lon="9.804614">
	<ele>1762.60</ele>
	<time>2022-06-28T07:05:34.000Z</time>
</trkpt>
<trkpt lat="46.017154" lon="9.804626">
	<ele>1762.60</ele>
	<time>2022-06-28T07:05:36.000Z</time>
</trkpt>
<trkpt lat="46.017150" lon="9.804656">
	<ele>1762.60</ele>
	<time>2022-06-28T07:05:40.000Z</time>
</trkpt>
<trkpt lat="46.017139" lon="9.804700">
	<ele>1763.60</ele>
	<time>2022-06-28T07:05:48.000Z</time>
</trkpt>
<trkpt lat="46.017136" lon="9.804710">
	<ele>1763.80</ele>
	<time>2022-06-28T07:05:49.000Z</time>
</trkpt>
<trkpt lat="46.017120" lon="9.804732">
	<ele>1764.60</ele>
	<time>2022-06-28T07:05:54.000Z</time>
</trkpt>
<trkpt lat="46.017108" lon="9.804757">
	<ele>1765.20</ele>
	<time>2022-06-28T07:05:57.000Z</time>
</trkpt>
<trkpt lat="46.017051" lon="9.804787">
	<ele>1765.80</ele>
	<time>2022-06-28T07:06:05.000Z</time>
</trkpt>
<trkpt lat="46.017037" lon="9.804820">
	<ele>1766.60</ele>
	<time>2022-06-28T07:06:10.000Z</time>
</trkpt>
<trkpt lat="46.017022" lon="9.804845">
	<ele>1767.00</ele>
	<time>2022-06-28T07:06:14.000Z</time>
</trkpt>
<trkpt lat="46.017018" lon="9.804870">
	<ele>1767.40</ele>
	<time>2022-06-28T07:06:17.000Z</time>
</trkpt>
<trkpt lat="46.017020" lon="9.804932">
	<ele>1768.20</ele>
	<time>2022-06-28T07:06:23.000Z</time>
</trkpt>
<trkpt lat="46.017019" lon="9.804946">
	<ele>1768.60</ele>
	<time>2022-06-28T07:06:25.000Z</time>
</trkpt>
<trkpt lat="46.017020" lon="9.804985">
	<ele>1769.20</ele>
	<time>2022-06-28T07:06:31.000Z</time>
</trkpt>
<trkpt lat="46.017019" lon="9.804993">
	<ele>1769.40</ele>
	<time>2022-06-28T07:06:32.000Z</time>
</trkpt>
<trkpt lat="46.017010" lon="9.805029">
	<ele>1770.20</ele>
	<time>2022-06-28T07:06:37.000Z</time>
</trkpt>
<trkpt lat="46.017008" lon="9.805044">
	<ele>1771.00</ele>
	<time>2022-06-28T07:06:41.000Z</time>
</trkpt>
<trkpt lat="46.016995" lon="9.805065">
	<ele>1771.40</ele>
	<time>2022-06-28T07:06:45.000Z</time>
</trkpt>
<trkpt lat="46.016984" lon="9.805089">
	<ele>1772.40</ele>
	<time>2022-06-28T07:06:50.000Z</time>
</trkpt>
<trkpt lat="46.016985" lon="9.805093">
	<ele>1772.40</ele>
	<time>2022-06-28T07:06:51.000Z</time>
</trkpt>
<trkpt lat="46.016977" lon="9.805091">
	<ele>1772.80</ele>
	<time>2022-06-28T07:06:58.000Z</time>
</trkpt>
<trkpt lat="46.016985" lon="9.805101">
	<ele>1773.00</ele>
	<time>2022-06-28T07:07:09.000Z</time>
</trkpt>
<trkpt lat="46.016975" lon="9.805143">
	<ele>1773.20</ele>
	<time>2022-06-28T07:07:14.000Z</time>
</trkpt>
<trkpt lat="46.016971" lon="9.805163">
	<ele>1773.40</ele>
	<time>2022-06-28T07:07:15.000Z</time>
</trkpt>
<trkpt lat="46.016970" lon="9.805182">
	<ele>1773.60</ele>
	<time>2022-06-28T07:07:16.000Z</time>
</trkpt>
<trkpt lat="46.016973" lon="9.805204">
	<ele>1773.60</ele>
	<time>2022-06-28T07:07:17.000Z</time>
</trkpt>
<trkpt lat="46.016978" lon="9.805247">
	<ele>1774.00</ele>
	<time>2022-06-28T07:07:19.000Z</time>
</trkpt>
<trkpt lat="46.017009" lon="9.805273">
	<ele>1774.40</ele>
	<time>2022-06-28T07:07:22.000Z</time>
</trkpt>
<trkpt lat="46.017019" lon="9.805267">
	<ele>1774.60</ele>
	<time>2022-06-28T07:07:23.000Z</time>
</trkpt>
<trkpt lat="46.017049" lon="9.805248">
	<ele>1774.80</ele>
	<time>2022-06-28T07:07:28.000Z</time>
</trkpt>
<trkpt lat="46.017065" lon="9.805236">
	<ele>1775.00</ele>
	<time>2022-06-28T07:07:30.000Z</time>
</trkpt>
<trkpt lat="46.017080" lon="9.805239">
	<ele>1775.20</ele>
	<time>2022-06-28T07:07:32.000Z</time>
</trkpt>
<trkpt lat="46.017083" lon="9.805238">
	<ele>1775.40</ele>
	<time>2022-06-28T07:07:33.000Z</time>
</trkpt>
<trkpt lat="46.017091" lon="9.805248">
	<ele>1775.60</ele>
	<time>2022-06-28T07:07:35.000Z</time>
</trkpt>
<trkpt lat="46.017088" lon="9.805257">
	<ele>1775.80</ele>
	<time>2022-06-28T07:07:37.000Z</time>
</trkpt>
<trkpt lat="46.017083" lon="9.805266">
	<ele>1776.00</ele>
	<time>2022-06-28T07:07:38.000Z</time>
</trkpt>
<trkpt lat="46.017069" lon="9.805317">
	<ele>1776.80</ele>
	<time>2022-06-28T07:07:43.000Z</time>
</trkpt>
<trkpt lat="46.017060" lon="9.805366">
	<ele>1777.00</ele>
	<time>2022-06-28T07:07:48.000Z</time>
</trkpt>
<trkpt lat="46.017061" lon="9.805412">
	<ele>1777.80</ele>
	<time>2022-06-28T07:07:53.000Z</time>
</trkpt>
<trkpt lat="46.017060" lon="9.805423">
	<ele>1778.00</ele>
	<time>2022-06-28T07:07:54.000Z</time>
</trkpt>
<trkpt lat="46.017078" lon="9.805477">
	<ele>1778.60</ele>
	<time>2022-06-28T07:08:00.000Z</time>
</trkpt>
<trkpt lat="46.017085" lon="9.805467">
	<ele>1779.00</ele>
	<time>2022-06-28T07:08:02.000Z</time>
</trkpt>
<trkpt lat="46.017121" lon="9.805435">
	<ele>1779.40</ele>
	<time>2022-06-28T07:08:07.000Z</time>
</trkpt>
<trkpt lat="46.017188" lon="9.805417">
	<ele>1779.80</ele>
	<time>2022-06-28T07:08:15.000Z</time>
</trkpt>
<trkpt lat="46.017231" lon="9.805403">
	<ele>1780.00</ele>
	<time>2022-06-28T07:08:20.000Z</time>
</trkpt>
<trkpt lat="46.017254" lon="9.805364">
	<ele>1780.00</ele>
	<time>2022-06-28T07:08:24.000Z</time>
</trkpt>
<trkpt lat="46.017272" lon="9.805323">
	<ele>1780.20</ele>
	<time>2022-06-28T07:08:30.000Z</time>
</trkpt>
<trkpt lat="46.017327" lon="9.805238">
	<ele>1780.60</ele>
	<time>2022-06-28T07:08:38.000Z</time>
</trkpt>
<trkpt lat="46.017362" lon="9.805200">
	<ele>1780.60</ele>
	<time>2022-06-28T07:08:42.000Z</time>
</trkpt>
<trkpt lat="46.017376" lon="9.805184">
	<ele>1780.80</ele>
	<time>2022-06-28T07:08:44.000Z</time>
</trkpt>
<trkpt lat="46.017399" lon="9.805163">
	<ele>1781.00</ele>
	<time>2022-06-28T07:08:48.000Z</time>
</trkpt>
<trkpt lat="46.017453" lon="9.805123">
	<ele>1781.80</ele>
	<time>2022-06-28T07:08:57.000Z</time>
</trkpt>
<trkpt lat="46.017468" lon="9.805113">
	<ele>1782.20</ele>
	<time>2022-06-28T07:08:59.000Z</time>
</trkpt>
<trkpt lat="46.017488" lon="9.805119">
	<ele>1782.40</ele>
	<time>2022-06-28T07:09:02.000Z</time>
</trkpt>
<trkpt lat="46.017496" lon="9.805158">
	<ele>1783.20</ele>
	<time>2022-06-28T07:09:08.000Z</time>
</trkpt>
<trkpt lat="46.017492" lon="9.805167">
	<ele>1783.40</ele>
	<time>2022-06-28T07:09:10.000Z</time>
</trkpt>
<trkpt lat="46.017474" lon="9.805198">
	<ele>1784.00</ele>
	<time>2022-06-28T07:09:15.000Z</time>
</trkpt>
<trkpt lat="46.017465" lon="9.805214">
	<ele>1784.20</ele>
	<time>2022-06-28T07:09:18.000Z</time>
</trkpt>
<trkpt lat="46.017453" lon="9.805227">
	<ele>1784.60</ele>
	<time>2022-06-28T07:09:21.000Z</time>
</trkpt>
<trkpt lat="46.017440" lon="9.805241">
	<ele>1785.40</ele>
	<time>2022-06-28T07:09:27.000Z</time>
</trkpt>
<trkpt lat="46.017406" lon="9.805269">
	<ele>1786.00</ele>
	<time>2022-06-28T07:09:32.000Z</time>
</trkpt>
<trkpt lat="46.017400" lon="9.805289">
	<ele>1786.60</ele>
	<time>2022-06-28T07:09:36.000Z</time>
</trkpt>
<trkpt lat="46.017396" lon="9.805316">
	<ele>1787.00</ele>
	<time>2022-06-28T07:09:39.000Z</time>
</trkpt>
<trkpt lat="46.017385" lon="9.805347">
	<ele>1787.60</ele>
	<time>2022-06-28T07:09:44.000Z</time>
</trkpt>
<trkpt lat="46.017381" lon="9.805363">
	<ele>1787.80</ele>
	<time>2022-06-28T07:09:46.000Z</time>
</trkpt>
<trkpt lat="46.017386" lon="9.805432">
	<ele>1788.60</ele>
	<time>2022-06-28T07:09:53.000Z</time>
</trkpt>
<trkpt lat="46.017384" lon="9.805438">
	<ele>1788.80</ele>
	<time>2022-06-28T07:09:54.000Z</time>
</trkpt>
<trkpt lat="46.017374" lon="9.805472">
	<ele>1789.60</ele>
	<time>2022-06-28T07:09:59.000Z</time>
</trkpt>
<trkpt lat="46.017378" lon="9.805493">
	<ele>1789.80</ele>
	<time>2022-06-28T07:10:00.000Z</time>
</trkpt>
<trkpt lat="46.017382" lon="9.805552">
	<ele>1790.40</ele>
	<time>2022-06-28T07:10:06.000Z</time>
</trkpt>
<trkpt lat="46.017369" lon="9.805568">
	<ele>1791.00</ele>
	<time>2022-06-28T07:10:09.000Z</time>
</trkpt>
<trkpt lat="46.017366" lon="9.805604">
	<ele>1791.40</ele>
	<time>2022-06-28T07:10:13.000Z</time>
</trkpt>
<trkpt lat="46.017363" lon="9.805625">
	<ele>1791.80</ele>
	<time>2022-06-28T07:10:16.000Z</time>
</trkpt>
<trkpt lat="46.017359" lon="9.805629">
	<ele>1792.00</ele>
	<time>2022-06-28T07:10:17.000Z</time>
</trkpt>
<trkpt lat="46.017361" lon="9.805648">
	<ele>1792.20</ele>
	<time>2022-06-28T07:10:19.000Z</time>
</trkpt>
<trkpt lat="46.017360" lon="9.805712">
	<ele>1793.20</ele>
	<time>2022-06-28T07:10:25.000Z</time>
</trkpt>
<trkpt lat="46.017362" lon="9.805722">
	<ele>1793.40</ele>
	<time>2022-06-28T07:10:27.000Z</time>
</trkpt>
<trkpt lat="46.017343" lon="9.805749">
	<ele>1794.20</ele>
	<time>2022-06-28T07:10:33.000Z</time>
</trkpt>
<trkpt lat="46.017341" lon="9.805755">
	<ele>1794.20</ele>
	<time>2022-06-28T07:10:34.000Z</time>
</trkpt>
<trkpt lat="46.017315" lon="9.805813">
	<ele>1794.80</ele>
	<time>2022-06-28T07:10:42.000Z</time>
</trkpt>
<trkpt lat="46.017301" lon="9.805835">
	<ele>1795.20</ele>
	<time>2022-06-28T07:10:45.000Z</time>
</trkpt>
<trkpt lat="46.017322" lon="9.805878">
	<ele>1795.80</ele>
	<time>2022-06-28T07:10:49.000Z</time>
</trkpt>
<trkpt lat="46.017347" lon="9.805910">
	<ele>1796.20</ele>
	<time>2022-06-28T07:10:53.000Z</time>
</trkpt>
<trkpt lat="46.017362" lon="9.805903">
	<ele>1796.60</ele>
	<time>2022-06-28T07:10:56.000Z</time>
</trkpt>
<trkpt lat="46.017397" lon="9.805920">
	<ele>1797.40</ele>
	<time>2022-06-28T07:11:01.000Z</time>
</trkpt>
<trkpt lat="46.017403" lon="9.805944">
	<ele>1797.80</ele>
	<time>2022-06-28T07:11:05.000Z</time>
</trkpt>
<trkpt lat="46.017392" lon="9.805955">
	<ele>1798.00</ele>
	<time>2022-06-28T07:11:07.000Z</time>
</trkpt>
<trkpt lat="46.017387" lon="9.805962">
	<ele>1798.00</ele>
	<time>2022-06-28T07:11:08.000Z</time>
</trkpt>
<trkpt lat="46.017384" lon="9.806001">
	<ele>1798.40</ele>
	<time>2022-06-28T07:11:12.000Z</time>
</trkpt>
<trkpt lat="46.017360" lon="9.806022">
	<ele>1799.60</ele>
	<time>2022-06-28T07:11:19.000Z</time>
</trkpt>
<trkpt lat="46.017341" lon="9.806087">
	<ele>1800.60</ele>
	<time>2022-06-28T07:11:28.000Z</time>
</trkpt>
<trkpt lat="46.017339" lon="9.806104">
	<ele>1800.80</ele>
	<time>2022-06-28T07:11:30.000Z</time>
</trkpt>
<trkpt lat="46.017332" lon="9.806125">
	<ele>1801.60</ele>
	<time>2022-06-28T07:11:36.000Z</time>
</trkpt>
<trkpt lat="46.017328" lon="9.806164">
	<ele>1802.00</ele>
	<time>2022-06-28T07:11:40.000Z</time>
</trkpt>
<trkpt lat="46.017315" lon="9.806209">
	<ele>1802.20</ele>
	<time>2022-06-28T07:11:44.000Z</time>
</trkpt>
<trkpt lat="46.017299" lon="9.806283">
	<ele>1803.20</ele>
	<time>2022-06-28T07:11:51.000Z</time>
</trkpt>
<trkpt lat="46.017294" lon="9.806293">
	<ele>1803.60</ele>
	<time>2022-06-28T07:11:56.000Z</time>
</trkpt>
<trkpt lat="46.017298" lon="9.806301">
	<ele>1803.20</ele>
	<time>2022-06-28T07:12:04.000Z</time>
</trkpt>
<trkpt lat="46.017298" lon="9.806301">
	<ele>1803.40</ele>
	<time>2022-06-28T07:12:10.000Z</time>
</trkpt>
<trkpt lat="46.017298" lon="9.806301">
	<ele>1803.60</ele>
	<time>2022-06-28T07:12:14.000Z</time>
</trkpt>
<trkpt lat="46.017300" lon="9.806354">
	<ele>1802.60</ele>
	<time>2022-06-28T07:12:31.000Z</time>
</trkpt>
<trkpt lat="46.017307" lon="9.806356">
	<ele>1803.20</ele>
	<time>2022-06-28T07:12:39.000Z</time>
</trkpt>
<trkpt lat="46.017308" lon="9.806356">
	<ele>1803.20</ele>
	<time>2022-06-28T07:12:46.000Z</time>
</trkpt>
<trkpt lat="46.017313" lon="9.806332">
	<ele>1803.00</ele>
	<time>2022-06-28T07:12:59.000Z</time>
</trkpt>
<trkpt lat="46.017313" lon="9.806334">
	<ele>1803.00</ele>
	<time>2022-06-28T07:13:08.000Z</time>
</trkpt>
<trkpt lat="46.017312" lon="9.806335">
	<ele>1803.00</ele>
	<time>2022-06-28T07:13:12.000Z</time>
</trkpt>
<trkpt lat="46.017306" lon="9.806335">
	<ele>1803.00</ele>
	<time>2022-06-28T07:13:17.000Z</time>
</trkpt>
<trkpt lat="46.017303" lon="9.806335">
	<ele>1803.00</ele>
	<time>2022-06-28T07:13:21.000Z</time>
</trkpt>
<trkpt lat="46.017298" lon="9.806318">
	<ele>1803.00</ele>
	<time>2022-06-28T07:13:31.000Z</time>
</trkpt>
<trkpt lat="46.017290" lon="9.806316">
	<ele>1803.00</ele>
	<time>2022-06-28T07:13:34.000Z</time>
</trkpt>
<trkpt lat="46.017283" lon="9.806303">
	<ele>1804.20</ele>
	<time>2022-06-28T07:13:49.000Z</time>
</trkpt>
<trkpt lat="46.017287" lon="9.806312">
	<ele>1805.20</ele>
	<time>2022-06-28T07:13:56.000Z</time>
</trkpt>
<trkpt lat="46.017292" lon="9.806385">
	<ele>1805.80</ele>
	<time>2022-06-28T07:14:01.000Z</time>
</trkpt>
<trkpt lat="46.017290" lon="9.806435">
	<ele>1806.00</ele>
	<time>2022-06-28T07:14:03.000Z</time>
</trkpt>
<trkpt lat="46.017292" lon="9.806460">
	<ele>1806.20</ele>
	<time>2022-06-28T07:14:04.000Z</time>
</trkpt>
<trkpt lat="46.017293" lon="9.806480">
	<ele>1806.60</ele>
	<time>2022-06-28T07:14:05.000Z</time>
</trkpt>
<trkpt lat="46.017291" lon="9.806537">
	<ele>1807.00</ele>
	<time>2022-06-28T07:14:09.000Z</time>
</trkpt>
<trkpt lat="46.017294" lon="9.806588">
	<ele>1807.60</ele>
	<time>2022-06-28T07:14:13.000Z</time>
</trkpt>
<trkpt lat="46.017296" lon="9.806600">
	<ele>1807.80</ele>
	<time>2022-06-28T07:14:15.000Z</time>
</trkpt>
<trkpt lat="46.017290" lon="9.806611">
	<ele>1808.00</ele>
	<time>2022-06-28T07:14:17.000Z</time>
</trkpt>
<trkpt lat="46.017280" lon="9.806640">
	<ele>1808.40</ele>
	<time>2022-06-28T07:14:20.000Z</time>
</trkpt>
<trkpt lat="46.017280" lon="9.806650">
	<ele>1808.60</ele>
	<time>2022-06-28T07:14:21.000Z</time>
</trkpt>
<trkpt lat="46.017277" lon="9.806663">
	<ele>1808.80</ele>
	<time>2022-06-28T07:14:22.000Z</time>
</trkpt>
<trkpt lat="46.017273" lon="9.806672">
	<ele>1808.80</ele>
	<time>2022-06-28T07:14:23.000Z</time>
</trkpt>
<trkpt lat="46.017272" lon="9.806683">
	<ele>1809.00</ele>
	<time>2022-06-28T07:14:24.000Z</time>
</trkpt>
<trkpt lat="46.017263" lon="9.806703">
	<ele>1809.40</ele>
	<time>2022-06-28T07:14:26.000Z</time>
</trkpt>
<trkpt lat="46.017264" lon="9.806714">
	<ele>1809.60</ele>
	<time>2022-06-28T07:14:27.000Z</time>
</trkpt>
<trkpt lat="46.017246" lon="9.806755">
	<ele>1810.00</ele>
	<time>2022-06-28T07:14:32.000Z</time>
</trkpt>
<trkpt lat="46.017231" lon="9.806811">
	<ele>1810.60</ele>
	<time>2022-06-28T07:14:38.000Z</time>
</trkpt>
<trkpt lat="46.017228" lon="9.806821">
	<ele>1810.80</ele>
	<time>2022-06-28T07:14:39.000Z</time>
</trkpt>
<trkpt lat="46.017205" lon="9.806863">
	<ele>1811.60</ele>
	<time>2022-06-28T07:14:46.000Z</time>
</trkpt>
<trkpt lat="46.017198" lon="9.806863">
	<ele>1811.80</ele>
	<time>2022-06-28T07:14:47.000Z</time>
</trkpt>
<trkpt lat="46.017163" lon="9.806896">
	<ele>1812.80</ele>
	<time>2022-06-28T07:14:54.000Z</time>
</trkpt>
<trkpt lat="46.017152" lon="9.806989">
	<ele>1813.60</ele>
	<time>2022-06-28T07:15:01.000Z</time>
</trkpt>
<trkpt lat="46.017149" lon="9.807002">
	<ele>1813.80</ele>
	<time>2022-06-28T07:15:03.000Z</time>
</trkpt>
<trkpt lat="46.017157" lon="9.807033">
	<ele>1814.20</ele>
	<time>2022-06-28T07:15:07.000Z</time>
</trkpt>
<trkpt lat="46.017141" lon="9.807057">
	<ele>1814.80</ele>
	<time>2022-06-28T07:15:10.000Z</time>
</trkpt>
<trkpt lat="46.017137" lon="9.807070">
	<ele>1815.20</ele>
	<time>2022-06-28T07:15:13.000Z</time>
</trkpt>
<trkpt lat="46.017125" lon="9.807122">
	<ele>1815.80</ele>
	<time>2022-06-28T07:15:20.000Z</time>
</trkpt>
<trkpt lat="46.017135" lon="9.807132">
	<ele>1816.00</ele>
	<time>2022-06-28T07:15:21.000Z</time>
</trkpt>
<trkpt lat="46.017151" lon="9.807184">
	<ele>1816.40</ele>
	<time>2022-06-28T07:15:25.000Z</time>
</trkpt>
<trkpt lat="46.017149" lon="9.807208">
	<ele>1817.00</ele>
	<time>2022-06-28T07:15:28.000Z</time>
</trkpt>
<trkpt lat="46.017147" lon="9.807274">
	<ele>1818.00</ele>
	<time>2022-06-28T07:15:35.000Z</time>
</trkpt>
<trkpt lat="46.017140" lon="9.807287">
	<ele>1818.40</ele>
	<time>2022-06-28T07:15:37.000Z</time>
</trkpt>
<trkpt lat="46.017128" lon="9.807306">
	<ele>1819.00</ele>
	<time>2022-06-28T07:15:41.000Z</time>
</trkpt>
<trkpt lat="46.017126" lon="9.807316">
	<ele>1819.20</ele>
	<time>2022-06-28T07:15:43.000Z</time>
</trkpt>
<trkpt lat="46.017119" lon="9.807318">
	<ele>1820.20</ele>
	<time>2022-06-28T07:15:47.000Z</time>
</trkpt>
<trkpt lat="46.017114" lon="9.807323">
	<ele>1820.20</ele>
	<time>2022-06-28T07:15:48.000Z</time>
</trkpt>
<trkpt lat="46.017104" lon="9.807345">
	<ele>1821.00</ele>
	<time>2022-06-28T07:15:55.000Z</time>
</trkpt>
<trkpt lat="46.017107" lon="9.807344">
	<ele>1821.40</ele>
	<time>2022-06-28T07:15:57.000Z</time>
</trkpt>
<trkpt lat="46.017141" lon="9.807362">
	<ele>1822.00</ele>
	<time>2022-06-28T07:16:02.000Z</time>
</trkpt>
<trkpt lat="46.017152" lon="9.807358">
	<ele>1822.40</ele>
	<time>2022-06-28T07:16:04.000Z</time>
</trkpt>
<trkpt lat="46.017163" lon="9.807362">
	<ele>1822.60</ele>
	<time>2022-06-28T07:16:07.000Z</time>
</trkpt>
<trkpt lat="46.017179" lon="9.807379">
	<ele>1823.60</ele>
	<time>2022-06-28T07:16:12.000Z</time>
</trkpt>
<trkpt lat="46.017181" lon="9.807388">
	<ele>1823.80</ele>
	<time>2022-06-28T07:16:14.000Z</time>
</trkpt>
<trkpt lat="46.017170" lon="9.807402">
	<ele>1824.60</ele>
	<time>2022-06-28T07:16:18.000Z</time>
</trkpt>
<trkpt lat="46.017151" lon="9.807415">
	<ele>1825.00</ele>
	<time>2022-06-28T07:16:24.000Z</time>
</trkpt>
<trkpt lat="46.017134" lon="9.807438">
	<ele>1825.60</ele>
	<time>2022-06-28T07:16:29.000Z</time>
</trkpt>
<trkpt lat="46.017125" lon="9.807442">
	<ele>1826.40</ele>
	<time>2022-06-28T07:16:33.000Z</time>
</trkpt>
<trkpt lat="46.017121" lon="9.807476">
	<ele>1826.60</ele>
	<time>2022-06-28T07:16:38.000Z</time>
</trkpt>
<trkpt lat="46.017121" lon="9.807477">
	<ele>1827.00</ele>
	<time>2022-06-28T07:16:41.000Z</time>
</trkpt>
<trkpt lat="46.017115" lon="9.807537">
	<ele>1827.80</ele>
	<time>2022-06-28T07:16:47.000Z</time>
</trkpt>
<trkpt lat="46.017113" lon="9.807547">
	<ele>1828.00</ele>
	<time>2022-06-28T07:16:48.000Z</time>
</trkpt>
<trkpt lat="46.017085" lon="9.807605">
	<ele>1828.80</ele>
	<time>2022-06-28T07:16:55.000Z</time>
</trkpt>
<trkpt lat="46.017080" lon="9.807611">
	<ele>1828.80</ele>
	<time>2022-06-28T07:16:56.000Z</time>
</trkpt>
<trkpt lat="46.017058" lon="9.807660">
	<ele>1829.60</ele>
	<time>2022-06-28T07:17:02.000Z</time>
</trkpt>
<trkpt lat="46.017036" lon="9.807710">
	<ele>1829.80</ele>
	<time>2022-06-28T07:17:07.000Z</time>
</trkpt>
<trkpt lat="46.017031" lon="9.807723">
	<ele>1830.00</ele>
	<time>2022-06-28T07:17:08.000Z</time>
</trkpt>
<trkpt lat="46.017023" lon="9.807779">
	<ele>1830.80</ele>
	<time>2022-06-28T07:17:16.000Z</time>
</trkpt>
<trkpt lat="46.017017" lon="9.807796">
	<ele>1831.00</ele>
	<time>2022-06-28T07:17:18.000Z</time>
</trkpt>
<trkpt lat="46.017022" lon="9.807833">
	<ele>1831.60</ele>
	<time>2022-06-28T07:17:23.000Z</time>
</trkpt>
<trkpt lat="46.017040" lon="9.807816">
	<ele>1832.00</ele>
	<time>2022-06-28T07:17:26.000Z</time>
</trkpt>
<trkpt lat="46.017044" lon="9.807811">
	<ele>1832.20</ele>
	<time>2022-06-28T07:17:27.000Z</time>
</trkpt>
<trkpt lat="46.017088" lon="9.807807">
	<ele>1833.20</ele>
	<time>2022-06-28T07:17:34.000Z</time>
</trkpt>
<trkpt lat="46.017145" lon="9.807816">
	<ele>1833.80</ele>
	<time>2022-06-28T07:17:41.000Z</time>
</trkpt>
<trkpt lat="46.017156" lon="9.807816">
	<ele>1833.80</ele>
	<time>2022-06-28T07:17:42.000Z</time>
</trkpt>
<trkpt lat="46.017182" lon="9.807803">
	<ele>1834.20</ele>
	<time>2022-06-28T07:17:44.000Z</time>
</trkpt>
<trkpt lat="46.017199" lon="9.807793">
	<ele>1834.60</ele>
	<time>2022-06-28T07:17:47.000Z</time>
</trkpt>
<trkpt lat="46.017208" lon="9.807814">
	<ele>1834.80</ele>
	<time>2022-06-28T07:17:50.000Z</time>
</trkpt>
<trkpt lat="46.017206" lon="9.807811">
	<ele>1834.80</ele>
	<time>2022-06-28T07:17:51.000Z</time>
</trkpt>
<trkpt lat="46.017207" lon="9.807803">
	<ele>1834.80</ele>
	<time>2022-06-28T07:17:52.000Z</time>
</trkpt>
<trkpt lat="46.017208" lon="9.807814">
	<ele>1835.20</ele>
	<time>2022-06-28T07:17:54.000Z</time>
</trkpt>
<trkpt lat="46.017212" lon="9.807822">
	<ele>1835.40</ele>
	<time>2022-06-28T07:17:55.000Z</time>
</trkpt>
<trkpt lat="46.017213" lon="9.807827">
	<ele>1835.60</ele>
	<time>2022-06-28T07:17:56.000Z</time>
</trkpt>
<trkpt lat="46.017207" lon="9.807834">
	<ele>1835.60</ele>
	<time>2022-06-28T07:17:57.000Z</time>
</trkpt>
<trkpt lat="46.017195" lon="9.807865">
	<ele>1836.00</ele>
	<time>2022-06-28T07:18:00.000Z</time>
</trkpt>
<trkpt lat="46.017187" lon="9.807891">
	<ele>1836.20</ele>
	<time>2022-06-28T07:18:04.000Z</time>
</trkpt>
<trkpt lat="46.017186" lon="9.807900">
	<ele>1836.40</ele>
	<time>2022-06-28T07:18:05.000Z</time>
</trkpt>
<trkpt lat="46.017181" lon="9.807930">
	<ele>1837.00</ele>
	<time>2022-06-28T07:18:09.000Z</time>
</trkpt>
<trkpt lat="46.017179" lon="9.807941">
	<ele>1837.40</ele>
	<time>2022-06-28T07:18:11.000Z</time>
</trkpt>
<trkpt lat="46.017174" lon="9.807939">
	<ele>1837.60</ele>
	<time>2022-06-28T07:18:12.000Z</time>
</trkpt>
<trkpt lat="46.017159" lon="9.808000">
	<ele>1838.60</ele>
	<time>2022-06-28T07:18:20.000Z</time>
</trkpt>
<trkpt lat="46.017155" lon="9.808001">
	<ele>1838.60</ele>
	<time>2022-06-28T07:18:21.000Z</time>
</trkpt>
<trkpt lat="46.017149" lon="9.808015">
	<ele>1838.80</ele>
	<time>2022-06-28T07:18:23.000Z</time>
</trkpt>
<trkpt lat="46.017149" lon="9.808036">
	<ele>1839.60</ele>
	<time>2022-06-28T07:18:26.000Z</time>
</trkpt>
<trkpt lat="46.017150" lon="9.808042">
	<ele>1839.80</ele>
	<time>2022-06-28T07:18:27.000Z</time>
</trkpt>
<trkpt lat="46.017142" lon="9.808055">
	<ele>1840.00</ele>
	<time>2022-06-28T07:18:30.000Z</time>
</trkpt>
<trkpt lat="46.017138" lon="9.808070">
	<ele>1840.20</ele>
	<time>2022-06-28T07:18:32.000Z</time>
</trkpt>
<trkpt lat="46.017119" lon="9.808104">
	<ele>1840.60</ele>
	<time>2022-06-28T07:18:36.000Z</time>
</trkpt>
<trkpt lat="46.017117" lon="9.808123">
	<ele>1840.80</ele>
	<time>2022-06-28T07:18:37.000Z</time>
</trkpt>
<trkpt lat="46.017118" lon="9.808137">
	<ele>1840.80</ele>
	<time>2022-06-28T07:18:38.000Z</time>
</trkpt>
<trkpt lat="46.017118" lon="9.808150">
	<ele>1840.80</ele>
	<time>2022-06-28T07:18:39.000Z</time>
</trkpt>
<trkpt lat="46.017112" lon="9.808194">
	<ele>1841.60</ele>
	<time>2022-06-28T07:18:44.000Z</time>
</trkpt>
<trkpt lat="46.017117" lon="9.808222">
	<ele>1842.80</ele>
	<time>2022-06-28T07:18:49.000Z</time>
</trkpt>
<trkpt lat="46.017114" lon="9.808271">
	<ele>1843.40</ele>
	<time>2022-06-28T07:18:55.000Z</time>
</trkpt>
<trkpt lat="46.017108" lon="9.808277">
	<ele>1843.60</ele>
	<time>2022-06-28T07:18:57.000Z</time>
</trkpt>
<trkpt lat="46.017105" lon="9.808283">
	<ele>1843.80</ele>
	<time>2022-06-28T07:18:59.000Z</time>
</trkpt>
<trkpt lat="46.017101" lon="9.808295">
	<ele>1844.00</ele>
	<time>2022-06-28T07:19:01.000Z</time>
</trkpt>
<trkpt lat="46.017098" lon="9.808328">
	<ele>1845.00</ele>
	<time>2022-06-28T07:19:05.000Z</time>
</trkpt>
<trkpt lat="46.017096" lon="9.808389">
	<ele>1846.20</ele>
	<time>2022-06-28T07:19:13.000Z</time>
</trkpt>
<trkpt lat="46.017103" lon="9.808401">
	<ele>1846.80</ele>
	<time>2022-06-28T07:19:16.000Z</time>
</trkpt>
<trkpt lat="46.017086" lon="9.808444">
	<ele>1847.40</ele>
	<time>2022-06-28T07:19:23.000Z</time>
</trkpt>
<trkpt lat="46.017094" lon="9.808464">
	<ele>1847.60</ele>
	<time>2022-06-28T07:19:25.000Z</time>
</trkpt>
<trkpt lat="46.017106" lon="9.808522">
	<ele>1848.60</ele>
	<time>2022-06-28T07:19:32.000Z</time>
</trkpt>
<trkpt lat="46.017100" lon="9.808541">
	<ele>1848.80</ele>
	<time>2022-06-28T07:19:34.000Z</time>
</trkpt>
<trkpt lat="46.017101" lon="9.808565">
	<ele>1849.00</ele>
	<time>2022-06-28T07:19:37.000Z</time>
</trkpt>
<trkpt lat="46.017102" lon="9.808600">
	<ele>1849.60</ele>
	<time>2022-06-28T07:19:41.000Z</time>
</trkpt>
<trkpt lat="46.017103" lon="9.808608">
	<ele>1850.00</ele>
	<time>2022-06-28T07:19:42.000Z</time>
</trkpt>
<trkpt lat="46.017107" lon="9.808613">
	<ele>1850.20</ele>
	<time>2022-06-28T07:19:43.000Z</time>
</trkpt>
<trkpt lat="46.017113" lon="9.808612">
	<ele>1850.40</ele>
	<time>2022-06-28T07:19:44.000Z</time>
</trkpt>
<trkpt lat="46.017126" lon="9.808607">
	<ele>1850.80</ele>
	<time>2022-06-28T07:19:46.000Z</time>
</trkpt>
<trkpt lat="46.017127" lon="9.808601">
	<ele>1850.80</ele>
	<time>2022-06-28T07:19:47.000Z</time>
</trkpt>
<trkpt lat="46.017135" lon="9.808593">
	<ele>1851.00</ele>
	<time>2022-06-28T07:19:49.000Z</time>
</trkpt>
<trkpt lat="46.017138" lon="9.808587">
	<ele>1851.00</ele>
	<time>2022-06-28T07:19:50.000Z</time>
</trkpt>
<trkpt lat="46.017148" lon="9.808569">
	<ele>1851.20</ele>
	<time>2022-06-28T07:19:53.000Z</time>
</trkpt>
<trkpt lat="46.017158" lon="9.808536">
	<ele>1851.80</ele>
	<time>2022-06-28T07:19:58.000Z</time>
</trkpt>
<trkpt lat="46.017173" lon="9.808530">
	<ele>1853.00</ele>
	<time>2022-06-28T07:20:04.000Z</time>
</trkpt>
<trkpt lat="46.017176" lon="9.808523">
	<ele>1853.20</ele>
	<time>2022-06-28T07:20:07.000Z</time>
</trkpt>
<trkpt lat="46.017183" lon="9.808506">
	<ele>1854.00</ele>
	<time>2022-06-28T07:20:13.000Z</time>
</trkpt>
<trkpt lat="46.017196" lon="9.808501">
	<ele>1854.40</ele>
	<time>2022-06-28T07:20:16.000Z</time>
</trkpt>
<trkpt lat="46.017211" lon="9.808491">
	<ele>1855.20</ele>
	<time>2022-06-28T07:20:21.000Z</time>
</trkpt>
<trkpt lat="46.017221" lon="9.808466">
	<ele>1855.40</ele>
	<time>2022-06-28T07:20:23.000Z</time>
</trkpt>
<trkpt lat="46.017258" lon="9.808415">
	<ele>1855.80</ele>
	<time>2022-06-28T07:20:29.000Z</time>
</trkpt>
<trkpt lat="46.017266" lon="9.808391">
	<ele>1856.00</ele>
	<time>2022-06-28T07:20:31.000Z</time>
</trkpt>
<trkpt lat="46.017272" lon="9.808384">
	<ele>1856.20</ele>
	<time>2022-06-28T07:20:32.000Z</time>
</trkpt>
<trkpt lat="46.017316" lon="9.808357">
	<ele>1857.00</ele>
	<time>2022-06-28T07:20:39.000Z</time>
</trkpt>
<trkpt lat="46.017334" lon="9.808350">
	<ele>1857.20</ele>
	<time>2022-06-28T07:20:41.000Z</time>
</trkpt>
<trkpt lat="46.017347" lon="9.808337">
	<ele>1858.00</ele>
	<time>2022-06-28T07:20:46.000Z</time>
</trkpt>
<trkpt lat="46.017361" lon="9.808318">
	<ele>1858.20</ele>
	<time>2022-06-28T07:20:49.000Z</time>
</trkpt>
<trkpt lat="46.017388" lon="9.808297">
	<ele>1858.80</ele>
	<time>2022-06-28T07:20:54.000Z</time>
</trkpt>
<trkpt lat="46.017408" lon="9.808286">
	<ele>1859.00</ele>
	<time>2022-06-28T07:20:57.000Z</time>
</trkpt>
<trkpt lat="46.017422" lon="9.808279">
	<ele>1859.20</ele>
	<time>2022-06-28T07:20:59.000Z</time>
</trkpt>
<trkpt lat="46.017429" lon="9.808273">
	<ele>1859.40</ele>
	<time>2022-06-28T07:21:00.000Z</time>
</trkpt>
<trkpt lat="46.017448" lon="9.808255">
	<ele>1859.80</ele>
	<time>2022-06-28T07:21:03.000Z</time>
</trkpt>
<trkpt lat="46.017451" lon="9.808249">
	<ele>1860.00</ele>
	<time>2022-06-28T07:21:04.000Z</time>
</trkpt>
<trkpt lat="46.017462" lon="9.808241">
	<ele>1860.00</ele>
	<time>2022-06-28T07:21:06.000Z</time>
</trkpt>
<trkpt lat="46.017468" lon="9.808237">
	<ele>1860.20</ele>
	<time>2022-06-28T07:21:07.000Z</time>
</trkpt>
<trkpt lat="46.017472" lon="9.808234">
	<ele>1860.40</ele>
	<time>2022-06-28T07:21:08.000Z</time>
</trkpt>
<trkpt lat="46.017492" lon="9.808238">
	<ele>1860.60</ele>
	<time>2022-06-28T07:21:12.000Z</time>
</trkpt>
<trkpt lat="46.017499" lon="9.808233">
	<ele>1861.00</ele>
	<time>2022-06-28T07:21:14.000Z</time>
</trkpt>
<trkpt lat="46.017512" lon="9.808236">
	<ele>1861.20</ele>
	<time>2022-06-28T07:21:21.000Z</time>
</trkpt>
<trkpt lat="46.017510" lon="9.808206">
	<ele>1861.00</ele>
	<time>2022-06-28T07:21:32.000Z</time>
</trkpt>
<trkpt lat="46.017510" lon="9.808206">
	<ele>1861.00</ele>
	<time>2022-06-28T07:21:36.000Z</time>
</trkpt>
<trkpt lat="46.017510" lon="9.808206">
	<ele>1860.80</ele>
	<time>2022-06-28T07:21:39.000Z</time>
</trkpt>
<trkpt lat="46.017523" lon="9.808188">
	<ele>1860.00</ele>
	<time>2022-06-28T07:21:46.000Z</time>
</trkpt>
<trkpt lat="46.017547" lon="9.808173">
	<ele>1859.80</ele>
	<time>2022-06-28T07:21:48.000Z</time>
</trkpt>
<trkpt lat="46.017565" lon="9.808155">
	<ele>1859.20</ele>
	<time>2022-06-28T07:21:50.000Z</time>
</trkpt>
<trkpt lat="46.017575" lon="9.808152">
	<ele>1859.00</ele>
	<time>2022-06-28T07:21:51.000Z</time>
</trkpt>
<trkpt lat="46.017590" lon="9.808148">
	<ele>1858.00</ele>
	<time>2022-06-28T07:21:55.000Z</time>
</trkpt>
<trkpt lat="46.017588" lon="9.808173">
	<ele>1857.60</ele>
	<time>2022-06-28T07:21:58.000Z</time>
</trkpt>
<trkpt lat="46.017572" lon="9.808205">
	<ele>1856.80</ele>
	<time>2022-06-28T07:22:01.000Z</time>
</trkpt>
<trkpt lat="46.017556" lon="9.808224">
	<ele>1856.20</ele>
	<time>2022-06-28T07:22:04.000Z</time>
</trkpt>
<trkpt lat="46.017547" lon="9.808238">
	<ele>1855.80</ele>
	<time>2022-06-28T07:22:06.000Z</time>
</trkpt>
<trkpt lat="46.017541" lon="9.808259">
	<ele>1855.00</ele>
	<time>2022-06-28T07:22:09.000Z</time>
</trkpt>
<trkpt lat="46.017541" lon="9.808290">
	<ele>1854.60</ele>
	<time>2022-06-28T07:22:11.000Z</time>
</trkpt>
<trkpt lat="46.017542" lon="9.808303">
	<ele>1854.20</ele>
	<time>2022-06-28T07:22:12.000Z</time>
</trkpt>
<trkpt lat="46.017545" lon="9.808341">
	<ele>1853.40</ele>
	<time>2022-06-28T07:22:15.000Z</time>
</trkpt>
<trkpt lat="46.017546" lon="9.808426">
	<ele>1852.20</ele>
	<time>2022-06-28T07:22:20.000Z</time>
</trkpt>
<trkpt lat="46.017546" lon="9.808437">
	<ele>1852.00</ele>
	<time>2022-06-28T07:22:21.000Z</time>
</trkpt>
<trkpt lat="46.017554" lon="9.808504">
	<ele>1851.20</ele>
	<time>2022-06-28T07:22:26.000Z</time>
</trkpt>
<trkpt lat="46.017568" lon="9.808520">
	<ele>1851.00</ele>
	<time>2022-06-28T07:22:28.000Z</time>
</trkpt>
<trkpt lat="46.017563" lon="9.808532">
	<ele>1850.20</ele>
	<time>2022-06-28T07:22:31.000Z</time>
</trkpt>
<trkpt lat="46.017572" lon="9.808577">
	<ele>1849.00</ele>
	<time>2022-06-28T07:22:35.000Z</time>
</trkpt>
<trkpt lat="46.017572" lon="9.808584">
	<ele>1849.00</ele>
	<time>2022-06-28T07:22:36.000Z</time>
</trkpt>
<trkpt lat="46.017575" lon="9.808594">
	<ele>1848.60</ele>
	<time>2022-06-28T07:22:37.000Z</time>
</trkpt>
<trkpt lat="46.017582" lon="9.808610">
	<ele>1848.20</ele>
	<time>2022-06-28T07:22:39.000Z</time>
</trkpt>
<trkpt lat="46.017586" lon="9.808622">
	<ele>1848.00</ele>
	<time>2022-06-28T07:22:40.000Z</time>
</trkpt>
<trkpt lat="46.017587" lon="9.808642">
	<ele>1847.40</ele>
	<time>2022-06-28T07:22:42.000Z</time>
</trkpt>
<trkpt lat="46.017584" lon="9.808661">
	<ele>1847.00</ele>
	<time>2022-06-28T07:22:44.000Z</time>
</trkpt>
<trkpt lat="46.017582" lon="9.808690">
	<ele>1846.40</ele>
	<time>2022-06-28T07:22:47.000Z</time>
</trkpt>
<trkpt lat="46.017573" lon="9.808722">
	<ele>1845.80</ele>
	<time>2022-06-28T07:22:50.000Z</time>
</trkpt>
<trkpt lat="46.017571" lon="9.808733">
	<ele>1845.60</ele>
	<time>2022-06-28T07:22:51.000Z</time>
</trkpt>
<trkpt lat="46.017572" lon="9.808748">
	<ele>1845.00</ele>
	<time>2022-06-28T07:22:53.000Z</time>
</trkpt>
<trkpt lat="46.017575" lon="9.808759">
	<ele>1844.60</ele>
	<time>2022-06-28T07:22:54.000Z</time>
</trkpt>
<trkpt lat="46.017577" lon="9.808811">
	<ele>1843.80</ele>
	<time>2022-06-28T07:22:58.000Z</time>
</trkpt>
<trkpt lat="46.017579" lon="9.808823">
	<ele>1843.60</ele>
	<time>2022-06-28T07:22:59.000Z</time>
</trkpt>
<trkpt lat="46.017590" lon="9.808852">
	<ele>1843.00</ele>
	<time>2022-06-28T07:23:02.000Z</time>
</trkpt>
<trkpt lat="46.017595" lon="9.808903">
	<ele>1842.60</ele>
	<time>2022-06-28T07:23:04.000Z</time>
</trkpt>
<trkpt lat="46.017584" lon="9.808914">
	<ele>1842.20</ele>
	<time>2022-06-28T07:23:06.000Z</time>
</trkpt>
<trkpt lat="46.017598" lon="9.808952">
	<ele>1841.60</ele>
	<time>2022-06-28T07:23:09.000Z</time>
</trkpt>
<trkpt lat="46.017607" lon="9.808962">
	<ele>1841.40</ele>
	<time>2022-06-28T07:23:10.000Z</time>
</trkpt>
<trkpt lat="46.017622" lon="9.808987">
	<ele>1841.40</ele>
	<time>2022-06-28T07:23:12.000Z</time>
</trkpt>
<trkpt lat="46.017627" lon="9.809025">
	<ele>1841.00</ele>
	<time>2022-06-28T07:23:15.000Z</time>
</trkpt>
<trkpt lat="46.017617" lon="9.809062">
	<ele>1840.40</ele>
	<time>2022-06-28T07:23:18.000Z</time>
</trkpt>
<trkpt lat="46.017615" lon="9.809063">
	<ele>1840.40</ele>
	<time>2022-06-28T07:23:19.000Z</time>
</trkpt>
<trkpt lat="46.017609" lon="9.809056">
	<ele>1840.00</ele>
	<time>2022-06-28T07:23:22.000Z</time>
</trkpt>
<trkpt lat="46.017608" lon="9.809060">
	<ele>1840.00</ele>
	<time>2022-06-28T07:23:25.000Z</time>
</trkpt>
<trkpt lat="46.017614" lon="9.809062">
	<ele>1840.40</ele>
	<time>2022-06-28T07:23:32.000Z</time>
</trkpt>
<trkpt lat="46.017613" lon="9.809056">
	<ele>1840.00</ele>
	<time>2022-06-28T07:23:35.000Z</time>
</trkpt>
<trkpt lat="46.017613" lon="9.809056">
	<ele>1839.40</ele>
	<time>2022-06-28T07:23:40.000Z</time>
</trkpt>
<trkpt lat="46.017607" lon="9.809065">
	<ele>1838.00</ele>
	<time>2022-06-28T07:23:49.000Z</time>
</trkpt>
<trkpt lat="46.017600" lon="9.809069">
	<ele>1836.80</ele>
	<time>2022-06-28T07:23:54.000Z</time>
</trkpt>
<trkpt lat="46.017578" lon="9.809125">
	<ele>1835.60</ele>
	<time>2022-06-28T07:24:00.000Z</time>
</trkpt>
<trkpt lat="46.017559" lon="9.809150">
	<ele>1835.40</ele>
	<time>2022-06-28T07:24:02.000Z</time>
</trkpt>
<trkpt lat="46.017549" lon="9.809251">
	<ele>1834.60</ele>
	<time>2022-06-28T07:24:08.000Z</time>
</trkpt>
<trkpt lat="46.017554" lon="9.809257">
	<ele>1834.40</ele>
	<time>2022-06-28T07:24:09.000Z</time>
</trkpt>
<trkpt lat="46.017543" lon="9.809293">
	<ele>1833.00</ele>
	<time>2022-06-28T07:24:14.000Z</time>
</trkpt>
<trkpt lat="46.017543" lon="9.809326">
	<ele>1832.40</ele>
	<time>2022-06-28T07:24:16.000Z</time>
</trkpt>
<trkpt lat="46.017538" lon="9.809359">
	<ele>1832.00</ele>
	<time>2022-06-28T07:24:18.000Z</time>
</trkpt>
<trkpt lat="46.017530" lon="9.809419">
	<ele>1831.80</ele>
	<time>2022-06-28T07:24:22.000Z</time>
</trkpt>
<trkpt lat="46.017526" lon="9.809428">
	<ele>1831.80</ele>
	<time>2022-06-28T07:24:23.000Z</time>
</trkpt>
<trkpt lat="46.017490" lon="9.809530">
	<ele>1831.00</ele>
	<time>2022-06-28T07:24:30.000Z</time>
</trkpt>
<trkpt lat="46.017491" lon="9.809559">
	<ele>1830.80</ele>
	<time>2022-06-28T07:24:32.000Z</time>
</trkpt>
<trkpt lat="46.017511" lon="9.809692">
	<ele>1830.00</ele>
	<time>2022-06-28T07:24:41.000Z</time>
</trkpt>
<trkpt lat="46.017502" lon="9.809720">
	<ele>1829.80</ele>
	<time>2022-06-28T07:24:43.000Z</time>
</trkpt>
<trkpt lat="46.017491" lon="9.809752">
	<ele>1829.60</ele>
	<time>2022-06-28T07:24:47.000Z</time>
</trkpt>
<trkpt lat="46.017498" lon="9.809756">
	<ele>1829.40</ele>
	<time>2022-06-28T07:24:48.000Z</time>
</trkpt>
<trkpt lat="46.017501" lon="9.809764">
	<ele>1828.80</ele>
	<time>2022-06-28T07:24:51.000Z</time>
</trkpt>
<trkpt lat="46.017504" lon="9.809791">
	<ele>1828.20</ele>
	<time>2022-06-28T07:24:54.000Z</time>
</trkpt>
<trkpt lat="46.017511" lon="9.809815">
	<ele>1827.60</ele>
	<time>2022-06-28T07:24:56.000Z</time>
</trkpt>
<trkpt lat="46.017514" lon="9.809831">
	<ele>1827.40</ele>
	<time>2022-06-28T07:24:57.000Z</time>
</trkpt>
<trkpt lat="46.017512" lon="9.809893">
	<ele>1826.40</ele>
	<time>2022-06-28T07:25:02.000Z</time>
</trkpt>
<trkpt lat="46.017503" lon="9.810028">
	<ele>1825.60</ele>
	<time>2022-06-28T07:25:12.000Z</time>
</trkpt>
<trkpt lat="46.017502" lon="9.810064">
	<ele>1825.80</ele>
	<time>2022-06-28T07:25:15.000Z</time>
</trkpt>
<trkpt lat="46.017492" lon="9.810119">
	<ele>1825.60</ele>
	<time>2022-06-28T07:25:19.000Z</time>
</trkpt>
<trkpt lat="46.017491" lon="9.810128">
	<ele>1825.40</ele>
	<time>2022-06-28T07:25:20.000Z</time>
</trkpt>
<trkpt lat="46.017488" lon="9.810138">
	<ele>1825.20</ele>
	<time>2022-06-28T07:25:21.000Z</time>
</trkpt>
<trkpt lat="46.017489" lon="9.810158">
	<ele>1824.60</ele>
	<time>2022-06-28T07:25:24.000Z</time>
</trkpt>
<trkpt lat="46.017488" lon="9.810176">
	<ele>1824.40</ele>
	<time>2022-06-28T07:25:26.000Z</time>
</trkpt>
<trkpt lat="46.017488" lon="9.810186">
	<ele>1824.00</ele>
	<time>2022-06-28T07:25:27.000Z</time>
</trkpt>
<trkpt lat="46.017494" lon="9.810247">
	<ele>1823.20</ele>
	<time>2022-06-28T07:25:33.000Z</time>
</trkpt>
<trkpt lat="46.017494" lon="9.810256">
	<ele>1823.00</ele>
	<time>2022-06-28T07:25:34.000Z</time>
</trkpt>
<trkpt lat="46.017499" lon="9.810291">
	<ele>1821.80</ele>
	<time>2022-06-28T07:25:39.000Z</time>
</trkpt>
<trkpt lat="46.017499" lon="9.810321">
	<ele>1821.00</ele>
	<time>2022-06-28T07:25:42.000Z</time>
</trkpt>
<trkpt lat="46.017496" lon="9.810330">
	<ele>1820.80</ele>
	<time>2022-06-28T07:25:43.000Z</time>
</trkpt>
<trkpt lat="46.017505" lon="9.810374">
	<ele>1819.60</ele>
	<time>2022-06-28T07:25:47.000Z</time>
</trkpt>
<trkpt lat="46.017517" lon="9.810423">
	<ele>1818.60</ele>
	<time>2022-06-28T07:25:51.000Z</time>
</trkpt>
<trkpt lat="46.017510" lon="9.810487">
	<ele>1817.60</ele>
	<time>2022-06-28T07:25:57.000Z</time>
</trkpt>
<trkpt lat="46.017498" lon="9.810535">
	<ele>1817.00</ele>
	<time>2022-06-28T07:26:01.000Z</time>
</trkpt>
<trkpt lat="46.017495" lon="9.810594">
	<ele>1816.40</ele>
	<time>2022-06-28T07:26:06.000Z</time>
</trkpt>
<trkpt lat="46.017488" lon="9.810654">
	<ele>1815.80</ele>
	<time>2022-06-28T07:26:10.000Z</time>
</trkpt>
<trkpt lat="46.017487" lon="9.810681">
	<ele>1815.20</ele>
	<time>2022-06-28T07:26:12.000Z</time>
</trkpt>
<trkpt lat="46.017481" lon="9.810734">
	<ele>1814.20</ele>
	<time>2022-06-28T07:26:17.000Z</time>
</trkpt>
<trkpt lat="46.017481" lon="9.810783">
	<ele>1813.20</ele>
	<time>2022-06-28T07:26:20.000Z</time>
</trkpt>
<trkpt lat="46.017485" lon="9.810796">
	<ele>1813.00</ele>
	<time>2022-06-28T07:26:21.000Z</time>
</trkpt>
<trkpt lat="46.017490" lon="9.810821">
	<ele>1812.80</ele>
	<time>2022-06-28T07:26:23.000Z</time>
</trkpt>
<trkpt lat="46.017486" lon="9.810857">
	<ele>1812.00</ele>
	<time>2022-06-28T07:26:25.000Z</time>
</trkpt>
<trkpt lat="46.017481" lon="9.810876">
	<ele>1811.80</ele>
	<time>2022-06-28T07:26:26.000Z</time>
</trkpt>
<trkpt lat="46.017457" lon="9.810954">
	<ele>1811.00</ele>
	<time>2022-06-28T07:26:32.000Z</time>
</trkpt>
<trkpt lat="46.017461" lon="9.810965">
	<ele>1810.80</ele>
	<time>2022-06-28T07:26:33.000Z</time>
</trkpt>
<trkpt lat="46.017466" lon="9.810970">
	<ele>1810.60</ele>
	<time>2022-06-28T07:26:34.000Z</time>
</trkpt>
<trkpt lat="46.017484" lon="9.810978">
	<ele>1809.80</ele>
	<time>2022-06-28T07:26:37.000Z</time>
</trkpt>
<trkpt lat="46.017539" lon="9.810968">
	<ele>1808.60</ele>
	<time>2022-06-28T07:26:41.000Z</time>
</trkpt>
<trkpt lat="46.017557" lon="9.810946">
	<ele>1808.20</ele>
	<time>2022-06-28T07:26:43.000Z</time>
</trkpt>
<trkpt lat="46.017560" lon="9.810919">
	<ele>1807.60</ele>
	<time>2022-06-28T07:26:45.000Z</time>
</trkpt>
<trkpt lat="46.017564" lon="9.810905">
	<ele>1807.60</ele>
	<time>2022-06-28T07:26:46.000Z</time>
</trkpt>
<trkpt lat="46.017567" lon="9.810895">
	<ele>1807.40</ele>
	<time>2022-06-28T07:26:47.000Z</time>
</trkpt>
<trkpt lat="46.017591" lon="9.810855">
	<ele>1806.40</ele>
	<time>2022-06-28T07:26:51.000Z</time>
</trkpt>
<trkpt lat="46.017609" lon="9.810828">
	<ele>1805.80</ele>
	<time>2022-06-28T07:26:54.000Z</time>
</trkpt>
<trkpt lat="46.017618" lon="9.810809">
	<ele>1805.40</ele>
	<time>2022-06-28T07:26:56.000Z</time>
</trkpt>
<trkpt lat="46.017628" lon="9.810789">
	<ele>1804.80</ele>
	<time>2022-06-28T07:26:58.000Z</time>
</trkpt>
<trkpt lat="46.017632" lon="9.810744">
	<ele>1804.20</ele>
	<time>2022-06-28T07:27:01.000Z</time>
</trkpt>
<trkpt lat="46.017633" lon="9.810736">
	<ele>1804.20</ele>
	<time>2022-06-28T07:27:02.000Z</time>
</trkpt>
<trkpt lat="46.017645" lon="9.810706">
	<ele>1803.60</ele>
	<time>2022-06-28T07:27:05.000Z</time>
</trkpt>
<trkpt lat="46.017647" lon="9.810673">
	<ele>1803.20</ele>
	<time>2022-06-28T07:27:07.000Z</time>
</trkpt>
<trkpt lat="46.017647" lon="9.810662">
	<ele>1803.00</ele>
	<time>2022-06-28T07:27:08.000Z</time>
</trkpt>
<trkpt lat="46.017653" lon="9.810648">
	<ele>1802.80</ele>
	<time>2022-06-28T07:27:09.000Z</time>
</trkpt>
<trkpt lat="46.017655" lon="9.810633">
	<ele>1802.80</ele>
	<time>2022-06-28T07:27:10.000Z</time>
</trkpt>
<trkpt lat="46.017669" lon="9.810608">
	<ele>1802.00</ele>
	<time>2022-06-28T07:27:13.000Z</time>
</trkpt>
<trkpt lat="46.017694" lon="9.810573">
	<ele>1800.80</ele>
	<time>2022-06-28T07:27:17.000Z</time>
</trkpt>
<trkpt lat="46.017697" lon="9.810563">
	<ele>1800.60</ele>
	<time>2022-06-28T07:27:18.000Z</time>
</trkpt>
<trkpt lat="46.017701" lon="9.810542">
	<ele>1799.80</ele>
	<time>2022-06-28T07:27:21.000Z</time>
</trkpt>
<trkpt lat="46.017705" lon="9.810534">
	<ele>1799.60</ele>
	<time>2022-06-28T07:27:22.000Z</time>
</trkpt>
<trkpt lat="46.017728" lon="9.810512">
	<ele>1799.00</ele>
	<time>2022-06-28T07:27:25.000Z</time>
</trkpt>
<trkpt lat="46.017736" lon="9.810502">
	<ele>1798.80</ele>
	<time>2022-06-28T07:27:26.000Z</time>
</trkpt>
<trkpt lat="46.017768" lon="9.810442">
	<ele>1797.60</ele>
	<time>2022-06-28T07:27:32.000Z</time>
</trkpt>
<trkpt lat="46.017777" lon="9.810433">
	<ele>1797.40</ele>
	<time>2022-06-28T07:27:33.000Z</time>
</trkpt>
<trkpt lat="46.017791" lon="9.810404">
	<ele>1797.00</ele>
	<time>2022-06-28T07:27:36.000Z</time>
</trkpt>
<trkpt lat="46.017801" lon="9.810374">
	<ele>1796.60</ele>
	<time>2022-06-28T07:27:38.000Z</time>
</trkpt>
<trkpt lat="46.017815" lon="9.810349">
	<ele>1796.00</ele>
	<time>2022-06-28T07:27:42.000Z</time>
</trkpt>
<trkpt lat="46.017813" lon="9.810348">
	<ele>1796.00</ele>
	<time>2022-06-28T07:27:43.000Z</time>
</trkpt>
<trkpt lat="46.017813" lon="9.810344">
	<ele>1795.60</ele>
	<time>2022-06-28T07:27:47.000Z</time>
</trkpt>
<trkpt lat="46.017796" lon="9.810275">
	<ele>1795.40</ele>
	<time>2022-06-28T07:27:57.000Z</time>
</trkpt>
<trkpt lat="46.017796" lon="9.810269">
	<ele>1795.20</ele>
	<time>2022-06-28T07:28:02.000Z</time>
</trkpt>
<trkpt lat="46.017823" lon="9.810281">
	<ele>1795.00</ele>
	<time>2022-06-28T07:28:28.000Z</time>
</trkpt>
<trkpt lat="46.017829" lon="9.810281">
	<ele>1794.60</ele>
	<time>2022-06-28T07:28:34.000Z</time>
</trkpt>
<trkpt lat="46.017847" lon="9.810234">
	<ele>1793.40</ele>
	<time>2022-06-28T07:28:40.000Z</time>
</trkpt>
<trkpt lat="46.017853" lon="9.810221">
	<ele>1793.00</ele>
	<time>2022-06-28T07:28:41.000Z</time>
</trkpt>
<trkpt lat="46.017897" lon="9.810147">
	<ele>1792.20</ele>
	<time>2022-06-28T07:28:46.000Z</time>
</trkpt>
<trkpt lat="46.017902" lon="9.810147">
	<ele>1791.80</ele>
	<time>2022-06-28T07:28:49.000Z</time>
</trkpt>
<trkpt lat="46.017900" lon="9.810166">
	<ele>1791.00</ele>
	<time>2022-06-28T07:28:51.000Z</time>
</trkpt>
<trkpt lat="46.017887" lon="9.810201">
	<ele>1790.40</ele>
	<time>2022-06-28T07:28:53.000Z</time>
</trkpt>
<trkpt lat="46.017882" lon="9.810220">
	<ele>1790.20</ele>
	<time>2022-06-28T07:28:54.000Z</time>
</trkpt>
<trkpt lat="46.017880" lon="9.810235">
	<ele>1789.80</ele>
	<time>2022-06-28T07:28:55.000Z</time>
</trkpt>
<trkpt lat="46.017884" lon="9.810301">
	<ele>1789.20</ele>
	<time>2022-06-28T07:28:59.000Z</time>
</trkpt>
<trkpt lat="46.017903" lon="9.810304">
	<ele>1788.60</ele>
	<time>2022-06-28T07:29:01.000Z</time>
</trkpt>
<trkpt lat="46.017916" lon="9.810295">
	<ele>1788.40</ele>
	<time>2022-06-28T07:29:02.000Z</time>
</trkpt>
<trkpt lat="46.017929" lon="9.810263">
	<ele>1787.60</ele>
	<time>2022-06-28T07:29:05.000Z</time>
</trkpt>
<trkpt lat="46.017943" lon="9.810225">
	<ele>1787.00</ele>
	<time>2022-06-28T07:29:08.000Z</time>
</trkpt>
<trkpt lat="46.017950" lon="9.810191">
	<ele>1786.40</ele>
	<time>2022-06-28T07:29:11.000Z</time>
</trkpt>
<trkpt lat="46.017960" lon="9.810180">
	<ele>1785.60</ele>
	<time>2022-06-28T07:29:14.000Z</time>
</trkpt>
<trkpt lat="46.017965" lon="9.810166">
	<ele>1785.20</ele>
	<time>2022-06-28T07:29:16.000Z</time>
</trkpt>
<trkpt lat="46.017979" lon="9.810188">
	<ele>1784.20</ele>
	<time>2022-06-28T07:29:20.000Z</time>
</trkpt>
<trkpt lat="46.017980" lon="9.810198">
	<ele>1784.20</ele>
	<time>2022-06-28T07:29:21.000Z</time>
</trkpt>
<trkpt lat="46.017992" lon="9.810248">
	<ele>1782.80</ele>
	<time>2022-06-28T07:29:25.000Z</time>
</trkpt>
<trkpt lat="46.017996" lon="9.810270">
	<ele>1782.20</ele>
	<time>2022-06-28T07:29:27.000Z</time>
</trkpt>
<trkpt lat="46.018004" lon="9.810295">
	<ele>1781.80</ele>
	<time>2022-06-28T07:29:29.000Z</time>
</trkpt>
<trkpt lat="46.018003" lon="9.810313">
	<ele>1781.20</ele>
	<time>2022-06-28T07:29:31.000Z</time>
</trkpt>
<trkpt lat="46.018000" lon="9.810359">
	<ele>1780.60</ele>
	<time>2022-06-28T07:29:35.000Z</time>
</trkpt>
<trkpt lat="46.018006" lon="9.810384">
	<ele>1780.40</ele>
	<time>2022-06-28T07:29:37.000Z</time>
</trkpt>
<trkpt lat="46.018031" lon="9.810448">
	<ele>1779.40</ele>
	<time>2022-06-28T07:29:42.000Z</time>
</trkpt>
<trkpt lat="46.018036" lon="9.810471">
	<ele>1779.00</ele>
	<time>2022-06-28T07:29:44.000Z</time>
</trkpt>
<trkpt lat="46.018051" lon="9.810501">
	<ele>1778.20</ele>
	<time>2022-06-28T07:29:47.000Z</time>
</trkpt>
<trkpt lat="46.018059" lon="9.810567">
	<ele>1777.20</ele>
	<time>2022-06-28T07:29:52.000Z</time>
</trkpt>
<trkpt lat="46.018053" lon="9.810626">
	<ele>1776.00</ele>
	<time>2022-06-28T07:29:57.000Z</time>
</trkpt>
<trkpt lat="46.018058" lon="9.810641">
	<ele>1775.60</ele>
	<time>2022-06-28T07:29:59.000Z</time>
</trkpt>
<trkpt lat="46.018054" lon="9.810676">
	<ele>1775.00</ele>
	<time>2022-06-28T07:30:02.000Z</time>
</trkpt>
<trkpt lat="46.018051" lon="9.810715">
	<ele>1774.60</ele>
	<time>2022-06-28T07:30:05.000Z</time>
</trkpt>
<trkpt lat="46.018048" lon="9.810729">
	<ele>1774.00</ele>
	<time>2022-06-28T07:30:06.000Z</time>
</trkpt>
<trkpt lat="46.018046" lon="9.810743">
	<ele>1773.80</ele>
	<time>2022-06-28T07:30:07.000Z</time>
</trkpt>
<trkpt lat="46.018048" lon="9.810806">
	<ele>1772.60</ele>
	<time>2022-06-28T07:30:12.000Z</time>
</trkpt>
<trkpt lat="46.018052" lon="9.810816">
	<ele>1772.60</ele>
	<time>2022-06-28T07:30:13.000Z</time>
</trkpt>
<trkpt lat="46.018058" lon="9.810826">
	<ele>1772.20</ele>
	<time>2022-06-28T07:30:14.000Z</time>
</trkpt>
<trkpt lat="46.018052" lon="9.810863">
	<ele>1771.80</ele>
	<time>2022-06-28T07:30:17.000Z</time>
</trkpt>
<trkpt lat="46.018049" lon="9.810876">
	<ele>1771.60</ele>
	<time>2022-06-28T07:30:18.000Z</time>
</trkpt>
<trkpt lat="46.018051" lon="9.810895">
	<ele>1771.20</ele>
	<time>2022-06-28T07:30:20.000Z</time>
</trkpt>
<trkpt lat="46.018046" lon="9.810916">
	<ele>1770.80</ele>
	<time>2022-06-28T07:30:22.000Z</time>
</trkpt>
<trkpt lat="46.018038" lon="9.810944">
	<ele>1770.40</ele>
	<time>2022-06-28T07:30:24.000Z</time>
</trkpt>
<trkpt lat="46.018035" lon="9.810984">
	<ele>1769.80</ele>
	<time>2022-06-28T07:30:27.000Z</time>
</trkpt>
<trkpt lat="46.018035" lon="9.811019">
	<ele>1769.40</ele>
	<time>2022-06-28T07:30:29.000Z</time>
</trkpt>
<trkpt lat="46.018033" lon="9.811075">
	<ele>1768.60</ele>
	<time>2022-06-28T07:30:33.000Z</time>
</trkpt>
<trkpt lat="46.018032" lon="9.811117">
	<ele>1768.20</ele>
	<time>2022-06-28T07:30:36.000Z</time>
</trkpt>
<trkpt lat="46.017991" lon="9.811219">
	<ele>1767.20</ele>
	<time>2022-06-28T07:30:44.000Z</time>
</trkpt>
<trkpt lat="46.017988" lon="9.811229">
	<ele>1767.20</ele>
	<time>2022-06-28T07:30:45.000Z</time>
</trkpt>
<trkpt lat="46.017982" lon="9.811289">
	<ele>1766.40</ele>
	<time>2022-06-28T07:30:49.000Z</time>
</trkpt>
<trkpt lat="46.017988" lon="9.811321">
	<ele>1766.00</ele>
	<time>2022-06-28T07:30:51.000Z</time>
</trkpt>
<trkpt lat="46.017986" lon="9.811339">
	<ele>1765.80</ele>
	<time>2022-06-28T07:30:52.000Z</time>
</trkpt>
<trkpt lat="46.017974" lon="9.811421">
	<ele>1765.20</ele>
	<time>2022-06-28T07:30:58.000Z</time>
</trkpt>
<trkpt lat="46.017973" lon="9.811437">
	<ele>1764.80</ele>
	<time>2022-06-28T07:30:59.000Z</time>
</trkpt>
<trkpt lat="46.017973" lon="9.811447">
	<ele>1764.60</ele>
	<time>2022-06-28T07:31:00.000Z</time>
</trkpt>
<trkpt lat="46.017965" lon="9.811528">
	<ele>1763.80</ele>
	<time>2022-06-28T07:31:06.000Z</time>
</trkpt>
<trkpt lat="46.017946" lon="9.811596">
	<ele>1763.00</ele>
	<time>2022-06-28T07:31:10.000Z</time>
</trkpt>
<trkpt lat="46.017946" lon="9.811629">
	<ele>1762.80</ele>
	<time>2022-06-28T07:31:12.000Z</time>
</trkpt>
<trkpt lat="46.017942" lon="9.811681">
	<ele>1762.80</ele>
	<time>2022-06-28T07:31:16.000Z</time>
</trkpt>
<trkpt lat="46.017950" lon="9.811712">
	<ele>1762.80</ele>
	<time>2022-06-28T07:31:18.000Z</time>
</trkpt>
<trkpt lat="46.017948" lon="9.811726">
	<ele>1762.80</ele>
	<time>2022-06-28T07:31:19.000Z</time>
</trkpt>
<trkpt lat="46.017933" lon="9.811780">
	<ele>1762.20</ele>
	<time>2022-06-28T07:31:24.000Z</time>
</trkpt>
<trkpt lat="46.017933" lon="9.811795">
	<ele>1761.80</ele>
	<time>2022-06-28T07:31:26.000Z</time>
</trkpt>
<trkpt lat="46.017934" lon="9.811800">
	<ele>1761.60</ele>
	<time>2022-06-28T07:31:27.000Z</time>
</trkpt>
<trkpt lat="46.017942" lon="9.811836">
	<ele>1761.20</ele>
	<time>2022-06-28T07:31:30.000Z</time>
</trkpt>
<trkpt lat="46.017940" lon="9.811861">
	<ele>1760.60</ele>
	<time>2022-06-28T07:31:32.000Z</time>
</trkpt>
<trkpt lat="46.017937" lon="9.811880">
	<ele>1760.40</ele>
	<time>2022-06-28T07:31:34.000Z</time>
</trkpt>
<trkpt lat="46.017922" lon="9.811918">
	<ele>1760.20</ele>
	<time>2022-06-28T07:31:38.000Z</time>
</trkpt>
<trkpt lat="46.017926" lon="9.811959">
	<ele>1759.60</ele>
	<time>2022-06-28T07:31:42.000Z</time>
</trkpt>
<trkpt lat="46.017929" lon="9.811986">
	<ele>1759.00</ele>
	<time>2022-06-28T07:31:45.000Z</time>
</trkpt>
<trkpt lat="46.017942" lon="9.812003">
	<ele>1758.20</ele>
	<time>2022-06-28T07:31:48.000Z</time>
</trkpt>
<trkpt lat="46.017965" lon="9.812032">
	<ele>1757.20</ele>
	<time>2022-06-28T07:31:53.000Z</time>
</trkpt>
<trkpt lat="46.017966" lon="9.812041">
	<ele>1757.00</ele>
	<time>2022-06-28T07:31:54.000Z</time>
</trkpt>
<trkpt lat="46.017964" lon="9.812084">
	<ele>1755.80</ele>
	<time>2022-06-28T07:31:59.000Z</time>
</trkpt>
<trkpt lat="46.017969" lon="9.812112">
	<ele>1755.00</ele>
	<time>2022-06-28T07:32:03.000Z</time>
</trkpt>
<trkpt lat="46.017971" lon="9.812119">
	<ele>1754.80</ele>
	<time>2022-06-28T07:32:04.000Z</time>
</trkpt>
<trkpt lat="46.017946" lon="9.812149">
	<ele>1753.60</ele>
	<time>2022-06-28T07:32:10.000Z</time>
</trkpt>
<trkpt lat="46.017936" lon="9.812175">
	<ele>1753.20</ele>
	<time>2022-06-28T07:32:12.000Z</time>
</trkpt>
<trkpt lat="46.017975" lon="9.812214">
	<ele>1752.60</ele>
	<time>2022-06-28T07:32:17.000Z</time>
</trkpt>
<trkpt lat="46.017985" lon="9.812242">
	<ele>1751.80</ele>
	<time>2022-06-28T07:32:19.000Z</time>
</trkpt>
<trkpt lat="46.017988" lon="9.812259">
	<ele>1751.40</ele>
	<time>2022-06-28T07:32:20.000Z</time>
</trkpt>
<trkpt lat="46.017994" lon="9.812333">
	<ele>1750.20</ele>
	<time>2022-06-28T07:32:25.000Z</time>
</trkpt>
<trkpt lat="46.017995" lon="9.812360">
	<ele>1749.80</ele>
	<time>2022-06-28T07:32:28.000Z</time>
</trkpt>
<trkpt lat="46.017981" lon="9.812401">
	<ele>1749.20</ele>
	<time>2022-06-28T07:32:32.000Z</time>
</trkpt>
<trkpt lat="46.017978" lon="9.812450">
	<ele>1748.40</ele>
	<time>2022-06-28T07:32:37.000Z</time>
</trkpt>
<trkpt lat="46.017980" lon="9.812455">
	<ele>1748.20</ele>
	<time>2022-06-28T07:32:38.000Z</time>
</trkpt>
<trkpt lat="46.018001" lon="9.812480">
	<ele>1747.00</ele>
	<time>2022-06-28T07:32:42.000Z</time>
</trkpt>
<trkpt lat="46.018014" lon="9.812490">
	<ele>1746.20</ele>
	<time>2022-06-28T07:32:44.000Z</time>
</trkpt>
<trkpt lat="46.018026" lon="9.812516">
	<ele>1746.00</ele>
	<time>2022-06-28T07:32:46.000Z</time>
</trkpt>
<trkpt lat="46.018029" lon="9.812590">
	<ele>1745.60</ele>
	<time>2022-06-28T07:32:50.000Z</time>
</trkpt>
<trkpt lat="46.018024" lon="9.812600">
	<ele>1745.60</ele>
	<time>2022-06-28T07:32:51.000Z</time>
</trkpt>
<trkpt lat="46.017994" lon="9.812700">
	<ele>1746.00</ele>
	<time>2022-06-28T07:33:00.000Z</time>
</trkpt>
<trkpt lat="46.017987" lon="9.812796">
	<ele>1745.20</ele>
	<time>2022-06-28T07:33:06.000Z</time>
</trkpt>
<trkpt lat="46.017988" lon="9.812805">
	<ele>1744.80</ele>
	<time>2022-06-28T07:33:07.000Z</time>
</trkpt>
<trkpt lat="46.017991" lon="9.812828">
	<ele>1744.40</ele>
	<time>2022-06-28T07:33:10.000Z</time>
</trkpt>
<trkpt lat="46.017996" lon="9.812884">
	<ele>1743.80</ele>
	<time>2022-06-28T07:33:15.000Z</time>
</trkpt>
<trkpt lat="46.017993" lon="9.812915">
	<ele>1743.40</ele>
	<time>2022-06-28T07:33:17.000Z</time>
</trkpt>
<trkpt lat="46.017987" lon="9.812947">
	<ele>1743.00</ele>
	<time>2022-06-28T07:33:19.000Z</time>
</trkpt>
<trkpt lat="46.017978" lon="9.812995">
	<ele>1742.80</ele>
	<time>2022-06-28T07:33:23.000Z</time>
</trkpt>
<trkpt lat="46.017983" lon="9.813035">
	<ele>1742.40</ele>
	<time>2022-06-28T07:33:26.000Z</time>
</trkpt>
<trkpt lat="46.017988" lon="9.813111">
	<ele>1741.80</ele>
	<time>2022-06-28T07:33:31.000Z</time>
</trkpt>
<trkpt lat="46.017993" lon="9.813124">
	<ele>1741.60</ele>
	<time>2022-06-28T07:33:32.000Z</time>
</trkpt>
<trkpt lat="46.017998" lon="9.813137">
	<ele>1741.40</ele>
	<time>2022-06-28T07:33:33.000Z</time>
</trkpt>
<trkpt lat="46.018004" lon="9.813205">
	<ele>1741.00</ele>
	<time>2022-06-28T07:33:37.000Z</time>
</trkpt>
<trkpt lat="46.018004" lon="9.813232">
	<ele>1741.00</ele>
	<time>2022-06-28T07:33:39.000Z</time>
</trkpt>
<trkpt lat="46.018007" lon="9.813247">
	<ele>1740.80</ele>
	<time>2022-06-28T07:33:40.000Z</time>
</trkpt>
<trkpt lat="46.018007" lon="9.813265">
	<ele>1740.60</ele>
	<time>2022-06-28T07:33:41.000Z</time>
</trkpt>
<trkpt lat="46.018011" lon="9.813273">
	<ele>1740.40</ele>
	<time>2022-06-28T07:33:42.000Z</time>
</trkpt>
<trkpt lat="46.018028" lon="9.813340">
	<ele>1739.80</ele>
	<time>2022-06-28T07:33:46.000Z</time>
</trkpt>
<trkpt lat="46.018026" lon="9.813353">
	<ele>1739.60</ele>
	<time>2022-06-28T07:33:47.000Z</time>
</trkpt>
<trkpt lat="46.018023" lon="9.813373">
	<ele>1739.60</ele>
	<time>2022-06-28T07:33:48.000Z</time>
</trkpt>
<trkpt lat="46.018014" lon="9.813453">
	<ele>1739.40</ele>
	<time>2022-06-28T07:33:52.000Z</time>
</trkpt>
<trkpt lat="46.018015" lon="9.813470">
	<ele>1739.20</ele>
	<time>2022-06-28T07:33:53.000Z</time>
</trkpt>
<trkpt lat="46.018006" lon="9.813509">
	<ele>1739.20</ele>
	<time>2022-06-28T07:33:55.000Z</time>
</trkpt>
<trkpt lat="46.017966" lon="9.813584">
	<ele>1739.00</ele>
	<time>2022-06-28T07:34:00.000Z</time>
</trkpt>
<trkpt lat="46.017952" lon="9.813711">
	<ele>1738.60</ele>
	<time>2022-06-28T07:34:07.000Z</time>
</trkpt>
<trkpt lat="46.017949" lon="9.813731">
	<ele>1738.60</ele>
	<time>2022-06-28T07:34:08.000Z</time>
</trkpt>
<trkpt lat="46.017959" lon="9.813818">
	<ele>1738.40</ele>
	<time>2022-06-28T07:34:13.000Z</time>
</trkpt>
<trkpt lat="46.017965" lon="9.813863">
	<ele>1738.20</ele>
	<time>2022-06-28T07:34:16.000Z</time>
</trkpt>
<trkpt lat="46.017963" lon="9.813926">
	<ele>1738.00</ele>
	<time>2022-06-28T07:34:20.000Z</time>
</trkpt>
<trkpt lat="46.017954" lon="9.813974">
	<ele>1737.80</ele>
	<time>2022-06-28T07:34:23.000Z</time>
</trkpt>
<trkpt lat="46.017953" lon="9.813988">
	<ele>1737.80</ele>
	<time>2022-06-28T07:34:24.000Z</time>
</trkpt>
<trkpt lat="46.017954" lon="9.814013">
	<ele>1737.40</ele>
	<time>2022-06-28T07:34:26.000Z</time>
</trkpt>
<trkpt lat="46.017945" lon="9.814065">
	<ele>1737.00</ele>
	<time>2022-06-28T07:34:30.000Z</time>
</trkpt>
<trkpt lat="46.017942" lon="9.814088">
	<ele>1737.00</ele>
	<time>2022-06-28T07:34:32.000Z</time>
</trkpt>
<trkpt lat="46.017946" lon="9.814131">
	<ele>1737.20</ele>
	<time>2022-06-28T07:34:35.000Z</time>
</trkpt>
<trkpt lat="46.017949" lon="9.814202">
	<ele>1737.20</ele>
	<time>2022-06-28T07:34:40.000Z</time>
</trkpt>
<trkpt lat="46.017952" lon="9.814221">
	<ele>1737.00</ele>
	<time>2022-06-28T07:34:41.000Z</time>
</trkpt>
<trkpt lat="46.017942" lon="9.814303">
	<ele>1736.80</ele>
	<time>2022-06-28T07:34:46.000Z</time>
</trkpt>
<trkpt lat="46.017941" lon="9.814370">
	<ele>1736.80</ele>
	<time>2022-06-28T07:34:50.000Z</time>
</trkpt>
<trkpt lat="46.017933" lon="9.814425">
	<ele>1736.80</ele>
	<time>2022-06-28T07:34:55.000Z</time>
</trkpt>
<trkpt lat="46.017945" lon="9.814421">
	<ele>1736.80</ele>
	<time>2022-06-28T07:35:00.000Z</time>
</trkpt>
<trkpt lat="46.017950" lon="9.814423">
	<ele>1736.80</ele>
	<time>2022-06-28T07:35:02.000Z</time>
</trkpt>
<trkpt lat="46.017960" lon="9.814427">
	<ele>1737.00</ele>
	<time>2022-06-28T07:35:21.000Z</time>
</trkpt>
<trkpt lat="46.017954" lon="9.814583">
	<ele>1736.60</ele>
	<time>2022-06-28T07:35:35.000Z</time>
</trkpt>
<trkpt lat="46.017973" lon="9.814734">
	<ele>1736.40</ele>
	<time>2022-06-28T07:35:41.000Z</time>
</trkpt>
<trkpt lat="46.017957" lon="9.814810">
	<ele>1735.40</ele>
	<time>2022-06-28T07:35:47.000Z</time>
</trkpt>
<trkpt lat="46.017903" lon="9.814909">
	<ele>1736.20</ele>
	<time>2022-06-28T07:35:55.000Z</time>
</trkpt>
<trkpt lat="46.017860" lon="9.814997">
	<ele>1736.20</ele>
	<time>2022-06-28T07:36:01.000Z</time>
</trkpt>
<trkpt lat="46.017855" lon="9.815010">
	<ele>1736.20</ele>
	<time>2022-06-28T07:36:02.000Z</time>
</trkpt>
<trkpt lat="46.017813" lon="9.815137">
	<ele>1735.80</ele>
	<time>2022-06-28T07:36:10.000Z</time>
</trkpt>
<trkpt lat="46.017775" lon="9.815237">
	<ele>1735.60</ele>
	<time>2022-06-28T07:36:17.000Z</time>
</trkpt>
<trkpt lat="46.017768" lon="9.815254">
	<ele>1735.60</ele>
	<time>2022-06-28T07:36:18.000Z</time>
</trkpt>
<trkpt lat="46.017749" lon="9.815295">
	<ele>1735.80</ele>
	<time>2022-06-28T07:36:21.000Z</time>
</trkpt>
<trkpt lat="46.017735" lon="9.815361">
	<ele>1735.80</ele>
	<time>2022-06-28T07:36:25.000Z</time>
</trkpt>
<trkpt lat="46.017723" lon="9.815536">
	<ele>1735.40</ele>
	<time>2022-06-28T07:36:36.000Z</time>
</trkpt>
<trkpt lat="46.017717" lon="9.815633">
	<ele>1736.00</ele>
	<time>2022-06-28T07:36:42.000Z</time>
</trkpt>
<trkpt lat="46.017718" lon="9.815684">
	<ele>1736.20</ele>
	<time>2022-06-28T07:36:45.000Z</time>
</trkpt>
<trkpt lat="46.017717" lon="9.815701">
	<ele>1736.20</ele>
	<time>2022-06-28T07:36:46.000Z</time>
</trkpt>
<trkpt lat="46.017721" lon="9.815753">
	<ele>1736.40</ele>
	<time>2022-06-28T07:36:49.000Z</time>
</trkpt>
<trkpt lat="46.017731" lon="9.815785">
	<ele>1736.40</ele>
	<time>2022-06-28T07:36:51.000Z</time>
</trkpt>
<trkpt lat="46.017736" lon="9.815843">
	<ele>1736.20</ele>
	<time>2022-06-28T07:36:54.000Z</time>
</trkpt>
<trkpt lat="46.017736" lon="9.815863">
	<ele>1736.20</ele>
	<time>2022-06-28T07:36:55.000Z</time>
</trkpt>
<trkpt lat="46.017739" lon="9.815975">
	<ele>1736.20</ele>
	<time>2022-06-28T07:37:02.000Z</time>
</trkpt>
<trkpt lat="46.017705" lon="9.816081">
	<ele>1736.00</ele>
	<time>2022-06-28T07:37:09.000Z</time>
</trkpt>
<trkpt lat="46.017696" lon="9.816240">
	<ele>1736.00</ele>
	<time>2022-06-28T07:37:18.000Z</time>
</trkpt>
<trkpt lat="46.017723" lon="9.816318">
	<ele>1735.80</ele>
	<time>2022-06-28T07:37:24.000Z</time>
</trkpt>
<trkpt lat="46.017730" lon="9.816331">
	<ele>1735.80</ele>
	<time>2022-06-28T07:37:25.000Z</time>
</trkpt>
<trkpt lat="46.017789" lon="9.816429">
	<ele>1735.80</ele>
	<time>2022-06-28T07:37:34.000Z</time>
</trkpt>
<trkpt lat="46.017867" lon="9.816542">
	<ele>1735.40</ele>
	<time>2022-06-28T07:37:43.000Z</time>
</trkpt>
<trkpt lat="46.017879" lon="9.816575">
	<ele>1735.20</ele>
	<time>2022-06-28T07:37:45.000Z</time>
</trkpt>
<trkpt lat="46.017886" lon="9.816617">
	<ele>1735.20</ele>
	<time>2022-06-28T07:37:48.000Z</time>
</trkpt>
<trkpt lat="46.017889" lon="9.816687">
	<ele>1735.20</ele>
	<time>2022-06-28T07:37:52.000Z</time>
</trkpt>
<trkpt lat="46.017907" lon="9.816827">
	<ele>1734.80</ele>
	<time>2022-06-28T07:38:00.000Z</time>
</trkpt>
<trkpt lat="46.017945" lon="9.816890">
	<ele>1734.40</ele>
	<time>2022-06-28T07:38:05.000Z</time>
</trkpt>
<trkpt lat="46.017982" lon="9.816930">
	<ele>1734.00</ele>
	<time>2022-06-28T07:38:09.000Z</time>
</trkpt>
<trkpt lat="46.018065" lon="9.817020">
	<ele>1733.80</ele>
	<time>2022-06-28T07:38:18.000Z</time>
</trkpt>
<trkpt lat="46.018122" lon="9.817088">
	<ele>1733.80</ele>
	<time>2022-06-28T07:38:26.000Z</time>
</trkpt>
<trkpt lat="46.018144" lon="9.817160">
	<ele>1733.40</ele>
	<time>2022-06-28T07:38:33.000Z</time>
</trkpt>
<trkpt lat="46.018148" lon="9.817186">
	<ele>1733.20</ele>
	<time>2022-06-28T07:38:35.000Z</time>
</trkpt>
<trkpt lat="46.018147" lon="9.817216">
	<ele>1733.00</ele>
	<time>2022-06-28T07:38:37.000Z</time>
</trkpt>
<trkpt lat="46.018153" lon="9.817277">
	<ele>1732.80</ele>
	<time>2022-06-28T07:38:41.000Z</time>
</trkpt>
<trkpt lat="46.018154" lon="9.817304">
	<ele>1732.60</ele>
	<time>2022-06-28T07:38:43.000Z</time>
</trkpt>
<trkpt lat="46.018141" lon="9.817405">
	<ele>1733.00</ele>
	<time>2022-06-28T07:38:50.000Z</time>
</trkpt>
<trkpt lat="46.018134" lon="9.817448">
	<ele>1732.80</ele>
	<time>2022-06-28T07:38:53.000Z</time>
</trkpt>
<trkpt lat="46.018127" lon="9.817487">
	<ele>1732.60</ele>
	<time>2022-06-28T07:38:55.000Z</time>
</trkpt>
<trkpt lat="46.018126" lon="9.817519">
	<ele>1732.60</ele>
	<time>2022-06-28T07:38:57.000Z</time>
</trkpt>
<trkpt lat="46.018106" lon="9.817634">
	<ele>1732.40</ele>
	<time>2022-06-28T07:39:05.000Z</time>
</trkpt>
<trkpt lat="46.018090" lon="9.817673">
	<ele>1732.20</ele>
	<time>2022-06-28T07:39:07.000Z</time>
</trkpt>
<trkpt lat="46.018084" lon="9.817688">
	<ele>1732.20</ele>
	<time>2022-06-28T07:39:08.000Z</time>
</trkpt>
<trkpt lat="46.018095" lon="9.817735">
	<ele>1732.40</ele>
	<time>2022-06-28T07:39:12.000Z</time>
</trkpt>
<trkpt lat="46.018101" lon="9.817755">
	<ele>1732.40</ele>
	<time>2022-06-28T07:39:13.000Z</time>
</trkpt>
<trkpt lat="46.018112" lon="9.817769">
	<ele>1732.60</ele>
	<time>2022-06-28T07:39:14.000Z</time>
</trkpt>
<trkpt lat="46.018131" lon="9.817863">
	<ele>1732.80</ele>
	<time>2022-06-28T07:39:19.000Z</time>
</trkpt>
<trkpt lat="46.018128" lon="9.817912">
	<ele>1732.80</ele>
	<time>2022-06-28T07:39:22.000Z</time>
</trkpt>
<trkpt lat="46.018118" lon="9.817933">
	<ele>1732.80</ele>
	<time>2022-06-28T07:39:23.000Z</time>
</trkpt>
<trkpt lat="46.018105" lon="9.817954">
	<ele>1732.80</ele>
	<time>2022-06-28T07:39:26.000Z</time>
</trkpt>
<trkpt lat="46.018104" lon="9.817979">
	<ele>1732.60</ele>
	<time>2022-06-28T07:39:28.000Z</time>
</trkpt>
<trkpt lat="46.018099" lon="9.818047">
	<ele>1732.00</ele>
	<time>2022-06-28T07:39:32.000Z</time>
</trkpt>
<trkpt lat="46.018086" lon="9.818201">
	<ele>1731.80</ele>
	<time>2022-06-28T07:39:41.000Z</time>
</trkpt>
<trkpt lat="46.018074" lon="9.818345">
	<ele>1731.80</ele>
	<time>2022-06-28T07:39:49.000Z</time>
</trkpt>
<trkpt lat="46.018083" lon="9.818512">
	<ele>1731.60</ele>
	<time>2022-06-28T07:39:59.000Z</time>
</trkpt>
<trkpt lat="46.018109" lon="9.818575">
	<ele>1731.80</ele>
	<time>2022-06-28T07:40:03.000Z</time>
</trkpt>
<trkpt lat="46.018126" lon="9.818587">
	<ele>1731.80</ele>
	<time>2022-06-28T07:40:05.000Z</time>
</trkpt>
<trkpt lat="46.018140" lon="9.818587">
	<ele>1731.80</ele>
	<time>2022-06-28T07:40:06.000Z</time>
</trkpt>
<trkpt lat="46.018251" lon="9.818629">
	<ele>1732.20</ele>
	<time>2022-06-28T07:40:16.000Z</time>
</trkpt>
<trkpt lat="46.018360" lon="9.818718">
	<ele>1732.20</ele>
	<time>2022-06-28T07:40:27.000Z</time>
</trkpt>
<trkpt lat="46.018439" lon="9.818824">
	<ele>1732.40</ele>
	<time>2022-06-28T07:40:36.000Z</time>
</trkpt>
<trkpt lat="46.018463" lon="9.818842">
	<ele>1732.40</ele>
	<time>2022-06-28T07:40:39.000Z</time>
</trkpt>
<trkpt lat="46.018502" lon="9.818846">
	<ele>1732.60</ele>
	<time>2022-06-28T07:40:43.000Z</time>
</trkpt>
<trkpt lat="46.018593" lon="9.818794">
	<ele>1732.60</ele>
	<time>2022-06-28T07:40:52.000Z</time>
</trkpt>
<trkpt lat="46.018674" lon="9.818721">
	<ele>1733.00</ele>
	<time>2022-06-28T07:41:00.000Z</time>
</trkpt>
<trkpt lat="46.018710" lon="9.818694">
	<ele>1733.20</ele>
	<time>2022-06-28T07:41:04.000Z</time>
</trkpt>
<trkpt lat="46.018716" lon="9.818694">
	<ele>1733.40</ele>
	<time>2022-06-28T07:41:05.000Z</time>
</trkpt>
<trkpt lat="46.018753" lon="9.818723">
	<ele>1733.60</ele>
	<time>2022-06-28T07:41:09.000Z</time>
</trkpt>
<trkpt lat="46.018772" lon="9.818731">
	<ele>1733.60</ele>
	<time>2022-06-28T07:41:12.000Z</time>
</trkpt>
<trkpt lat="46.018795" lon="9.818710">
	<ele>1733.40</ele>
	<time>2022-06-28T07:41:14.000Z</time>
</trkpt>
<trkpt lat="46.018855" lon="9.818762">
	<ele>1733.60</ele>
	<time>2022-06-28T07:41:22.000Z</time>
</trkpt>
<trkpt lat="46.018882" lon="9.818798">
	<ele>1734.00</ele>
	<time>2022-06-28T07:41:25.000Z</time>
</trkpt>
<trkpt lat="46.018910" lon="9.818844">
	<ele>1734.20</ele>
	<time>2022-06-28T07:41:29.000Z</time>
</trkpt>
<trkpt lat="46.018935" lon="9.818894">
	<ele>1734.20</ele>
	<time>2022-06-28T07:41:33.000Z</time>
</trkpt>
<trkpt lat="46.018980" lon="9.818937">
	<ele>1734.20</ele>
	<time>2022-06-28T07:41:37.000Z</time>
</trkpt>
<trkpt lat="46.019048" lon="9.819059">
	<ele>1733.80</ele>
	<time>2022-06-28T07:41:46.000Z</time>
</trkpt>
<trkpt lat="46.019054" lon="9.819076">
	<ele>1733.80</ele>
	<time>2022-06-28T07:41:47.000Z</time>
</trkpt>
<trkpt lat="46.019059" lon="9.819120">
	<ele>1734.00</ele>
	<time>2022-06-28T07:41:50.000Z</time>
</trkpt>
<trkpt lat="46.019075" lon="9.819145">
	<ele>1734.20</ele>
	<time>2022-06-28T07:41:54.000Z</time>
</trkpt>
<trkpt lat="46.019080" lon="9.819153">
	<ele>1734.00</ele>
	<time>2022-06-28T07:41:56.000Z</time>
</trkpt>
<trkpt lat="46.019080" lon="9.819196">
	<ele>1733.80</ele>
	<time>2022-06-28T07:41:59.000Z</time>
</trkpt>
<trkpt lat="46.019084" lon="9.819210">
	<ele>1733.80</ele>
	<time>2022-06-28T07:42:00.000Z</time>
</trkpt>
<trkpt lat="46.019077" lon="9.819284">
	<ele>1734.20</ele>
	<time>2022-06-28T07:42:07.000Z</time>
</trkpt>
<trkpt lat="46.019076" lon="9.819325">
	<ele>1734.40</ele>
	<time>2022-06-28T07:42:11.000Z</time>
</trkpt>
<trkpt lat="46.019083" lon="9.819330">
	<ele>1733.80</ele>
	<time>2022-06-28T07:42:14.000Z</time>
</trkpt>
<trkpt lat="46.019087" lon="9.819330">
	<ele>1733.60</ele>
	<time>2022-06-28T07:42:15.000Z</time>
</trkpt>
<trkpt lat="46.019089" lon="9.819331">
	<ele>1733.60</ele>
	<time>2022-06-28T07:42:16.000Z</time>
</trkpt>
<trkpt lat="46.019084" lon="9.819324">
	<ele>1733.60</ele>
	<time>2022-06-28T07:42:21.000Z</time>
</trkpt>
<trkpt lat="46.019086" lon="9.819315">
	<ele>1733.40</ele>
	<time>2022-06-28T07:42:25.000Z</time>
</trkpt>
<trkpt lat="46.019087" lon="9.819291">
	<ele>1733.20</ele>
	<time>2022-06-28T07:42:28.000Z</time>
</trkpt>
<trkpt lat="46.019109" lon="9.819322">
	<ele>1734.00</ele>
	<time>2022-06-28T07:42:35.000Z</time>
</trkpt>
<trkpt lat="46.019111" lon="9.819314">
	<ele>1734.00</ele>
	<time>2022-06-28T07:42:43.000Z</time>
</trkpt>
<trkpt lat="46.019106" lon="9.819324">
	<ele>1734.00</ele>
	<time>2022-06-28T07:42:45.000Z</time>
</trkpt>
<trkpt lat="46.019091" lon="9.819329">
	<ele>1734.00</ele>
	<time>2022-06-28T07:43:01.000Z</time>
</trkpt>
<trkpt lat="46.019091" lon="9.819324">
	<ele>1734.00</ele>
	<time>2022-06-28T07:43:09.000Z</time>
</trkpt>
<trkpt lat="46.019076" lon="9.819319">
	<ele>1734.00</ele>
	<time>2022-06-28T07:43:16.000Z</time>
</trkpt>
<trkpt lat="46.019075" lon="9.819317">
	<ele>1734.00</ele>
	<time>2022-06-28T07:43:17.000Z</time>
</trkpt>
<trkpt lat="46.019075" lon="9.819315">
	<ele>1734.00</ele>
	<time>2022-06-28T07:43:25.000Z</time>
</trkpt>
<trkpt lat="46.019075" lon="9.819315">
	<ele>1734.00</ele>
	<time>2022-06-28T07:43:26.000Z</time>
</trkpt>
<trkpt lat="46.019075" lon="9.819315">
	<ele>1734.00</ele>
	<time>2022-06-28T07:43:28.000Z</time>
</trkpt>
<trkpt lat="46.019080" lon="9.819319">
	<ele>1734.00</ele>
	<time>2022-06-28T07:43:34.000Z</time>
</trkpt>
<trkpt lat="46.019101" lon="9.819333">
	<ele>1734.00</ele>
	<time>2022-06-28T07:43:53.000Z</time>
</trkpt>
<trkpt lat="46.019117" lon="9.819331">
	<ele>1734.00</ele>
	<time>2022-06-28T07:44:05.000Z</time>
</trkpt>
<trkpt lat="46.019134" lon="9.819333">
	<ele>1734.00</ele>
	<time>2022-06-28T07:44:23.000Z</time>
</trkpt>
<trkpt lat="46.019150" lon="9.819338">
	<ele>1734.00</ele>
	<time>2022-06-28T07:44:32.000Z</time>
</trkpt>
<trkpt lat="46.019173" lon="9.819357">
	<ele>1734.00</ele>
	<time>2022-06-28T07:44:50.000Z</time>
</trkpt>
<trkpt lat="46.019173" lon="9.819378">
	<ele>1734.00</ele>
	<time>2022-06-28T07:44:53.000Z</time>
</trkpt>
<trkpt lat="46.019143" lon="9.819409">
	<ele>1734.00</ele>
	<time>2022-06-28T07:45:07.000Z</time>
</trkpt>
<trkpt lat="46.019109" lon="9.819392">
	<ele>1734.00</ele>
	<time>2022-06-28T07:45:15.000Z</time>
</trkpt>
<trkpt lat="46.019109" lon="9.819392">
	<ele>1734.00</ele>
	<time>2022-06-28T07:45:16.000Z</time>
</trkpt>
<trkpt lat="46.019109" lon="9.819392">
	<ele>1734.00</ele>
	<time>2022-06-28T07:45:19.000Z</time>
</trkpt>
<trkpt lat="46.019136" lon="9.819361">
	<ele>1734.00</ele>
	<time>2022-06-28T07:45:50.000Z</time>
</trkpt>
<trkpt lat="46.019130" lon="9.819353">
	<ele>1734.00</ele>
	<time>2022-06-28T07:45:56.000Z</time>
</trkpt>
<trkpt lat="46.019093" lon="9.819343">
	<ele>1734.00</ele>
	<time>2022-06-28T07:46:08.000Z</time>
</trkpt>
<trkpt lat="46.019089" lon="9.819338">
	<ele>1734.00</ele>
	<time>2022-06-28T07:47:04.000Z</time>
</trkpt>
<trkpt lat="46.019082" lon="9.819340">
	<ele>1734.00</ele>
	<time>2022-06-28T07:47:17.000Z</time>
</trkpt>
<trkpt lat="46.019084" lon="9.819344">
	<ele>1734.00</ele>
	<time>2022-06-28T07:47:24.000Z</time>
</trkpt>
<trkpt lat="46.019136" lon="9.819363">
	<ele>1734.00</ele>
	<time>2022-06-28T07:47:41.000Z</time>
</trkpt>
<trkpt lat="46.019149" lon="9.819363">
	<ele>1734.00</ele>
	<time>2022-06-28T07:47:47.000Z</time>
</trkpt>
<trkpt lat="46.019149" lon="9.819361">
	<ele>1734.00</ele>
	<time>2022-06-28T07:48:07.000Z</time>
</trkpt>
<trkpt lat="46.019142" lon="9.819360">
	<ele>1734.00</ele>
	<time>2022-06-28T07:48:10.000Z</time>
</trkpt>
<trkpt lat="46.019092" lon="9.819331">
	<ele>1734.00</ele>
	<time>2022-06-28T07:48:24.000Z</time>
</trkpt>
<trkpt lat="46.019085" lon="9.819327">
	<ele>1734.00</ele>
	<time>2022-06-28T07:48:26.000Z</time>
</trkpt>
<trkpt lat="46.019072" lon="9.819318">
	<ele>1734.00</ele>
	<time>2022-06-28T07:48:49.000Z</time>
</trkpt>
<trkpt lat="46.019072" lon="9.819317">
	<ele>1734.00</ele>
	<time>2022-06-28T07:49:20.000Z</time>
</trkpt>
<trkpt lat="46.019072" lon="9.819317">
	<ele>1734.00</ele>
	<time>2022-06-28T07:49:24.000Z</time>
</trkpt>
<trkpt lat="46.019073" lon="9.819317">
	<ele>1734.00</ele>
	<time>2022-06-28T07:49:25.000Z</time>
</trkpt>
<trkpt lat="46.019075" lon="9.819318">
	<ele>1734.00</ele>
	<time>2022-06-28T07:49:44.000Z</time>
</trkpt>
<trkpt lat="46.019077" lon="9.819318">
	<ele>1734.00</ele>
	<time>2022-06-28T07:50:02.000Z</time>
</trkpt>
<trkpt lat="46.019078" lon="9.819318">
	<ele>1734.00</ele>
	<time>2022-06-28T07:50:11.000Z</time>
</trkpt>
<trkpt lat="46.019081" lon="9.819317">
	<ele>1734.00</ele>
	<time>2022-06-28T07:50:43.000Z</time>
</trkpt>
<trkpt lat="46.019097" lon="9.819327">
	<ele>1734.00</ele>
	<time>2022-06-28T07:50:54.000Z</time>
</trkpt>
<trkpt lat="46.019120" lon="9.819356">
	<ele>1734.00</ele>
	<time>2022-06-28T07:51:01.000Z</time>
</trkpt>
<trkpt lat="46.019120" lon="9.819359">
	<ele>1734.00</ele>
	<time>2022-06-28T07:51:15.000Z</time>
</trkpt>
<trkpt lat="46.019154" lon="9.819392">
	<ele>1734.00</ele>
	<time>2022-06-28T07:52:30.000Z</time>
</trkpt>
<trkpt lat="46.019154" lon="9.819393">
	<ele>1734.00</ele>
	<time>2022-06-28T07:52:43.000Z</time>
</trkpt>
<trkpt lat="46.019150" lon="9.819391">
	<ele>1734.00</ele>
	<time>2022-06-28T07:52:51.000Z</time>
</trkpt>
<trkpt lat="46.019114" lon="9.819337">
	<ele>1734.00</ele>
	<time>2022-06-28T07:53:43.000Z</time>
</trkpt>
<trkpt lat="46.019111" lon="9.819338">
	<ele>1734.00</ele>
	<time>2022-06-28T07:53:56.000Z</time>
</trkpt>
<trkpt lat="46.019104" lon="9.819326">
	<ele>1734.00</ele>
	<time>2022-06-28T07:54:09.000Z</time>
</trkpt>
<trkpt lat="46.019102" lon="9.819324">
	<ele>1734.00</ele>
	<time>2022-06-28T07:54:13.000Z</time>
</trkpt>
<trkpt lat="46.019100" lon="9.819323">
	<ele>1734.00</ele>
	<time>2022-06-28T07:54:20.000Z</time>
</trkpt>
<trkpt lat="46.019089" lon="9.819384">
	<ele>1734.00</ele>
	<time>2022-06-28T07:54:32.000Z</time>
</trkpt>
<trkpt lat="46.019085" lon="9.819403">
	<ele>1734.00</ele>
	<time>2022-06-28T07:54:33.000Z</time>
</trkpt>
<trkpt lat="46.019085" lon="9.819420">
	<ele>1734.00</ele>
	<time>2022-06-28T07:54:34.000Z</time>
</trkpt>
<trkpt lat="46.019059" lon="9.819544">
	<ele>1734.00</ele>
	<time>2022-06-28T07:54:41.000Z</time>
</trkpt>
<trkpt lat="46.019039" lon="9.819647">
	<ele>1734.00</ele>
	<time>2022-06-28T07:54:49.000Z</time>
</trkpt>
<trkpt lat="46.019016" lon="9.819721">
	<ele>1734.00</ele>
	<time>2022-06-28T07:54:55.000Z</time>
</trkpt>
<trkpt lat="46.019000" lon="9.819804">
	<ele>1734.00</ele>
	<time>2022-06-28T07:55:00.000Z</time>
</trkpt>
<trkpt lat="46.018988" lon="9.819840">
	<ele>1734.00</ele>
	<time>2022-06-28T07:55:03.000Z</time>
</trkpt>
<trkpt lat="46.018988" lon="9.819862">
	<ele>1732.20</ele>
	<time>2022-06-28T07:55:05.000Z</time>
</trkpt>
<trkpt lat="46.018977" lon="9.819896">
	<ele>1731.00</ele>
	<time>2022-06-28T07:55:07.000Z</time>
</trkpt>
<trkpt lat="46.018971" lon="9.819925">
	<ele>1730.80</ele>
	<time>2022-06-28T07:55:09.000Z</time>
</trkpt>
<trkpt lat="46.018951" lon="9.820072">
	<ele>1731.00</ele>
	<time>2022-06-28T07:55:17.000Z</time>
</trkpt>
<trkpt lat="46.018949" lon="9.820106">
	<ele>1731.00</ele>
	<time>2022-06-28T07:55:19.000Z</time>
</trkpt>
<trkpt lat="46.018974" lon="9.820181">
	<ele>1730.80</ele>
	<time>2022-06-28T07:55:24.000Z</time>
</trkpt>
<trkpt lat="46.018987" lon="9.820193">
	<ele>1730.60</ele>
	<time>2022-06-28T07:55:25.000Z</time>
</trkpt>
<trkpt lat="46.018992" lon="9.820202">
	<ele>1730.60</ele>
	<time>2022-06-28T07:55:26.000Z</time>
</trkpt>
<trkpt lat="46.019007" lon="9.820231">
	<ele>1730.60</ele>
	<time>2022-06-28T07:55:28.000Z</time>
</trkpt>
<trkpt lat="46.019013" lon="9.820253">
	<ele>1730.40</ele>
	<time>2022-06-28T07:55:29.000Z</time>
</trkpt>
<trkpt lat="46.019012" lon="9.820272">
	<ele>1730.40</ele>
	<time>2022-06-28T07:55:30.000Z</time>
</trkpt>
<trkpt lat="46.019013" lon="9.820290">
	<ele>1730.40</ele>
	<time>2022-06-28T07:55:31.000Z</time>
</trkpt>
<trkpt lat="46.019035" lon="9.820418">
	<ele>1730.40</ele>
	<time>2022-06-28T07:55:38.000Z</time>
</trkpt>
<trkpt lat="46.019038" lon="9.820458">
	<ele>1730.80</ele>
	<time>2022-06-28T07:55:41.000Z</time>
</trkpt>
<trkpt lat="46.019037" lon="9.820479">
	<ele>1730.80</ele>
	<time>2022-06-28T07:55:43.000Z</time>
</trkpt>
<trkpt lat="46.019057" lon="9.820571">
	<ele>1730.80</ele>
	<time>2022-06-28T07:55:50.000Z</time>
</trkpt>
<trkpt lat="46.019065" lon="9.820589">
	<ele>1730.80</ele>
	<time>2022-06-28T07:55:51.000Z</time>
</trkpt>
<trkpt lat="46.019094" lon="9.820657">
	<ele>1730.60</ele>
	<time>2022-06-28T07:55:56.000Z</time>
</trkpt>
<trkpt lat="46.019127" lon="9.820777">
	<ele>1730.80</ele>
	<time>2022-06-28T07:56:05.000Z</time>
</trkpt>
<trkpt lat="46.019135" lon="9.820788">
	<ele>1730.80</ele>
	<time>2022-06-28T07:56:06.000Z</time>
</trkpt>
<trkpt lat="46.019172" lon="9.820924">
	<ele>1731.20</ele>
	<time>2022-06-28T07:56:16.000Z</time>
</trkpt>
<trkpt lat="46.019175" lon="9.820948">
	<ele>1731.00</ele>
	<time>2022-06-28T07:56:18.000Z</time>
</trkpt>
<trkpt lat="46.019174" lon="9.820964">
	<ele>1730.80</ele>
	<time>2022-06-28T07:56:19.000Z</time>
</trkpt>
<trkpt lat="46.019186" lon="9.821045">
	<ele>1731.00</ele>
	<time>2022-06-28T07:56:25.000Z</time>
</trkpt>
<trkpt lat="46.019240" lon="9.821117">
	<ele>1731.00</ele>
	<time>2022-06-28T07:56:32.000Z</time>
</trkpt>
<trkpt lat="46.019247" lon="9.821134">
	<ele>1731.00</ele>
	<time>2022-06-28T07:56:33.000Z</time>
</trkpt>
<trkpt lat="46.019251" lon="9.821148">
	<ele>1731.20</ele>
	<time>2022-06-28T07:56:34.000Z</time>
</trkpt>
<trkpt lat="46.019301" lon="9.821195">
	<ele>1731.40</ele>
	<time>2022-06-28T07:56:40.000Z</time>
</trkpt>
<trkpt lat="46.019301" lon="9.821210">
	<ele>1731.40</ele>
	<time>2022-06-28T07:56:41.000Z</time>
</trkpt>
<trkpt lat="46.019316" lon="9.821245">
	<ele>1731.60</ele>
	<time>2022-06-28T07:56:44.000Z</time>
</trkpt>
<trkpt lat="46.019329" lon="9.821269">
	<ele>1732.00</ele>
	<time>2022-06-28T07:56:46.000Z</time>
</trkpt>
<trkpt lat="46.019351" lon="9.821311">
	<ele>1732.20</ele>
	<time>2022-06-28T07:56:49.000Z</time>
</trkpt>
<trkpt lat="46.019382" lon="9.821381">
	<ele>1732.40</ele>
	<time>2022-06-28T07:56:54.000Z</time>
</trkpt>
<trkpt lat="46.019391" lon="9.821387">
	<ele>1732.60</ele>
	<time>2022-06-28T07:56:55.000Z</time>
</trkpt>
<trkpt lat="46.019408" lon="9.821409">
	<ele>1732.80</ele>
	<time>2022-06-28T07:56:57.000Z</time>
</trkpt>
<trkpt lat="46.019434" lon="9.821441">
	<ele>1733.00</ele>
	<time>2022-06-28T07:57:00.000Z</time>
</trkpt>
<trkpt lat="46.019442" lon="9.821450">
	<ele>1733.00</ele>
	<time>2022-06-28T07:57:01.000Z</time>
</trkpt>
<trkpt lat="46.019466" lon="9.821466">
	<ele>1733.40</ele>
	<time>2022-06-28T07:57:04.000Z</time>
</trkpt>
<trkpt lat="46.019500" lon="9.821470">
	<ele>1734.20</ele>
	<time>2022-06-28T07:57:08.000Z</time>
</trkpt>
<trkpt lat="46.019506" lon="9.821480">
	<ele>1734.20</ele>
	<time>2022-06-28T07:57:09.000Z</time>
</trkpt>
<trkpt lat="46.019519" lon="9.821505">
	<ele>1734.40</ele>
	<time>2022-06-28T07:57:11.000Z</time>
</trkpt>
<trkpt lat="46.019527" lon="9.821520">
	<ele>1734.40</ele>
	<time>2022-06-28T07:57:12.000Z</time>
</trkpt>
<trkpt lat="46.019554" lon="9.821581">
	<ele>1734.60</ele>
	<time>2022-06-28T07:57:17.000Z</time>
</trkpt>
<trkpt lat="46.019570" lon="9.821620">
	<ele>1734.60</ele>
	<time>2022-06-28T07:57:20.000Z</time>
</trkpt>
<trkpt lat="46.019582" lon="9.821647">
	<ele>1734.60</ele>
	<time>2022-06-28T07:57:22.000Z</time>
</trkpt>
<trkpt lat="46.019612" lon="9.821728">
	<ele>1734.60</ele>
	<time>2022-06-28T07:57:27.000Z</time>
</trkpt>
<trkpt lat="46.019621" lon="9.821829">
	<ele>1734.80</ele>
	<time>2022-06-28T07:57:36.000Z</time>
</trkpt>
<trkpt lat="46.019594" lon="9.821985">
	<ele>1735.00</ele>
	<time>2022-06-28T07:57:45.000Z</time>
</trkpt>
<trkpt lat="46.019583" lon="9.822062">
	<ele>1735.20</ele>
	<time>2022-06-28T07:57:50.000Z</time>
</trkpt>
<trkpt lat="46.019579" lon="9.822084">
	<ele>1735.20</ele>
	<time>2022-06-28T07:57:51.000Z</time>
</trkpt>
<trkpt lat="46.019580" lon="9.822100">
	<ele>1735.40</ele>
	<time>2022-06-28T07:57:52.000Z</time>
</trkpt>
<trkpt lat="46.019596" lon="9.822160">
	<ele>1735.60</ele>
	<time>2022-06-28T07:57:56.000Z</time>
</trkpt>
<trkpt lat="46.019610" lon="9.822202">
	<ele>1735.60</ele>
	<time>2022-06-28T07:57:59.000Z</time>
</trkpt>
<trkpt lat="46.019583" lon="9.822349">
	<ele>1735.80</ele>
	<time>2022-06-28T07:58:07.000Z</time>
</trkpt>
<trkpt lat="46.019585" lon="9.822369">
	<ele>1735.80</ele>
	<time>2022-06-28T07:58:08.000Z</time>
</trkpt>
<trkpt lat="46.019588" lon="9.822398">
	<ele>1735.60</ele>
	<time>2022-06-28T07:58:10.000Z</time>
</trkpt>
<trkpt lat="46.019572" lon="9.822470">
	<ele>1735.60</ele>
	<time>2022-06-28T07:58:15.000Z</time>
</trkpt>
<trkpt lat="46.019566" lon="9.822481">
	<ele>1735.80</ele>
	<time>2022-06-28T07:58:17.000Z</time>
</trkpt>
<trkpt lat="46.019547" lon="9.822532">
	<ele>1736.60</ele>
	<time>2022-06-28T07:58:21.000Z</time>
</trkpt>
<trkpt lat="46.019539" lon="9.822631">
	<ele>1736.80</ele>
	<time>2022-06-28T07:58:28.000Z</time>
</trkpt>
<trkpt lat="46.019531" lon="9.822705">
	<ele>1736.60</ele>
	<time>2022-06-28T07:58:33.000Z</time>
</trkpt>
<trkpt lat="46.019542" lon="9.822739">
	<ele>1736.00</ele>
	<time>2022-06-28T07:58:36.000Z</time>
</trkpt>
<trkpt lat="46.019548" lon="9.822768">
	<ele>1735.40</ele>
	<time>2022-06-28T07:58:38.000Z</time>
</trkpt>
<trkpt lat="46.019546" lon="9.822806">
	<ele>1735.20</ele>
	<time>2022-06-28T07:58:40.000Z</time>
</trkpt>
<trkpt lat="46.019539" lon="9.822829">
	<ele>1734.80</ele>
	<time>2022-06-28T07:58:42.000Z</time>
</trkpt>
<trkpt lat="46.019529" lon="9.822833">
	<ele>1734.80</ele>
	<time>2022-06-28T07:58:43.000Z</time>
</trkpt>
<trkpt lat="46.019520" lon="9.822845">
	<ele>1735.00</ele>
	<time>2022-06-28T07:58:46.000Z</time>
</trkpt>
<trkpt lat="46.019520" lon="9.822865">
	<ele>1735.60</ele>
	<time>2022-06-28T07:58:48.000Z</time>
</trkpt>
<trkpt lat="46.019507" lon="9.822871">
	<ele>1735.80</ele>
	<time>2022-06-28T07:58:49.000Z</time>
</trkpt>
<trkpt lat="46.019498" lon="9.822908">
	<ele>1735.80</ele>
	<time>2022-06-28T07:58:51.000Z</time>
</trkpt>
<trkpt lat="46.019493" lon="9.822947">
	<ele>1735.80</ele>
	<time>2022-06-28T07:58:54.000Z</time>
</trkpt>
<trkpt lat="46.019479" lon="9.823029">
	<ele>1735.20</ele>
	<time>2022-06-28T07:59:01.000Z</time>
</trkpt>
<trkpt lat="46.019479" lon="9.823044">
	<ele>1735.20</ele>
	<time>2022-06-28T07:59:02.000Z</time>
</trkpt>
<trkpt lat="46.019476" lon="9.823060">
	<ele>1735.00</ele>
	<time>2022-06-28T07:59:03.000Z</time>
</trkpt>
<trkpt lat="46.019469" lon="9.823067">
	<ele>1735.00</ele>
	<time>2022-06-28T07:59:04.000Z</time>
</trkpt>
<trkpt lat="46.019438" lon="9.823114">
	<ele>1735.40</ele>
	<time>2022-06-28T07:59:09.000Z</time>
</trkpt>
<trkpt lat="46.019435" lon="9.823124">
	<ele>1735.40</ele>
	<time>2022-06-28T07:59:10.000Z</time>
</trkpt>
<trkpt lat="46.019400" lon="9.823169">
	<ele>1735.60</ele>
	<time>2022-06-28T07:59:15.000Z</time>
</trkpt>
<trkpt lat="46.019365" lon="9.823238">
	<ele>1735.80</ele>
	<time>2022-06-28T07:59:20.000Z</time>
</trkpt>
<trkpt lat="46.019365" lon="9.823253">
	<ele>1735.60</ele>
	<time>2022-06-28T07:59:21.000Z</time>
</trkpt>
<trkpt lat="46.019367" lon="9.823368">
	<ele>1735.60</ele>
	<time>2022-06-28T07:59:27.000Z</time>
</trkpt>
<trkpt lat="46.019356" lon="9.823417">
	<ele>1735.60</ele>
	<time>2022-06-28T07:59:30.000Z</time>
</trkpt>
<trkpt lat="46.019312" lon="9.823524">
	<ele>1736.00</ele>
	<time>2022-06-28T07:59:37.000Z</time>
</trkpt>
<trkpt lat="46.019305" lon="9.823592">
	<ele>1736.40</ele>
	<time>2022-06-28T07:59:41.000Z</time>
</trkpt>
<trkpt lat="46.019302" lon="9.823626">
	<ele>1736.60</ele>
	<time>2022-06-28T07:59:43.000Z</time>
</trkpt>
<trkpt lat="46.019293" lon="9.823706">
	<ele>1737.00</ele>
	<time>2022-06-28T07:59:48.000Z</time>
</trkpt>
<trkpt lat="46.019283" lon="9.823768">
	<ele>1737.40</ele>
	<time>2022-06-28T07:59:52.000Z</time>
</trkpt>
<trkpt lat="46.019269" lon="9.823934">
	<ele>1737.60</ele>
	<time>2022-06-28T08:00:01.000Z</time>
</trkpt>
<trkpt lat="46.019265" lon="9.823993">
	<ele>1737.80</ele>
	<time>2022-06-28T08:00:04.000Z</time>
</trkpt>
<trkpt lat="46.019271" lon="9.824024">
	<ele>1737.80</ele>
	<time>2022-06-28T08:00:06.000Z</time>
</trkpt>
<trkpt lat="46.019294" lon="9.824080">
	<ele>1738.20</ele>
	<time>2022-06-28T08:00:10.000Z</time>
</trkpt>
<trkpt lat="46.019295" lon="9.824101">
	<ele>1738.40</ele>
	<time>2022-06-28T08:00:11.000Z</time>
</trkpt>
<trkpt lat="46.019296" lon="9.824119">
	<ele>1738.40</ele>
	<time>2022-06-28T08:00:12.000Z</time>
</trkpt>
<trkpt lat="46.019298" lon="9.824135">
	<ele>1738.40</ele>
	<time>2022-06-28T08:00:13.000Z</time>
</trkpt>
<trkpt lat="46.019309" lon="9.824177">
	<ele>1738.60</ele>
	<time>2022-06-28T08:00:16.000Z</time>
</trkpt>
<trkpt lat="46.019309" lon="9.824195">
	<ele>1738.80</ele>
	<time>2022-06-28T08:00:17.000Z</time>
</trkpt>
<trkpt lat="46.019314" lon="9.824229">
	<ele>1738.80</ele>
	<time>2022-06-28T08:00:19.000Z</time>
</trkpt>
<trkpt lat="46.019333" lon="9.824267">
	<ele>1739.00</ele>
	<time>2022-06-28T08:00:22.000Z</time>
</trkpt>
<trkpt lat="46.019357" lon="9.824319">
	<ele>1739.00</ele>
	<time>2022-06-28T08:00:26.000Z</time>
</trkpt>
<trkpt lat="46.019446" lon="9.824418">
	<ele>1739.60</ele>
	<time>2022-06-28T08:00:35.000Z</time>
</trkpt>
<trkpt lat="46.019521" lon="9.824546">
	<ele>1739.20</ele>
	<time>2022-06-28T08:00:44.000Z</time>
</trkpt>
<trkpt lat="46.019549" lon="9.824566">
	<ele>1739.40</ele>
	<time>2022-06-28T08:00:47.000Z</time>
</trkpt>
<trkpt lat="46.019583" lon="9.824575">
	<ele>1739.60</ele>
	<time>2022-06-28T08:00:50.000Z</time>
</trkpt>
<trkpt lat="46.019591" lon="9.824584">
	<ele>1739.60</ele>
	<time>2022-06-28T08:00:51.000Z</time>
</trkpt>
<trkpt lat="46.019626" lon="9.824595">
	<ele>1739.60</ele>
	<time>2022-06-28T08:00:54.000Z</time>
</trkpt>
<trkpt lat="46.019650" lon="9.824600">
	<ele>1739.40</ele>
	<time>2022-06-28T08:00:56.000Z</time>
</trkpt>
<trkpt lat="46.019681" lon="9.824605">
	<ele>1739.20</ele>
	<time>2022-06-28T08:00:59.000Z</time>
</trkpt>
<trkpt lat="46.019698" lon="9.824601">
	<ele>1739.20</ele>
	<time>2022-06-28T08:01:02.000Z</time>
</trkpt>
<trkpt lat="46.019729" lon="9.824593">
	<ele>1739.40</ele>
	<time>2022-06-28T08:01:05.000Z</time>
</trkpt>
<trkpt lat="46.019791" lon="9.824589">
	<ele>1739.80</ele>
	<time>2022-06-28T08:01:11.000Z</time>
</trkpt>
<trkpt lat="46.019807" lon="9.824610">
	<ele>1739.80</ele>
	<time>2022-06-28T08:01:13.000Z</time>
</trkpt>
<trkpt lat="46.019809" lon="9.824637">
	<ele>1740.00</ele>
	<time>2022-06-28T08:01:15.000Z</time>
</trkpt>
<trkpt lat="46.019823" lon="9.824702">
	<ele>1739.80</ele>
	<time>2022-06-28T08:01:20.000Z</time>
</trkpt>
<trkpt lat="46.019847" lon="9.824730">
	<ele>1740.00</ele>
	<time>2022-06-28T08:01:23.000Z</time>
</trkpt>
<trkpt lat="46.019852" lon="9.824740">
	<ele>1740.00</ele>
	<time>2022-06-28T08:01:24.000Z</time>
</trkpt>
<trkpt lat="46.019868" lon="9.824769">
	<ele>1740.20</ele>
	<time>2022-06-28T08:01:27.000Z</time>
</trkpt>
<trkpt lat="46.019892" lon="9.824838">
	<ele>1739.60</ele>
	<time>2022-06-28T08:01:33.000Z</time>
</trkpt>
<trkpt lat="46.019904" lon="9.824864">
	<ele>1739.40</ele>
	<time>2022-06-28T08:01:35.000Z</time>
</trkpt>
<trkpt lat="46.019913" lon="9.824908">
	<ele>1739.20</ele>
	<time>2022-06-28T08:01:38.000Z</time>
</trkpt>
<trkpt lat="46.019941" lon="9.824966">
	<ele>1739.00</ele>
	<time>2022-06-28T08:01:42.000Z</time>
</trkpt>
<trkpt lat="46.019956" lon="9.824991">
	<ele>1738.80</ele>
	<time>2022-06-28T08:01:44.000Z</time>
</trkpt>
<trkpt lat="46.019988" lon="9.825045">
	<ele>1738.80</ele>
	<time>2022-06-28T08:01:49.000Z</time>
</trkpt>
<trkpt lat="46.019993" lon="9.825069">
	<ele>1738.80</ele>
	<time>2022-06-28T08:01:50.000Z</time>
</trkpt>
<trkpt lat="46.020022" lon="9.825123">
	<ele>1738.80</ele>
	<time>2022-06-28T08:01:54.000Z</time>
</trkpt>
<trkpt lat="46.020034" lon="9.825128">
	<ele>1738.60</ele>
	<time>2022-06-28T08:01:55.000Z</time>
</trkpt>
<trkpt lat="46.020074" lon="9.825169">
	<ele>1738.40</ele>
	<time>2022-06-28T08:01:59.000Z</time>
</trkpt>
<trkpt lat="46.020091" lon="9.825190">
	<ele>1738.40</ele>
	<time>2022-06-28T08:02:01.000Z</time>
</trkpt>
<trkpt lat="46.020099" lon="9.825207">
	<ele>1738.40</ele>
	<time>2022-06-28T08:02:02.000Z</time>
</trkpt>
<trkpt lat="46.020109" lon="9.825230">
	<ele>1738.20</ele>
	<time>2022-06-28T08:02:04.000Z</time>
</trkpt>
<trkpt lat="46.020108" lon="9.825272">
	<ele>1738.20</ele>
	<time>2022-06-28T08:02:07.000Z</time>
</trkpt>
<trkpt lat="46.020107" lon="9.825291">
	<ele>1738.20</ele>
	<time>2022-06-28T08:02:08.000Z</time>
</trkpt>
<trkpt lat="46.020112" lon="9.825370">
	<ele>1738.20</ele>
	<time>2022-06-28T08:02:12.000Z</time>
</trkpt>
<trkpt lat="46.020118" lon="9.825480">
	<ele>1738.20</ele>
	<time>2022-06-28T08:02:18.000Z</time>
</trkpt>
<trkpt lat="46.020087" lon="9.825595">
	<ele>1738.40</ele>
	<time>2022-06-28T08:02:26.000Z</time>
</trkpt>
<trkpt lat="46.020060" lon="9.825769">
	<ele>1738.80</ele>
	<time>2022-06-28T08:02:36.000Z</time>
</trkpt>
<trkpt lat="46.020058" lon="9.825785">
	<ele>1739.00</ele>
	<time>2022-06-28T08:02:37.000Z</time>
</trkpt>
<trkpt lat="46.020055" lon="9.825801">
	<ele>1739.00</ele>
	<time>2022-06-28T08:02:38.000Z</time>
</trkpt>
<trkpt lat="46.019991" lon="9.825883">
	<ele>1739.60</ele>
	<time>2022-06-28T08:02:45.000Z</time>
</trkpt>
<trkpt lat="46.019952" lon="9.825930">
	<ele>1740.00</ele>
	<time>2022-06-28T08:02:52.000Z</time>
</trkpt>
<trkpt lat="46.019945" lon="9.825938">
	<ele>1740.00</ele>
	<time>2022-06-28T08:02:53.000Z</time>
</trkpt>
<trkpt lat="46.019885" lon="9.826042">
	<ele>1740.60</ele>
	<time>2022-06-28T08:03:01.000Z</time>
</trkpt>
<trkpt lat="46.019853" lon="9.826097">
	<ele>1740.80</ele>
	<time>2022-06-28T08:03:06.000Z</time>
</trkpt>
<trkpt lat="46.019829" lon="9.826150">
	<ele>1741.00</ele>
	<time>2022-06-28T08:03:10.000Z</time>
</trkpt>
<trkpt lat="46.019809" lon="9.826182">
	<ele>1741.00</ele>
	<time>2022-06-28T08:03:12.000Z</time>
</trkpt>
<trkpt lat="46.019759" lon="9.826270">
	<ele>1741.00</ele>
	<time>2022-06-28T08:03:18.000Z</time>
</trkpt>
<trkpt lat="46.019753" lon="9.826280">
	<ele>1741.00</ele>
	<time>2022-06-28T08:03:19.000Z</time>
</trkpt>
<trkpt lat="46.019721" lon="9.826331">
	<ele>1741.60</ele>
	<time>2022-06-28T08:03:24.000Z</time>
</trkpt>
<trkpt lat="46.019710" lon="9.826364">
	<ele>1741.80</ele>
	<time>2022-06-28T08:03:26.000Z</time>
</trkpt>
<trkpt lat="46.019691" lon="9.826408">
	<ele>1742.00</ele>
	<time>2022-06-28T08:03:29.000Z</time>
</trkpt>
<trkpt lat="46.019674" lon="9.826493">
	<ele>1742.20</ele>
	<time>2022-06-28T08:03:34.000Z</time>
</trkpt>
<trkpt lat="46.019663" lon="9.826622">
	<ele>1742.80</ele>
	<time>2022-06-28T08:03:42.000Z</time>
</trkpt>
<trkpt lat="46.019690" lon="9.826750">
	<ele>1743.00</ele>
	<time>2022-06-28T08:03:49.000Z</time>
</trkpt>
<trkpt lat="46.019702" lon="9.826800">
	<ele>1743.40</ele>
	<time>2022-06-28T08:03:52.000Z</time>
</trkpt>
<trkpt lat="46.019716" lon="9.826930">
	<ele>1743.40</ele>
	<time>2022-06-28T08:04:00.000Z</time>
</trkpt>
<trkpt lat="46.019684" lon="9.827029">
	<ele>1743.60</ele>
	<time>2022-06-28T08:04:06.000Z</time>
</trkpt>
<trkpt lat="46.019623" lon="9.827117">
	<ele>1743.80</ele>
	<time>2022-06-28T08:04:14.000Z</time>
</trkpt>
<trkpt lat="46.019595" lon="9.827160">
	<ele>1743.80</ele>
	<time>2022-06-28T08:04:17.000Z</time>
</trkpt>
<trkpt lat="46.019584" lon="9.827168">
	<ele>1743.80</ele>
	<time>2022-06-28T08:04:18.000Z</time>
</trkpt>
<trkpt lat="46.019518" lon="9.827220">
	<ele>1743.40</ele>
	<time>2022-06-28T08:04:24.000Z</time>
</trkpt>
<trkpt lat="46.019402" lon="9.827310">
	<ele>1743.40</ele>
	<time>2022-06-28T08:04:35.000Z</time>
</trkpt>
<trkpt lat="46.019342" lon="9.827413">
	<ele>1743.20</ele>
	<time>2022-06-28T08:04:42.000Z</time>
</trkpt>
<trkpt lat="46.019333" lon="9.827443">
	<ele>1743.20</ele>
	<time>2022-06-28T08:04:44.000Z</time>
</trkpt>
<trkpt lat="46.019328" lon="9.827469">
	<ele>1743.20</ele>
	<time>2022-06-28T08:04:46.000Z</time>
</trkpt>
<trkpt lat="46.019315" lon="9.827502">
	<ele>1743.20</ele>
	<time>2022-06-28T08:04:48.000Z</time>
</trkpt>
<trkpt lat="46.019313" lon="9.827555">
	<ele>1743.20</ele>
	<time>2022-06-28T08:04:51.000Z</time>
</trkpt>
<trkpt lat="46.019312" lon="9.827607">
	<ele>1743.20</ele>
	<time>2022-06-28T08:04:54.000Z</time>
</trkpt>
<trkpt lat="46.019269" lon="9.827703">
	<ele>1743.00</ele>
	<time>2022-06-28T08:05:00.000Z</time>
</trkpt>
<trkpt lat="46.019263" lon="9.827719">
	<ele>1743.00</ele>
	<time>2022-06-28T08:05:01.000Z</time>
</trkpt>
<trkpt lat="46.019237" lon="9.827853">
	<ele>1742.80</ele>
	<time>2022-06-28T08:05:09.000Z</time>
</trkpt>
<trkpt lat="46.019227" lon="9.827884">
	<ele>1742.80</ele>
	<time>2022-06-28T08:05:11.000Z</time>
</trkpt>
<trkpt lat="46.019195" lon="9.827920">
	<ele>1742.80</ele>
	<time>2022-06-28T08:05:14.000Z</time>
</trkpt>
<trkpt lat="46.019146" lon="9.828002">
	<ele>1742.80</ele>
	<time>2022-06-28T08:05:20.000Z</time>
</trkpt>
<trkpt lat="46.019132" lon="9.828009">
	<ele>1742.80</ele>
	<time>2022-06-28T08:05:21.000Z</time>
</trkpt>
<trkpt lat="46.019087" lon="9.828081">
	<ele>1743.00</ele>
	<time>2022-06-28T08:05:27.000Z</time>
</trkpt>
<trkpt lat="46.019076" lon="9.828083">
	<ele>1743.00</ele>
	<time>2022-06-28T08:05:28.000Z</time>
</trkpt>
<trkpt lat="46.019044" lon="9.828150">
	<ele>1742.60</ele>
	<time>2022-06-28T08:05:34.000Z</time>
</trkpt>
<trkpt lat="46.019046" lon="9.828182">
	<ele>1742.40</ele>
	<time>2022-06-28T08:05:36.000Z</time>
</trkpt>
<trkpt lat="46.019038" lon="9.828254">
	<ele>1742.20</ele>
	<time>2022-06-28T08:05:41.000Z</time>
</trkpt>
<trkpt lat="46.019032" lon="9.828270">
	<ele>1742.20</ele>
	<time>2022-06-28T08:05:42.000Z</time>
</trkpt>
<trkpt lat="46.019002" lon="9.828387">
	<ele>1742.20</ele>
	<time>2022-06-28T08:05:49.000Z</time>
</trkpt>
<trkpt lat="46.019001" lon="9.828422">
	<ele>1742.20</ele>
	<time>2022-06-28T08:05:51.000Z</time>
</trkpt>
<trkpt lat="46.018991" lon="9.828474">
	<ele>1742.20</ele>
	<time>2022-06-28T08:05:54.000Z</time>
</trkpt>
<trkpt lat="46.018983" lon="9.828502">
	<ele>1742.20</ele>
	<time>2022-06-28T08:05:56.000Z</time>
</trkpt>
<trkpt lat="46.018982" lon="9.828523">
	<ele>1742.00</ele>
	<time>2022-06-28T08:05:57.000Z</time>
</trkpt>
<trkpt lat="46.018928" lon="9.828640">
	<ele>1741.60</ele>
	<time>2022-06-28T08:06:05.000Z</time>
</trkpt>
<trkpt lat="46.018907" lon="9.828669">
	<ele>1741.60</ele>
	<time>2022-06-28T08:06:07.000Z</time>
</trkpt>
<trkpt lat="46.018896" lon="9.828723">
	<ele>1741.40</ele>
	<time>2022-06-28T08:06:11.000Z</time>
</trkpt>
<trkpt lat="46.018888" lon="9.828721">
	<ele>1741.40</ele>
	<time>2022-06-28T08:06:16.000Z</time>
</trkpt>
<trkpt lat="46.018878" lon="9.828730">
	<ele>1741.40</ele>
	<time>2022-06-28T08:06:21.000Z</time>
</trkpt>
<trkpt lat="46.018880" lon="9.828732">
	<ele>1741.60</ele>
	<time>2022-06-28T08:06:28.000Z</time>
</trkpt>
<trkpt lat="46.018882" lon="9.828800">
	<ele>1741.40</ele>
	<time>2022-06-28T08:06:36.000Z</time>
</trkpt>
<trkpt lat="46.018888" lon="9.828940">
	<ele>1741.20</ele>
	<time>2022-06-28T08:06:42.000Z</time>
</trkpt>
<trkpt lat="46.018885" lon="9.829024">
	<ele>1741.00</ele>
	<time>2022-06-28T08:06:47.000Z</time>
</trkpt>
<trkpt lat="46.018882" lon="9.829057">
	<ele>1740.80</ele>
	<time>2022-06-28T08:06:49.000Z</time>
</trkpt>
<trkpt lat="46.018873" lon="9.829113">
	<ele>1740.60</ele>
	<time>2022-06-28T08:06:52.000Z</time>
</trkpt>
<trkpt lat="46.018844" lon="9.829164">
	<ele>1740.60</ele>
	<time>2022-06-28T08:06:56.000Z</time>
</trkpt>
<trkpt lat="46.018824" lon="9.829191">
	<ele>1740.40</ele>
	<time>2022-06-28T08:06:58.000Z</time>
</trkpt>
<trkpt lat="46.018821" lon="9.829207">
	<ele>1740.40</ele>
	<time>2022-06-28T08:06:59.000Z</time>
</trkpt>
<trkpt lat="46.018811" lon="9.829265">
	<ele>1740.20</ele>
	<time>2022-06-28T08:07:02.000Z</time>
</trkpt>
<trkpt lat="46.018811" lon="9.829281">
	<ele>1740.20</ele>
	<time>2022-06-28T08:07:03.000Z</time>
</trkpt>
<trkpt lat="46.018808" lon="9.829296">
	<ele>1740.20</ele>
	<time>2022-06-28T08:07:04.000Z</time>
</trkpt>
<trkpt lat="46.018796" lon="9.829352">
	<ele>1740.00</ele>
	<time>2022-06-28T08:07:08.000Z</time>
</trkpt>
<trkpt lat="46.018788" lon="9.829376">
	<ele>1740.00</ele>
	<time>2022-06-28T08:07:10.000Z</time>
</trkpt>
<trkpt lat="46.018775" lon="9.829408">
	<ele>1740.20</ele>
	<time>2022-06-28T08:07:13.000Z</time>
</trkpt>
<trkpt lat="46.018770" lon="9.829464">
	<ele>1740.20</ele>
	<time>2022-06-28T08:07:17.000Z</time>
</trkpt>
<trkpt lat="46.018771" lon="9.829480">
	<ele>1740.00</ele>
	<time>2022-06-28T08:07:18.000Z</time>
</trkpt>
<trkpt lat="46.018769" lon="9.829492">
	<ele>1740.00</ele>
	<time>2022-06-28T08:07:19.000Z</time>
</trkpt>
<trkpt lat="46.018761" lon="9.829555">
	<ele>1739.60</ele>
	<time>2022-06-28T08:07:23.000Z</time>
</trkpt>
<trkpt lat="46.018747" lon="9.829574">
	<ele>1739.60</ele>
	<time>2022-06-28T08:07:24.000Z</time>
</trkpt>
<trkpt lat="46.018741" lon="9.829592">
	<ele>1739.60</ele>
	<time>2022-06-28T08:07:25.000Z</time>
</trkpt>
<trkpt lat="46.018724" lon="9.829655">
	<ele>1739.40</ele>
	<time>2022-06-28T08:07:29.000Z</time>
</trkpt>
<trkpt lat="46.018720" lon="9.829672">
	<ele>1739.40</ele>
	<time>2022-06-28T08:07:30.000Z</time>
</trkpt>
<trkpt lat="46.018704" lon="9.829738">
	<ele>1739.20</ele>
	<time>2022-06-28T08:07:35.000Z</time>
</trkpt>
<trkpt lat="46.018699" lon="9.829754">
	<ele>1739.20</ele>
	<time>2022-06-28T08:07:36.000Z</time>
</trkpt>
<trkpt lat="46.018690" lon="9.829785">
	<ele>1739.00</ele>
	<time>2022-06-28T08:07:38.000Z</time>
</trkpt>
<trkpt lat="46.018695" lon="9.829798">
	<ele>1738.80</ele>
	<time>2022-06-28T08:07:39.000Z</time>
</trkpt>
<trkpt lat="46.018699" lon="9.829811">
	<ele>1738.80</ele>
	<time>2022-06-28T08:07:40.000Z</time>
</trkpt>
<trkpt lat="46.018685" lon="9.829866">
	<ele>1738.80</ele>
	<time>2022-06-28T08:07:44.000Z</time>
</trkpt>
<trkpt lat="46.018679" lon="9.829905">
	<ele>1738.80</ele>
	<time>2022-06-28T08:07:46.000Z</time>
</trkpt>
<trkpt lat="46.018673" lon="9.829971">
	<ele>1738.80</ele>
	<time>2022-06-28T08:07:50.000Z</time>
</trkpt>
<trkpt lat="46.018666" lon="9.830025">
	<ele>1738.60</ele>
	<time>2022-06-28T08:07:53.000Z</time>
</trkpt>
<trkpt lat="46.018660" lon="9.830039">
	<ele>1738.60</ele>
	<time>2022-06-28T08:07:54.000Z</time>
</trkpt>
<trkpt lat="46.018635" lon="9.830126">
	<ele>1738.60</ele>
	<time>2022-06-28T08:08:00.000Z</time>
</trkpt>
<trkpt lat="46.018627" lon="9.830159">
	<ele>1738.60</ele>
	<time>2022-06-28T08:08:03.000Z</time>
</trkpt>
<trkpt lat="46.018633" lon="9.830180">
	<ele>1738.80</ele>
	<time>2022-06-28T08:08:05.000Z</time>
</trkpt>
<trkpt lat="46.018635" lon="9.830193">
	<ele>1739.00</ele>
	<time>2022-06-28T08:08:06.000Z</time>
</trkpt>
<trkpt lat="46.018673" lon="9.830230">
	<ele>1739.00</ele>
	<time>2022-06-28T08:08:11.000Z</time>
</trkpt>
<trkpt lat="46.018682" lon="9.830240">
	<ele>1738.80</ele>
	<time>2022-06-28T08:08:12.000Z</time>
</trkpt>
<trkpt lat="46.018708" lon="9.830319">
	<ele>1738.40</ele>
	<time>2022-06-28T08:08:19.000Z</time>
</trkpt>
<trkpt lat="46.018712" lon="9.830325">
	<ele>1738.40</ele>
	<time>2022-06-28T08:08:20.000Z</time>
</trkpt>
<trkpt lat="46.018743" lon="9.830390">
	<ele>1738.40</ele>
	<time>2022-06-28T08:08:25.000Z</time>
</trkpt>
<trkpt lat="46.018792" lon="9.830478">
	<ele>1738.00</ele>
	<time>2022-06-28T08:08:31.000Z</time>
</trkpt>
<trkpt lat="46.018815" lon="9.830516">
	<ele>1738.00</ele>
	<time>2022-06-28T08:08:34.000Z</time>
</trkpt>
<trkpt lat="46.018823" lon="9.830536">
	<ele>1737.80</ele>
	<time>2022-06-28T08:08:35.000Z</time>
</trkpt>
<trkpt lat="46.018856" lon="9.830617">
	<ele>1737.80</ele>
	<time>2022-06-28T08:08:39.000Z</time>
</trkpt>
<trkpt lat="46.018877" lon="9.830768">
	<ele>1737.60</ele>
	<time>2022-06-28T08:08:47.000Z</time>
</trkpt>
<trkpt lat="46.018905" lon="9.830894">
	<ele>1737.40</ele>
	<time>2022-06-28T08:08:54.000Z</time>
</trkpt>
<trkpt lat="46.018912" lon="9.830912">
	<ele>1737.40</ele>
	<time>2022-06-28T08:08:55.000Z</time>
</trkpt>
<trkpt lat="46.018932" lon="9.830964">
	<ele>1737.20</ele>
	<time>2022-06-28T08:08:58.000Z</time>
</trkpt>
<trkpt lat="46.018959" lon="9.831046">
	<ele>1737.00</ele>
	<time>2022-06-28T08:09:03.000Z</time>
</trkpt>
<trkpt lat="46.018984" lon="9.831134">
	<ele>1736.80</ele>
	<time>2022-06-28T08:09:08.000Z</time>
</trkpt>
<trkpt lat="46.019007" lon="9.831237">
	<ele>1736.40</ele>
	<time>2022-06-28T08:09:14.000Z</time>
</trkpt>
<trkpt lat="46.019011" lon="9.831251">
	<ele>1736.40</ele>
	<time>2022-06-28T08:09:15.000Z</time>
</trkpt>
<trkpt lat="46.019017" lon="9.831268">
	<ele>1736.40</ele>
	<time>2022-06-28T08:09:16.000Z</time>
</trkpt>
<trkpt lat="46.019028" lon="9.831292">
	<ele>1736.40</ele>
	<time>2022-06-28T08:09:18.000Z</time>
</trkpt>
<trkpt lat="46.019053" lon="9.831328">
	<ele>1736.20</ele>
	<time>2022-06-28T08:09:21.000Z</time>
</trkpt>
<trkpt lat="46.019060" lon="9.831345">
	<ele>1736.20</ele>
	<time>2022-06-28T08:09:22.000Z</time>
</trkpt>
<trkpt lat="46.019099" lon="9.831499">
	<ele>1735.80</ele>
	<time>2022-06-28T08:09:31.000Z</time>
</trkpt>
<trkpt lat="46.019104" lon="9.831532">
	<ele>1735.80</ele>
	<time>2022-06-28T08:09:33.000Z</time>
</trkpt>
<trkpt lat="46.019119" lon="9.831604">
	<ele>1735.80</ele>
	<time>2022-06-28T08:09:37.000Z</time>
</trkpt>
<trkpt lat="46.019123" lon="9.831624">
	<ele>1735.80</ele>
	<time>2022-06-28T08:09:38.000Z</time>
</trkpt>
<trkpt lat="46.019115" lon="9.831716">
	<ele>1735.60</ele>
	<time>2022-06-28T08:09:44.000Z</time>
</trkpt>
<trkpt lat="46.019115" lon="9.831718">
	<ele>1735.60</ele>
	<time>2022-06-28T08:09:45.000Z</time>
</trkpt>
<trkpt lat="46.019123" lon="9.831713">
	<ele>1735.60</ele>
	<time>2022-06-28T08:09:48.000Z</time>
</trkpt>
<trkpt lat="46.019132" lon="9.831715">
	<ele>1735.60</ele>
	<time>2022-06-28T08:09:51.000Z</time>
</trkpt>
<trkpt lat="46.019117" lon="9.831771">
	<ele>1735.60</ele>
	<time>2022-06-28T08:09:57.000Z</time>
</trkpt>
<trkpt lat="46.019114" lon="9.831851">
	<ele>1735.80</ele>
	<time>2022-06-28T08:10:02.000Z</time>
</trkpt>
<trkpt lat="46.019144" lon="9.831970">
	<ele>1735.60</ele>
	<time>2022-06-28T08:10:08.000Z</time>
</trkpt>
<trkpt lat="46.019180" lon="9.832067">
	<ele>1735.00</ele>
	<time>2022-06-28T08:10:15.000Z</time>
</trkpt>
<trkpt lat="46.019235" lon="9.832205">
	<ele>1735.00</ele>
	<time>2022-06-28T08:10:25.000Z</time>
</trkpt>
<trkpt lat="46.019242" lon="9.832259">
	<ele>1735.40</ele>
	<time>2022-06-28T08:10:28.000Z</time>
</trkpt>
<trkpt lat="46.019267" lon="9.832324">
	<ele>1735.80</ele>
	<time>2022-06-28T08:10:32.000Z</time>
</trkpt>
<trkpt lat="46.019277" lon="9.832341">
	<ele>1735.80</ele>
	<time>2022-06-28T08:10:33.000Z</time>
</trkpt>
<trkpt lat="46.019326" lon="9.832413">
	<ele>1735.60</ele>
	<time>2022-06-28T08:10:38.000Z</time>
</trkpt>
<trkpt lat="46.019326" lon="9.832430">
	<ele>1735.60</ele>
	<time>2022-06-28T08:10:39.000Z</time>
</trkpt>
<trkpt lat="46.019328" lon="9.832443">
	<ele>1735.40</ele>
	<time>2022-06-28T08:10:40.000Z</time>
</trkpt>
<trkpt lat="46.019427" lon="9.832487">
	<ele>1735.20</ele>
	<time>2022-06-28T08:10:48.000Z</time>
</trkpt>
<trkpt lat="46.019456" lon="9.832490">
	<ele>1735.00</ele>
	<time>2022-06-28T08:10:51.000Z</time>
</trkpt>
<trkpt lat="46.019481" lon="9.832499">
	<ele>1735.00</ele>
	<time>2022-06-28T08:10:53.000Z</time>
</trkpt>
<trkpt lat="46.019488" lon="9.832508">
	<ele>1735.00</ele>
	<time>2022-06-28T08:10:54.000Z</time>
</trkpt>
<trkpt lat="46.019510" lon="9.832529">
	<ele>1734.80</ele>
	<time>2022-06-28T08:10:56.000Z</time>
</trkpt>
<trkpt lat="46.019553" lon="9.832567">
	<ele>1735.00</ele>
	<time>2022-06-28T08:11:01.000Z</time>
</trkpt>
<trkpt lat="46.019569" lon="9.832579">
	<ele>1735.00</ele>
	<time>2022-06-28T08:11:03.000Z</time>
</trkpt>
<trkpt lat="46.019576" lon="9.832587">
	<ele>1735.00</ele>
	<time>2022-06-28T08:11:04.000Z</time>
</trkpt>
<trkpt lat="46.019599" lon="9.832608">
	<ele>1735.00</ele>
	<time>2022-06-28T08:11:06.000Z</time>
</trkpt>
<trkpt lat="46.019645" lon="9.832616">
	<ele>1734.80</ele>
	<time>2022-06-28T08:11:11.000Z</time>
</trkpt>
<trkpt lat="46.019653" lon="9.832627">
	<ele>1734.80</ele>
	<time>2022-06-28T08:11:12.000Z</time>
</trkpt>
<trkpt lat="46.019658" lon="9.832639">
	<ele>1734.60</ele>
	<time>2022-06-28T08:11:13.000Z</time>
</trkpt>
<trkpt lat="46.019699" lon="9.832692">
	<ele>1734.40</ele>
	<time>2022-06-28T08:11:19.000Z</time>
</trkpt>
<trkpt lat="46.019709" lon="9.832697">
	<ele>1734.40</ele>
	<time>2022-06-28T08:11:20.000Z</time>
</trkpt>
<trkpt lat="46.019733" lon="9.832713">
	<ele>1734.60</ele>
	<time>2022-06-28T08:11:23.000Z</time>
</trkpt>
<trkpt lat="46.019769" lon="9.832751">
	<ele>1734.60</ele>
	<time>2022-06-28T08:11:27.000Z</time>
</trkpt>
<trkpt lat="46.019838" lon="9.832785">
	<ele>1734.60</ele>
	<time>2022-06-28T08:11:34.000Z</time>
</trkpt>
<trkpt lat="46.019887" lon="9.832798">
	<ele>1734.40</ele>
	<time>2022-06-28T08:11:38.000Z</time>
</trkpt>
<trkpt lat="46.019933" lon="9.832859">
	<ele>1734.60</ele>
	<time>2022-06-28T08:11:43.000Z</time>
</trkpt>
<trkpt lat="46.019965" lon="9.832904">
	<ele>1734.80</ele>
	<time>2022-06-28T08:11:46.000Z</time>
</trkpt>
<trkpt lat="46.019975" lon="9.832914">
	<ele>1734.80</ele>
	<time>2022-06-28T08:11:47.000Z</time>
</trkpt>
<trkpt lat="46.020004" lon="9.832963">
	<ele>1735.00</ele>
	<time>2022-06-28T08:11:51.000Z</time>
</trkpt>
<trkpt lat="46.020093" lon="9.833044">
	<ele>1735.20</ele>
	<time>2022-06-28T08:12:00.000Z</time>
</trkpt>
<trkpt lat="46.020147" lon="9.833087">
	<ele>1735.00</ele>
	<time>2022-06-28T08:12:05.000Z</time>
</trkpt>
<trkpt lat="46.020162" lon="9.833113">
	<ele>1734.80</ele>
	<time>2022-06-28T08:12:07.000Z</time>
</trkpt>
<trkpt lat="46.020211" lon="9.833182">
	<ele>1734.60</ele>
	<time>2022-06-28T08:12:13.000Z</time>
</trkpt>
<trkpt lat="46.020230" lon="9.833189">
	<ele>1734.40</ele>
	<time>2022-06-28T08:12:15.000Z</time>
</trkpt>
<trkpt lat="46.020285" lon="9.833252">
	<ele>1733.80</ele>
	<time>2022-06-28T08:12:21.000Z</time>
</trkpt>
<trkpt lat="46.020294" lon="9.833270">
	<ele>1733.80</ele>
	<time>2022-06-28T08:12:22.000Z</time>
</trkpt>
<trkpt lat="46.020324" lon="9.833316">
	<ele>1733.80</ele>
	<time>2022-06-28T08:12:26.000Z</time>
</trkpt>
<trkpt lat="46.020377" lon="9.833373">
	<ele>1733.80</ele>
	<time>2022-06-28T08:12:31.000Z</time>
</trkpt>
<trkpt lat="46.020467" lon="9.833472">
	<ele>1733.60</ele>
	<time>2022-06-28T08:12:40.000Z</time>
</trkpt>
<trkpt lat="46.020540" lon="9.833571">
	<ele>1732.80</ele>
	<time>2022-06-28T08:12:49.000Z</time>
</trkpt>
<trkpt lat="46.020588" lon="9.833705">
	<ele>1733.20</ele>
	<time>2022-06-28T08:12:58.000Z</time>
</trkpt>
<trkpt lat="46.020649" lon="9.833787">
	<ele>1733.20</ele>
	<time>2022-06-28T08:13:05.000Z</time>
</trkpt>
<trkpt lat="46.020694" lon="9.833879">
	<ele>1733.20</ele>
	<time>2022-06-28T08:13:11.000Z</time>
</trkpt>
<trkpt lat="46.020723" lon="9.833910">
	<ele>1733.00</ele>
	<time>2022-06-28T08:13:14.000Z</time>
</trkpt>
<trkpt lat="46.020792" lon="9.834002">
	<ele>1733.00</ele>
	<time>2022-06-28T08:13:23.000Z</time>
</trkpt>
<trkpt lat="46.020826" lon="9.834066">
	<ele>1732.60</ele>
	<time>2022-06-28T08:13:28.000Z</time>
</trkpt>
<trkpt lat="46.020826" lon="9.834092">
	<ele>1732.80</ele>
	<time>2022-06-28T08:13:31.000Z</time>
</trkpt>
<trkpt lat="46.020839" lon="9.834115">
	<ele>1733.40</ele>
	<time>2022-06-28T08:13:41.000Z</time>
</trkpt>
<trkpt lat="46.020889" lon="9.834202">
	<ele>1733.20</ele>
	<time>2022-06-28T08:13:49.000Z</time>
</trkpt>
<trkpt lat="46.020932" lon="9.834252">
	<ele>1733.00</ele>
	<time>2022-06-28T08:13:55.000Z</time>
</trkpt>
<trkpt lat="46.020945" lon="9.834286">
	<ele>1732.80</ele>
	<time>2022-06-28T08:13:57.000Z</time>
</trkpt>
<trkpt lat="46.020965" lon="9.834340">
	<ele>1732.40</ele>
	<time>2022-06-28T08:14:01.000Z</time>
</trkpt>
<trkpt lat="46.020979" lon="9.834394">
	<ele>1732.20</ele>
	<time>2022-06-28T08:14:04.000Z</time>
</trkpt>
<trkpt lat="46.020985" lon="9.834407">
	<ele>1732.00</ele>
	<time>2022-06-28T08:14:05.000Z</time>
</trkpt>
<trkpt lat="46.021033" lon="9.834504">
	<ele>1732.00</ele>
	<time>2022-06-28T08:14:11.000Z</time>
</trkpt>
<trkpt lat="46.021042" lon="9.834521">
	<ele>1732.00</ele>
	<time>2022-06-28T08:14:12.000Z</time>
</trkpt>
<trkpt lat="46.021088" lon="9.834632">
	<ele>1732.20</ele>
	<time>2022-06-28T08:14:20.000Z</time>
</trkpt>
<trkpt lat="46.021145" lon="9.834739">
	<ele>1732.20</ele>
	<time>2022-06-28T08:14:28.000Z</time>
</trkpt>
<trkpt lat="46.021180" lon="9.834805">
	<ele>1732.60</ele>
	<time>2022-06-28T08:14:33.000Z</time>
</trkpt>
<trkpt lat="46.021211" lon="9.834861">
	<ele>1732.40</ele>
	<time>2022-06-28T08:14:37.000Z</time>
</trkpt>
<trkpt lat="46.021253" lon="9.834989">
	<ele>1732.00</ele>
	<time>2022-06-28T08:14:45.000Z</time>
</trkpt>
<trkpt lat="46.021288" lon="9.835089">
	<ele>1732.00</ele>
	<time>2022-06-28T08:14:52.000Z</time>
</trkpt>
<trkpt lat="46.021295" lon="9.835147">
	<ele>1732.00</ele>
	<time>2022-06-28T08:14:55.000Z</time>
</trkpt>
<trkpt lat="46.021313" lon="9.835219">
	<ele>1732.20</ele>
	<time>2022-06-28T08:15:00.000Z</time>
</trkpt>
<trkpt lat="46.021350" lon="9.835301">
	<ele>1732.80</ele>
	<time>2022-06-28T08:15:06.000Z</time>
</trkpt>
<trkpt lat="46.021366" lon="9.835341">
	<ele>1733.00</ele>
	<time>2022-06-28T08:15:09.000Z</time>
</trkpt>
<trkpt lat="46.021370" lon="9.835368">
	<ele>1733.20</ele>
	<time>2022-06-28T08:15:11.000Z</time>
</trkpt>
<trkpt lat="46.021377" lon="9.835384">
	<ele>1733.20</ele>
	<time>2022-06-28T08:15:12.000Z</time>
</trkpt>
<trkpt lat="46.021401" lon="9.835448">
	<ele>1733.80</ele>
	<time>2022-06-28T08:15:17.000Z</time>
</trkpt>
<trkpt lat="46.021401" lon="9.835465">
	<ele>1733.80</ele>
	<time>2022-06-28T08:15:18.000Z</time>
</trkpt>
<trkpt lat="46.021407" lon="9.835497">
	<ele>1733.80</ele>
	<time>2022-06-28T08:15:20.000Z</time>
</trkpt>
<trkpt lat="46.021428" lon="9.835603">
	<ele>1734.20</ele>
	<time>2022-06-28T08:15:27.000Z</time>
</trkpt>
<trkpt lat="46.021422" lon="9.835644">
	<ele>1734.60</ele>
	<time>2022-06-28T08:15:30.000Z</time>
</trkpt>
<trkpt lat="46.021418" lon="9.835668">
	<ele>1734.80</ele>
	<time>2022-06-28T08:15:32.000Z</time>
</trkpt>
<trkpt lat="46.021441" lon="9.835743">
	<ele>1735.40</ele>
	<time>2022-06-28T08:15:38.000Z</time>
</trkpt>
<trkpt lat="46.021448" lon="9.835785">
	<ele>1735.60</ele>
	<time>2022-06-28T08:15:41.000Z</time>
</trkpt>
<trkpt lat="46.021455" lon="9.835791">
	<ele>1735.80</ele>
	<time>2022-06-28T08:15:42.000Z</time>
</trkpt>
<trkpt lat="46.021462" lon="9.835801">
	<ele>1736.00</ele>
	<time>2022-06-28T08:15:43.000Z</time>
</trkpt>
<trkpt lat="46.021470" lon="9.835827">
	<ele>1736.40</ele>
	<time>2022-06-28T08:15:45.000Z</time>
</trkpt>
<trkpt lat="46.021486" lon="9.835881">
	<ele>1736.60</ele>
	<time>2022-06-28T08:15:49.000Z</time>
</trkpt>
<trkpt lat="46.021485" lon="9.835946">
	<ele>1736.80</ele>
	<time>2022-06-28T08:15:53.000Z</time>
</trkpt>
<trkpt lat="46.021496" lon="9.836075">
	<ele>1737.20</ele>
	<time>2022-06-28T08:16:01.000Z</time>
</trkpt>
<trkpt lat="46.021512" lon="9.836140">
	<ele>1737.40</ele>
	<time>2022-06-28T08:16:05.000Z</time>
</trkpt>
<trkpt lat="46.021521" lon="9.836185">
	<ele>1737.60</ele>
	<time>2022-06-28T08:16:08.000Z</time>
</trkpt>
<trkpt lat="46.021522" lon="9.836208">
	<ele>1737.60</ele>
	<time>2022-06-28T08:16:10.000Z</time>
</trkpt>
<trkpt lat="46.021515" lon="9.836254">
	<ele>1737.80</ele>
	<time>2022-06-28T08:16:13.000Z</time>
</trkpt>
<trkpt lat="46.021512" lon="9.836281">
	<ele>1737.80</ele>
	<time>2022-06-28T08:16:15.000Z</time>
</trkpt>
<trkpt lat="46.021514" lon="9.836297">
	<ele>1738.00</ele>
	<time>2022-06-28T08:16:16.000Z</time>
</trkpt>
<trkpt lat="46.021518" lon="9.836333">
	<ele>1738.20</ele>
	<time>2022-06-28T08:16:18.000Z</time>
</trkpt>
<trkpt lat="46.021547" lon="9.836477">
	<ele>1738.80</ele>
	<time>2022-06-28T08:16:27.000Z</time>
</trkpt>
<trkpt lat="46.021571" lon="9.836529">
	<ele>1739.00</ele>
	<time>2022-06-28T08:16:30.000Z</time>
</trkpt>
<trkpt lat="46.021604" lon="9.836588">
	<ele>1739.20</ele>
	<time>2022-06-28T08:16:34.000Z</time>
</trkpt>
<trkpt lat="46.021608" lon="9.836603">
	<ele>1739.20</ele>
	<time>2022-06-28T08:16:35.000Z</time>
</trkpt>
<trkpt lat="46.021611" lon="9.836700">
	<ele>1739.20</ele>
	<time>2022-06-28T08:16:40.000Z</time>
</trkpt>
<trkpt lat="46.021613" lon="9.836776">
	<ele>1739.20</ele>
	<time>2022-06-28T08:16:44.000Z</time>
</trkpt>
<trkpt lat="46.021624" lon="9.836832">
	<ele>1739.40</ele>
	<time>2022-06-28T08:16:47.000Z</time>
</trkpt>
<trkpt lat="46.021629" lon="9.836975">
	<ele>1739.40</ele>
	<time>2022-06-28T08:16:55.000Z</time>
</trkpt>
<trkpt lat="46.021640" lon="9.837066">
	<ele>1739.80</ele>
	<time>2022-06-28T08:17:00.000Z</time>
</trkpt>
<trkpt lat="46.021640" lon="9.837084">
	<ele>1739.80</ele>
	<time>2022-06-28T08:17:01.000Z</time>
</trkpt>
<trkpt lat="46.021662" lon="9.837227">
	<ele>1740.00</ele>
	<time>2022-06-28T08:17:09.000Z</time>
</trkpt>
<trkpt lat="46.021666" lon="9.837260">
	<ele>1740.20</ele>
	<time>2022-06-28T08:17:11.000Z</time>
</trkpt>
<trkpt lat="46.021678" lon="9.837330">
	<ele>1740.40</ele>
	<time>2022-06-28T08:17:15.000Z</time>
</trkpt>
<trkpt lat="46.021689" lon="9.837394">
	<ele>1740.40</ele>
	<time>2022-06-28T08:17:19.000Z</time>
</trkpt>
<trkpt lat="46.021713" lon="9.837563">
	<ele>1740.60</ele>
	<time>2022-06-28T08:17:28.000Z</time>
</trkpt>
<trkpt lat="46.021723" lon="9.837650">
	<ele>1741.00</ele>
	<time>2022-06-28T08:17:33.000Z</time>
</trkpt>
<trkpt lat="46.021738" lon="9.837699">
	<ele>1741.00</ele>
	<time>2022-06-28T08:17:36.000Z</time>
</trkpt>
<trkpt lat="46.021765" lon="9.837783">
	<ele>1741.00</ele>
	<time>2022-06-28T08:17:41.000Z</time>
</trkpt>
<trkpt lat="46.021778" lon="9.837906">
	<ele>1741.40</ele>
	<time>2022-06-28T08:17:50.000Z</time>
</trkpt>
<trkpt lat="46.021769" lon="9.837903">
	<ele>1741.60</ele>
	<time>2022-06-28T08:17:52.000Z</time>
</trkpt>
<trkpt lat="46.021750" lon="9.837901">
	<ele>1741.80</ele>
	<time>2022-06-28T08:17:55.000Z</time>
</trkpt>
<trkpt lat="46.021764" lon="9.837886">
	<ele>1741.80</ele>
	<time>2022-06-28T08:18:01.000Z</time>
</trkpt>
<trkpt lat="46.021769" lon="9.837882">
	<ele>1742.00</ele>
	<time>2022-06-28T08:18:03.000Z</time>
</trkpt>
<trkpt lat="46.021771" lon="9.837879">
	<ele>1742.00</ele>
	<time>2022-06-28T08:18:05.000Z</time>
</trkpt>
<trkpt lat="46.021756" lon="9.837928">
	<ele>1742.00</ele>
	<time>2022-06-28T08:18:09.000Z</time>
</trkpt>
<trkpt lat="46.021756" lon="9.837948">
	<ele>1742.00</ele>
	<time>2022-06-28T08:18:10.000Z</time>
</trkpt>
<trkpt lat="46.021773" lon="9.838004">
	<ele>1742.00</ele>
	<time>2022-06-28T08:18:13.000Z</time>
</trkpt>
<trkpt lat="46.021778" lon="9.838022">
	<ele>1741.80</ele>
	<time>2022-06-28T08:18:14.000Z</time>
</trkpt>
<trkpt lat="46.021812" lon="9.838138">
	<ele>1741.60</ele>
	<time>2022-06-28T08:18:20.000Z</time>
</trkpt>
<trkpt lat="46.021818" lon="9.838155">
	<ele>1741.80</ele>
	<time>2022-06-28T08:18:21.000Z</time>
</trkpt>
<trkpt lat="46.021824" lon="9.838170">
	<ele>1741.80</ele>
	<time>2022-06-28T08:18:22.000Z</time>
</trkpt>
<trkpt lat="46.021809" lon="9.838228">
	<ele>1741.80</ele>
	<time>2022-06-28T08:18:25.000Z</time>
</trkpt>
<trkpt lat="46.021815" lon="9.838258">
	<ele>1741.80</ele>
	<time>2022-06-28T08:18:27.000Z</time>
</trkpt>
<trkpt lat="46.021827" lon="9.838284">
	<ele>1742.20</ele>
	<time>2022-06-28T08:18:29.000Z</time>
</trkpt>
<trkpt lat="46.021834" lon="9.838319">
	<ele>1742.20</ele>
	<time>2022-06-28T08:18:31.000Z</time>
</trkpt>
<trkpt lat="46.021845" lon="9.838473">
	<ele>1741.80</ele>
	<time>2022-06-28T08:18:39.000Z</time>
</trkpt>
<trkpt lat="46.021827" lon="9.838555">
	<ele>1742.00</ele>
	<time>2022-06-28T08:18:43.000Z</time>
</trkpt>
<trkpt lat="46.021808" lon="9.838588">
	<ele>1742.00</ele>
	<time>2022-06-28T08:18:45.000Z</time>
</trkpt>
<trkpt lat="46.021764" lon="9.838728">
	<ele>1741.60</ele>
	<time>2022-06-28T08:18:53.000Z</time>
</trkpt>
<trkpt lat="46.021745" lon="9.838824">
	<ele>1741.20</ele>
	<time>2022-06-28T08:18:59.000Z</time>
</trkpt>
<trkpt lat="46.021733" lon="9.838872">
	<ele>1741.20</ele>
	<time>2022-06-28T08:19:01.000Z</time>
</trkpt>
<trkpt lat="46.021728" lon="9.838885">
	<ele>1741.00</ele>
	<time>2022-06-28T08:19:02.000Z</time>
</trkpt>
<trkpt lat="46.021723" lon="9.838918">
	<ele>1741.00</ele>
	<time>2022-06-28T08:19:04.000Z</time>
</trkpt>
<trkpt lat="46.021716" lon="9.838988">
	<ele>1741.00</ele>
	<time>2022-06-28T08:19:07.000Z</time>
</trkpt>
<trkpt lat="46.021713" lon="9.839014">
	<ele>1741.00</ele>
	<time>2022-06-28T08:19:08.000Z</time>
</trkpt>
<trkpt lat="46.021725" lon="9.839041">
	<ele>1741.00</ele>
	<time>2022-06-28T08:19:10.000Z</time>
</trkpt>
<trkpt lat="46.021716" lon="9.839107">
	<ele>1740.80</ele>
	<time>2022-06-28T08:19:14.000Z</time>
</trkpt>
<trkpt lat="46.021718" lon="9.839195">
	<ele>1740.60</ele>
	<time>2022-06-28T08:19:19.000Z</time>
</trkpt>
<trkpt lat="46.021735" lon="9.839235">
	<ele>1740.60</ele>
	<time>2022-06-28T08:19:21.000Z</time>
</trkpt>
<trkpt lat="46.021734" lon="9.839253">
	<ele>1740.60</ele>
	<time>2022-06-28T08:19:22.000Z</time>
</trkpt>
<trkpt lat="46.021714" lon="9.839345">
	<ele>1740.40</ele>
	<time>2022-06-28T08:19:27.000Z</time>
</trkpt>
<trkpt lat="46.021705" lon="9.839352">
	<ele>1740.40</ele>
	<time>2022-06-28T08:19:28.000Z</time>
</trkpt>
<trkpt lat="46.021689" lon="9.839397">
	<ele>1740.20</ele>
	<time>2022-06-28T08:19:31.000Z</time>
</trkpt>
<trkpt lat="46.021694" lon="9.839420">
	<ele>1740.20</ele>
	<time>2022-06-28T08:19:32.000Z</time>
</trkpt>
<trkpt lat="46.021687" lon="9.839443">
	<ele>1740.20</ele>
	<time>2022-06-28T08:19:33.000Z</time>
</trkpt>
<trkpt lat="46.021661" lon="9.839507">
	<ele>1740.00</ele>
	<time>2022-06-28T08:19:36.000Z</time>
</trkpt>
<trkpt lat="46.021659" lon="9.839531">
	<ele>1740.00</ele>
	<time>2022-06-28T08:19:37.000Z</time>
</trkpt>
<trkpt lat="46.021662" lon="9.839549">
	<ele>1740.00</ele>
	<time>2022-06-28T08:19:38.000Z</time>
</trkpt>
<trkpt lat="46.021657" lon="9.839562">
	<ele>1739.80</ele>
	<time>2022-06-28T08:19:39.000Z</time>
</trkpt>
<trkpt lat="46.021656" lon="9.839576">
	<ele>1739.80</ele>
	<time>2022-06-28T08:19:40.000Z</time>
</trkpt>
<trkpt lat="46.021671" lon="9.839653">
	<ele>1739.60</ele>
	<time>2022-06-28T08:19:44.000Z</time>
</trkpt>
<trkpt lat="46.021689" lon="9.839686">
	<ele>1739.20</ele>
	<time>2022-06-28T08:19:46.000Z</time>
</trkpt>
<trkpt lat="46.021692" lon="9.839706">
	<ele>1739.20</ele>
	<time>2022-06-28T08:19:48.000Z</time>
</trkpt>
<trkpt lat="46.021670" lon="9.839753">
	<ele>1739.20</ele>
	<time>2022-06-28T08:19:51.000Z</time>
</trkpt>
<trkpt lat="46.021629" lon="9.839866">
	<ele>1739.00</ele>
	<time>2022-06-28T08:19:59.000Z</time>
</trkpt>
<trkpt lat="46.021629" lon="9.839879">
	<ele>1739.00</ele>
	<time>2022-06-28T08:20:00.000Z</time>
</trkpt>
<trkpt lat="46.021571" lon="9.839950">
	<ele>1738.60</ele>
	<time>2022-06-28T08:20:06.000Z</time>
</trkpt>
<trkpt lat="46.021565" lon="9.839963">
	<ele>1738.40</ele>
	<time>2022-06-28T08:20:08.000Z</time>
</trkpt>
<trkpt lat="46.021547" lon="9.839968">
	<ele>1738.00</ele>
	<time>2022-06-28T08:20:11.000Z</time>
</trkpt>
<trkpt lat="46.021544" lon="9.839964">
	<ele>1738.00</ele>
	<time>2022-06-28T08:20:12.000Z</time>
</trkpt>
<trkpt lat="46.021535" lon="9.839968">
	<ele>1737.80</ele>
	<time>2022-06-28T08:20:13.000Z</time>
</trkpt>
<trkpt lat="46.021513" lon="9.839994">
	<ele>1737.80</ele>
	<time>2022-06-28T08:20:15.000Z</time>
</trkpt>
<trkpt lat="46.021463" lon="9.840064">
	<ele>1738.20</ele>
	<time>2022-06-28T08:20:18.000Z</time>
</trkpt>
<trkpt lat="46.021463" lon="9.840101">
	<ele>1738.20</ele>
	<time>2022-06-28T08:20:21.000Z</time>
</trkpt>
<trkpt lat="46.021466" lon="9.840116">
	<ele>1738.40</ele>
	<time>2022-06-28T08:20:22.000Z</time>
</trkpt>
<trkpt lat="46.021467" lon="9.840205">
	<ele>1738.00</ele>
	<time>2022-06-28T08:20:27.000Z</time>
</trkpt>
<trkpt lat="46.021464" lon="9.840245">
	<ele>1738.00</ele>
	<time>2022-06-28T08:20:29.000Z</time>
</trkpt>
<trkpt lat="46.021464" lon="9.840265">
	<ele>1737.80</ele>
	<time>2022-06-28T08:20:30.000Z</time>
</trkpt>
<trkpt lat="46.021460" lon="9.840338">
	<ele>1738.00</ele>
	<time>2022-06-28T08:20:34.000Z</time>
</trkpt>
<trkpt lat="46.021446" lon="9.840409">
	<ele>1737.80</ele>
	<time>2022-06-28T08:20:38.000Z</time>
</trkpt>
<trkpt lat="46.021449" lon="9.840434">
	<ele>1737.80</ele>
	<time>2022-06-28T08:20:40.000Z</time>
</trkpt>
<trkpt lat="46.021458" lon="9.840527">
	<ele>1737.80</ele>
	<time>2022-06-28T08:20:45.000Z</time>
</trkpt>
<trkpt lat="46.021451" lon="9.840555">
	<ele>1737.80</ele>
	<time>2022-06-28T08:20:47.000Z</time>
</trkpt>
<trkpt lat="46.021450" lon="9.840571">
	<ele>1737.80</ele>
	<time>2022-06-28T08:20:48.000Z</time>
</trkpt>
<trkpt lat="46.021453" lon="9.840679">
	<ele>1737.20</ele>
	<time>2022-06-28T08:20:53.000Z</time>
</trkpt>
<trkpt lat="46.021451" lon="9.840699">
	<ele>1737.20</ele>
	<time>2022-06-28T08:20:54.000Z</time>
</trkpt>
<trkpt lat="46.021431" lon="9.840759">
	<ele>1737.40</ele>
	<time>2022-06-28T08:20:58.000Z</time>
</trkpt>
<trkpt lat="46.021413" lon="9.840810">
	<ele>1737.60</ele>
	<time>2022-06-28T08:21:01.000Z</time>
</trkpt>
<trkpt lat="46.021410" lon="9.840897">
	<ele>1737.60</ele>
	<time>2022-06-28T08:21:06.000Z</time>
</trkpt>
<trkpt lat="46.021415" lon="9.840916">
	<ele>1737.60</ele>
	<time>2022-06-28T08:21:07.000Z</time>
</trkpt>
<trkpt lat="46.021414" lon="9.840933">
	<ele>1737.60</ele>
	<time>2022-06-28T08:21:08.000Z</time>
</trkpt>
<trkpt lat="46.021399" lon="9.840991">
	<ele>1737.60</ele>
	<time>2022-06-28T08:21:11.000Z</time>
</trkpt>
<trkpt lat="46.021384" lon="9.841040">
	<ele>1737.60</ele>
	<time>2022-06-28T08:21:14.000Z</time>
</trkpt>
<trkpt lat="46.021369" lon="9.841078">
	<ele>1737.60</ele>
	<time>2022-06-28T08:21:16.000Z</time>
</trkpt>
<trkpt lat="46.021360" lon="9.841112">
	<ele>1737.60</ele>
	<time>2022-06-28T08:21:18.000Z</time>
</trkpt>
<trkpt lat="46.021357" lon="9.841151">
	<ele>1737.80</ele>
	<time>2022-06-28T08:21:20.000Z</time>
</trkpt>
<trkpt lat="46.021358" lon="9.841171">
	<ele>1737.80</ele>
	<time>2022-06-28T08:21:21.000Z</time>
</trkpt>
<trkpt lat="46.021354" lon="9.841258">
	<ele>1738.00</ele>
	<time>2022-06-28T08:21:26.000Z</time>
</trkpt>
<trkpt lat="46.021353" lon="9.841288">
	<ele>1738.00</ele>
	<time>2022-06-28T08:21:28.000Z</time>
</trkpt>
<trkpt lat="46.021358" lon="9.841328">
	<ele>1738.20</ele>
	<time>2022-06-28T08:21:31.000Z</time>
</trkpt>
<trkpt lat="46.021350" lon="9.841370">
	<ele>1738.40</ele>
	<time>2022-06-28T08:21:34.000Z</time>
</trkpt>
<trkpt lat="46.021349" lon="9.841384">
	<ele>1738.60</ele>
	<time>2022-06-28T08:21:35.000Z</time>
</trkpt>
<trkpt lat="46.021352" lon="9.841438">
	<ele>1739.00</ele>
	<time>2022-06-28T08:21:38.000Z</time>
</trkpt>
<trkpt lat="46.021348" lon="9.841506">
	<ele>1739.20</ele>
	<time>2022-06-28T08:21:42.000Z</time>
</trkpt>
<trkpt lat="46.021366" lon="9.841531">
	<ele>1739.00</ele>
	<time>2022-06-28T08:21:44.000Z</time>
</trkpt>
<trkpt lat="46.021381" lon="9.841592">
	<ele>1739.20</ele>
	<time>2022-06-28T08:21:48.000Z</time>
</trkpt>
<trkpt lat="46.021405" lon="9.841650">
	<ele>1739.60</ele>
	<time>2022-06-28T08:21:53.000Z</time>
</trkpt>
<trkpt lat="46.021446" lon="9.841713">
	<ele>1740.00</ele>
	<time>2022-06-28T08:21:58.000Z</time>
</trkpt>
<trkpt lat="46.021477" lon="9.841743">
	<ele>1740.20</ele>
	<time>2022-06-28T08:22:01.000Z</time>
</trkpt>
<trkpt lat="46.021487" lon="9.841750">
	<ele>1740.20</ele>
	<time>2022-06-28T08:22:02.000Z</time>
</trkpt>
<trkpt lat="46.021495" lon="9.841760">
	<ele>1740.40</ele>
	<time>2022-06-28T08:22:03.000Z</time>
</trkpt>
<trkpt lat="46.021530" lon="9.841829">
	<ele>1741.00</ele>
	<time>2022-06-28T08:22:09.000Z</time>
</trkpt>
<trkpt lat="46.021536" lon="9.841847">
	<ele>1741.20</ele>
	<time>2022-06-28T08:22:11.000Z</time>
</trkpt>
<trkpt lat="46.021591" lon="9.841940">
	<ele>1741.20</ele>
	<time>2022-06-28T08:22:18.000Z</time>
</trkpt>
<trkpt lat="46.021641" lon="9.842067">
	<ele>1742.00</ele>
	<time>2022-06-28T08:22:27.000Z</time>
</trkpt>
<trkpt lat="46.021652" lon="9.842079">
	<ele>1742.00</ele>
	<time>2022-06-28T08:22:28.000Z</time>
</trkpt>
<trkpt lat="46.021662" lon="9.842105">
	<ele>1742.20</ele>
	<time>2022-06-28T08:22:30.000Z</time>
</trkpt>
<trkpt lat="46.021683" lon="9.842191">
	<ele>1742.40</ele>
	<time>2022-06-28T08:22:35.000Z</time>
</trkpt>
<trkpt lat="46.021714" lon="9.842361">
	<ele>1742.60</ele>
	<time>2022-06-28T08:22:45.000Z</time>
</trkpt>
<trkpt lat="46.021761" lon="9.842498">
	<ele>1742.80</ele>
	<time>2022-06-28T08:22:54.000Z</time>
</trkpt>
<trkpt lat="46.021792" lon="9.842552">
	<ele>1743.20</ele>
	<time>2022-06-28T08:22:58.000Z</time>
</trkpt>
<trkpt lat="46.021815" lon="9.842645">
	<ele>1743.40</ele>
	<time>2022-06-28T08:23:04.000Z</time>
</trkpt>
<trkpt lat="46.021815" lon="9.842784">
	<ele>1743.80</ele>
	<time>2022-06-28T08:23:12.000Z</time>
</trkpt>
<trkpt lat="46.021818" lon="9.842815">
	<ele>1743.80</ele>
	<time>2022-06-28T08:23:14.000Z</time>
</trkpt>
<trkpt lat="46.021829" lon="9.842872">
	<ele>1743.80</ele>
	<time>2022-06-28T08:23:18.000Z</time>
</trkpt>
<trkpt lat="46.021840" lon="9.842925">
	<ele>1744.00</ele>
	<time>2022-06-28T08:23:21.000Z</time>
</trkpt>
<trkpt lat="46.021851" lon="9.842970">
	<ele>1744.00</ele>
	<time>2022-06-28T08:23:24.000Z</time>
</trkpt>
<trkpt lat="46.021876" lon="9.843049">
	<ele>1744.00</ele>
	<time>2022-06-28T08:23:28.000Z</time>
</trkpt>
<trkpt lat="46.021876" lon="9.843065">
	<ele>1744.20</ele>
	<time>2022-06-28T08:23:29.000Z</time>
</trkpt>
<trkpt lat="46.021868" lon="9.843080">
	<ele>1744.20</ele>
	<time>2022-06-28T08:23:30.000Z</time>
</trkpt>
<trkpt lat="46.021862" lon="9.843098">
	<ele>1744.20</ele>
	<time>2022-06-28T08:23:31.000Z</time>
</trkpt>
<trkpt lat="46.021859" lon="9.843142">
	<ele>1744.20</ele>
	<time>2022-06-28T08:23:34.000Z</time>
</trkpt>
<trkpt lat="46.021870" lon="9.843173">
	<ele>1744.40</ele>
	<time>2022-06-28T08:23:37.000Z</time>
</trkpt>
<trkpt lat="46.021870" lon="9.843303">
	<ele>1744.60</ele>
	<time>2022-06-28T08:23:46.000Z</time>
</trkpt>
<trkpt lat="46.021867" lon="9.843324">
	<ele>1744.60</ele>
	<time>2022-06-28T08:23:47.000Z</time>
</trkpt>
<trkpt lat="46.021847" lon="9.843403">
	<ele>1745.00</ele>
	<time>2022-06-28T08:23:52.000Z</time>
</trkpt>
<trkpt lat="46.021839" lon="9.843434">
	<ele>1745.00</ele>
	<time>2022-06-28T08:23:55.000Z</time>
</trkpt>
<trkpt lat="46.021829" lon="9.843474">
	<ele>1745.00</ele>
	<time>2022-06-28T08:23:58.000Z</time>
</trkpt>
<trkpt lat="46.021830" lon="9.843563">
	<ele>1744.20</ele>
	<time>2022-06-28T08:24:04.000Z</time>
</trkpt>
<trkpt lat="46.021829" lon="9.843667">
	<ele>1744.00</ele>
	<time>2022-06-28T08:24:10.000Z</time>
</trkpt>
<trkpt lat="46.021827" lon="9.843690">
	<ele>1744.00</ele>
	<time>2022-06-28T08:24:11.000Z</time>
</trkpt>
<trkpt lat="46.021824" lon="9.843728">
	<ele>1743.80</ele>
	<time>2022-06-28T08:24:13.000Z</time>
</trkpt>
<trkpt lat="46.021810" lon="9.843790">
	<ele>1743.80</ele>
	<time>2022-06-28T08:24:17.000Z</time>
</trkpt>
<trkpt lat="46.021805" lon="9.843816">
	<ele>1743.80</ele>
	<time>2022-06-28T08:24:19.000Z</time>
</trkpt>
<trkpt lat="46.021800" lon="9.843873">
	<ele>1743.40</ele>
	<time>2022-06-28T08:24:23.000Z</time>
</trkpt>
<trkpt lat="46.021770" lon="9.843938">
	<ele>1743.20</ele>
	<time>2022-06-28T08:24:27.000Z</time>
</trkpt>
<trkpt lat="46.021766" lon="9.843991">
	<ele>1743.00</ele>
	<time>2022-06-28T08:24:30.000Z</time>
</trkpt>
<trkpt lat="46.021779" lon="9.844130">
	<ele>1743.00</ele>
	<time>2022-06-28T08:24:38.000Z</time>
</trkpt>
<trkpt lat="46.021808" lon="9.844199">
	<ele>1743.00</ele>
	<time>2022-06-28T08:24:44.000Z</time>
</trkpt>
<trkpt lat="46.021805" lon="9.844217">
	<ele>1743.20</ele>
	<time>2022-06-28T08:24:45.000Z</time>
</trkpt>
<trkpt lat="46.021803" lon="9.844232">
	<ele>1743.20</ele>
	<time>2022-06-28T08:24:46.000Z</time>
</trkpt>
<trkpt lat="46.021806" lon="9.844292">
	<ele>1743.20</ele>
	<time>2022-06-28T08:24:50.000Z</time>
</trkpt>
<trkpt lat="46.021825" lon="9.844333">
	<ele>1743.40</ele>
	<time>2022-06-28T08:24:53.000Z</time>
</trkpt>
<trkpt lat="46.021851" lon="9.844396">
	<ele>1743.40</ele>
	<time>2022-06-28T08:24:57.000Z</time>
</trkpt>
<trkpt lat="46.021868" lon="9.844531">
	<ele>1743.40</ele>
	<time>2022-06-28T08:25:04.000Z</time>
</trkpt>
<trkpt lat="46.021884" lon="9.844575">
	<ele>1743.40</ele>
	<time>2022-06-28T08:25:07.000Z</time>
</trkpt>
<trkpt lat="46.021881" lon="9.844616">
	<ele>1743.60</ele>
	<time>2022-06-28T08:25:09.000Z</time>
</trkpt>
<trkpt lat="46.021866" lon="9.844696">
	<ele>1743.60</ele>
	<time>2022-06-28T08:25:13.000Z</time>
</trkpt>
<trkpt lat="46.021871" lon="9.844734">
	<ele>1743.60</ele>
	<time>2022-06-28T08:25:15.000Z</time>
</trkpt>
<trkpt lat="46.021874" lon="9.844767">
	<ele>1743.60</ele>
	<time>2022-06-28T08:25:17.000Z</time>
</trkpt>
<trkpt lat="46.021878" lon="9.844796">
	<ele>1743.60</ele>
	<time>2022-06-28T08:25:19.000Z</time>
</trkpt>
<trkpt lat="46.021881" lon="9.844832">
	<ele>1743.80</ele>
	<time>2022-06-28T08:25:21.000Z</time>
</trkpt>
<trkpt lat="46.021875" lon="9.844868">
	<ele>1743.80</ele>
	<time>2022-06-28T08:25:23.000Z</time>
</trkpt>
<trkpt lat="46.021886" lon="9.844901">
	<ele>1743.80</ele>
	<time>2022-06-28T08:25:25.000Z</time>
</trkpt>
<trkpt lat="46.021899" lon="9.844960">
	<ele>1744.20</ele>
	<time>2022-06-28T08:25:29.000Z</time>
</trkpt>
<trkpt lat="46.021899" lon="9.844976">
	<ele>1744.20</ele>
	<time>2022-06-28T08:25:30.000Z</time>
</trkpt>
<trkpt lat="46.021923" lon="9.845134">
	<ele>1744.80</ele>
	<time>2022-06-28T08:25:40.000Z</time>
</trkpt>
<trkpt lat="46.021950" lon="9.845195">
	<ele>1745.00</ele>
	<time>2022-06-28T08:25:44.000Z</time>
</trkpt>
<trkpt lat="46.021980" lon="9.845281">
	<ele>1745.20</ele>
	<time>2022-06-28T08:25:50.000Z</time>
</trkpt>
<trkpt lat="46.022015" lon="9.845436">
	<ele>1745.60</ele>
	<time>2022-06-28T08:26:00.000Z</time>
</trkpt>
<trkpt lat="46.022057" lon="9.845535">
	<ele>1745.80</ele>
	<time>2022-06-28T08:26:07.000Z</time>
</trkpt>
<trkpt lat="46.022074" lon="9.845665">
	<ele>1746.20</ele>
	<time>2022-06-28T08:26:16.000Z</time>
</trkpt>
<trkpt lat="46.022081" lon="9.845678">
	<ele>1746.20</ele>
	<time>2022-06-28T08:26:17.000Z</time>
</trkpt>
<trkpt lat="46.022084" lon="9.845692">
	<ele>1746.20</ele>
	<time>2022-06-28T08:26:18.000Z</time>
</trkpt>
<trkpt lat="46.022094" lon="9.845803">
	<ele>1747.00</ele>
	<time>2022-06-28T08:26:25.000Z</time>
</trkpt>
<trkpt lat="46.022094" lon="9.845841">
	<ele>1747.20</ele>
	<time>2022-06-28T08:26:27.000Z</time>
</trkpt>
<trkpt lat="46.022104" lon="9.845916">
	<ele>1747.80</ele>
	<time>2022-06-28T08:26:33.000Z</time>
</trkpt>
<trkpt lat="46.022105" lon="9.845933">
	<ele>1747.80</ele>
	<time>2022-06-28T08:26:34.000Z</time>
</trkpt>
<trkpt lat="46.022136" lon="9.846055">
	<ele>1748.00</ele>
	<time>2022-06-28T08:26:42.000Z</time>
</trkpt>
<trkpt lat="46.022133" lon="9.846074">
	<ele>1748.00</ele>
	<time>2022-06-28T08:26:43.000Z</time>
</trkpt>
<trkpt lat="46.022138" lon="9.846120">
	<ele>1748.20</ele>
	<time>2022-06-28T08:26:45.000Z</time>
</trkpt>
<trkpt lat="46.022155" lon="9.846164">
	<ele>1748.20</ele>
	<time>2022-06-28T08:26:47.000Z</time>
</trkpt>
<trkpt lat="46.022169" lon="9.846208">
	<ele>1748.20</ele>
	<time>2022-06-28T08:26:50.000Z</time>
</trkpt>
<trkpt lat="46.022189" lon="9.846239">
	<ele>1748.40</ele>
	<time>2022-06-28T08:26:52.000Z</time>
</trkpt>
<trkpt lat="46.022189" lon="9.846259">
	<ele>1748.40</ele>
	<time>2022-06-28T08:26:53.000Z</time>
</trkpt>
<trkpt lat="46.022184" lon="9.846317">
	<ele>1748.40</ele>
	<time>2022-06-28T08:26:57.000Z</time>
</trkpt>
<trkpt lat="46.022167" lon="9.846444">
	<ele>1748.20</ele>
	<time>2022-06-28T08:27:04.000Z</time>
</trkpt>
<trkpt lat="46.022163" lon="9.846476">
	<ele>1748.20</ele>
	<time>2022-06-28T08:27:06.000Z</time>
</trkpt>
<trkpt lat="46.022162" lon="9.846555">
	<ele>1748.40</ele>
	<time>2022-06-28T08:27:11.000Z</time>
</trkpt>
<trkpt lat="46.022180" lon="9.846699">
	<ele>1748.40</ele>
	<time>2022-06-28T08:27:19.000Z</time>
</trkpt>
<trkpt lat="46.022177" lon="9.846768">
	<ele>1749.00</ele>
	<time>2022-06-28T08:27:23.000Z</time>
</trkpt>
<trkpt lat="46.022180" lon="9.846795">
	<ele>1749.00</ele>
	<time>2022-06-28T08:27:25.000Z</time>
</trkpt>
<trkpt lat="46.022178" lon="9.846863">
	<ele>1749.20</ele>
	<time>2022-06-28T08:27:29.000Z</time>
</trkpt>
<trkpt lat="46.022173" lon="9.846884">
	<ele>1749.20</ele>
	<time>2022-06-28T08:27:31.000Z</time>
</trkpt>
<trkpt lat="46.022162" lon="9.846897">
	<ele>1749.20</ele>
	<time>2022-06-28T08:27:32.000Z</time>
</trkpt>
<trkpt lat="46.022157" lon="9.846910">
	<ele>1749.20</ele>
	<time>2022-06-28T08:27:33.000Z</time>
</trkpt>
<trkpt lat="46.022164" lon="9.846934">
	<ele>1749.20</ele>
	<time>2022-06-28T08:27:35.000Z</time>
</trkpt>
<trkpt lat="46.022165" lon="9.846974">
	<ele>1749.60</ele>
	<time>2022-06-28T08:27:38.000Z</time>
</trkpt>
<trkpt lat="46.022205" lon="9.847092">
	<ele>1750.20</ele>
	<time>2022-06-28T08:27:45.000Z</time>
</trkpt>
<trkpt lat="46.022203" lon="9.847122">
	<ele>1750.20</ele>
	<time>2022-06-28T08:27:46.000Z</time>
</trkpt>
<trkpt lat="46.022207" lon="9.847154">
	<ele>1750.20</ele>
	<time>2022-06-28T08:27:48.000Z</time>
</trkpt>
<trkpt lat="46.022211" lon="9.847180">
	<ele>1750.20</ele>
	<time>2022-06-28T08:27:50.000Z</time>
</trkpt>
<trkpt lat="46.022227" lon="9.847195">
	<ele>1749.80</ele>
	<time>2022-06-28T08:27:54.000Z</time>
</trkpt>
<trkpt lat="46.022220" lon="9.847207">
	<ele>1749.80</ele>
	<time>2022-06-28T08:27:56.000Z</time>
</trkpt>
<trkpt lat="46.022229" lon="9.847196">
	<ele>1749.80</ele>
	<time>2022-06-28T08:28:05.000Z</time>
</trkpt>
<trkpt lat="46.022270" lon="9.847231">
	<ele>1750.00</ele>
	<time>2022-06-28T08:28:16.000Z</time>
</trkpt>
<trkpt lat="46.022379" lon="9.847262">
	<ele>1750.00</ele>
	<time>2022-06-28T08:28:24.000Z</time>
</trkpt>
<trkpt lat="46.022408" lon="9.847252">
	<ele>1750.00</ele>
	<time>2022-06-28T08:28:27.000Z</time>
</trkpt>
<trkpt lat="46.022417" lon="9.847248">
	<ele>1750.20</ele>
	<time>2022-06-28T08:28:28.000Z</time>
</trkpt>
<trkpt lat="46.022423" lon="9.847234">
	<ele>1750.60</ele>
	<time>2022-06-28T08:28:31.000Z</time>
</trkpt>
<trkpt lat="46.022432" lon="9.847212">
	<ele>1751.20</ele>
	<time>2022-06-28T08:28:35.000Z</time>
</trkpt>
<trkpt lat="46.022440" lon="9.847201">
	<ele>1751.60</ele>
	<time>2022-06-28T08:28:37.000Z</time>
</trkpt>
<trkpt lat="46.022442" lon="9.847200">
	<ele>1751.60</ele>
	<time>2022-06-28T08:28:38.000Z</time>
</trkpt>
<trkpt lat="46.022473" lon="9.847184">
	<ele>1752.40</ele>
	<time>2022-06-28T08:28:43.000Z</time>
</trkpt>
<trkpt lat="46.022475" lon="9.847191">
	<ele>1752.40</ele>
	<time>2022-06-28T08:28:44.000Z</time>
</trkpt>
<trkpt lat="46.022483" lon="9.847195">
	<ele>1753.00</ele>
	<time>2022-06-28T08:28:48.000Z</time>
</trkpt>
<trkpt lat="46.022489" lon="9.847207">
	<ele>1753.40</ele>
	<time>2022-06-28T08:28:50.000Z</time>
</trkpt>
<trkpt lat="46.022519" lon="9.847249">
	<ele>1754.20</ele>
	<time>2022-06-28T08:28:56.000Z</time>
</trkpt>
<trkpt lat="46.022525" lon="9.847254">
	<ele>1754.60</ele>
	<time>2022-06-28T08:28:58.000Z</time>
</trkpt>
<trkpt lat="46.022546" lon="9.847264">
	<ele>1755.00</ele>
	<time>2022-06-28T08:29:02.000Z</time>
</trkpt>
<trkpt lat="46.022561" lon="9.847274">
	<ele>1755.60</ele>
	<time>2022-06-28T08:29:05.000Z</time>
</trkpt>
<trkpt lat="46.022581" lon="9.847277">
	<ele>1756.00</ele>
	<time>2022-06-28T08:29:08.000Z</time>
</trkpt>
<trkpt lat="46.022615" lon="9.847316">
	<ele>1756.40</ele>
	<time>2022-06-28T08:29:14.000Z</time>
</trkpt>
<trkpt lat="46.022626" lon="9.847327">
	<ele>1756.40</ele>
	<time>2022-06-28T08:29:15.000Z</time>
</trkpt>
<trkpt lat="46.022688" lon="9.847350">
	<ele>1756.20</ele>
	<time>2022-06-28T08:29:19.000Z</time>
</trkpt>
<trkpt lat="46.022700" lon="9.847361">
	<ele>1756.20</ele>
	<time>2022-06-28T08:29:20.000Z</time>
</trkpt>
<trkpt lat="46.022769" lon="9.847440">
	<ele>1756.40</ele>
	<time>2022-06-28T08:29:28.000Z</time>
</trkpt>
<trkpt lat="46.022779" lon="9.847463">
	<ele>1756.60</ele>
	<time>2022-06-28T08:29:30.000Z</time>
</trkpt>
<trkpt lat="46.022809" lon="9.847502">
	<ele>1757.20</ele>
	<time>2022-06-28T08:29:35.000Z</time>
</trkpt>
<trkpt lat="46.022821" lon="9.847534">
	<ele>1758.00</ele>
	<time>2022-06-28T08:29:39.000Z</time>
</trkpt>
<trkpt lat="46.022827" lon="9.847568">
	<ele>1758.40</ele>
	<time>2022-06-28T08:29:43.000Z</time>
</trkpt>
<trkpt lat="46.022844" lon="9.847592">
	<ele>1759.00</ele>
	<time>2022-06-28T08:29:47.000Z</time>
</trkpt>
<trkpt lat="46.022844" lon="9.847601">
	<ele>1759.00</ele>
	<time>2022-06-28T08:29:48.000Z</time>
</trkpt>
<trkpt lat="46.022850" lon="9.847629">
	<ele>1759.40</ele>
	<time>2022-06-28T08:29:52.000Z</time>
</trkpt>
<trkpt lat="46.022855" lon="9.847649">
	<ele>1760.00</ele>
	<time>2022-06-28T08:29:56.000Z</time>
</trkpt>
<trkpt lat="46.022866" lon="9.847658">
	<ele>1760.60</ele>
	<time>2022-06-28T08:30:00.000Z</time>
</trkpt>
<trkpt lat="46.022897" lon="9.847679">
	<ele>1761.20</ele>
	<time>2022-06-28T08:30:05.000Z</time>
</trkpt>
<trkpt lat="46.022922" lon="9.847698">
	<ele>1761.80</ele>
	<time>2022-06-28T08:30:09.000Z</time>
</trkpt>
<trkpt lat="46.022929" lon="9.847714">
	<ele>1762.40</ele>
	<time>2022-06-28T08:30:13.000Z</time>
</trkpt>
<trkpt lat="46.022941" lon="9.847743">
	<ele>1763.00</ele>
	<time>2022-06-28T08:30:17.000Z</time>
</trkpt>
<trkpt lat="46.022942" lon="9.847774">
	<ele>1763.40</ele>
	<time>2022-06-28T08:30:20.000Z</time>
</trkpt>
<trkpt lat="46.022950" lon="9.847799">
	<ele>1763.80</ele>
	<time>2022-06-28T08:30:24.000Z</time>
</trkpt>
<trkpt lat="46.022963" lon="9.847801">
	<ele>1764.60</ele>
	<time>2022-06-28T08:30:27.000Z</time>
</trkpt>
<trkpt lat="46.022985" lon="9.847803">
	<ele>1764.80</ele>
	<time>2022-06-28T08:30:30.000Z</time>
</trkpt>
<trkpt lat="46.023014" lon="9.847836">
	<ele>1765.60</ele>
	<time>2022-06-28T08:30:35.000Z</time>
</trkpt>
<trkpt lat="46.023019" lon="9.847842">
	<ele>1765.80</ele>
	<time>2022-06-28T08:30:36.000Z</time>
</trkpt>
<trkpt lat="46.023037" lon="9.847856">
	<ele>1766.60</ele>
	<time>2022-06-28T08:30:44.000Z</time>
</trkpt>
<trkpt lat="46.023037" lon="9.847869">
	<ele>1766.60</ele>
	<time>2022-06-28T08:30:45.000Z</time>
</trkpt>
<trkpt lat="46.023057" lon="9.847913">
	<ele>1767.60</ele>
	<time>2022-06-28T08:30:54.000Z</time>
</trkpt>
<trkpt lat="46.023064" lon="9.847941">
	<ele>1768.40</ele>
	<time>2022-06-28T08:31:00.000Z</time>
</trkpt>
<trkpt lat="46.023071" lon="9.847932">
	<ele>1768.80</ele>
	<time>2022-06-28T08:31:03.000Z</time>
</trkpt>
<trkpt lat="46.023092" lon="9.847964">
	<ele>1769.80</ele>
	<time>2022-06-28T08:31:09.000Z</time>
</trkpt>
<trkpt lat="46.023096" lon="9.847968">
	<ele>1770.00</ele>
	<time>2022-06-28T08:31:10.000Z</time>
</trkpt>
<trkpt lat="46.023109" lon="9.848002">
	<ele>1770.60</ele>
	<time>2022-06-28T08:31:15.000Z</time>
</trkpt>
<trkpt lat="46.023110" lon="9.848009">
	<ele>1770.80</ele>
	<time>2022-06-28T08:31:16.000Z</time>
</trkpt>
<trkpt lat="46.023117" lon="9.848028">
	<ele>1771.00</ele>
	<time>2022-06-28T08:31:18.000Z</time>
</trkpt>
<trkpt lat="46.023136" lon="9.848061">
	<ele>1771.40</ele>
	<time>2022-06-28T08:31:22.000Z</time>
</trkpt>
<trkpt lat="46.023167" lon="9.848138">
	<ele>1771.40</ele>
	<time>2022-06-28T08:31:31.000Z</time>
</trkpt>
<trkpt lat="46.023199" lon="9.848187">
	<ele>1771.80</ele>
	<time>2022-06-28T08:31:38.000Z</time>
</trkpt>
<trkpt lat="46.023258" lon="9.848192">
	<ele>1772.20</ele>
	<time>2022-06-28T08:31:46.000Z</time>
</trkpt>
<trkpt lat="46.023298" lon="9.848204">
	<ele>1772.80</ele>
	<time>2022-06-28T08:31:52.000Z</time>
</trkpt>
<trkpt lat="46.023330" lon="9.848182">
	<ele>1773.20</ele>
	<time>2022-06-28T08:31:56.000Z</time>
</trkpt>
<trkpt lat="46.023331" lon="9.848181">
	<ele>1773.20</ele>
	<time>2022-06-28T08:31:57.000Z</time>
</trkpt>
<trkpt lat="46.023356" lon="9.848191">
	<ele>1773.80</ele>
	<time>2022-06-28T08:32:04.000Z</time>
</trkpt>
<trkpt lat="46.023366" lon="9.848185">
	<ele>1774.20</ele>
	<time>2022-06-28T08:32:07.000Z</time>
</trkpt>
<trkpt lat="46.023394" lon="9.848170">
	<ele>1774.80</ele>
	<time>2022-06-28T08:32:11.000Z</time>
</trkpt>
<trkpt lat="46.023417" lon="9.848197">
	<ele>1775.40</ele>
	<time>2022-06-28T08:32:16.000Z</time>
</trkpt>
<trkpt lat="46.023424" lon="9.848228">
	<ele>1775.40</ele>
	<time>2022-06-28T08:32:18.000Z</time>
</trkpt>
<trkpt lat="46.023463" lon="9.848283">
	<ele>1775.80</ele>
	<time>2022-06-28T08:32:24.000Z</time>
</trkpt>
<trkpt lat="46.023499" lon="9.848311">
	<ele>1776.60</ele>
	<time>2022-06-28T08:32:29.000Z</time>
</trkpt>
<trkpt lat="46.023536" lon="9.848339">
	<ele>1777.00</ele>
	<time>2022-06-28T08:32:33.000Z</time>
</trkpt>
<trkpt lat="46.023569" lon="9.848334">
	<ele>1777.40</ele>
	<time>2022-06-28T08:32:39.000Z</time>
</trkpt>
<trkpt lat="46.023587" lon="9.848318">
	<ele>1777.60</ele>
	<time>2022-06-28T08:32:41.000Z</time>
</trkpt>
<trkpt lat="46.023597" lon="9.848311">
	<ele>1778.20</ele>
	<time>2022-06-28T08:32:44.000Z</time>
</trkpt>
<trkpt lat="46.023608" lon="9.848302">
	<ele>1778.60</ele>
	<time>2022-06-28T08:32:47.000Z</time>
</trkpt>
<trkpt lat="46.023623" lon="9.848338">
	<ele>1779.00</ele>
	<time>2022-06-28T08:32:50.000Z</time>
</trkpt>
<trkpt lat="46.023666" lon="9.848348">
	<ele>1779.60</ele>
	<time>2022-06-28T08:32:56.000Z</time>
</trkpt>
<trkpt lat="46.023670" lon="9.848350">
	<ele>1779.80</ele>
	<time>2022-06-28T08:32:57.000Z</time>
</trkpt>
<trkpt lat="46.023697" lon="9.848371">
	<ele>1780.40</ele>
	<time>2022-06-28T08:33:02.000Z</time>
</trkpt>
<trkpt lat="46.023702" lon="9.848406">
	<ele>1780.80</ele>
	<time>2022-06-28T08:33:06.000Z</time>
</trkpt>
<trkpt lat="46.023708" lon="9.848427">
	<ele>1781.40</ele>
	<time>2022-06-28T08:33:10.000Z</time>
</trkpt>
<trkpt lat="46.023747" lon="9.848502">
	<ele>1781.60</ele>
	<time>2022-06-28T08:33:17.000Z</time>
</trkpt>
<trkpt lat="46.023758" lon="9.848576">
	<ele>1781.60</ele>
	<time>2022-06-28T08:33:23.000Z</time>
</trkpt>
<trkpt lat="46.023775" lon="9.848611">
	<ele>1781.60</ele>
	<time>2022-06-28T08:33:28.000Z</time>
</trkpt>
<trkpt lat="46.023786" lon="9.848620">
	<ele>1782.00</ele>
	<time>2022-06-28T08:33:31.000Z</time>
</trkpt>
<trkpt lat="46.023793" lon="9.848620">
	<ele>1782.20</ele>
	<time>2022-06-28T08:33:32.000Z</time>
</trkpt>
<trkpt lat="46.023821" lon="9.848630">
	<ele>1783.00</ele>
	<time>2022-06-28T08:33:39.000Z</time>
</trkpt>
<trkpt lat="46.023835" lon="9.848622">
	<ele>1783.00</ele>
	<time>2022-06-28T08:33:40.000Z</time>
</trkpt>
<trkpt lat="46.023860" lon="9.848629">
	<ele>1784.00</ele>
	<time>2022-06-28T08:33:46.000Z</time>
</trkpt>
<trkpt lat="46.023877" lon="9.848630">
	<ele>1785.00</ele>
	<time>2022-06-28T08:33:53.000Z</time>
</trkpt>
<trkpt lat="46.023884" lon="9.848624">
	<ele>1785.20</ele>
	<time>2022-06-28T08:33:54.000Z</time>
</trkpt>
<trkpt lat="46.023915" lon="9.848589">
	<ele>1785.60</ele>
	<time>2022-06-28T08:34:01.000Z</time>
</trkpt>
<trkpt lat="46.023935" lon="9.848547">
	<ele>1786.20</ele>
	<time>2022-06-28T08:34:06.000Z</time>
</trkpt>
<trkpt lat="46.023939" lon="9.848532">
	<ele>1786.40</ele>
	<time>2022-06-28T08:34:08.000Z</time>
</trkpt>
<trkpt lat="46.023928" lon="9.848544">
	<ele>1787.00</ele>
	<time>2022-06-28T08:34:14.000Z</time>
</trkpt>
<trkpt lat="46.023919" lon="9.848553">
	<ele>1787.20</ele>
	<time>2022-06-28T08:34:16.000Z</time>
</trkpt>
<trkpt lat="46.023920" lon="9.848580">
	<ele>1787.80</ele>
	<time>2022-06-28T08:34:20.000Z</time>
</trkpt>
<trkpt lat="46.023879" lon="9.848626">
	<ele>1788.20</ele>
	<time>2022-06-28T08:34:25.000Z</time>
</trkpt>
<trkpt lat="46.023878" lon="9.848660">
	<ele>1788.60</ele>
	<time>2022-06-28T08:34:28.000Z</time>
</trkpt>
<trkpt lat="46.023894" lon="9.848725">
	<ele>1789.40</ele>
	<time>2022-06-28T08:34:36.000Z</time>
</trkpt>
<trkpt lat="46.023889" lon="9.848757">
	<ele>1790.20</ele>
	<time>2022-06-28T08:34:43.000Z</time>
</trkpt>
<trkpt lat="46.023884" lon="9.848767">
	<ele>1790.40</ele>
	<time>2022-06-28T08:34:44.000Z</time>
</trkpt>
<trkpt lat="46.023869" lon="9.848825">
	<ele>1791.40</ele>
	<time>2022-06-28T08:34:51.000Z</time>
</trkpt>
<trkpt lat="46.023867" lon="9.848900">
	<ele>1792.20</ele>
	<time>2022-06-28T08:35:01.000Z</time>
</trkpt>
<trkpt lat="46.023857" lon="9.848920">
	<ele>1792.60</ele>
	<time>2022-06-28T08:35:04.000Z</time>
</trkpt>
<trkpt lat="46.023881" lon="9.848966">
	<ele>1793.00</ele>
	<time>2022-06-28T08:35:09.000Z</time>
</trkpt>
<trkpt lat="46.023876" lon="9.848987">
	<ele>1793.40</ele>
	<time>2022-06-28T08:35:11.000Z</time>
</trkpt>
<trkpt lat="46.023879" lon="9.848998">
	<ele>1793.60</ele>
	<time>2022-06-28T08:35:13.000Z</time>
</trkpt>
<trkpt lat="46.023875" lon="9.849023">
	<ele>1794.20</ele>
	<time>2022-06-28T08:35:16.000Z</time>
</trkpt>
<trkpt lat="46.023870" lon="9.849040">
	<ele>1794.40</ele>
	<time>2022-06-28T08:35:19.000Z</time>
</trkpt>
<trkpt lat="46.023867" lon="9.849051">
	<ele>1794.60</ele>
	<time>2022-06-28T08:35:20.000Z</time>
</trkpt>
<trkpt lat="46.023858" lon="9.849092">
	<ele>1795.20</ele>
	<time>2022-06-28T08:35:25.000Z</time>
</trkpt>
<trkpt lat="46.023857" lon="9.849097">
	<ele>1795.40</ele>
	<time>2022-06-28T08:35:26.000Z</time>
</trkpt>
<trkpt lat="46.023855" lon="9.849111">
	<ele>1795.60</ele>
	<time>2022-06-28T08:35:28.000Z</time>
</trkpt>
<trkpt lat="46.023847" lon="9.849159">
	<ele>1796.20</ele>
	<time>2022-06-28T08:35:35.000Z</time>
</trkpt>
<trkpt lat="46.023838" lon="9.849175">
	<ele>1796.60</ele>
	<time>2022-06-28T08:35:37.000Z</time>
</trkpt>
<trkpt lat="46.023827" lon="9.849220">
	<ele>1797.60</ele>
	<time>2022-06-28T08:35:45.000Z</time>
</trkpt>
<trkpt lat="46.023828" lon="9.849229">
	<ele>1797.80</ele>
	<time>2022-06-28T08:35:46.000Z</time>
</trkpt>
<trkpt lat="46.023820" lon="9.849281">
	<ele>1798.60</ele>
	<time>2022-06-28T08:35:52.000Z</time>
</trkpt>
<trkpt lat="46.023816" lon="9.849288">
	<ele>1798.80</ele>
	<time>2022-06-28T08:35:54.000Z</time>
</trkpt>
<trkpt lat="46.023830" lon="9.849336">
	<ele>1799.80</ele>
	<time>2022-06-28T08:36:02.000Z</time>
</trkpt>
<trkpt lat="46.023833" lon="9.849347">
	<ele>1800.00</ele>
	<time>2022-06-28T08:36:03.000Z</time>
</trkpt>
<trkpt lat="46.023824" lon="9.849409">
	<ele>1800.80</ele>
	<time>2022-06-28T08:36:11.000Z</time>
</trkpt>
<trkpt lat="46.023829" lon="9.849421">
	<ele>1801.00</ele>
	<time>2022-06-28T08:36:13.000Z</time>
</trkpt>
<trkpt lat="46.023832" lon="9.849427">
	<ele>1801.20</ele>
	<time>2022-06-28T08:36:16.000Z</time>
</trkpt>
<trkpt lat="46.023843" lon="9.849454">
	<ele>1802.20</ele>
	<time>2022-06-28T08:36:22.000Z</time>
</trkpt>
<trkpt lat="46.023840" lon="9.849470">
	<ele>1802.40</ele>
	<time>2022-06-28T08:36:25.000Z</time>
</trkpt>
<trkpt lat="46.023852" lon="9.849520">
	<ele>1803.00</ele>
	<time>2022-06-28T08:36:33.000Z</time>
</trkpt>
<trkpt lat="46.023850" lon="9.849524">
	<ele>1803.20</ele>
	<time>2022-06-28T08:36:34.000Z</time>
</trkpt>
<trkpt lat="46.023842" lon="9.849533">
	<ele>1803.80</ele>
	<time>2022-06-28T08:36:39.000Z</time>
</trkpt>
<trkpt lat="46.023839" lon="9.849570">
	<ele>1804.20</ele>
	<time>2022-06-28T08:36:43.000Z</time>
</trkpt>
<trkpt lat="46.023838" lon="9.849608">
	<ele>1805.00</ele>
	<time>2022-06-28T08:36:48.000Z</time>
</trkpt>
<trkpt lat="46.023837" lon="9.849613">
	<ele>1805.20</ele>
	<time>2022-06-28T08:36:50.000Z</time>
</trkpt>
<trkpt lat="46.023831" lon="9.849640">
	<ele>1805.60</ele>
	<time>2022-06-28T08:36:55.000Z</time>
</trkpt>
<trkpt lat="46.023821" lon="9.849669">
	<ele>1806.20</ele>
	<time>2022-06-28T08:37:01.000Z</time>
</trkpt>
<trkpt lat="46.023822" lon="9.849701">
	<ele>1806.80</ele>
	<time>2022-06-28T08:37:04.000Z</time>
</trkpt>
<trkpt lat="46.023824" lon="9.849739">
	<ele>1807.20</ele>
	<time>2022-06-28T08:37:08.000Z</time>
</trkpt>
<trkpt lat="46.023813" lon="9.849757">
	<ele>1807.60</ele>
	<time>2022-06-28T08:37:13.000Z</time>
</trkpt>
<trkpt lat="46.023823" lon="9.849777">
	<ele>1808.40</ele>
	<time>2022-06-28T08:37:17.000Z</time>
</trkpt>
<trkpt lat="46.023833" lon="9.849786">
	<ele>1808.80</ele>
	<time>2022-06-28T08:37:19.000Z</time>
</trkpt>
<trkpt lat="46.023838" lon="9.849816">
	<ele>1809.60</ele>
	<time>2022-06-28T08:37:25.000Z</time>
</trkpt>
<trkpt lat="46.023849" lon="9.849839">
	<ele>1810.00</ele>
	<time>2022-06-28T08:37:29.000Z</time>
</trkpt>
<trkpt lat="46.023841" lon="9.849852">
	<ele>1810.60</ele>
	<time>2022-06-28T08:37:33.000Z</time>
</trkpt>
<trkpt lat="46.023834" lon="9.849856">
	<ele>1811.20</ele>
	<time>2022-06-28T08:37:37.000Z</time>
</trkpt>
<trkpt lat="46.023835" lon="9.849870">
	<ele>1811.60</ele>
	<time>2022-06-28T08:37:41.000Z</time>
</trkpt>
<trkpt lat="46.023838" lon="9.849892">
	<ele>1812.00</ele>
	<time>2022-06-28T08:37:43.000Z</time>
</trkpt>
<trkpt lat="46.023842" lon="9.849934">
	<ele>1812.60</ele>
	<time>2022-06-28T08:37:50.000Z</time>
</trkpt>
<trkpt lat="46.023858" lon="9.849960">
	<ele>1813.60</ele>
	<time>2022-06-28T08:37:57.000Z</time>
</trkpt>
<trkpt lat="46.023859" lon="9.849968">
	<ele>1813.80</ele>
	<time>2022-06-28T08:37:58.000Z</time>
</trkpt>
<trkpt lat="46.023865" lon="9.849997">
	<ele>1814.80</ele>
	<time>2022-06-28T08:38:05.000Z</time>
</trkpt>
<trkpt lat="46.023860" lon="9.850019">
	<ele>1815.00</ele>
	<time>2022-06-28T08:38:08.000Z</time>
</trkpt>
<trkpt lat="46.023856" lon="9.850054">
	<ele>1815.80</ele>
	<time>2022-06-28T08:38:14.000Z</time>
</trkpt>
<trkpt lat="46.023852" lon="9.850083">
	<ele>1816.60</ele>
	<time>2022-06-28T08:38:20.000Z</time>
</trkpt>
<trkpt lat="46.023853" lon="9.850095">
	<ele>1816.80</ele>
	<time>2022-06-28T08:38:22.000Z</time>
</trkpt>
<trkpt lat="46.023837" lon="9.850131">
	<ele>1817.80</ele>
	<time>2022-06-28T08:38:29.000Z</time>
</trkpt>
<trkpt lat="46.023813" lon="9.850201">
	<ele>1818.60</ele>
	<time>2022-06-28T08:38:38.000Z</time>
</trkpt>
<trkpt lat="46.023813" lon="9.850220">
	<ele>1819.00</ele>
	<time>2022-06-28T08:38:41.000Z</time>
</trkpt>
<trkpt lat="46.023825" lon="9.850235">
	<ele>1819.40</ele>
	<time>2022-06-28T08:38:45.000Z</time>
</trkpt>
<trkpt lat="46.023832" lon="9.850259">
	<ele>1820.00</ele>
	<time>2022-06-28T08:38:49.000Z</time>
</trkpt>
<trkpt lat="46.023838" lon="9.850271">
	<ele>1820.60</ele>
	<time>2022-06-28T08:38:52.000Z</time>
</trkpt>
<trkpt lat="46.023843" lon="9.850306">
	<ele>1821.00</ele>
	<time>2022-06-28T08:38:56.000Z</time>
</trkpt>
<trkpt lat="46.023848" lon="9.850328">
	<ele>1821.60</ele>
	<time>2022-06-28T08:38:59.000Z</time>
</trkpt>
<trkpt lat="46.023877" lon="9.850330">
	<ele>1822.00</ele>
	<time>2022-06-28T08:39:02.000Z</time>
</trkpt>
<trkpt lat="46.023881" lon="9.850332">
	<ele>1822.20</ele>
	<time>2022-06-28T08:39:03.000Z</time>
</trkpt>
<trkpt lat="46.023878" lon="9.850369">
	<ele>1823.40</ele>
	<time>2022-06-28T08:39:10.000Z</time>
</trkpt>
<trkpt lat="46.023874" lon="9.850367">
	<ele>1823.40</ele>
	<time>2022-06-28T08:39:12.000Z</time>
</trkpt>
<trkpt lat="46.023895" lon="9.850409">
	<ele>1823.20</ele>
	<time>2022-06-28T08:39:19.000Z</time>
</trkpt>
<trkpt lat="46.023877" lon="9.850409">
	<ele>1824.40</ele>
	<time>2022-06-28T08:39:37.000Z</time>
</trkpt>
<trkpt lat="46.023868" lon="9.850438">
	<ele>1825.00</ele>
	<time>2022-06-28T08:39:42.000Z</time>
</trkpt>
<trkpt lat="46.023870" lon="9.850479">
	<ele>1825.40</ele>
	<time>2022-06-28T08:39:45.000Z</time>
</trkpt>
<trkpt lat="46.023872" lon="9.850536">
	<ele>1825.80</ele>
	<time>2022-06-28T08:39:48.000Z</time>
</trkpt>
<trkpt lat="46.023866" lon="9.850659">
	<ele>1826.40</ele>
	<time>2022-06-28T08:39:55.000Z</time>
</trkpt>
<trkpt lat="46.023867" lon="9.850666">
	<ele>1826.60</ele>
	<time>2022-06-28T08:39:56.000Z</time>
</trkpt>
<trkpt lat="46.023868" lon="9.850673">
	<ele>1826.80</ele>
	<time>2022-06-28T08:39:57.000Z</time>
</trkpt>
<trkpt lat="46.023873" lon="9.850733">
	<ele>1827.60</ele>
	<time>2022-06-28T08:40:03.000Z</time>
</trkpt>
<trkpt lat="46.023874" lon="9.850754">
	<ele>1828.00</ele>
	<time>2022-06-28T08:40:06.000Z</time>
</trkpt>
<trkpt lat="46.023884" lon="9.850817">
	<ele>1828.80</ele>
	<time>2022-06-28T08:40:15.000Z</time>
</trkpt>
<trkpt lat="46.023887" lon="9.850898">
	<ele>1830.00</ele>
	<time>2022-06-28T08:40:24.000Z</time>
</trkpt>
<trkpt lat="46.023890" lon="9.850906">
	<ele>1830.00</ele>
	<time>2022-06-28T08:40:25.000Z</time>
</trkpt>
<trkpt lat="46.023912" lon="9.850967">
	<ele>1831.00</ele>
	<time>2022-06-28T08:40:33.000Z</time>
</trkpt>
<trkpt lat="46.023911" lon="9.851020">
	<ele>1831.80</ele>
	<time>2022-06-28T08:40:41.000Z</time>
</trkpt>
<trkpt lat="46.023912" lon="9.851026">
	<ele>1832.00</ele>
	<time>2022-06-28T08:40:42.000Z</time>
</trkpt>
<trkpt lat="46.023914" lon="9.851032">
	<ele>1832.00</ele>
	<time>2022-06-28T08:40:43.000Z</time>
</trkpt>
<trkpt lat="46.023921" lon="9.851087">
	<ele>1832.80</ele>
	<time>2022-06-28T08:40:50.000Z</time>
</trkpt>
<trkpt lat="46.023924" lon="9.851117">
	<ele>1833.20</ele>
	<time>2022-06-28T08:40:53.000Z</time>
</trkpt>
<trkpt lat="46.023922" lon="9.851159">
	<ele>1833.60</ele>
	<time>2022-06-28T08:40:57.000Z</time>
</trkpt>
<trkpt lat="46.023903" lon="9.851157">
	<ele>1834.20</ele>
	<time>2022-06-28T08:41:01.000Z</time>
</trkpt>
<trkpt lat="46.023883" lon="9.851186">
	<ele>1834.80</ele>
	<time>2022-06-28T08:41:06.000Z</time>
</trkpt>
<trkpt lat="46.023885" lon="9.851240">
	<ele>1835.20</ele>
	<time>2022-06-28T08:41:10.000Z</time>
</trkpt>
<trkpt lat="46.023873" lon="9.851281">
	<ele>1835.80</ele>
	<time>2022-06-28T08:41:14.000Z</time>
</trkpt>
<trkpt lat="46.023877" lon="9.851337">
	<ele>1836.00</ele>
	<time>2022-06-28T08:41:18.000Z</time>
</trkpt>
<trkpt lat="46.023869" lon="9.851407">
	<ele>1836.40</ele>
	<time>2022-06-28T08:41:24.000Z</time>
</trkpt>
<trkpt lat="46.023868" lon="9.851418">
	<ele>1836.60</ele>
	<time>2022-06-28T08:41:25.000Z</time>
</trkpt>
<trkpt lat="46.023874" lon="9.851475">
	<ele>1837.40</ele>
	<time>2022-06-28T08:41:32.000Z</time>
</trkpt>
<trkpt lat="46.023872" lon="9.851496">
	<ele>1837.60</ele>
	<time>2022-06-28T08:41:34.000Z</time>
</trkpt>
<trkpt lat="46.023872" lon="9.851514">
	<ele>1837.80</ele>
	<time>2022-06-28T08:41:36.000Z</time>
</trkpt>
<trkpt lat="46.023874" lon="9.851538">
	<ele>1838.00</ele>
	<time>2022-06-28T08:41:38.000Z</time>
</trkpt>
<trkpt lat="46.023876" lon="9.851574">
	<ele>1838.40</ele>
	<time>2022-06-28T08:41:41.000Z</time>
</trkpt>
<trkpt lat="46.023875" lon="9.851604">
	<ele>1838.80</ele>
	<time>2022-06-28T08:41:44.000Z</time>
</trkpt>
<trkpt lat="46.023877" lon="9.851657">
	<ele>1839.40</ele>
	<time>2022-06-28T08:41:49.000Z</time>
</trkpt>
<trkpt lat="46.023883" lon="9.851709">
	<ele>1840.20</ele>
	<time>2022-06-28T08:41:55.000Z</time>
</trkpt>
<trkpt lat="46.023881" lon="9.851728">
	<ele>1840.40</ele>
	<time>2022-06-28T08:41:57.000Z</time>
</trkpt>
<trkpt lat="46.023882" lon="9.851748">
	<ele>1840.80</ele>
	<time>2022-06-28T08:41:59.000Z</time>
</trkpt>
<trkpt lat="46.023887" lon="9.851773">
	<ele>1841.60</ele>
	<time>2022-06-28T08:42:02.000Z</time>
</trkpt>
<trkpt lat="46.023890" lon="9.851783">
	<ele>1841.80</ele>
	<time>2022-06-28T08:42:03.000Z</time>
</trkpt>
<trkpt lat="46.023887" lon="9.851793">
	<ele>1841.80</ele>
	<time>2022-06-28T08:42:04.000Z</time>
</trkpt>
<trkpt lat="46.023889" lon="9.851801">
	<ele>1842.00</ele>
	<time>2022-06-28T08:42:05.000Z</time>
</trkpt>
<trkpt lat="46.023887" lon="9.851833">
	<ele>1842.20</ele>
	<time>2022-06-28T08:42:08.000Z</time>
</trkpt>
<trkpt lat="46.023892" lon="9.851852">
	<ele>1842.40</ele>
	<time>2022-06-28T08:42:10.000Z</time>
</trkpt>
<trkpt lat="46.023895" lon="9.851875">
	<ele>1842.60</ele>
	<time>2022-06-28T08:42:12.000Z</time>
</trkpt>
<trkpt lat="46.023891" lon="9.851890">
	<ele>1842.80</ele>
	<time>2022-06-28T08:42:13.000Z</time>
</trkpt>
<trkpt lat="46.023881" lon="9.851931">
	<ele>1843.20</ele>
	<time>2022-06-28T08:42:17.000Z</time>
</trkpt>
<trkpt lat="46.023880" lon="9.851945">
	<ele>1843.40</ele>
	<time>2022-06-28T08:42:18.000Z</time>
</trkpt>
<trkpt lat="46.023877" lon="9.851958">
	<ele>1843.60</ele>
	<time>2022-06-28T08:42:19.000Z</time>
</trkpt>
<trkpt lat="46.023876" lon="9.851972">
	<ele>1843.80</ele>
	<time>2022-06-28T08:42:20.000Z</time>
</trkpt>
<trkpt lat="46.023874" lon="9.851986">
	<ele>1843.80</ele>
	<time>2022-06-28T08:42:21.000Z</time>
</trkpt>
<trkpt lat="46.023869" lon="9.852062">
	<ele>1844.60</ele>
	<time>2022-06-28T08:42:28.000Z</time>
</trkpt>
<trkpt lat="46.023876" lon="9.852078">
	<ele>1844.80</ele>
	<time>2022-06-28T08:42:31.000Z</time>
</trkpt>
<trkpt lat="46.023874" lon="9.852131">
	<ele>1845.20</ele>
	<time>2022-06-28T08:42:36.000Z</time>
</trkpt>
<trkpt lat="46.023867" lon="9.852166">
	<ele>1845.80</ele>
	<time>2022-06-28T08:42:39.000Z</time>
</trkpt>
<trkpt lat="46.023846" lon="9.852243">
	<ele>1847.00</ele>
	<time>2022-06-28T08:42:48.000Z</time>
</trkpt>
<trkpt lat="46.023815" lon="9.852331">
	<ele>1848.00</ele>
	<time>2022-06-28T08:42:57.000Z</time>
</trkpt>
<trkpt lat="46.023797" lon="9.852385">
	<ele>1848.80</ele>
	<time>2022-06-28T08:43:02.000Z</time>
</trkpt>
<trkpt lat="46.023778" lon="9.852481">
	<ele>1848.80</ele>
	<time>2022-06-28T08:43:09.000Z</time>
</trkpt>
<trkpt lat="46.023746" lon="9.852626">
	<ele>1849.00</ele>
	<time>2022-06-28T08:43:19.000Z</time>
</trkpt>
<trkpt lat="46.023743" lon="9.852644">
	<ele>1849.00</ele>
	<time>2022-06-28T08:43:20.000Z</time>
</trkpt>
<trkpt lat="46.023735" lon="9.852782">
	<ele>1849.20</ele>
	<time>2022-06-28T08:43:29.000Z</time>
</trkpt>
<trkpt lat="46.023732" lon="9.852864">
	<ele>1849.40</ele>
	<time>2022-06-28T08:43:34.000Z</time>
</trkpt>
<trkpt lat="46.023766" lon="9.852990">
	<ele>1849.80</ele>
	<time>2022-06-28T08:43:43.000Z</time>
</trkpt>
<trkpt lat="46.023782" lon="9.853024">
	<ele>1850.00</ele>
	<time>2022-06-28T08:43:46.000Z</time>
</trkpt>
<trkpt lat="46.023786" lon="9.853050">
	<ele>1850.00</ele>
	<time>2022-06-28T08:43:48.000Z</time>
</trkpt>
<trkpt lat="46.023819" lon="9.853144">
	<ele>1850.80</ele>
	<time>2022-06-28T08:43:56.000Z</time>
</trkpt>
<trkpt lat="46.023841" lon="9.853229">
	<ele>1851.20</ele>
	<time>2022-06-28T08:44:02.000Z</time>
</trkpt>
<trkpt lat="46.023859" lon="9.853303">
	<ele>1851.80</ele>
	<time>2022-06-28T08:44:09.000Z</time>
</trkpt>
<trkpt lat="46.023869" lon="9.853366">
	<ele>1852.20</ele>
	<time>2022-06-28T08:44:14.000Z</time>
</trkpt>
<trkpt lat="46.023880" lon="9.853461">
	<ele>1853.20</ele>
	<time>2022-06-28T08:44:22.000Z</time>
</trkpt>
<trkpt lat="46.023881" lon="9.853486">
	<ele>1853.20</ele>
	<time>2022-06-28T08:44:24.000Z</time>
</trkpt>
<trkpt lat="46.023897" lon="9.853608">
	<ele>1854.20</ele>
	<time>2022-06-28T08:44:34.000Z</time>
</trkpt>
<trkpt lat="46.023896" lon="9.853659">
	<ele>1854.20</ele>
	<time>2022-06-28T08:44:38.000Z</time>
</trkpt>
<trkpt lat="46.023898" lon="9.853671">
	<ele>1854.40</ele>
	<time>2022-06-28T08:44:39.000Z</time>
</trkpt>
<trkpt lat="46.023900" lon="9.853697">
	<ele>1854.80</ele>
	<time>2022-06-28T08:44:42.000Z</time>
</trkpt>
<trkpt lat="46.023901" lon="9.853746">
	<ele>1855.20</ele>
	<time>2022-06-28T08:44:46.000Z</time>
</trkpt>
<trkpt lat="46.023905" lon="9.853772">
	<ele>1855.40</ele>
	<time>2022-06-28T08:44:48.000Z</time>
</trkpt>
<trkpt lat="46.023923" lon="9.853900">
	<ele>1856.40</ele>
	<time>2022-06-28T08:44:58.000Z</time>
</trkpt>
<trkpt lat="46.023924" lon="9.853925">
	<ele>1856.40</ele>
	<time>2022-06-28T08:45:00.000Z</time>
</trkpt>
<trkpt lat="46.023928" lon="9.854043">
	<ele>1857.40</ele>
	<time>2022-06-28T08:45:09.000Z</time>
</trkpt>
<trkpt lat="46.023926" lon="9.854057">
	<ele>1857.60</ele>
	<time>2022-06-28T08:45:10.000Z</time>
</trkpt>
<trkpt lat="46.023924" lon="9.854156">
	<ele>1858.40</ele>
	<time>2022-06-28T08:45:18.000Z</time>
</trkpt>
<trkpt lat="46.023931" lon="9.854206">
	<ele>1858.80</ele>
	<time>2022-06-28T08:45:22.000Z</time>
</trkpt>
<trkpt lat="46.023931" lon="9.854281">
	<ele>1859.40</ele>
	<time>2022-06-28T08:45:28.000Z</time>
</trkpt>
<trkpt lat="46.023926" lon="9.854369">
	<ele>1860.20</ele>
	<time>2022-06-28T08:45:35.000Z</time>
</trkpt>
<trkpt lat="46.023926" lon="9.854408">
	<ele>1860.60</ele>
	<time>2022-06-28T08:45:38.000Z</time>
</trkpt>
<trkpt lat="46.023898" lon="9.854477">
	<ele>1861.20</ele>
	<time>2022-06-28T08:45:45.000Z</time>
</trkpt>
<trkpt lat="46.023883" lon="9.854521">
	<ele>1861.60</ele>
	<time>2022-06-28T08:45:49.000Z</time>
</trkpt>
<trkpt lat="46.023874" lon="9.854552">
	<ele>1862.00</ele>
	<time>2022-06-28T08:45:52.000Z</time>
</trkpt>
<trkpt lat="46.023863" lon="9.854641">
	<ele>1862.60</ele>
	<time>2022-06-28T08:45:59.000Z</time>
</trkpt>
<trkpt lat="46.023851" lon="9.854670">
	<ele>1863.00</ele>
	<time>2022-06-28T08:46:02.000Z</time>
</trkpt>
<trkpt lat="46.023828" lon="9.854747">
	<ele>1863.80</ele>
	<time>2022-06-28T08:46:10.000Z</time>
</trkpt>
<trkpt lat="46.023812" lon="9.854787">
	<ele>1864.40</ele>
	<time>2022-06-28T08:46:14.000Z</time>
</trkpt>
<trkpt lat="46.023797" lon="9.854864">
	<ele>1865.00</ele>
	<time>2022-06-28T08:46:21.000Z</time>
</trkpt>
<trkpt lat="46.023782" lon="9.854913">
	<ele>1865.40</ele>
	<time>2022-06-28T08:46:25.000Z</time>
</trkpt>
<trkpt lat="46.023771" lon="9.854981">
	<ele>1866.00</ele>
	<time>2022-06-28T08:46:31.000Z</time>
</trkpt>
<trkpt lat="46.023770" lon="9.855042">
	<ele>1866.40</ele>
	<time>2022-06-28T08:46:36.000Z</time>
</trkpt>
<trkpt lat="46.023775" lon="9.855088">
	<ele>1867.00</ele>
	<time>2022-06-28T08:46:40.000Z</time>
</trkpt>
<trkpt lat="46.023781" lon="9.855190">
	<ele>1867.40</ele>
	<time>2022-06-28T08:46:47.000Z</time>
</trkpt>
<trkpt lat="46.023788" lon="9.855250">
	<ele>1868.20</ele>
	<time>2022-06-28T08:46:52.000Z</time>
</trkpt>
<trkpt lat="46.023790" lon="9.855282">
	<ele>1868.60</ele>
	<time>2022-06-28T08:46:55.000Z</time>
</trkpt>
<trkpt lat="46.023792" lon="9.855300">
	<ele>1868.60</ele>
	<time>2022-06-28T08:46:58.000Z</time>
</trkpt>
<trkpt lat="46.023793" lon="9.855318">
	<ele>1868.80</ele>
	<time>2022-06-28T08:47:01.000Z</time>
</trkpt>
<trkpt lat="46.023805" lon="9.855323">
	<ele>1868.80</ele>
	<time>2022-06-28T08:47:04.000Z</time>
</trkpt>
<trkpt lat="46.023819" lon="9.855323">
	<ele>1868.80</ele>
	<time>2022-06-28T08:47:07.000Z</time>
</trkpt>
<trkpt lat="46.023818" lon="9.855324">
	<ele>1869.00</ele>
	<time>2022-06-28T08:47:10.000Z</time>
</trkpt>
<trkpt lat="46.023818" lon="9.855327">
	<ele>1868.40</ele>
	<time>2022-06-28T08:47:14.000Z</time>
</trkpt>
<trkpt lat="46.023818" lon="9.855327">
	<ele>1868.00</ele>
	<time>2022-06-28T08:47:20.000Z</time>
</trkpt>
<trkpt lat="46.023817" lon="9.855327">
	<ele>1868.00</ele>
	<time>2022-06-28T08:47:25.000Z</time>
</trkpt>
<trkpt lat="46.023814" lon="9.855327">
	<ele>1868.60</ele>
	<time>2022-06-28T08:47:29.000Z</time>
</trkpt>
<trkpt lat="46.023811" lon="9.855326">
	<ele>1868.80</ele>
	<time>2022-06-28T08:47:34.000Z</time>
</trkpt>
<trkpt lat="46.023811" lon="9.855323">
	<ele>1867.80</ele>
	<time>2022-06-28T08:47:59.000Z</time>
</trkpt>
<trkpt lat="46.023808" lon="9.855333">
	<ele>1868.20</ele>
	<time>2022-06-28T08:48:09.000Z</time>
</trkpt>
<trkpt lat="46.023807" lon="9.855333">
	<ele>1868.20</ele>
	<time>2022-06-28T08:48:11.000Z</time>
</trkpt>
<trkpt lat="46.023807" lon="9.855333">
	<ele>1868.20</ele>
	<time>2022-06-28T08:48:12.000Z</time>
</trkpt>
<trkpt lat="46.023807" lon="9.855333">
	<ele>1868.20</ele>
	<time>2022-06-28T08:48:14.000Z</time>
</trkpt>
<trkpt lat="46.023807" lon="9.855342">
	<ele>1868.20</ele>
	<time>2022-06-28T08:48:23.000Z</time>
</trkpt>
<trkpt lat="46.023805" lon="9.855340">
	<ele>1868.00</ele>
	<time>2022-06-28T08:48:29.000Z</time>
</trkpt>
<trkpt lat="46.023807" lon="9.855330">
	<ele>1868.00</ele>
	<time>2022-06-28T08:48:38.000Z</time>
</trkpt>
<trkpt lat="46.023801" lon="9.855329">
	<ele>1867.60</ele>
	<time>2022-06-28T08:48:46.000Z</time>
</trkpt>
<trkpt lat="46.023805" lon="9.855327">
	<ele>1867.60</ele>
	<time>2022-06-28T08:48:53.000Z</time>
</trkpt>
<trkpt lat="46.023815" lon="9.855320">
	<ele>1867.80</ele>
	<time>2022-06-28T08:49:15.000Z</time>
</trkpt>
<trkpt lat="46.023816" lon="9.855318">
	<ele>1868.20</ele>
	<time>2022-06-28T08:49:20.000Z</time>
</trkpt>
<trkpt lat="46.023816" lon="9.855316">
	<ele>1868.20</ele>
	<time>2022-06-28T08:49:24.000Z</time>
</trkpt>
<trkpt lat="46.023815" lon="9.855312">
	<ele>1868.20</ele>
	<time>2022-06-28T08:49:35.000Z</time>
</trkpt>
<trkpt lat="46.023817" lon="9.855409">
	<ele>1868.20</ele>
	<time>2022-06-28T08:49:45.000Z</time>
</trkpt>
<trkpt lat="46.023847" lon="9.855564">
	<ele>1868.20</ele>
	<time>2022-06-28T08:49:52.000Z</time>
</trkpt>
<trkpt lat="46.023869" lon="9.855665">
	<ele>1869.00</ele>
	<time>2022-06-28T08:49:59.000Z</time>
</trkpt>
<trkpt lat="46.023873" lon="9.855682">
	<ele>1869.00</ele>
	<time>2022-06-28T08:50:00.000Z</time>
</trkpt>
<trkpt lat="46.023877" lon="9.855828">
	<ele>1869.20</ele>
	<time>2022-06-28T08:50:09.000Z</time>
</trkpt>
<trkpt lat="46.023878" lon="9.855938">
	<ele>1869.60</ele>
	<time>2022-06-28T08:50:16.000Z</time>
</trkpt>
<trkpt lat="46.023878" lon="9.855980">
	<ele>1869.60</ele>
	<time>2022-06-28T08:50:18.000Z</time>
</trkpt>
<trkpt lat="46.023876" lon="9.856106">
	<ele>1870.00</ele>
	<time>2022-06-28T08:50:26.000Z</time>
</trkpt>
<trkpt lat="46.023881" lon="9.856150">
	<ele>1870.20</ele>
	<time>2022-06-28T08:50:29.000Z</time>
</trkpt>
<trkpt lat="46.023884" lon="9.856204">
	<ele>1870.40</ele>
	<time>2022-06-28T08:50:33.000Z</time>
</trkpt>
<trkpt lat="46.023874" lon="9.856265">
	<ele>1870.60</ele>
	<time>2022-06-28T08:50:37.000Z</time>
</trkpt>
<trkpt lat="46.023857" lon="9.856340">
	<ele>1871.00</ele>
	<time>2022-06-28T08:50:42.000Z</time>
</trkpt>
<trkpt lat="46.023857" lon="9.856351">
	<ele>1871.00</ele>
	<time>2022-06-28T08:50:43.000Z</time>
</trkpt>
<trkpt lat="46.023858" lon="9.856392">
	<ele>1871.40</ele>
	<time>2022-06-28T08:50:46.000Z</time>
</trkpt>
<trkpt lat="46.023856" lon="9.856406">
	<ele>1871.60</ele>
	<time>2022-06-28T08:50:47.000Z</time>
</trkpt>
<trkpt lat="46.023860" lon="9.856444">
	<ele>1872.00</ele>
	<time>2022-06-28T08:50:50.000Z</time>
</trkpt>
<trkpt lat="46.023857" lon="9.856469">
	<ele>1872.20</ele>
	<time>2022-06-28T08:50:52.000Z</time>
</trkpt>
<trkpt lat="46.023855" lon="9.856510">
	<ele>1872.40</ele>
	<time>2022-06-28T08:50:55.000Z</time>
</trkpt>
<trkpt lat="46.023854" lon="9.856525">
	<ele>1872.60</ele>
	<time>2022-06-28T08:50:56.000Z</time>
</trkpt>
<trkpt lat="46.023852" lon="9.856547">
	<ele>1873.00</ele>
	<time>2022-06-28T08:50:58.000Z</time>
</trkpt>
<trkpt lat="46.023850" lon="9.856587">
	<ele>1873.40</ele>
	<time>2022-06-28T08:51:02.000Z</time>
</trkpt>
<trkpt lat="46.023851" lon="9.856617">
	<ele>1873.40</ele>
	<time>2022-06-28T08:51:04.000Z</time>
</trkpt>
<trkpt lat="46.023850" lon="9.856629">
	<ele>1873.60</ele>
	<time>2022-06-28T08:51:09.000Z</time>
</trkpt>
<trkpt lat="46.023853" lon="9.856630">
	<ele>1873.60</ele>
	<time>2022-06-28T08:51:10.000Z</time>
</trkpt>
<trkpt lat="46.023862" lon="9.856631">
	<ele>1873.80</ele>
	<time>2022-06-28T08:51:11.000Z</time>
</trkpt>
<trkpt lat="46.023864" lon="9.856634">
	<ele>1874.00</ele>
	<time>2022-06-28T08:51:14.000Z</time>
</trkpt>
<trkpt lat="46.023856" lon="9.856691">
	<ele>1874.20</ele>
	<time>2022-06-28T08:51:21.000Z</time>
</trkpt>
<trkpt lat="46.023844" lon="9.856765">
	<ele>1874.80</ele>
	<time>2022-06-28T08:51:27.000Z</time>
</trkpt>
<trkpt lat="46.023843" lon="9.856781">
	<ele>1874.80</ele>
	<time>2022-06-28T08:51:28.000Z</time>
</trkpt>
<trkpt lat="46.023848" lon="9.856847">
	<ele>1875.60</ele>
	<time>2022-06-28T08:51:34.000Z</time>
</trkpt>
<trkpt lat="46.023845" lon="9.856874">
	<ele>1875.80</ele>
	<time>2022-06-28T08:51:37.000Z</time>
</trkpt>
<trkpt lat="46.023842" lon="9.856889">
	<ele>1875.80</ele>
	<time>2022-06-28T08:51:38.000Z</time>
</trkpt>
<trkpt lat="46.023826" lon="9.856930">
	<ele>1876.20</ele>
	<time>2022-06-28T08:51:41.000Z</time>
</trkpt>
<trkpt lat="46.023819" lon="9.857012">
	<ele>1876.80</ele>
	<time>2022-06-28T08:51:48.000Z</time>
</trkpt>
<trkpt lat="46.023819" lon="9.857029">
	<ele>1877.00</ele>
	<time>2022-06-28T08:51:49.000Z</time>
</trkpt>
<trkpt lat="46.023804" lon="9.857092">
	<ele>1878.00</ele>
	<time>2022-06-28T08:51:53.000Z</time>
</trkpt>
<trkpt lat="46.023802" lon="9.857110">
	<ele>1878.20</ele>
	<time>2022-06-28T08:51:54.000Z</time>
</trkpt>
<trkpt lat="46.023800" lon="9.857140">
	<ele>1878.60</ele>
	<time>2022-06-28T08:51:56.000Z</time>
</trkpt>
<trkpt lat="46.023794" lon="9.857208">
	<ele>1879.00</ele>
	<time>2022-06-28T08:52:02.000Z</time>
</trkpt>
<trkpt lat="46.023790" lon="9.857232">
	<ele>1879.20</ele>
	<time>2022-06-28T08:52:04.000Z</time>
</trkpt>
<trkpt lat="46.023788" lon="9.857342">
	<ele>1879.60</ele>
	<time>2022-06-28T08:52:12.000Z</time>
</trkpt>
<trkpt lat="46.023777" lon="9.857430">
	<ele>1880.00</ele>
	<time>2022-06-28T08:52:18.000Z</time>
</trkpt>
<trkpt lat="46.023771" lon="9.857470">
	<ele>1880.20</ele>
	<time>2022-06-28T08:52:21.000Z</time>
</trkpt>
<trkpt lat="46.023756" lon="9.857529">
	<ele>1880.40</ele>
	<time>2022-06-28T08:52:25.000Z</time>
</trkpt>
<trkpt lat="46.023740" lon="9.857566">
	<ele>1880.80</ele>
	<time>2022-06-28T08:52:28.000Z</time>
</trkpt>
<trkpt lat="46.023730" lon="9.857612">
	<ele>1881.00</ele>
	<time>2022-06-28T08:52:32.000Z</time>
</trkpt>
<trkpt lat="46.023724" lon="9.857627">
	<ele>1881.20</ele>
	<time>2022-06-28T08:52:33.000Z</time>
</trkpt>
<trkpt lat="46.023689" lon="9.857761">
	<ele>1881.80</ele>
	<time>2022-06-28T08:52:42.000Z</time>
</trkpt>
<trkpt lat="46.023667" lon="9.857852">
	<ele>1882.20</ele>
	<time>2022-06-28T08:52:48.000Z</time>
</trkpt>
<trkpt lat="46.023655" lon="9.857892">
	<ele>1882.40</ele>
	<time>2022-06-28T08:52:51.000Z</time>
</trkpt>
<trkpt lat="46.023630" lon="9.857967">
	<ele>1883.20</ele>
	<time>2022-06-28T08:52:57.000Z</time>
</trkpt>
<trkpt lat="46.023598" lon="9.858036">
	<ele>1883.40</ele>
	<time>2022-06-28T08:53:02.000Z</time>
</trkpt>
<trkpt lat="46.023558" lon="9.858151">
	<ele>1883.40</ele>
	<time>2022-06-28T08:53:11.000Z</time>
</trkpt>
<trkpt lat="46.023530" lon="9.858290">
	<ele>1883.60</ele>
	<time>2022-06-28T08:53:20.000Z</time>
</trkpt>
<trkpt lat="46.023526" lon="9.858303">
	<ele>1883.60</ele>
	<time>2022-06-28T08:53:21.000Z</time>
</trkpt>
<trkpt lat="46.023523" lon="9.858384">
	<ele>1884.00</ele>
	<time>2022-06-28T08:53:27.000Z</time>
</trkpt>
<trkpt lat="46.023519" lon="9.858407">
	<ele>1884.20</ele>
	<time>2022-06-28T08:53:29.000Z</time>
</trkpt>
<trkpt lat="46.023525" lon="9.858489">
	<ele>1884.20</ele>
	<time>2022-06-28T08:53:35.000Z</time>
</trkpt>
<trkpt lat="46.023519" lon="9.858531">
	<ele>1884.40</ele>
	<time>2022-06-28T08:53:38.000Z</time>
</trkpt>
<trkpt lat="46.023508" lon="9.858598">
	<ele>1884.60</ele>
	<time>2022-06-28T08:53:42.000Z</time>
</trkpt>
<trkpt lat="46.023509" lon="9.858667">
	<ele>1884.80</ele>
	<time>2022-06-28T08:53:46.000Z</time>
</trkpt>
<trkpt lat="46.023510" lon="9.858740">
	<ele>1885.20</ele>
	<time>2022-06-28T08:53:51.000Z</time>
</trkpt>
<trkpt lat="46.023491" lon="9.858813">
	<ele>1885.40</ele>
	<time>2022-06-28T08:53:55.000Z</time>
</trkpt>
<trkpt lat="46.023472" lon="9.859012">
	<ele>1886.20</ele>
	<time>2022-06-28T08:54:07.000Z</time>
</trkpt>
<trkpt lat="46.023475" lon="9.859044">
	<ele>1886.20</ele>
	<time>2022-06-28T08:54:09.000Z</time>
</trkpt>
<trkpt lat="46.023470" lon="9.859054">
	<ele>1886.40</ele>
	<time>2022-06-28T08:54:10.000Z</time>
</trkpt>
<trkpt lat="46.023458" lon="9.859093">
	<ele>1886.60</ele>
	<time>2022-06-28T08:54:13.000Z</time>
</trkpt>
<trkpt lat="46.023474" lon="9.859213">
	<ele>1887.40</ele>
	<time>2022-06-28T08:54:21.000Z</time>
</trkpt>
<trkpt lat="46.023473" lon="9.859245">
	<ele>1887.40</ele>
	<time>2022-06-28T08:54:23.000Z</time>
</trkpt>
<trkpt lat="46.023459" lon="9.859314">
	<ele>1887.80</ele>
	<time>2022-06-28T08:54:28.000Z</time>
</trkpt>
<trkpt lat="46.023452" lon="9.859362">
	<ele>1888.20</ele>
	<time>2022-06-28T08:54:32.000Z</time>
</trkpt>
<trkpt lat="46.023457" lon="9.859380">
	<ele>1888.40</ele>
	<time>2022-06-28T08:54:34.000Z</time>
</trkpt>
<trkpt lat="46.023463" lon="9.859494">
	<ele>1889.40</ele>
	<time>2022-06-28T08:54:41.000Z</time>
</trkpt>
<trkpt lat="46.023455" lon="9.859507">
	<ele>1889.60</ele>
	<time>2022-06-28T08:54:42.000Z</time>
</trkpt>
<trkpt lat="46.023439" lon="9.859578">
	<ele>1890.20</ele>
	<time>2022-06-28T08:54:48.000Z</time>
</trkpt>
<trkpt lat="46.023439" lon="9.859598">
	<ele>1890.20</ele>
	<time>2022-06-28T08:54:49.000Z</time>
</trkpt>
<trkpt lat="46.023433" lon="9.859698">
	<ele>1890.40</ele>
	<time>2022-06-28T08:54:55.000Z</time>
</trkpt>
<trkpt lat="46.023433" lon="9.859717">
	<ele>1890.40</ele>
	<time>2022-06-28T08:54:56.000Z</time>
</trkpt>
<trkpt lat="46.023439" lon="9.859815">
	<ele>1890.40</ele>
	<time>2022-06-28T08:55:02.000Z</time>
</trkpt>
<trkpt lat="46.023448" lon="9.859956">
	<ele>1890.60</ele>
	<time>2022-06-28T08:55:11.000Z</time>
</trkpt>
<trkpt lat="46.023460" lon="9.860080">
	<ele>1890.60</ele>
	<time>2022-06-28T08:55:19.000Z</time>
</trkpt>
<trkpt lat="46.023448" lon="9.860251">
	<ele>1890.80</ele>
	<time>2022-06-28T08:55:29.000Z</time>
</trkpt>
<trkpt lat="46.023435" lon="9.860292">
	<ele>1890.60</ele>
	<time>2022-06-28T08:55:32.000Z</time>
</trkpt>
<trkpt lat="46.023386" lon="9.860381">
	<ele>1890.60</ele>
	<time>2022-06-28T08:55:39.000Z</time>
</trkpt>
<trkpt lat="46.023345" lon="9.860460">
	<ele>1890.80</ele>
	<time>2022-06-28T08:55:45.000Z</time>
</trkpt>
<trkpt lat="46.023321" lon="9.860515">
	<ele>1890.80</ele>
	<time>2022-06-28T08:55:49.000Z</time>
</trkpt>
<trkpt lat="46.023318" lon="9.860525">
	<ele>1891.00</ele>
	<time>2022-06-28T08:55:50.000Z</time>
</trkpt>
<trkpt lat="46.023310" lon="9.860546">
	<ele>1891.00</ele>
	<time>2022-06-28T08:55:52.000Z</time>
</trkpt>
<trkpt lat="46.023307" lon="9.860557">
	<ele>1891.00</ele>
	<time>2022-06-28T08:55:53.000Z</time>
</trkpt>
<trkpt lat="46.023300" lon="9.860545">
	<ele>1891.00</ele>
	<time>2022-06-28T08:55:54.000Z</time>
</trkpt>
<trkpt lat="46.023266" lon="9.860547">
	<ele>1891.40</ele>
	<time>2022-06-28T08:56:00.000Z</time>
</trkpt>
<trkpt lat="46.023261" lon="9.860571">
	<ele>1891.40</ele>
	<time>2022-06-28T08:56:02.000Z</time>
</trkpt>
<trkpt lat="46.023255" lon="9.860599">
	<ele>1891.20</ele>
	<time>2022-06-28T08:56:04.000Z</time>
</trkpt>
<trkpt lat="46.023262" lon="9.860647">
	<ele>1891.20</ele>
	<time>2022-06-28T08:56:07.000Z</time>
</trkpt>
<trkpt lat="46.023256" lon="9.860679">
	<ele>1891.40</ele>
	<time>2022-06-28T08:56:09.000Z</time>
</trkpt>
<trkpt lat="46.023222" lon="9.860807">
	<ele>1891.40</ele>
	<time>2022-06-28T08:56:18.000Z</time>
</trkpt>
<trkpt lat="46.023252" lon="9.860921">
	<ele>1891.40</ele>
	<time>2022-06-28T08:56:26.000Z</time>
</trkpt>
<trkpt lat="46.023280" lon="9.860950">
	<ele>1891.40</ele>
	<time>2022-06-28T08:56:33.000Z</time>
</trkpt>
<trkpt lat="46.023301" lon="9.860957">
	<ele>1891.60</ele>
	<time>2022-06-28T08:56:36.000Z</time>
</trkpt>
<trkpt lat="46.023308" lon="9.860955">
	<ele>1891.60</ele>
	<time>2022-06-28T08:56:37.000Z</time>
</trkpt>
<trkpt lat="46.023315" lon="9.860950">
	<ele>1891.60</ele>
	<time>2022-06-28T08:56:38.000Z</time>
</trkpt>
<trkpt lat="46.023347" lon="9.860939">
	<ele>1891.80</ele>
	<time>2022-06-28T08:56:41.000Z</time>
</trkpt>
<trkpt lat="46.023358" lon="9.860926">
	<ele>1892.00</ele>
	<time>2022-06-28T08:56:43.000Z</time>
</trkpt>
<trkpt lat="46.023374" lon="9.860908">
	<ele>1892.20</ele>
	<time>2022-06-28T08:56:45.000Z</time>
</trkpt>
<trkpt lat="46.023395" lon="9.860893">
	<ele>1892.80</ele>
	<time>2022-06-28T08:56:48.000Z</time>
</trkpt>
<trkpt lat="46.023398" lon="9.860887">
	<ele>1893.00</ele>
	<time>2022-06-28T08:56:49.000Z</time>
</trkpt>
<trkpt lat="46.023402" lon="9.860884">
	<ele>1893.20</ele>
	<time>2022-06-28T08:56:50.000Z</time>
</trkpt>
<trkpt lat="46.023408" lon="9.860866">
	<ele>1893.60</ele>
	<time>2022-06-28T08:56:52.000Z</time>
</trkpt>
<trkpt lat="46.023427" lon="9.860854">
	<ele>1893.80</ele>
	<time>2022-06-28T08:56:55.000Z</time>
</trkpt>
<trkpt lat="46.023434" lon="9.860846">
	<ele>1894.00</ele>
	<time>2022-06-28T08:56:56.000Z</time>
</trkpt>
<trkpt lat="46.023443" lon="9.860827">
	<ele>1894.40</ele>
	<time>2022-06-28T08:56:59.000Z</time>
</trkpt>
<trkpt lat="46.023452" lon="9.860801">
	<ele>1894.80</ele>
	<time>2022-06-28T08:57:02.000Z</time>
</trkpt>
<trkpt lat="46.023470" lon="9.860770">
	<ele>1895.60</ele>
	<time>2022-06-28T08:57:09.000Z</time>
</trkpt>
<trkpt lat="46.023484" lon="9.860754">
	<ele>1895.60</ele>
	<time>2022-06-28T08:57:16.000Z</time>
</trkpt>
<trkpt lat="46.023492" lon="9.860757">
	<ele>1895.60</ele>
	<time>2022-06-28T08:57:22.000Z</time>
</trkpt>
<trkpt lat="46.023517" lon="9.860721">
	<ele>1895.80</ele>
	<time>2022-06-28T08:57:28.000Z</time>
</trkpt>
<trkpt lat="46.023550" lon="9.860689">
	<ele>1897.00</ele>
	<time>2022-06-28T08:57:35.000Z</time>
</trkpt>
<trkpt lat="46.023556" lon="9.860678">
	<ele>1897.40</ele>
	<time>2022-06-28T08:57:38.000Z</time>
</trkpt>
<trkpt lat="46.023595" lon="9.860652">
	<ele>1898.00</ele>
	<time>2022-06-28T08:57:44.000Z</time>
</trkpt>
<trkpt lat="46.023598" lon="9.860646">
	<ele>1898.20</ele>
	<time>2022-06-28T08:57:45.000Z</time>
</trkpt>
<trkpt lat="46.023611" lon="9.860598">
	<ele>1899.20</ele>
	<time>2022-06-28T08:57:51.000Z</time>
</trkpt>
<trkpt lat="46.023632" lon="9.860528">
	<ele>1900.40</ele>
	<time>2022-06-28T08:58:00.000Z</time>
</trkpt>
<trkpt lat="46.023636" lon="9.860520">
	<ele>1900.60</ele>
	<time>2022-06-28T08:58:01.000Z</time>
</trkpt>
<trkpt lat="46.023654" lon="9.860502">
	<ele>1901.40</ele>
	<time>2022-06-28T08:58:09.000Z</time>
</trkpt>
<trkpt lat="46.023655" lon="9.860496">
	<ele>1901.60</ele>
	<time>2022-06-28T08:58:10.000Z</time>
</trkpt>
<trkpt lat="46.023673" lon="9.860451">
	<ele>1902.40</ele>
	<time>2022-06-28T08:58:16.000Z</time>
</trkpt>
<trkpt lat="46.023668" lon="9.860448">
	<ele>1902.60</ele>
	<time>2022-06-28T08:58:17.000Z</time>
</trkpt>
<trkpt lat="46.023694" lon="9.860447">
	<ele>1903.40</ele>
	<time>2022-06-28T08:58:22.000Z</time>
</trkpt>
<trkpt lat="46.023703" lon="9.860412">
	<ele>1904.20</ele>
	<time>2022-06-28T08:58:26.000Z</time>
</trkpt>
<trkpt lat="46.023711" lon="9.860396">
	<ele>1904.60</ele>
	<time>2022-06-28T08:58:28.000Z</time>
</trkpt>
<trkpt lat="46.023744" lon="9.860309">
	<ele>1905.60</ele>
	<time>2022-06-28T08:58:36.000Z</time>
</trkpt>
<trkpt lat="46.023801" lon="9.860311">
	<ele>1906.40</ele>
	<time>2022-06-28T08:58:45.000Z</time>
</trkpt>
<trkpt lat="46.023809" lon="9.860362">
	<ele>1906.60</ele>
	<time>2022-06-28T08:58:51.000Z</time>
</trkpt>
<trkpt lat="46.023819" lon="9.860402">
	<ele>1906.80</ele>
	<time>2022-06-28T08:58:54.000Z</time>
</trkpt>
<trkpt lat="46.023863" lon="9.860479">
	<ele>1907.20</ele>
	<time>2022-06-28T08:59:02.000Z</time>
</trkpt>
<trkpt lat="46.023893" lon="9.860589">
	<ele>1907.20</ele>
	<time>2022-06-28T08:59:11.000Z</time>
</trkpt>
<trkpt lat="46.023882" lon="9.860666">
	<ele>1907.80</ele>
	<time>2022-06-28T08:59:17.000Z</time>
</trkpt>
<trkpt lat="46.023872" lon="9.860680">
	<ele>1908.20</ele>
	<time>2022-06-28T08:59:21.000Z</time>
</trkpt>
<trkpt lat="46.023870" lon="9.860689">
	<ele>1908.40</ele>
	<time>2022-06-28T08:59:23.000Z</time>
</trkpt>
<trkpt lat="46.023854" lon="9.860702">
	<ele>1908.80</ele>
	<time>2022-06-28T08:59:26.000Z</time>
</trkpt>
<trkpt lat="46.023849" lon="9.860709">
	<ele>1908.80</ele>
	<time>2022-06-28T08:59:27.000Z</time>
</trkpt>
<trkpt lat="46.023848" lon="9.860718">
	<ele>1909.00</ele>
	<time>2022-06-28T08:59:28.000Z</time>
</trkpt>
<trkpt lat="46.023859" lon="9.860732">
	<ele>1909.20</ele>
	<time>2022-06-28T08:59:30.000Z</time>
</trkpt>
<trkpt lat="46.023867" lon="9.860762">
	<ele>1910.00</ele>
	<time>2022-06-28T08:59:35.000Z</time>
</trkpt>
<trkpt lat="46.023867" lon="9.860796">
	<ele>1910.40</ele>
	<time>2022-06-28T08:59:39.000Z</time>
</trkpt>
<trkpt lat="46.023868" lon="9.860846">
	<ele>1911.00</ele>
	<time>2022-06-28T08:59:45.000Z</time>
</trkpt>
<trkpt lat="46.023864" lon="9.860862">
	<ele>1911.40</ele>
	<time>2022-06-28T08:59:48.000Z</time>
</trkpt>
<trkpt lat="46.023868" lon="9.860875">
	<ele>1911.80</ele>
	<time>2022-06-28T08:59:51.000Z</time>
</trkpt>
<trkpt lat="46.023870" lon="9.860886">
	<ele>1912.20</ele>
	<time>2022-06-28T08:59:53.000Z</time>
</trkpt>
<trkpt lat="46.023869" lon="9.860909">
	<ele>1913.00</ele>
	<time>2022-06-28T08:59:59.000Z</time>
</trkpt>
<trkpt lat="46.023872" lon="9.860909">
	<ele>1913.20</ele>
	<time>2022-06-28T09:00:12.000Z</time>
</trkpt>
<trkpt lat="46.023895" lon="9.860915">
	<ele>1914.20</ele>
	<time>2022-06-28T09:00:22.000Z</time>
</trkpt>
<trkpt lat="46.023911" lon="9.860915">
	<ele>1914.80</ele>
	<time>2022-06-28T09:00:26.000Z</time>
</trkpt>
<trkpt lat="46.023917" lon="9.860915">
	<ele>1915.40</ele>
	<time>2022-06-28T09:00:29.000Z</time>
</trkpt>
<trkpt lat="46.023936" lon="9.860915">
	<ele>1915.80</ele>
	<time>2022-06-28T09:00:34.000Z</time>
</trkpt>
<trkpt lat="46.023969" lon="9.860914">
	<ele>1916.60</ele>
	<time>2022-06-28T09:00:39.000Z</time>
</trkpt>
<trkpt lat="46.024005" lon="9.860915">
	<ele>1917.60</ele>
	<time>2022-06-28T09:00:47.000Z</time>
</trkpt>
<trkpt lat="46.024027" lon="9.860916">
	<ele>1918.60</ele>
	<time>2022-06-28T09:00:53.000Z</time>
</trkpt>
<trkpt lat="46.024064" lon="9.860929">
	<ele>1919.60</ele>
	<time>2022-06-28T09:01:01.000Z</time>
</trkpt>
<trkpt lat="46.024066" lon="9.860932">
	<ele>1919.80</ele>
	<time>2022-06-28T09:01:02.000Z</time>
</trkpt>
<trkpt lat="46.024083" lon="9.860971">
	<ele>1920.80</ele>
	<time>2022-06-28T09:01:09.000Z</time>
</trkpt>
<trkpt lat="46.024111" lon="9.861017">
	<ele>1922.00</ele>
	<time>2022-06-28T09:01:19.000Z</time>
</trkpt>
<trkpt lat="46.024116" lon="9.861042">
	<ele>1923.00</ele>
	<time>2022-06-28T09:01:26.000Z</time>
</trkpt>
<trkpt lat="46.024122" lon="9.861072">
	<ele>1924.00</ele>
	<time>2022-06-28T09:01:34.000Z</time>
</trkpt>
<trkpt lat="46.024140" lon="9.861119">
	<ele>1925.00</ele>
	<time>2022-06-28T09:01:44.000Z</time>
</trkpt>
<trkpt lat="46.024155" lon="9.861156">
	<ele>1926.00</ele>
	<time>2022-06-28T09:01:53.000Z</time>
</trkpt>
<trkpt lat="46.024171" lon="9.861194">
	<ele>1927.40</ele>
	<time>2022-06-28T09:02:01.000Z</time>
</trkpt>
<trkpt lat="46.024162" lon="9.861334">
	<ele>1927.80</ele>
	<time>2022-06-28T09:02:13.000Z</time>
</trkpt>
<trkpt lat="46.024139" lon="9.861384">
	<ele>1927.80</ele>
	<time>2022-06-28T09:02:16.000Z</time>
</trkpt>
<trkpt lat="46.024133" lon="9.861426">
	<ele>1927.60</ele>
	<time>2022-06-28T09:02:19.000Z</time>
</trkpt>
<trkpt lat="46.024140" lon="9.861443">
	<ele>1927.60</ele>
	<time>2022-06-28T09:02:27.000Z</time>
</trkpt>
<trkpt lat="46.024177" lon="9.861440">
	<ele>1927.60</ele>
	<time>2022-06-28T09:02:34.000Z</time>
</trkpt>
<trkpt lat="46.024166" lon="9.861498">
	<ele>1928.40</ele>
	<time>2022-06-28T09:02:38.000Z</time>
</trkpt>
<trkpt lat="46.024155" lon="9.861525">
	<ele>1928.20</ele>
	<time>2022-06-28T09:02:40.000Z</time>
</trkpt>
<trkpt lat="46.024147" lon="9.861614">
	<ele>1927.60</ele>
	<time>2022-06-28T09:02:45.000Z</time>
</trkpt>
<trkpt lat="46.024142" lon="9.861641">
	<ele>1927.60</ele>
	<time>2022-06-28T09:02:47.000Z</time>
</trkpt>
<trkpt lat="46.024128" lon="9.861797">
	<ele>1927.80</ele>
	<time>2022-06-28T09:02:57.000Z</time>
</trkpt>
<trkpt lat="46.024120" lon="9.861827">
	<ele>1927.80</ele>
	<time>2022-06-28T09:02:59.000Z</time>
</trkpt>
<trkpt lat="46.024121" lon="9.861975">
	<ele>1928.20</ele>
	<time>2022-06-28T09:03:08.000Z</time>
</trkpt>
<trkpt lat="46.024123" lon="9.861992">
	<ele>1928.40</ele>
	<time>2022-06-28T09:03:09.000Z</time>
</trkpt>
<trkpt lat="46.024141" lon="9.862149">
	<ele>1929.00</ele>
	<time>2022-06-28T09:03:20.000Z</time>
</trkpt>
<trkpt lat="46.024142" lon="9.862165">
	<ele>1929.20</ele>
	<time>2022-06-28T09:03:22.000Z</time>
</trkpt>
<trkpt lat="46.024147" lon="9.862177">
	<ele>1929.40</ele>
	<time>2022-06-28T09:03:24.000Z</time>
</trkpt>
<trkpt lat="46.024146" lon="9.862184">
	<ele>1929.60</ele>
	<time>2022-06-28T09:03:25.000Z</time>
</trkpt>
<trkpt lat="46.024149" lon="9.862200">
	<ele>1929.80</ele>
	<time>2022-06-28T09:03:27.000Z</time>
</trkpt>
<trkpt lat="46.024160" lon="9.862227">
	<ele>1930.60</ele>
	<time>2022-06-28T09:03:32.000Z</time>
</trkpt>
<trkpt lat="46.024158" lon="9.862236">
	<ele>1930.80</ele>
	<time>2022-06-28T09:03:33.000Z</time>
</trkpt>
<trkpt lat="46.024158" lon="9.862244">
	<ele>1930.80</ele>
	<time>2022-06-28T09:03:34.000Z</time>
</trkpt>
<trkpt lat="46.024154" lon="9.862264">
	<ele>1931.40</ele>
	<time>2022-06-28T09:03:38.000Z</time>
</trkpt>
<trkpt lat="46.024161" lon="9.862270">
	<ele>1931.80</ele>
	<time>2022-06-28T09:03:40.000Z</time>
</trkpt>
<trkpt lat="46.024163" lon="9.862280">
	<ele>1932.20</ele>
	<time>2022-06-28T09:03:42.000Z</time>
</trkpt>
<trkpt lat="46.024164" lon="9.862285">
	<ele>1932.40</ele>
	<time>2022-06-28T09:03:43.000Z</time>
</trkpt>
<trkpt lat="46.024173" lon="9.862315">
	<ele>1933.20</ele>
	<time>2022-06-28T09:03:48.000Z</time>
</trkpt>
<trkpt lat="46.024193" lon="9.862347">
	<ele>1934.20</ele>
	<time>2022-06-28T09:03:53.000Z</time>
</trkpt>
<trkpt lat="46.024202" lon="9.862350">
	<ele>1934.40</ele>
	<time>2022-06-28T09:03:54.000Z</time>
</trkpt>
<trkpt lat="46.024226" lon="9.862369">
	<ele>1935.40</ele>
	<time>2022-06-28T09:03:59.000Z</time>
</trkpt>
<trkpt lat="46.024223" lon="9.862419">
	<ele>1935.80</ele>
	<time>2022-06-28T09:04:03.000Z</time>
</trkpt>
<trkpt lat="46.024225" lon="9.862432">
	<ele>1935.80</ele>
	<time>2022-06-28T09:04:04.000Z</time>
</trkpt>
<trkpt lat="46.024230" lon="9.862470">
	<ele>1935.40</ele>
	<time>2022-06-28T09:04:07.000Z</time>
</trkpt>
<trkpt lat="46.024232" lon="9.862604">
	<ele>1935.40</ele>
	<time>2022-06-28T09:04:16.000Z</time>
</trkpt>
<trkpt lat="46.024220" lon="9.862665">
	<ele>1935.20</ele>
	<time>2022-06-28T09:04:20.000Z</time>
</trkpt>
<trkpt lat="46.024222" lon="9.862733">
	<ele>1935.00</ele>
	<time>2022-06-28T09:04:25.000Z</time>
</trkpt>
<trkpt lat="46.024231" lon="9.862745">
	<ele>1935.00</ele>
	<time>2022-06-28T09:04:26.000Z</time>
</trkpt>
<trkpt lat="46.024231" lon="9.862845">
	<ele>1934.80</ele>
	<time>2022-06-28T09:04:34.000Z</time>
</trkpt>
<trkpt lat="46.024249" lon="9.862863">
	<ele>1934.40</ele>
	<time>2022-06-28T09:04:37.000Z</time>
</trkpt>
<trkpt lat="46.024258" lon="9.862866">
	<ele>1934.20</ele>
	<time>2022-06-28T09:04:38.000Z</time>
</trkpt>
<trkpt lat="46.024280" lon="9.862899">
	<ele>1933.60</ele>
	<time>2022-06-28T09:04:43.000Z</time>
</trkpt>
<trkpt lat="46.024293" lon="9.862905">
	<ele>1933.20</ele>
	<time>2022-06-28T09:04:45.000Z</time>
</trkpt>
<trkpt lat="46.024320" lon="9.862925">
	<ele>1932.00</ele>
	<time>2022-06-28T09:04:49.000Z</time>
</trkpt>
<trkpt lat="46.024335" lon="9.862935">
	<ele>1931.20</ele>
	<time>2022-06-28T09:04:52.000Z</time>
</trkpt>
<trkpt lat="46.024340" lon="9.862941">
	<ele>1931.00</ele>
	<time>2022-06-28T09:04:53.000Z</time>
</trkpt>
<trkpt lat="46.024355" lon="9.862953">
	<ele>1930.80</ele>
	<time>2022-06-28T09:04:55.000Z</time>
</trkpt>
<trkpt lat="46.024372" lon="9.862969">
	<ele>1930.20</ele>
	<time>2022-06-28T09:04:57.000Z</time>
</trkpt>
<trkpt lat="46.024382" lon="9.862983">
	<ele>1929.80</ele>
	<time>2022-06-28T09:04:59.000Z</time>
</trkpt>
<trkpt lat="46.024402" lon="9.862997">
	<ele>1929.20</ele>
	<time>2022-06-28T09:05:02.000Z</time>
</trkpt>
<trkpt lat="46.024408" lon="9.863011">
	<ele>1929.00</ele>
	<time>2022-06-28T09:05:04.000Z</time>
</trkpt>
<trkpt lat="46.024412" lon="9.863034">
	<ele>1928.60</ele>
	<time>2022-06-28T09:05:06.000Z</time>
</trkpt>
<trkpt lat="46.024414" lon="9.863049">
	<ele>1928.60</ele>
	<time>2022-06-28T09:05:07.000Z</time>
</trkpt>
<trkpt lat="46.024436" lon="9.863102">
	<ele>1927.40</ele>
	<time>2022-06-28T09:05:11.000Z</time>
</trkpt>
<trkpt lat="46.024443" lon="9.863114">
	<ele>1927.20</ele>
	<time>2022-06-28T09:05:12.000Z</time>
</trkpt>
<trkpt lat="46.024457" lon="9.863172">
	<ele>1926.60</ele>
	<time>2022-06-28T09:05:16.000Z</time>
</trkpt>
<trkpt lat="46.024457" lon="9.863195">
	<ele>1926.20</ele>
	<time>2022-06-28T09:05:18.000Z</time>
</trkpt>
<trkpt lat="46.024448" lon="9.863274">
	<ele>1925.80</ele>
	<time>2022-06-28T09:05:23.000Z</time>
</trkpt>
<trkpt lat="46.024424" lon="9.863425">
	<ele>1925.80</ele>
	<time>2022-06-28T09:05:32.000Z</time>
</trkpt>
<trkpt lat="46.024424" lon="9.863579">
	<ele>1925.80</ele>
	<time>2022-06-28T09:05:41.000Z</time>
</trkpt>
<trkpt lat="46.024424" lon="9.863616">
	<ele>1925.60</ele>
	<time>2022-06-28T09:05:43.000Z</time>
</trkpt>
<trkpt lat="46.024419" lon="9.863791">
	<ele>1925.60</ele>
	<time>2022-06-28T09:05:53.000Z</time>
</trkpt>
<trkpt lat="46.024378" lon="9.863931">
	<ele>1926.20</ele>
	<time>2022-06-28T09:06:02.000Z</time>
</trkpt>
<trkpt lat="46.024370" lon="9.863946">
	<ele>1926.20</ele>
	<time>2022-06-28T09:06:03.000Z</time>
</trkpt>
<trkpt lat="46.024361" lon="9.863976">
	<ele>1926.40</ele>
	<time>2022-06-28T09:06:05.000Z</time>
</trkpt>
<trkpt lat="46.024338" lon="9.864085">
	<ele>1926.80</ele>
	<time>2022-06-28T09:06:12.000Z</time>
</trkpt>
<trkpt lat="46.024330" lon="9.864111">
	<ele>1927.00</ele>
	<time>2022-06-28T09:06:14.000Z</time>
</trkpt>
<trkpt lat="46.024243" lon="9.864302">
	<ele>1926.80</ele>
	<time>2022-06-28T09:06:27.000Z</time>
</trkpt>
<trkpt lat="46.024156" lon="9.864438">
	<ele>1927.00</ele>
	<time>2022-06-28T09:06:38.000Z</time>
</trkpt>
<trkpt lat="46.024155" lon="9.864455">
	<ele>1927.20</ele>
	<time>2022-06-28T09:06:39.000Z</time>
</trkpt>
<trkpt lat="46.024154" lon="9.864472">
	<ele>1927.20</ele>
	<time>2022-06-28T09:06:40.000Z</time>
</trkpt>
<trkpt lat="46.024154" lon="9.864489">
	<ele>1927.40</ele>
	<time>2022-06-28T09:06:41.000Z</time>
</trkpt>
<trkpt lat="46.024156" lon="9.864527">
	<ele>1927.60</ele>
	<time>2022-06-28T09:06:43.000Z</time>
</trkpt>
<trkpt lat="46.024158" lon="9.864673">
	<ele>1927.80</ele>
	<time>2022-06-28T09:06:51.000Z</time>
</trkpt>
<trkpt lat="46.024176" lon="9.864825">
	<ele>1927.80</ele>
	<time>2022-06-28T09:07:00.000Z</time>
</trkpt>
<trkpt lat="46.024180" lon="9.865026">
	<ele>1927.80</ele>
	<time>2022-06-28T09:07:12.000Z</time>
</trkpt>
<trkpt lat="46.024180" lon="9.865044">
	<ele>1927.80</ele>
	<time>2022-06-28T09:07:16.000Z</time>
</trkpt>
<trkpt lat="46.024174" lon="9.865044">
	<ele>1927.80</ele>
	<time>2022-06-28T09:07:17.000Z</time>
</trkpt>
<trkpt lat="46.024148" lon="9.865016">
	<ele>1928.40</ele>
	<time>2022-06-28T09:07:23.000Z</time>
</trkpt>
<trkpt lat="46.024147" lon="9.865038">
	<ele>1928.40</ele>
	<time>2022-06-28T09:07:30.000Z</time>
</trkpt>
<trkpt lat="46.024164" lon="9.865184">
	<ele>1928.40</ele>
	<time>2022-06-28T09:07:38.000Z</time>
</trkpt>
<trkpt lat="46.024201" lon="9.865328">
	<ele>1929.00</ele>
	<time>2022-06-28T09:07:47.000Z</time>
</trkpt>
<trkpt lat="46.024212" lon="9.865497">
	<ele>1928.00</ele>
	<time>2022-06-28T09:07:56.000Z</time>
</trkpt>
<trkpt lat="46.024223" lon="9.865657">
	<ele>1927.40</ele>
	<time>2022-06-28T09:08:05.000Z</time>
</trkpt>
<trkpt lat="46.024244" lon="9.865916">
	<ele>1927.40</ele>
	<time>2022-06-28T09:08:19.000Z</time>
</trkpt>
<trkpt lat="46.024242" lon="9.865970">
	<ele>1927.20</ele>
	<time>2022-06-28T09:08:22.000Z</time>
</trkpt>
<trkpt lat="46.024258" lon="9.866061">
	<ele>1927.40</ele>
	<time>2022-06-28T09:08:27.000Z</time>
</trkpt>
<trkpt lat="46.024270" lon="9.866146">
	<ele>1927.40</ele>
	<time>2022-06-28T09:08:32.000Z</time>
</trkpt>
<trkpt lat="46.024293" lon="9.866318">
	<ele>1927.40</ele>
	<time>2022-06-28T09:08:42.000Z</time>
</trkpt>
<trkpt lat="46.024293" lon="9.866336">
	<ele>1927.40</ele>
	<time>2022-06-28T09:08:43.000Z</time>
</trkpt>
<trkpt lat="46.024292" lon="9.866411">
	<ele>1927.40</ele>
	<time>2022-06-28T09:08:47.000Z</time>
</trkpt>
<trkpt lat="46.024306" lon="9.866556">
	<ele>1927.60</ele>
	<time>2022-06-28T09:08:55.000Z</time>
</trkpt>
<trkpt lat="46.024300" lon="9.866739">
	<ele>1927.20</ele>
	<time>2022-06-28T09:09:05.000Z</time>
</trkpt>
<trkpt lat="46.024252" lon="9.866907">
	<ele>1926.60</ele>
	<time>2022-06-28T09:09:15.000Z</time>
</trkpt>
<trkpt lat="46.024216" lon="9.867121">
	<ele>1926.80</ele>
	<time>2022-06-28T09:09:27.000Z</time>
</trkpt>
<trkpt lat="46.024179" lon="9.867314">
	<ele>1927.00</ele>
	<time>2022-06-28T09:09:39.000Z</time>
</trkpt>
<trkpt lat="46.024160" lon="9.867399">
	<ele>1927.20</ele>
	<time>2022-06-28T09:09:44.000Z</time>
</trkpt>
<trkpt lat="46.024162" lon="9.867575">
	<ele>1927.20</ele>
	<time>2022-06-28T09:09:54.000Z</time>
</trkpt>
<trkpt lat="46.024154" lon="9.867792">
	<ele>1927.40</ele>
	<time>2022-06-28T09:10:06.000Z</time>
</trkpt>
<trkpt lat="46.024142" lon="9.868039">
	<ele>1927.80</ele>
	<time>2022-06-28T09:10:20.000Z</time>
</trkpt>
<trkpt lat="46.024145" lon="9.868173">
	<ele>1928.40</ele>
	<time>2022-06-28T09:10:28.000Z</time>
</trkpt>
<trkpt lat="46.024141" lon="9.868214">
	<ele>1928.60</ele>
	<time>2022-06-28T09:10:30.000Z</time>
</trkpt>
<trkpt lat="46.024144" lon="9.868372">
	<ele>1929.20</ele>
	<time>2022-06-28T09:10:40.000Z</time>
</trkpt>
<trkpt lat="46.024148" lon="9.868444">
	<ele>1929.40</ele>
	<time>2022-06-28T09:10:44.000Z</time>
</trkpt>
<trkpt lat="46.024146" lon="9.868601">
	<ele>1929.60</ele>
	<time>2022-06-28T09:10:53.000Z</time>
</trkpt>
<trkpt lat="46.024128" lon="9.868725">
	<ele>1930.00</ele>
	<time>2022-06-28T09:11:01.000Z</time>
</trkpt>
<trkpt lat="46.024124" lon="9.868749">
	<ele>1930.00</ele>
	<time>2022-06-28T09:11:03.000Z</time>
</trkpt>
<trkpt lat="46.024126" lon="9.868837">
	<ele>1930.20</ele>
	<time>2022-06-28T09:11:08.000Z</time>
</trkpt>
<trkpt lat="46.024124" lon="9.868850">
	<ele>1930.20</ele>
	<time>2022-06-28T09:11:09.000Z</time>
</trkpt>
<trkpt lat="46.024120" lon="9.868955">
	<ele>1930.60</ele>
	<time>2022-06-28T09:11:16.000Z</time>
</trkpt>
<trkpt lat="46.024111" lon="9.869069">
	<ele>1931.20</ele>
	<time>2022-06-28T09:11:23.000Z</time>
</trkpt>
<trkpt lat="46.024112" lon="9.869135">
	<ele>1931.60</ele>
	<time>2022-06-28T09:11:27.000Z</time>
</trkpt>
<trkpt lat="46.024108" lon="9.869356">
	<ele>1931.40</ele>
	<time>2022-06-28T09:11:40.000Z</time>
</trkpt>
<trkpt lat="46.024088" lon="9.869526">
	<ele>1931.40</ele>
	<time>2022-06-28T09:11:50.000Z</time>
</trkpt>
<trkpt lat="46.024083" lon="9.869544">
	<ele>1931.40</ele>
	<time>2022-06-28T09:11:51.000Z</time>
</trkpt>
<trkpt lat="46.024061" lon="9.869613">
	<ele>1931.60</ele>
	<time>2022-06-28T09:11:56.000Z</time>
</trkpt>
<trkpt lat="46.024015" lon="9.869694">
	<ele>1931.60</ele>
	<time>2022-06-28T09:12:02.000Z</time>
</trkpt>
<trkpt lat="46.023963" lon="9.869860">
	<ele>1931.60</ele>
	<time>2022-06-28T09:12:13.000Z</time>
</trkpt>
<trkpt lat="46.023887" lon="9.870012">
	<ele>1931.40</ele>
	<time>2022-06-28T09:12:24.000Z</time>
</trkpt>
<trkpt lat="46.023812" lon="9.870153">
	<ele>1931.60</ele>
	<time>2022-06-28T09:12:34.000Z</time>
</trkpt>
<trkpt lat="46.023794" lon="9.870252">
	<ele>1931.80</ele>
	<time>2022-06-28T09:12:40.000Z</time>
</trkpt>
<trkpt lat="46.023793" lon="9.870298">
	<ele>1932.00</ele>
	<time>2022-06-28T09:12:43.000Z</time>
</trkpt>
<trkpt lat="46.023800" lon="9.870404">
	<ele>1932.60</ele>
	<time>2022-06-28T09:12:50.000Z</time>
</trkpt>
<trkpt lat="46.023800" lon="9.870416">
	<ele>1932.60</ele>
	<time>2022-06-28T09:12:51.000Z</time>
</trkpt>
<trkpt lat="46.023795" lon="9.870436">
	<ele>1933.00</ele>
	<time>2022-06-28T09:12:53.000Z</time>
</trkpt>
<trkpt lat="46.023780" lon="9.870489">
	<ele>1933.40</ele>
	<time>2022-06-28T09:12:57.000Z</time>
</trkpt>
<trkpt lat="46.023754" lon="9.870553">
	<ele>1933.60</ele>
	<time>2022-06-28T09:13:02.000Z</time>
</trkpt>
<trkpt lat="46.023740" lon="9.870577">
	<ele>1933.60</ele>
	<time>2022-06-28T09:13:04.000Z</time>
</trkpt>
<trkpt lat="46.023713" lon="9.870692">
	<ele>1934.60</ele>
	<time>2022-06-28T09:13:12.000Z</time>
</trkpt>
<trkpt lat="46.023705" lon="9.870731">
	<ele>1934.80</ele>
	<time>2022-06-28T09:13:15.000Z</time>
</trkpt>
<trkpt lat="46.023708" lon="9.870852">
	<ele>1935.80</ele>
	<time>2022-06-28T09:13:24.000Z</time>
</trkpt>
<trkpt lat="46.023708" lon="9.870883">
	<ele>1936.20</ele>
	<time>2022-06-28T09:13:27.000Z</time>
</trkpt>
<trkpt lat="46.023711" lon="9.870916">
	<ele>1937.00</ele>
	<time>2022-06-28T09:13:30.000Z</time>
</trkpt>
<trkpt lat="46.023710" lon="9.870967">
	<ele>1937.80</ele>
	<time>2022-06-28T09:13:35.000Z</time>
</trkpt>
<trkpt lat="46.023710" lon="9.870978">
	<ele>1938.00</ele>
	<time>2022-06-28T09:13:36.000Z</time>
</trkpt>
<trkpt lat="46.023703" lon="9.871002">
	<ele>1938.60</ele>
	<time>2022-06-28T09:13:39.000Z</time>
</trkpt>
<trkpt lat="46.023687" lon="9.871034">
	<ele>1939.00</ele>
	<time>2022-06-28T09:13:43.000Z</time>
</trkpt>
<trkpt lat="46.023675" lon="9.871073">
	<ele>1940.20</ele>
	<time>2022-06-28T09:13:48.000Z</time>
</trkpt>
<trkpt lat="46.023669" lon="9.871088">
	<ele>1940.40</ele>
	<time>2022-06-28T09:13:50.000Z</time>
</trkpt>
<trkpt lat="46.023660" lon="9.871112">
	<ele>1940.80</ele>
	<time>2022-06-28T09:13:53.000Z</time>
</trkpt>
<trkpt lat="46.023653" lon="9.871135">
	<ele>1941.20</ele>
	<time>2022-06-28T09:13:55.000Z</time>
</trkpt>
<trkpt lat="46.023653" lon="9.871201">
	<ele>1942.00</ele>
	<time>2022-06-28T09:14:00.000Z</time>
</trkpt>
<trkpt lat="46.023651" lon="9.871237">
	<ele>1942.20</ele>
	<time>2022-06-28T09:14:03.000Z</time>
</trkpt>
<trkpt lat="46.023647" lon="9.871284">
	<ele>1942.80</ele>
	<time>2022-06-28T09:14:08.000Z</time>
</trkpt>
<trkpt lat="46.023645" lon="9.871291">
	<ele>1943.00</ele>
	<time>2022-06-28T09:14:09.000Z</time>
</trkpt>
<trkpt lat="46.023641" lon="9.871321">
	<ele>1943.40</ele>
	<time>2022-06-28T09:14:12.000Z</time>
</trkpt>
<trkpt lat="46.023633" lon="9.871427">
	<ele>1944.20</ele>
	<time>2022-06-28T09:14:19.000Z</time>
</trkpt>
<trkpt lat="46.023618" lon="9.871587">
	<ele>1944.40</ele>
	<time>2022-06-28T09:14:30.000Z</time>
</trkpt>
<trkpt lat="46.023630" lon="9.871713">
	<ele>1945.40</ele>
	<time>2022-06-28T09:14:40.000Z</time>
</trkpt>
<trkpt lat="46.023626" lon="9.871752">
	<ele>1945.60</ele>
	<time>2022-06-28T09:14:43.000Z</time>
</trkpt>
<trkpt lat="46.023612" lon="9.871826">
	<ele>1946.20</ele>
	<time>2022-06-28T09:14:49.000Z</time>
</trkpt>
<trkpt lat="46.023609" lon="9.871871">
	<ele>1946.40</ele>
	<time>2022-06-28T09:14:52.000Z</time>
</trkpt>
<trkpt lat="46.023598" lon="9.871915">
	<ele>1947.00</ele>
	<time>2022-06-28T09:14:56.000Z</time>
</trkpt>
<trkpt lat="46.023581" lon="9.871954">
	<ele>1947.40</ele>
	<time>2022-06-28T09:14:59.000Z</time>
</trkpt>
<trkpt lat="46.023554" lon="9.872047">
	<ele>1947.60</ele>
	<time>2022-06-28T09:15:05.000Z</time>
</trkpt>
<trkpt lat="46.023541" lon="9.872187">
	<ele>1947.20</ele>
	<time>2022-06-28T09:15:14.000Z</time>
</trkpt>
<trkpt lat="46.023499" lon="9.872330">
	<ele>1946.80</ele>
	<time>2022-06-28T09:15:23.000Z</time>
</trkpt>
<trkpt lat="46.023491" lon="9.872359">
	<ele>1946.80</ele>
	<time>2022-06-28T09:15:25.000Z</time>
</trkpt>
<trkpt lat="46.023470" lon="9.872468">
	<ele>1946.60</ele>
	<time>2022-06-28T09:15:31.000Z</time>
</trkpt>
<trkpt lat="46.023472" lon="9.872500">
	<ele>1946.60</ele>
	<time>2022-06-28T09:15:33.000Z</time>
</trkpt>
<trkpt lat="46.023468" lon="9.872557">
	<ele>1947.00</ele>
	<time>2022-06-28T09:15:37.000Z</time>
</trkpt>
<trkpt lat="46.023488" lon="9.872736">
	<ele>1947.60</ele>
	<time>2022-06-28T09:15:48.000Z</time>
</trkpt>
<trkpt lat="46.023485" lon="9.872885">
	<ele>1947.60</ele>
	<time>2022-06-28T09:15:57.000Z</time>
</trkpt>
<trkpt lat="46.023480" lon="9.872901">
	<ele>1947.60</ele>
	<time>2022-06-28T09:15:58.000Z</time>
</trkpt>
<trkpt lat="46.023437" lon="9.873032">
	<ele>1948.00</ele>
	<time>2022-06-28T09:16:07.000Z</time>
</trkpt>
<trkpt lat="46.023461" lon="9.873197">
	<ele>1948.00</ele>
	<time>2022-06-28T09:16:16.000Z</time>
</trkpt>
<trkpt lat="46.023414" lon="9.873343">
	<ele>1948.40</ele>
	<time>2022-06-28T09:16:26.000Z</time>
</trkpt>
<trkpt lat="46.023410" lon="9.873357">
	<ele>1948.40</ele>
	<time>2022-06-28T09:16:27.000Z</time>
</trkpt>
<trkpt lat="46.023389" lon="9.873453">
	<ele>1949.40</ele>
	<time>2022-06-28T09:16:34.000Z</time>
</trkpt>
<trkpt lat="46.023385" lon="9.873500">
	<ele>1949.80</ele>
	<time>2022-06-28T09:16:38.000Z</time>
</trkpt>
<trkpt lat="46.023390" lon="9.873613">
	<ele>1950.40</ele>
	<time>2022-06-28T09:16:45.000Z</time>
</trkpt>
<trkpt lat="46.023390" lon="9.873626">
	<ele>1950.60</ele>
	<time>2022-06-28T09:16:46.000Z</time>
</trkpt>
<trkpt lat="46.023396" lon="9.873748">
	<ele>1950.40</ele>
	<time>2022-06-28T09:16:54.000Z</time>
</trkpt>
<trkpt lat="46.023413" lon="9.873846">
	<ele>1950.40</ele>
	<time>2022-06-28T09:17:00.000Z</time>
</trkpt>
<trkpt lat="46.023428" lon="9.873965">
	<ele>1951.40</ele>
	<time>2022-06-28T09:17:09.000Z</time>
</trkpt>
<trkpt lat="46.023428" lon="9.873980">
	<ele>1951.60</ele>
	<time>2022-06-28T09:17:10.000Z</time>
</trkpt>
<trkpt lat="46.023426" lon="9.874050">
	<ele>1952.00</ele>
	<time>2022-06-28T09:17:16.000Z</time>
</trkpt>
<trkpt lat="46.023433" lon="9.874105">
	<ele>1952.60</ele>
	<time>2022-06-28T09:17:20.000Z</time>
</trkpt>
<trkpt lat="46.023441" lon="9.874129">
	<ele>1952.80</ele>
	<time>2022-06-28T09:17:22.000Z</time>
</trkpt>
<trkpt lat="46.023465" lon="9.874211">
	<ele>1953.60</ele>
	<time>2022-06-28T09:17:30.000Z</time>
</trkpt>
<trkpt lat="46.023467" lon="9.874221">
	<ele>1953.80</ele>
	<time>2022-06-28T09:17:31.000Z</time>
</trkpt>
<trkpt lat="46.023464" lon="9.874291">
	<ele>1954.60</ele>
	<time>2022-06-28T09:17:37.000Z</time>
</trkpt>
<trkpt lat="46.023460" lon="9.874322">
	<ele>1955.20</ele>
	<time>2022-06-28T09:17:40.000Z</time>
</trkpt>
<trkpt lat="46.023458" lon="9.874387">
	<ele>1955.80</ele>
	<time>2022-06-28T09:17:46.000Z</time>
</trkpt>
<trkpt lat="46.023452" lon="9.874419">
	<ele>1956.20</ele>
	<time>2022-06-28T09:17:49.000Z</time>
</trkpt>
<trkpt lat="46.023454" lon="9.874478">
	<ele>1956.80</ele>
	<time>2022-06-28T09:17:54.000Z</time>
</trkpt>
<trkpt lat="46.023452" lon="9.874520">
	<ele>1957.20</ele>
	<time>2022-06-28T09:17:57.000Z</time>
</trkpt>
<trkpt lat="46.023447" lon="9.874622">
	<ele>1957.40</ele>
	<time>2022-06-28T09:18:04.000Z</time>
</trkpt>
<trkpt lat="46.023442" lon="9.874716">
	<ele>1957.80</ele>
	<time>2022-06-28T09:18:11.000Z</time>
</trkpt>
<trkpt lat="46.023430" lon="9.874765">
	<ele>1958.20</ele>
	<time>2022-06-28T09:18:15.000Z</time>
</trkpt>
<trkpt lat="46.023423" lon="9.874868">
	<ele>1958.80</ele>
	<time>2022-06-28T09:18:23.000Z</time>
</trkpt>
<trkpt lat="46.023423" lon="9.874883">
	<ele>1959.00</ele>
	<time>2022-06-28T09:18:24.000Z</time>
</trkpt>
<trkpt lat="46.023435" lon="9.874983">
	<ele>1960.00</ele>
	<time>2022-06-28T09:18:32.000Z</time>
</trkpt>
<trkpt lat="46.023430" lon="9.875008">
	<ele>1960.40</ele>
	<time>2022-06-28T09:18:35.000Z</time>
</trkpt>
<trkpt lat="46.023432" lon="9.875075">
	<ele>1961.00</ele>
	<time>2022-06-28T09:18:40.000Z</time>
</trkpt>
<trkpt lat="46.023434" lon="9.875139">
	<ele>1961.20</ele>
	<time>2022-06-28T09:18:44.000Z</time>
</trkpt>
<trkpt lat="46.023462" lon="9.875268">
	<ele>1962.00</ele>
	<time>2022-06-28T09:18:55.000Z</time>
</trkpt>
<trkpt lat="46.023459" lon="9.875277">
	<ele>1962.20</ele>
	<time>2022-06-28T09:18:56.000Z</time>
</trkpt>
<trkpt lat="46.023492" lon="9.875367">
	<ele>1963.20</ele>
	<time>2022-06-28T09:19:04.000Z</time>
</trkpt>
<trkpt lat="46.023503" lon="9.875404">
	<ele>1963.60</ele>
	<time>2022-06-28T09:19:08.000Z</time>
</trkpt>
<trkpt lat="46.023509" lon="9.875434">
	<ele>1964.40</ele>
	<time>2022-06-28T09:19:12.000Z</time>
</trkpt>
<trkpt lat="46.023526" lon="9.875474">
	<ele>1965.40</ele>
	<time>2022-06-28T09:19:17.000Z</time>
</trkpt>
<trkpt lat="46.023530" lon="9.875533">
	<ele>1966.40</ele>
	<time>2022-06-28T09:19:25.000Z</time>
</trkpt>
<trkpt lat="46.023534" lon="9.875576">
	<ele>1967.40</ele>
	<time>2022-06-28T09:19:30.000Z</time>
</trkpt>
<trkpt lat="46.023536" lon="9.875587">
	<ele>1967.60</ele>
	<time>2022-06-28T09:19:31.000Z</time>
</trkpt>
<trkpt lat="46.023539" lon="9.875645">
	<ele>1968.60</ele>
	<time>2022-06-28T09:19:37.000Z</time>
</trkpt>
<trkpt lat="46.023541" lon="9.875655">
	<ele>1968.60</ele>
	<time>2022-06-28T09:19:38.000Z</time>
</trkpt>
<trkpt lat="46.023554" lon="9.875705">
	<ele>1969.20</ele>
	<time>2022-06-28T09:19:44.000Z</time>
</trkpt>
<trkpt lat="46.023560" lon="9.875724">
	<ele>1969.60</ele>
	<time>2022-06-28T09:19:46.000Z</time>
</trkpt>
<trkpt lat="46.023567" lon="9.875752">
	<ele>1969.80</ele>
	<time>2022-06-28T09:19:48.000Z</time>
</trkpt>
<trkpt lat="46.023571" lon="9.875889">
	<ele>1970.40</ele>
	<time>2022-06-28T09:19:58.000Z</time>
</trkpt>
<trkpt lat="46.023587" lon="9.876085">
	<ele>1970.20</ele>
	<time>2022-06-28T09:20:10.000Z</time>
</trkpt>
<trkpt lat="46.023582" lon="9.876192">
	<ele>1970.20</ele>
	<time>2022-06-28T09:20:17.000Z</time>
</trkpt>
<trkpt lat="46.023568" lon="9.876239">
	<ele>1970.20</ele>
	<time>2022-06-28T09:20:20.000Z</time>
</trkpt>
<trkpt lat="46.023547" lon="9.876352">
	<ele>1970.20</ele>
	<time>2022-06-28T09:20:27.000Z</time>
</trkpt>
<trkpt lat="46.023543" lon="9.876364">
	<ele>1970.20</ele>
	<time>2022-06-28T09:20:28.000Z</time>
</trkpt>
<trkpt lat="46.023544" lon="9.876413">
	<ele>1970.60</ele>
	<time>2022-06-28T09:20:31.000Z</time>
</trkpt>
<trkpt lat="46.023547" lon="9.876437">
	<ele>1970.60</ele>
	<time>2022-06-28T09:20:33.000Z</time>
</trkpt>
<trkpt lat="46.023553" lon="9.876448">
	<ele>1970.60</ele>
	<time>2022-06-28T09:20:36.000Z</time>
</trkpt>
<trkpt lat="46.023544" lon="9.876464">
	<ele>1970.60</ele>
	<time>2022-06-28T09:20:39.000Z</time>
</trkpt>
<trkpt lat="46.023535" lon="9.876488">
	<ele>1970.60</ele>
	<time>2022-06-28T09:20:41.000Z</time>
</trkpt>
<trkpt lat="46.023518" lon="9.876537">
	<ele>1971.00</ele>
	<time>2022-06-28T09:20:45.000Z</time>
</trkpt>
<trkpt lat="46.023506" lon="9.876566">
	<ele>1971.40</ele>
	<time>2022-06-28T09:20:48.000Z</time>
</trkpt>
<trkpt lat="46.023482" lon="9.876628">
	<ele>1971.80</ele>
	<time>2022-06-28T09:20:53.000Z</time>
</trkpt>
<trkpt lat="46.023497" lon="9.876709">
	<ele>1972.40</ele>
	<time>2022-06-28T09:20:58.000Z</time>
</trkpt>
<trkpt lat="46.023489" lon="9.876754">
	<ele>1972.80</ele>
	<time>2022-06-28T09:21:02.000Z</time>
</trkpt>
<trkpt lat="46.023478" lon="9.876784">
	<ele>1973.20</ele>
	<time>2022-06-28T09:21:05.000Z</time>
</trkpt>
<trkpt lat="46.023479" lon="9.876795">
	<ele>1973.20</ele>
	<time>2022-06-28T09:21:06.000Z</time>
</trkpt>
<trkpt lat="46.023477" lon="9.876807">
	<ele>1973.60</ele>
	<time>2022-06-28T09:21:08.000Z</time>
</trkpt>
<trkpt lat="46.023470" lon="9.876822">
	<ele>1973.80</ele>
	<time>2022-06-28T09:21:10.000Z</time>
</trkpt>
<trkpt lat="46.023458" lon="9.876838">
	<ele>1974.00</ele>
	<time>2022-06-28T09:21:12.000Z</time>
</trkpt>
<trkpt lat="46.023450" lon="9.876900">
	<ele>1974.20</ele>
	<time>2022-06-28T09:21:17.000Z</time>
</trkpt>
<trkpt lat="46.023446" lon="9.876925">
	<ele>1974.20</ele>
	<time>2022-06-28T09:21:19.000Z</time>
</trkpt>
<trkpt lat="46.023451" lon="9.876940">
	<ele>1974.00</ele>
	<time>2022-06-28T09:21:23.000Z</time>
</trkpt>
<trkpt lat="46.023438" lon="9.876941">
	<ele>1974.00</ele>
	<time>2022-06-28T09:21:28.000Z</time>
</trkpt>
<trkpt lat="46.023435" lon="9.876942">
	<ele>1974.00</ele>
	<time>2022-06-28T09:21:29.000Z</time>
</trkpt>
<trkpt lat="46.023422" lon="9.876967">
	<ele>1973.80</ele>
	<time>2022-06-28T09:21:37.000Z</time>
</trkpt>
<trkpt lat="46.023421" lon="9.876969">
	<ele>1973.60</ele>
	<time>2022-06-28T09:21:50.000Z</time>
</trkpt>
<trkpt lat="46.023420" lon="9.876973">
	<ele>1974.20</ele>
	<time>2022-06-28T09:21:57.000Z</time>
</trkpt>
<trkpt lat="46.023419" lon="9.876978">
	<ele>1974.20</ele>
	<time>2022-06-28T09:22:07.000Z</time>
</trkpt>
<trkpt lat="46.023419" lon="9.876978">
	<ele>1974.20</ele>
	<time>2022-06-28T09:22:09.000Z</time>
</trkpt>
<trkpt lat="46.023417" lon="9.876979">
	<ele>1973.20</ele>
	<time>2022-06-28T09:22:15.000Z</time>
</trkpt>
<trkpt lat="46.023412" lon="9.876979">
	<ele>1973.00</ele>
	<time>2022-06-28T09:22:31.000Z</time>
</trkpt>
<trkpt lat="46.023413" lon="9.876870">
	<ele>1973.20</ele>
	<time>2022-06-28T09:22:38.000Z</time>
</trkpt>
<trkpt lat="46.023387" lon="9.876853">
	<ele>1973.00</ele>
	<time>2022-06-28T09:27:06.000Z</time>
</trkpt>
<trkpt lat="46.023406" lon="9.876876">
	<ele>1973.00</ele>
	<time>2022-06-28T09:27:09.000Z</time>
</trkpt>
<trkpt lat="46.023475" lon="9.876951">
	<ele>1973.00</ele>
	<time>2022-06-28T09:27:10.000Z</time>
</trkpt>
<trkpt lat="46.023469" lon="9.876960">
	<ele>1973.00</ele>
	<time>2022-06-28T09:27:11.000Z</time>
</trkpt>
<trkpt lat="46.023486" lon="9.877004">
	<ele>1973.00</ele>
	<time>2022-06-28T09:27:13.000Z</time>
</trkpt>
<trkpt lat="46.023489" lon="9.877014">
	<ele>1973.00</ele>
	<time>2022-06-28T09:27:14.000Z</time>
</trkpt>
<trkpt lat="46.023490" lon="9.876994">
	<ele>1972.80</ele>
	<time>2022-06-28T09:27:17.000Z</time>
</trkpt>
<trkpt lat="46.023491" lon="9.876990">
	<ele>1972.80</ele>
	<time>2022-06-28T09:27:18.000Z</time>
</trkpt>
<trkpt lat="46.023492" lon="9.876987">
	<ele>1972.80</ele>
	<time>2022-06-28T09:27:19.000Z</time>
</trkpt>
<trkpt lat="46.023486" lon="9.876967">
	<ele>1972.80</ele>
	<time>2022-06-28T09:27:20.000Z</time>
</trkpt>
<trkpt lat="46.023475" lon="9.876951">
	<ele>1972.60</ele>
	<time>2022-06-28T09:27:22.000Z</time>
</trkpt>
<trkpt lat="46.023462" lon="9.876946">
	<ele>1972.40</ele>
	<time>2022-06-28T09:27:27.000Z</time>
</trkpt>
<trkpt lat="46.023476" lon="9.876909">
	<ele>1972.40</ele>
	<time>2022-06-28T09:27:32.000Z</time>
</trkpt>
<trkpt lat="46.023476" lon="9.876904">
	<ele>1972.40</ele>
	<time>2022-06-28T09:27:33.000Z</time>
</trkpt>
<trkpt lat="46.023471" lon="9.876909">
	<ele>1972.20</ele>
	<time>2022-06-28T09:27:38.000Z</time>
</trkpt>
<trkpt lat="46.023469" lon="9.876903">
	<ele>1971.80</ele>
	<time>2022-06-28T09:27:42.000Z</time>
</trkpt>
<trkpt lat="46.023469" lon="9.876903">
	<ele>1971.60</ele>
	<time>2022-06-28T09:27:47.000Z</time>
</trkpt>
<trkpt lat="46.023469" lon="9.876908">
	<ele>1971.60</ele>
	<time>2022-06-28T09:27:54.000Z</time>
</trkpt>
<trkpt lat="46.023458" lon="9.876909">
	<ele>1971.60</ele>
	<time>2022-06-28T09:27:59.000Z</time>
</trkpt>
<trkpt lat="46.023416" lon="9.876910">
	<ele>1971.60</ele>
	<time>2022-06-28T09:28:17.000Z</time>
</trkpt>
<trkpt lat="46.023412" lon="9.876910">
	<ele>1971.60</ele>
	<time>2022-06-28T09:28:20.000Z</time>
</trkpt>
<trkpt lat="46.023410" lon="9.876916">
	<ele>1971.40</ele>
	<time>2022-06-28T09:28:33.000Z</time>
</trkpt>
<trkpt lat="46.023406" lon="9.876924">
	<ele>1971.60</ele>
	<time>2022-06-28T09:28:45.000Z</time>
</trkpt>
<trkpt lat="46.023416" lon="9.876909">
	<ele>1971.60</ele>
	<time>2022-06-28T09:28:48.000Z</time>
</trkpt>
<trkpt lat="46.023422" lon="9.876914">
	<ele>1971.40</ele>
	<time>2022-06-28T09:28:53.000Z</time>
</trkpt>
<trkpt lat="46.023441" lon="9.876903">
	<ele>1971.60</ele>
	<time>2022-06-28T09:28:58.000Z</time>
</trkpt>
<trkpt lat="46.023448" lon="9.876899">
	<ele>1971.60</ele>
	<time>2022-06-28T09:29:03.000Z</time>
</trkpt>
<trkpt lat="46.023448" lon="9.876899">
	<ele>1971.60</ele>
	<time>2022-06-28T09:29:07.000Z</time>
</trkpt>
<trkpt lat="46.023444" lon="9.876899">
	<ele>1971.60</ele>
	<time>2022-06-28T09:29:11.000Z</time>
</trkpt>
<trkpt lat="46.023440" lon="9.876889">
	<ele>1971.40</ele>
	<time>2022-06-28T09:29:17.000Z</time>
</trkpt>
<trkpt lat="46.023443" lon="9.876882">
	<ele>1971.80</ele>
	<time>2022-06-28T09:29:26.000Z</time>
</trkpt>
<trkpt lat="46.023439" lon="9.876988">
	<ele>1971.40</ele>
	<time>2022-06-28T09:29:32.000Z</time>
</trkpt>
<trkpt lat="46.023458" lon="9.877066">
	<ele>1971.40</ele>
	<time>2022-06-28T09:29:36.000Z</time>
</trkpt>
<trkpt lat="46.023475" lon="9.877058">
	<ele>1971.40</ele>
	<time>2022-06-28T09:29:39.000Z</time>
</trkpt>
<trkpt lat="46.023468" lon="9.877031">
	<ele>1971.40</ele>
	<time>2022-06-28T09:29:43.000Z</time>
</trkpt>
<trkpt lat="46.023463" lon="9.877023">
	<ele>1971.40</ele>
	<time>2022-06-28T09:29:44.000Z</time>
</trkpt>
<trkpt lat="46.023456" lon="9.876992">
	<ele>1971.40</ele>
	<time>2022-06-28T09:29:47.000Z</time>
</trkpt>
<trkpt lat="46.023448" lon="9.876959">
	<ele>1971.40</ele>
	<time>2022-06-28T09:29:50.000Z</time>
</trkpt>
<trkpt lat="46.023460" lon="9.876913">
	<ele>1971.40</ele>
	<time>2022-06-28T09:29:55.000Z</time>
</trkpt>
<trkpt lat="46.023468" lon="9.876895">
	<ele>1971.40</ele>
	<time>2022-06-28T09:29:58.000Z</time>
</trkpt>
<trkpt lat="46.023466" lon="9.876885">
	<ele>1971.40</ele>
	<time>2022-06-28T09:30:00.000Z</time>
</trkpt>
<trkpt lat="46.023468" lon="9.876889">
	<ele>1971.40</ele>
	<time>2022-06-28T09:30:02.000Z</time>
</trkpt>
<trkpt lat="46.023465" lon="9.876903">
	<ele>1971.80</ele>
	<time>2022-06-28T09:30:05.000Z</time>
</trkpt>
<trkpt lat="46.023470" lon="9.876920">
	<ele>1971.80</ele>
	<time>2022-06-28T09:30:07.000Z</time>
</trkpt>
<trkpt lat="46.023483" lon="9.876940">
	<ele>1971.80</ele>
	<time>2022-06-28T09:30:09.000Z</time>
</trkpt>
<trkpt lat="46.023487" lon="9.876948">
	<ele>1971.80</ele>
	<time>2022-06-28T09:30:10.000Z</time>
</trkpt>
<trkpt lat="46.023473" lon="9.876944">
	<ele>1971.80</ele>
	<time>2022-06-28T09:30:13.000Z</time>
</trkpt>
<trkpt lat="46.023473" lon="9.876940">
	<ele>1972.00</ele>
	<time>2022-06-28T09:30:14.000Z</time>
</trkpt>
<trkpt lat="46.023467" lon="9.876917">
	<ele>1972.00</ele>
	<time>2022-06-28T09:30:17.000Z</time>
</trkpt>
<trkpt lat="46.023460" lon="9.876884">
	<ele>1972.00</ele>
	<time>2022-06-28T09:30:20.000Z</time>
</trkpt>
<trkpt lat="46.023460" lon="9.876856">
	<ele>1971.80</ele>
	<time>2022-06-28T09:30:22.000Z</time>
</trkpt>
<trkpt lat="46.023466" lon="9.876818">
	<ele>1971.80</ele>
	<time>2022-06-28T09:30:25.000Z</time>
</trkpt>
<trkpt lat="46.023473" lon="9.876817">
	<ele>1971.80</ele>
	<time>2022-06-28T09:30:26.000Z</time>
</trkpt>
<trkpt lat="46.023493" lon="9.876814">
	<ele>1971.80</ele>
	<time>2022-06-28T09:30:30.000Z</time>
</trkpt>
<trkpt lat="46.023495" lon="9.876816">
	<ele>1971.80</ele>
	<time>2022-06-28T09:30:31.000Z</time>
</trkpt>
<trkpt lat="46.023492" lon="9.876814">
	<ele>1971.80</ele>
	<time>2022-06-28T09:30:32.000Z</time>
</trkpt>
<trkpt lat="46.023479" lon="9.876791">
	<ele>1971.60</ele>
	<time>2022-06-28T09:30:34.000Z</time>
</trkpt>
<trkpt lat="46.023459" lon="9.876781">
	<ele>1971.60</ele>
	<time>2022-06-28T09:30:36.000Z</time>
</trkpt>
<trkpt lat="46.023448" lon="9.876787">
	<ele>1971.60</ele>
	<time>2022-06-28T09:30:37.000Z</time>
</trkpt>
<trkpt lat="46.023428" lon="9.876852">
	<ele>1971.80</ele>
	<time>2022-06-28T09:30:41.000Z</time>
</trkpt>
<trkpt lat="46.023421" lon="9.876879">
	<ele>1971.60</ele>
	<time>2022-06-28T09:30:44.000Z</time>
</trkpt>
<trkpt lat="46.023429" lon="9.876890">
	<ele>1971.40</ele>
	<time>2022-06-28T09:30:46.000Z</time>
</trkpt>
<trkpt lat="46.023427" lon="9.876893">
	<ele>1971.40</ele>
	<time>2022-06-28T09:30:47.000Z</time>
</trkpt>
<trkpt lat="46.023428" lon="9.876893">
	<ele>1971.40</ele>
	<time>2022-06-28T09:30:48.000Z</time>
</trkpt>
<trkpt lat="46.023432" lon="9.876883">
	<ele>1971.40</ele>
	<time>2022-06-28T09:30:52.000Z</time>
</trkpt>
<trkpt lat="46.023437" lon="9.876809">
	<ele>1971.60</ele>
	<time>2022-06-28T09:30:58.000Z</time>
</trkpt>
<trkpt lat="46.023492" lon="9.876768">
	<ele>1971.60</ele>
	<time>2022-06-28T09:31:06.000Z</time>
</trkpt>
<trkpt lat="46.023492" lon="9.876754">
	<ele>1971.40</ele>
	<time>2022-06-28T09:31:11.000Z</time>
</trkpt>
<trkpt lat="46.023473" lon="9.876706">
	<ele>1971.20</ele>
	<time>2022-06-28T09:31:16.000Z</time>
</trkpt>
<trkpt lat="46.023476" lon="9.876725">
	<ele>1971.60</ele>
	<time>2022-06-28T09:31:21.000Z</time>
</trkpt>
<trkpt lat="46.023466" lon="9.876697">
	<ele>1971.80</ele>
	<time>2022-06-28T09:31:24.000Z</time>
</trkpt>
<trkpt lat="46.023487" lon="9.876754">
	<ele>1971.60</ele>
	<time>2022-06-28T09:31:27.000Z</time>
</trkpt>
<trkpt lat="46.023485" lon="9.876778">
	<ele>1971.60</ele>
	<time>2022-06-28T09:31:37.000Z</time>
</trkpt>
<trkpt lat="46.023500" lon="9.876781">
	<ele>1971.40</ele>
	<time>2022-06-28T09:31:40.000Z</time>
</trkpt>
<trkpt lat="46.023561" lon="9.876872">
	<ele>1971.40</ele>
	<time>2022-06-28T09:31:47.000Z</time>
</trkpt>
<trkpt lat="46.023547" lon="9.876860">
	<ele>1971.20</ele>
	<time>2022-06-28T09:31:54.000Z</time>
</trkpt>
<trkpt lat="46.023562" lon="9.876836">
	<ele>1971.20</ele>
	<time>2022-06-28T09:32:11.000Z</time>
</trkpt>
<trkpt lat="46.023556" lon="9.876810">
	<ele>1971.20</ele>
	<time>2022-06-28T09:32:14.000Z</time>
</trkpt>
<trkpt lat="46.023554" lon="9.876777">
	<ele>1971.20</ele>
	<time>2022-06-28T09:32:16.000Z</time>
</trkpt>
<trkpt lat="46.023555" lon="9.876767">
	<ele>1971.20</ele>
	<time>2022-06-28T09:32:17.000Z</time>
</trkpt>
<trkpt lat="46.023526" lon="9.876705">
	<ele>1971.20</ele>
	<time>2022-06-28T09:32:20.000Z</time>
</trkpt>
<trkpt lat="46.023514" lon="9.876686">
	<ele>1971.20</ele>
	<time>2022-06-28T09:32:23.000Z</time>
</trkpt>
<trkpt lat="46.023502" lon="9.876673">
	<ele>1971.20</ele>
	<time>2022-06-28T09:32:29.000Z</time>
</trkpt>
<trkpt lat="46.023634" lon="9.876892">
	<ele>1971.20</ele>
	<time>2022-06-28T09:32:34.000Z</time>
</trkpt>
<trkpt lat="46.023625" lon="9.876955">
	<ele>1971.20</ele>
	<time>2022-06-28T09:32:40.000Z</time>
</trkpt>
<trkpt lat="46.023609" lon="9.876953">
	<ele>1971.20</ele>
	<time>2022-06-28T09:32:43.000Z</time>
</trkpt>
<trkpt lat="46.023608" lon="9.876928">
	<ele>1971.20</ele>
	<time>2022-06-28T09:32:48.000Z</time>
</trkpt>
<trkpt lat="46.023631" lon="9.876947">
	<ele>1971.20</ele>
	<time>2022-06-28T09:32:59.000Z</time>
</trkpt>
<trkpt lat="46.023553" lon="9.876850">
	<ele>1971.20</ele>
	<time>2022-06-28T09:33:04.000Z</time>
</trkpt>
<trkpt lat="46.023551" lon="9.876851">
	<ele>1971.20</ele>
	<time>2022-06-28T09:33:06.000Z</time>
</trkpt>
<trkpt lat="46.023528" lon="9.876849">
	<ele>1971.20</ele>
	<time>2022-06-28T09:33:11.000Z</time>
</trkpt>
<trkpt lat="46.023545" lon="9.876855">
	<ele>1971.20</ele>
	<time>2022-06-28T09:33:16.000Z</time>
</trkpt>
<trkpt lat="46.023506" lon="9.876807">
	<ele>1971.20</ele>
	<time>2022-06-28T09:33:24.000Z</time>
</trkpt>
<trkpt lat="46.023492" lon="9.876803">
	<ele>1971.20</ele>
	<time>2022-06-28T09:33:30.000Z</time>
</trkpt>
<trkpt lat="46.023510" lon="9.876828">
	<ele>1971.20</ele>
	<time>2022-06-28T09:33:34.000Z</time>
</trkpt>
<trkpt lat="46.023525" lon="9.876962">
	<ele>1971.20</ele>
	<time>2022-06-28T09:33:42.000Z</time>
</trkpt>
<trkpt lat="46.023520" lon="9.876989">
	<ele>1971.20</ele>
	<time>2022-06-28T09:33:49.000Z</time>
</trkpt>
<trkpt lat="46.023557" lon="9.877095">
	<ele>1971.20</ele>
	<time>2022-06-28T09:33:55.000Z</time>
</trkpt>
<trkpt lat="46.023585" lon="9.877142">
	<ele>1971.00</ele>
	<time>2022-06-28T09:33:59.000Z</time>
</trkpt>
<trkpt lat="46.023538" lon="9.877140">
	<ele>1971.20</ele>
	<time>2022-06-28T09:34:09.000Z</time>
</trkpt>
<trkpt lat="46.023539" lon="9.877054">
	<ele>1971.20</ele>
	<time>2022-06-28T09:34:21.000Z</time>
</trkpt>
<trkpt lat="46.023540" lon="9.877013">
	<ele>1971.20</ele>
	<time>2022-06-28T09:34:25.000Z</time>
</trkpt>
<trkpt lat="46.023545" lon="9.877008">
	<ele>1971.00</ele>
	<time>2022-06-28T09:34:30.000Z</time>
</trkpt>
<trkpt lat="46.023535" lon="9.876985">
	<ele>1971.00</ele>
	<time>2022-06-28T09:34:33.000Z</time>
</trkpt>
<trkpt lat="46.023563" lon="9.876994">
	<ele>1971.00</ele>
	<time>2022-06-28T09:34:37.000Z</time>
</trkpt>
<trkpt lat="46.023547" lon="9.877045">
	<ele>1971.00</ele>
	<time>2022-06-28T09:34:44.000Z</time>
</trkpt>
<trkpt lat="46.023539" lon="9.877072">
	<ele>1971.00</ele>
	<time>2022-06-28T09:34:51.000Z</time>
</trkpt>
<trkpt lat="46.023536" lon="9.877088">
	<ele>1970.80</ele>
	<time>2022-06-28T09:34:53.000Z</time>
</trkpt>
<trkpt lat="46.023527" lon="9.877094">
	<ele>1970.80</ele>
	<time>2022-06-28T09:34:55.000Z</time>
</trkpt>
<trkpt lat="46.023519" lon="9.877081">
	<ele>1970.80</ele>
	<time>2022-06-28T09:35:00.000Z</time>
</trkpt>
<trkpt lat="46.023523" lon="9.877058">
	<ele>1970.80</ele>
	<time>2022-06-28T09:35:06.000Z</time>
</trkpt>
<trkpt lat="46.023527" lon="9.877018">
	<ele>1970.80</ele>
	<time>2022-06-28T09:35:11.000Z</time>
</trkpt>
<trkpt lat="46.023536" lon="9.877048">
	<ele>1970.80</ele>
	<time>2022-06-28T09:35:16.000Z</time>
</trkpt>
<trkpt lat="46.023533" lon="9.877046">
	<ele>1970.80</ele>
	<time>2022-06-28T09:35:17.000Z</time>
</trkpt>
<trkpt lat="46.023527" lon="9.876968">
	<ele>1970.80</ele>
	<time>2022-06-28T09:35:25.000Z</time>
</trkpt>
<trkpt lat="46.023537" lon="9.876985">
	<ele>1970.80</ele>
	<time>2022-06-28T09:35:29.000Z</time>
</trkpt>
<trkpt lat="46.023546" lon="9.876973">
	<ele>1970.80</ele>
	<time>2022-06-28T09:35:33.000Z</time>
</trkpt>
<trkpt lat="46.023551" lon="9.876988">
	<ele>1970.80</ele>
	<time>2022-06-28T09:35:38.000Z</time>
</trkpt>
<trkpt lat="46.023538" lon="9.876957">
	<ele>1970.80</ele>
	<time>2022-06-28T09:35:42.000Z</time>
</trkpt>
<trkpt lat="46.023526" lon="9.876923">
	<ele>1970.80</ele>
	<time>2022-06-28T09:35:45.000Z</time>
</trkpt>
<trkpt lat="46.023537" lon="9.876908">
	<ele>1970.80</ele>
	<time>2022-06-28T09:35:50.000Z</time>
</trkpt>
<trkpt lat="46.023536" lon="9.876867">
	<ele>1970.80</ele>
	<time>2022-06-28T09:35:57.000Z</time>
</trkpt>
<trkpt lat="46.023549" lon="9.876906">
	<ele>1970.80</ele>
	<time>2022-06-28T09:36:00.000Z</time>
</trkpt>
<trkpt lat="46.023544" lon="9.876924">
	<ele>1970.80</ele>
	<time>2022-06-28T09:36:04.000Z</time>
</trkpt>
<trkpt lat="46.023549" lon="9.876905">
	<ele>1970.80</ele>
	<time>2022-06-28T09:36:15.000Z</time>
</trkpt>
<trkpt lat="46.023548" lon="9.876898">
	<ele>1970.80</ele>
	<time>2022-06-28T09:36:24.000Z</time>
</trkpt>
<trkpt lat="46.023530" lon="9.876833">
	<ele>1970.80</ele>
	<time>2022-06-28T09:36:35.000Z</time>
</trkpt>
<trkpt lat="46.023525" lon="9.876823">
	<ele>1970.80</ele>
	<time>2022-06-28T09:36:48.000Z</time>
</trkpt>
<trkpt lat="46.023508" lon="9.876748">
	<ele>1970.80</ele>
	<time>2022-06-28T09:37:00.000Z</time>
</trkpt>
<trkpt lat="46.023511" lon="9.876708">
	<ele>1970.80</ele>
	<time>2022-06-28T09:37:08.000Z</time>
</trkpt>
<trkpt lat="46.023511" lon="9.876726">
	<ele>1970.80</ele>
	<time>2022-06-28T09:37:14.000Z</time>
</trkpt>
<trkpt lat="46.023518" lon="9.876741">
	<ele>1970.80</ele>
	<time>2022-06-28T09:37:22.000Z</time>
</trkpt>
<trkpt lat="46.023518" lon="9.876759">
	<ele>1970.80</ele>
	<time>2022-06-28T09:37:29.000Z</time>
</trkpt>
<trkpt lat="46.023510" lon="9.876793">
	<ele>1970.80</ele>
	<time>2022-06-28T09:37:35.000Z</time>
</trkpt>
<trkpt lat="46.023515" lon="9.876830">
	<ele>1970.80</ele>
	<time>2022-06-28T09:37:40.000Z</time>
</trkpt>
<trkpt lat="46.023502" lon="9.876827">
	<ele>1970.80</ele>
	<time>2022-06-28T09:37:48.000Z</time>
</trkpt>
<trkpt lat="46.023504" lon="9.876834">
	<ele>1970.80</ele>
	<time>2022-06-28T09:37:53.000Z</time>
</trkpt>
<trkpt lat="46.023505" lon="9.876854">
	<ele>1970.80</ele>
	<time>2022-06-28T09:37:55.000Z</time>
</trkpt>
<trkpt lat="46.023501" lon="9.876877">
	<ele>1970.80</ele>
	<time>2022-06-28T09:37:59.000Z</time>
</trkpt>
<trkpt lat="46.023529" lon="9.877092">
	<ele>1970.80</ele>
	<time>2022-06-28T09:38:13.000Z</time>
</trkpt>
<trkpt lat="46.023521" lon="9.877051">
	<ele>1970.80</ele>
	<time>2022-06-28T09:38:20.000Z</time>
</trkpt>
<trkpt lat="46.023503" lon="9.876956">
	<ele>1970.80</ele>
	<time>2022-06-28T09:38:25.000Z</time>
</trkpt>
<trkpt lat="46.023513" lon="9.876994">
	<ele>1970.80</ele>
	<time>2022-06-28T09:38:30.000Z</time>
</trkpt>
<trkpt lat="46.023509" lon="9.876977">
	<ele>1970.80</ele>
	<time>2022-06-28T09:38:33.000Z</time>
</trkpt>
<trkpt lat="46.023496" lon="9.876937">
	<ele>1970.80</ele>
	<time>2022-06-28T09:38:35.000Z</time>
</trkpt>
<trkpt lat="46.023481" lon="9.876882">
	<ele>1970.60</ele>
	<time>2022-06-28T09:38:43.000Z</time>
</trkpt>
<trkpt lat="46.023480" lon="9.876869">
	<ele>1970.20</ele>
	<time>2022-06-28T09:38:50.000Z</time>
</trkpt>
<trkpt lat="46.023483" lon="9.876848">
	<ele>1970.20</ele>
	<time>2022-06-28T09:39:01.000Z</time>
</trkpt>
<trkpt lat="46.023476" lon="9.876832">
	<ele>1970.40</ele>
	<time>2022-06-28T09:39:10.000Z</time>
</trkpt>
<trkpt lat="46.023486" lon="9.876828">
	<ele>1970.80</ele>
	<time>2022-06-28T09:39:16.000Z</time>
</trkpt>
<trkpt lat="46.023497" lon="9.876863">
	<ele>1970.60</ele>
	<time>2022-06-28T09:39:21.000Z</time>
</trkpt>
<trkpt lat="46.023479" lon="9.876808">
	<ele>1970.60</ele>
	<time>2022-06-28T09:39:28.000Z</time>
</trkpt>
<trkpt lat="46.023484" lon="9.876826">
	<ele>1970.80</ele>
	<time>2022-06-28T09:39:33.000Z</time>
</trkpt>
<trkpt lat="46.023494" lon="9.876872">
	<ele>1970.80</ele>
	<time>2022-06-28T09:39:39.000Z</time>
</trkpt>
<trkpt lat="46.023476" lon="9.876871">
	<ele>1971.00</ele>
	<time>2022-06-28T09:39:45.000Z</time>
</trkpt>
<trkpt lat="46.023482" lon="9.876880">
	<ele>1971.00</ele>
	<time>2022-06-28T09:39:49.000Z</time>
</trkpt>
<trkpt lat="46.023491" lon="9.876828">
	<ele>1971.40</ele>
	<time>2022-06-28T09:39:55.000Z</time>
</trkpt>
<trkpt lat="46.023498" lon="9.876837">
	<ele>1971.40</ele>
	<time>2022-06-28T09:39:58.000Z</time>
</trkpt>
<trkpt lat="46.023490" lon="9.876865">
	<ele>1971.60</ele>
	<time>2022-06-28T09:40:04.000Z</time>
</trkpt>
<trkpt lat="46.023493" lon="9.876929">
	<ele>1971.60</ele>
	<time>2022-06-28T09:40:12.000Z</time>
</trkpt>
<trkpt lat="46.023491" lon="9.876925">
	<ele>1971.80</ele>
	<time>2022-06-28T09:40:13.000Z</time>
</trkpt>
<trkpt lat="46.023484" lon="9.876926">
	<ele>1971.80</ele>
	<time>2022-06-28T09:40:16.000Z</time>
</trkpt>
<trkpt lat="46.023482" lon="9.876944">
	<ele>1971.80</ele>
	<time>2022-06-28T09:40:17.000Z</time>
</trkpt>
<trkpt lat="46.023469" lon="9.876970">
	<ele>1972.20</ele>
	<time>2022-06-28T09:40:20.000Z</time>
</trkpt>
<trkpt lat="46.023467" lon="9.876969">
	<ele>1972.40</ele>
	<time>2022-06-28T09:40:21.000Z</time>
</trkpt>
<trkpt lat="46.023476" lon="9.877006">
	<ele>1972.40</ele>
	<time>2022-06-28T09:40:28.000Z</time>
</trkpt>
<trkpt lat="46.023488" lon="9.877006">
	<ele>1972.40</ele>
	<time>2022-06-28T09:40:30.000Z</time>
</trkpt>
<trkpt lat="46.023496" lon="9.876969">
	<ele>1972.40</ele>
	<time>2022-06-28T09:40:34.000Z</time>
</trkpt>
<trkpt lat="46.023499" lon="9.876945">
	<ele>1972.40</ele>
	<time>2022-06-28T09:40:38.000Z</time>
</trkpt>
<trkpt lat="46.023515" lon="9.876941">
	<ele>1972.60</ele>
	<time>2022-06-28T09:40:42.000Z</time>
</trkpt>
<trkpt lat="46.023518" lon="9.876933">
	<ele>1972.60</ele>
	<time>2022-06-28T09:40:43.000Z</time>
</trkpt>
<trkpt lat="46.023518" lon="9.876928">
	<ele>1972.80</ele>
	<time>2022-06-28T09:40:44.000Z</time>
</trkpt>
<trkpt lat="46.023516" lon="9.876989">
	<ele>1972.80</ele>
	<time>2022-06-28T09:40:50.000Z</time>
</trkpt>
<trkpt lat="46.023519" lon="9.876939">
	<ele>1973.00</ele>
	<time>2022-06-28T09:40:54.000Z</time>
</trkpt>
<trkpt lat="46.023541" lon="9.876987">
	<ele>1973.20</ele>
	<time>2022-06-28T09:40:59.000Z</time>
</trkpt>
<trkpt lat="46.023539" lon="9.877100">
	<ele>1973.20</ele>
	<time>2022-06-28T09:41:11.000Z</time>
</trkpt>
<trkpt lat="46.023546" lon="9.877090">
	<ele>1973.40</ele>
	<time>2022-06-28T09:41:19.000Z</time>
</trkpt>
<trkpt lat="46.023542" lon="9.877035">
	<ele>1973.40</ele>
	<time>2022-06-28T09:41:27.000Z</time>
</trkpt>
<trkpt lat="46.023571" lon="9.877054">
	<ele>1973.60</ele>
	<time>2022-06-28T09:41:33.000Z</time>
</trkpt>
<trkpt lat="46.023578" lon="9.877045">
	<ele>1973.80</ele>
	<time>2022-06-28T09:41:35.000Z</time>
</trkpt>
<trkpt lat="46.023569" lon="9.877010">
	<ele>1974.00</ele>
	<time>2022-06-28T09:41:39.000Z</time>
</trkpt>
<trkpt lat="46.023567" lon="9.877005">
	<ele>1973.80</ele>
	<time>2022-06-28T09:41:44.000Z</time>
</trkpt>
<trkpt lat="46.023571" lon="9.877000">
	<ele>1973.80</ele>
	<time>2022-06-28T09:41:46.000Z</time>
</trkpt>
<trkpt lat="46.023574" lon="9.876973">
	<ele>1974.00</ele>
	<time>2022-06-28T09:41:51.000Z</time>
</trkpt>
<trkpt lat="46.023564" lon="9.876950">
	<ele>1974.00</ele>
	<time>2022-06-28T09:41:53.000Z</time>
</trkpt>
<trkpt lat="46.023572" lon="9.876918">
	<ele>1974.20</ele>
	<time>2022-06-28T09:41:56.000Z</time>
</trkpt>
<trkpt lat="46.023581" lon="9.876900">
	<ele>1974.20</ele>
	<time>2022-06-28T09:42:02.000Z</time>
</trkpt>
<trkpt lat="46.023583" lon="9.876905">
	<ele>1974.20</ele>
	<time>2022-06-28T09:42:07.000Z</time>
</trkpt>
<trkpt lat="46.023583" lon="9.876900">
	<ele>1974.20</ele>
	<time>2022-06-28T09:42:12.000Z</time>
</trkpt>
<trkpt lat="46.023565" lon="9.876881">
	<ele>1974.40</ele>
	<time>2022-06-28T09:42:18.000Z</time>
</trkpt>
<trkpt lat="46.023561" lon="9.876855">
	<ele>1974.60</ele>
	<time>2022-06-28T09:42:23.000Z</time>
</trkpt>
<trkpt lat="46.023556" lon="9.876866">
	<ele>1974.80</ele>
	<time>2022-06-28T09:42:27.000Z</time>
</trkpt>
<trkpt lat="46.023556" lon="9.876865">
	<ele>1974.80</ele>
	<time>2022-06-28T09:42:28.000Z</time>
</trkpt>
<trkpt lat="46.023572" lon="9.876860">
	<ele>1974.80</ele>
	<time>2022-06-28T09:42:35.000Z</time>
</trkpt>
<trkpt lat="46.023583" lon="9.876870">
	<ele>1975.00</ele>
	<time>2022-06-28T09:42:40.000Z</time>
</trkpt>
<trkpt lat="46.023584" lon="9.876868">
	<ele>1975.00</ele>
	<time>2022-06-28T09:42:42.000Z</time>
</trkpt>
<trkpt lat="46.023595" lon="9.876821">
	<ele>1975.00</ele>
	<time>2022-06-28T09:42:48.000Z</time>
</trkpt>
<trkpt lat="46.023589" lon="9.876863">
	<ele>1975.00</ele>
	<time>2022-06-28T09:42:52.000Z</time>
</trkpt>
<trkpt lat="46.023584" lon="9.876861">
	<ele>1975.00</ele>
	<time>2022-06-28T09:42:53.000Z</time>
</trkpt>
<trkpt lat="46.023587" lon="9.876887">
	<ele>1975.00</ele>
	<time>2022-06-28T09:42:57.000Z</time>
</trkpt>
<trkpt lat="46.023586" lon="9.876872">
	<ele>1975.00</ele>
	<time>2022-06-28T09:43:02.000Z</time>
</trkpt>
<trkpt lat="46.023588" lon="9.876897">
	<ele>1975.00</ele>
	<time>2022-06-28T09:43:08.000Z</time>
</trkpt>
<trkpt lat="46.023586" lon="9.876904">
	<ele>1975.00</ele>
	<time>2022-06-28T09:43:12.000Z</time>
</trkpt>
<trkpt lat="46.023581" lon="9.876905">
	<ele>1975.00</ele>
	<time>2022-06-28T09:43:14.000Z</time>
</trkpt>
<trkpt lat="46.023569" lon="9.876914">
	<ele>1975.00</ele>
	<time>2022-06-28T09:43:19.000Z</time>
</trkpt>
<trkpt lat="46.023575" lon="9.876899">
	<ele>1975.00</ele>
	<time>2022-06-28T09:43:24.000Z</time>
</trkpt>
<trkpt lat="46.023586" lon="9.876909">
	<ele>1975.00</ele>
	<time>2022-06-28T09:43:28.000Z</time>
</trkpt>
<trkpt lat="46.023592" lon="9.876904">
	<ele>1975.00</ele>
	<time>2022-06-28T09:43:29.000Z</time>
</trkpt>
<trkpt lat="46.023575" lon="9.876907">
	<ele>1975.00</ele>
	<time>2022-06-28T09:43:33.000Z</time>
</trkpt>
<trkpt lat="46.023573" lon="9.876959">
	<ele>1975.00</ele>
	<time>2022-06-28T09:43:37.000Z</time>
</trkpt>
<trkpt lat="46.023585" lon="9.877014">
	<ele>1975.00</ele>
	<time>2022-06-28T09:43:41.000Z</time>
</trkpt>
<trkpt lat="46.023584" lon="9.877020">
	<ele>1975.00</ele>
	<time>2022-06-28T09:43:43.000Z</time>
</trkpt>
<trkpt lat="46.023575" lon="9.877013">
	<ele>1975.00</ele>
	<time>2022-06-28T09:43:46.000Z</time>
</trkpt>
<trkpt lat="46.023571" lon="9.877005">
	<ele>1975.00</ele>
	<time>2022-06-28T09:43:48.000Z</time>
</trkpt>
<trkpt lat="46.023564" lon="9.876982">
	<ele>1975.00</ele>
	<time>2022-06-28T09:43:50.000Z</time>
</trkpt>
<trkpt lat="46.023575" lon="9.876983">
	<ele>1975.00</ele>
	<time>2022-06-28T09:43:54.000Z</time>
</trkpt>
<trkpt lat="46.023570" lon="9.876992">
	<ele>1975.00</ele>
	<time>2022-06-28T09:43:58.000Z</time>
</trkpt>
<trkpt lat="46.023558" lon="9.877004">
	<ele>1975.00</ele>
	<time>2022-06-28T09:44:01.000Z</time>
</trkpt>
<trkpt lat="46.023564" lon="9.877025">
	<ele>1975.00</ele>
	<time>2022-06-28T09:44:04.000Z</time>
</trkpt>
<trkpt lat="46.023571" lon="9.877023">
	<ele>1975.00</ele>
	<time>2022-06-28T09:44:09.000Z</time>
</trkpt>
<trkpt lat="46.023553" lon="9.877029">
	<ele>1975.00</ele>
	<time>2022-06-28T09:44:13.000Z</time>
</trkpt>
<trkpt lat="46.023536" lon="9.877053">
	<ele>1975.00</ele>
	<time>2022-06-28T09:44:15.000Z</time>
</trkpt>
<trkpt lat="46.023523" lon="9.877080">
	<ele>1975.00</ele>
	<time>2022-06-28T09:44:17.000Z</time>
</trkpt>
<trkpt lat="46.023507" lon="9.877104">
	<ele>1975.00</ele>
	<time>2022-06-28T09:44:19.000Z</time>
</trkpt>
<trkpt lat="46.023493" lon="9.877126">
	<ele>1975.60</ele>
	<time>2022-06-28T09:44:21.000Z</time>
</trkpt>
<trkpt lat="46.023489" lon="9.877136">
	<ele>1975.80</ele>
	<time>2022-06-28T09:44:22.000Z</time>
</trkpt>
<trkpt lat="46.023485" lon="9.877149">
	<ele>1976.00</ele>
	<time>2022-06-28T09:44:23.000Z</time>
</trkpt>
<trkpt lat="46.023478" lon="9.877159">
	<ele>1976.00</ele>
	<time>2022-06-28T09:44:24.000Z</time>
</trkpt>
<trkpt lat="46.023464" lon="9.877198">
	<ele>1976.00</ele>
	<time>2022-06-28T09:44:29.000Z</time>
</trkpt>
<trkpt lat="46.023467" lon="9.877210">
	<ele>1976.00</ele>
	<time>2022-06-28T09:44:30.000Z</time>
</trkpt>
<trkpt lat="46.023490" lon="9.877220">
	<ele>1976.00</ele>
	<time>2022-06-28T09:44:32.000Z</time>
</trkpt>
<trkpt lat="46.023504" lon="9.877217">
	<ele>1975.80</ele>
	<time>2022-06-28T09:44:34.000Z</time>
</trkpt>
<trkpt lat="46.023506" lon="9.877219">
	<ele>1975.80</ele>
	<time>2022-06-28T09:44:36.000Z</time>
</trkpt>
<trkpt lat="46.023502" lon="9.877218">
	<ele>1975.80</ele>
	<time>2022-06-28T09:44:38.000Z</time>
</trkpt>
<trkpt lat="46.023490" lon="9.877198">
	<ele>1975.60</ele>
	<time>2022-06-28T09:44:55.000Z</time>
</trkpt>
<trkpt lat="46.023483" lon="9.877198">
	<ele>1975.40</ele>
	<time>2022-06-28T09:45:04.000Z</time>
</trkpt>
<trkpt lat="46.023482" lon="9.877198">
	<ele>1975.40</ele>
	<time>2022-06-28T09:45:08.000Z</time>
</trkpt>
<trkpt lat="46.023479" lon="9.877205">
	<ele>1975.00</ele>
	<time>2022-06-28T09:45:43.000Z</time>
</trkpt>
<trkpt lat="46.023465" lon="9.877198">
	<ele>1975.00</ele>
	<time>2022-06-28T09:45:49.000Z</time>
</trkpt>
<trkpt lat="46.023439" lon="9.877103">
	<ele>1975.40</ele>
	<time>2022-06-28T09:46:21.000Z</time>
</trkpt>
<trkpt lat="46.023437" lon="9.877077">
	<ele>1975.40</ele>
	<time>2022-06-28T09:46:22.000Z</time>
</trkpt>
<trkpt lat="46.023420" lon="9.876907">
	<ele>1975.20</ele>
	<time>2022-06-28T09:46:31.000Z</time>
</trkpt>
<trkpt lat="46.023428" lon="9.876872">
	<ele>1975.00</ele>
	<time>2022-06-28T09:46:34.000Z</time>
</trkpt>
<trkpt lat="46.023453" lon="9.876859">
	<ele>1975.00</ele>
	<time>2022-06-28T09:46:37.000Z</time>
</trkpt>
<trkpt lat="46.023459" lon="9.876852">
	<ele>1975.00</ele>
	<time>2022-06-28T09:46:38.000Z</time>
</trkpt>
<trkpt lat="46.023460" lon="9.876854">
	<ele>1974.80</ele>
	<time>2022-06-28T09:46:40.000Z</time>
</trkpt>
<trkpt lat="46.023463" lon="9.876858">
	<ele>1974.80</ele>
	<time>2022-06-28T09:46:41.000Z</time>
</trkpt>
<trkpt lat="46.023473" lon="9.876882">
	<ele>1974.80</ele>
	<time>2022-06-28T09:46:43.000Z</time>
</trkpt>
<trkpt lat="46.023486" lon="9.876926">
	<ele>1974.80</ele>
	<time>2022-06-28T09:46:45.000Z</time>
</trkpt>
<trkpt lat="46.023489" lon="9.876925">
	<ele>1974.60</ele>
	<time>2022-06-28T09:46:46.000Z</time>
</trkpt>
<trkpt lat="46.023484" lon="9.876925">
	<ele>1974.80</ele>
	<time>2022-06-28T09:46:53.000Z</time>
</trkpt>
<trkpt lat="46.023484" lon="9.876925">
	<ele>1974.80</ele>
	<time>2022-06-28T09:46:57.000Z</time>
</trkpt>
<trkpt lat="46.023733" lon="9.876978">
	<ele>1974.40</ele>
	<time>2022-06-28T09:48:14.000Z</time>
</trkpt>
<trkpt lat="46.023673" lon="9.876854">
	<ele>1974.40</ele>
	<time>2022-06-28T09:48:16.000Z</time>
</trkpt>
<trkpt lat="46.023621" lon="9.876837">
	<ele>1974.80</ele>
	<time>2022-06-28T09:48:23.000Z</time>
</trkpt>
<trkpt lat="46.023614" lon="9.876815">
	<ele>1974.80</ele>
	<time>2022-06-28T09:48:28.000Z</time>
</trkpt>
<trkpt lat="46.023561" lon="9.876852">
	<ele>1974.80</ele>
	<time>2022-06-28T09:48:35.000Z</time>
</trkpt>
<trkpt lat="46.023547" lon="9.876855">
	<ele>1974.80</ele>
	<time>2022-06-28T09:48:37.000Z</time>
</trkpt>
<trkpt lat="46.023524" lon="9.876827">
	<ele>1974.60</ele>
	<time>2022-06-28T09:48:40.000Z</time>
</trkpt>
<trkpt lat="46.023518" lon="9.876825">
	<ele>1974.60</ele>
	<time>2022-06-28T09:48:41.000Z</time>
</trkpt>
<trkpt lat="46.023519" lon="9.876842">
	<ele>1974.20</ele>
	<time>2022-06-28T09:48:49.000Z</time>
</trkpt>
<trkpt lat="46.023522" lon="9.876826">
	<ele>1974.60</ele>
	<time>2022-06-28T09:48:57.000Z</time>
</trkpt>
<trkpt lat="46.023530" lon="9.876844">
	<ele>1974.60</ele>
	<time>2022-06-28T09:49:03.000Z</time>
</trkpt>
<trkpt lat="46.023534" lon="9.876852">
	<ele>1974.60</ele>
	<time>2022-06-28T09:49:04.000Z</time>
</trkpt>
<trkpt lat="46.023535" lon="9.876859">
	<ele>1974.60</ele>
	<time>2022-06-28T09:49:11.000Z</time>
</trkpt>
<trkpt lat="46.023533" lon="9.876858">
	<ele>1974.60</ele>
	<time>2022-06-28T09:49:19.000Z</time>
</trkpt>
<trkpt lat="46.023533" lon="9.876857">
	<ele>1974.60</ele>
	<time>2022-06-28T09:49:20.000Z</time>
</trkpt>
<trkpt lat="46.023502" lon="9.876901">
	<ele>1974.60</ele>
	<time>2022-06-28T09:49:30.000Z</time>
</trkpt>
<trkpt lat="46.023504" lon="9.876920">
	<ele>1974.60</ele>
	<time>2022-06-28T09:49:36.000Z</time>
</trkpt>
<trkpt lat="46.023509" lon="9.876894">
	<ele>1974.60</ele>
	<time>2022-06-28T09:49:50.000Z</time>
</trkpt>
<trkpt lat="46.023503" lon="9.876847">
	<ele>1974.60</ele>
	<time>2022-06-28T09:49:58.000Z</time>
</trkpt>
<trkpt lat="46.023504" lon="9.876831">
	<ele>1974.60</ele>
	<time>2022-06-28T09:50:06.000Z</time>
</trkpt>
<trkpt lat="46.023513" lon="9.876861">
	<ele>1974.60</ele>
	<time>2022-06-28T09:50:12.000Z</time>
</trkpt>
<trkpt lat="46.023502" lon="9.876826">
	<ele>1974.60</ele>
	<time>2022-06-28T09:50:18.000Z</time>
</trkpt>
<trkpt lat="46.023501" lon="9.876800">
	<ele>1974.60</ele>
	<time>2022-06-28T09:50:26.000Z</time>
</trkpt>
<trkpt lat="46.023512" lon="9.876788">
	<ele>1974.60</ele>
	<time>2022-06-28T09:50:42.000Z</time>
</trkpt>
<trkpt lat="46.023527" lon="9.876809">
	<ele>1974.60</ele>
	<time>2022-06-28T09:50:51.000Z</time>
</trkpt>
<trkpt lat="46.023536" lon="9.876811">
	<ele>1974.60</ele>
	<time>2022-06-28T09:50:58.000Z</time>
</trkpt>
<trkpt lat="46.023544" lon="9.876822">
	<ele>1974.60</ele>
	<time>2022-06-28T09:51:05.000Z</time>
</trkpt>
<trkpt lat="46.023542" lon="9.876803">
	<ele>1974.60</ele>
	<time>2022-06-28T09:51:10.000Z</time>
</trkpt>
<trkpt lat="46.023544" lon="9.876797">
	<ele>1974.60</ele>
	<time>2022-06-28T09:51:12.000Z</time>
</trkpt>
<trkpt lat="46.023558" lon="9.876807">
	<ele>1974.60</ele>
	<time>2022-06-28T09:51:21.000Z</time>
</trkpt>
<trkpt lat="46.023561" lon="9.876807">
	<ele>1974.60</ele>
	<time>2022-06-28T09:51:26.000Z</time>
</trkpt>
<trkpt lat="46.023574" lon="9.876849">
	<ele>1974.60</ele>
	<time>2022-06-28T09:51:35.000Z</time>
</trkpt>
<trkpt lat="46.023571" lon="9.876857">
	<ele>1974.60</ele>
	<time>2022-06-28T09:51:36.000Z</time>
</trkpt>
<trkpt lat="46.023560" lon="9.876791">
	<ele>1974.60</ele>
	<time>2022-06-28T09:51:42.000Z</time>
</trkpt>
<trkpt lat="46.023559" lon="9.876787">
	<ele>1974.60</ele>
	<time>2022-06-28T09:51:48.000Z</time>
</trkpt>
<trkpt lat="46.023557" lon="9.876794">
	<ele>1974.60</ele>
	<time>2022-06-28T09:51:55.000Z</time>
</trkpt>
<trkpt lat="46.023546" lon="9.876825">
	<ele>1974.60</ele>
	<time>2022-06-28T09:52:04.000Z</time>
</trkpt>
<trkpt lat="46.023521" lon="9.876835">
	<ele>1974.60</ele>
	<time>2022-06-28T09:52:15.000Z</time>
</trkpt>
<trkpt lat="46.023522" lon="9.876835">
	<ele>1974.60</ele>
	<time>2022-06-28T09:52:23.000Z</time>
</trkpt>
<trkpt lat="46.023524" lon="9.876800">
	<ele>1974.60</ele>
	<time>2022-06-28T09:52:29.000Z</time>
</trkpt>
<trkpt lat="46.023526" lon="9.876816">
	<ele>1974.60</ele>
	<time>2022-06-28T09:52:35.000Z</time>
</trkpt>
<trkpt lat="46.023525" lon="9.876820">
	<ele>1974.60</ele>
	<time>2022-06-28T09:52:36.000Z</time>
</trkpt>
<trkpt lat="46.023523" lon="9.876825">
	<ele>1974.60</ele>
	<time>2022-06-28T09:52:42.000Z</time>
</trkpt>
<trkpt lat="46.023515" lon="9.876822">
	<ele>1974.60</ele>
	<time>2022-06-28T09:52:50.000Z</time>
</trkpt>
<trkpt lat="46.023522" lon="9.876819">
	<ele>1974.60</ele>
	<time>2022-06-28T09:52:59.000Z</time>
</trkpt>
<trkpt lat="46.023515" lon="9.876787">
	<ele>1974.60</ele>
	<time>2022-06-28T09:53:03.000Z</time>
</trkpt>
<trkpt lat="46.023508" lon="9.876769">
	<ele>1974.60</ele>
	<time>2022-06-28T09:53:05.000Z</time>
</trkpt>
<trkpt lat="46.023493" lon="9.876709">
	<ele>1974.60</ele>
	<time>2022-06-28T09:53:14.000Z</time>
</trkpt>
<trkpt lat="46.023502" lon="9.876700">
	<ele>1974.60</ele>
	<time>2022-06-28T09:53:20.000Z</time>
</trkpt>
<trkpt lat="46.023489" lon="9.876677">
	<ele>1974.60</ele>
	<time>2022-06-28T09:53:26.000Z</time>
</trkpt>
<trkpt lat="46.023494" lon="9.876675">
	<ele>1974.60</ele>
	<time>2022-06-28T09:53:34.000Z</time>
</trkpt>
<trkpt lat="46.023485" lon="9.876672">
	<ele>1974.60</ele>
	<time>2022-06-28T09:53:39.000Z</time>
</trkpt>
<trkpt lat="46.023477" lon="9.876666">
	<ele>1974.60</ele>
	<time>2022-06-28T09:53:43.000Z</time>
</trkpt>
<trkpt lat="46.023496" lon="9.876738">
	<ele>1974.60</ele>
	<time>2022-06-28T09:54:04.000Z</time>
</trkpt>
<trkpt lat="46.023496" lon="9.876802">
	<ele>1974.60</ele>
	<time>2022-06-28T09:54:12.000Z</time>
</trkpt>
<trkpt lat="46.023505" lon="9.876786">
	<ele>1974.60</ele>
	<time>2022-06-28T09:54:18.000Z</time>
</trkpt>
<trkpt lat="46.023514" lon="9.876800">
	<ele>1974.60</ele>
	<time>2022-06-28T09:54:23.000Z</time>
</trkpt>
<trkpt lat="46.023530" lon="9.876829">
	<ele>1974.60</ele>
	<time>2022-06-28T09:54:27.000Z</time>
</trkpt>
<trkpt lat="46.023541" lon="9.876842">
	<ele>1974.60</ele>
	<time>2022-06-28T09:54:32.000Z</time>
</trkpt>
<trkpt lat="46.023538" lon="9.876828">
	<ele>1974.60</ele>
	<time>2022-06-28T09:54:37.000Z</time>
</trkpt>
<trkpt lat="46.023540" lon="9.876860">
	<ele>1974.60</ele>
	<time>2022-06-28T09:54:42.000Z</time>
</trkpt>
<trkpt lat="46.023531" lon="9.876840">
	<ele>1974.60</ele>
	<time>2022-06-28T09:54:48.000Z</time>
</trkpt>
<trkpt lat="46.023516" lon="9.876794">
	<ele>1974.60</ele>
	<time>2022-06-28T09:54:52.000Z</time>
</trkpt>
<trkpt lat="46.023514" lon="9.876781">
	<ele>1974.60</ele>
	<time>2022-06-28T09:54:54.000Z</time>
</trkpt>
<trkpt lat="46.023485" lon="9.876731">
	<ele>1974.60</ele>
	<time>2022-06-28T09:55:01.000Z</time>
</trkpt>
<trkpt lat="46.023424" lon="9.876726">
	<ele>1974.60</ele>
	<time>2022-06-28T09:55:07.000Z</time>
</trkpt>
<trkpt lat="46.023443" lon="9.876720">
	<ele>1974.60</ele>
	<time>2022-06-28T09:55:11.000Z</time>
</trkpt>
<trkpt lat="46.023496" lon="9.876718">
	<ele>1974.60</ele>
	<time>2022-06-28T09:55:16.000Z</time>
</trkpt>
<trkpt lat="46.023514" lon="9.876718">
	<ele>1974.60</ele>
	<time>2022-06-28T09:55:18.000Z</time>
</trkpt>
<trkpt lat="46.023517" lon="9.876702">
	<ele>1974.60</ele>
	<time>2022-06-28T09:55:19.000Z</time>
</trkpt>
<trkpt lat="46.023542" lon="9.876681">
	<ele>1974.20</ele>
	<time>2022-06-28T09:55:26.000Z</time>
</trkpt>
</trkseg>
</trk>
</gpx>
